<?xml version="1.0" encoding="UTF-8" standalone="no" ?>
<gpx xmlns="http://www.topografix.com/GPX/1/1" xmlns:xsi="http://www.w3.org/2001/XMLSchema-instance" xsi:schemaLocation="http://www.topografix.com/GPX/1/1 http://www.topografix.com/GPX/1/1/gpx.xsd" version="1.1" creator="VisuGPX - https://www.visugpx.com">
  <metadata>
    <name>Vieil Baugé</name>
    <desc><![CDATA[Au pays des clochers tors et des belles demeures. Circuit balisé (à peu près)]]></desc>
  </metadata>
  <trk>
    <name><![CDATA[L'Echallerie]]></name>
    <desc><![CDATA[]]></desc>
    <trkseg>
      <trkpt lat="47.5298" lon="-0.11636">
        <ele>42</ele>
        <time>2013-04-21T07:29:06.999Z</time>
      </trkpt>
      <trkpt lat="47.52985" lon="-0.11635">
        <ele>42</ele>
        <time>2013-04-21T07:29:16.999Z</time>
      </trkpt>
      <trkpt lat="47.52985" lon="-0.11634">
        <ele>42</ele>
        <time>2013-04-21T07:29:17.999Z</time>
      </trkpt>
      <trkpt lat="47.5299" lon="-0.11633">
        <ele>42</ele>
        <time>2013-04-21T07:29:23.999Z</time>
      </trkpt>
      <trkpt lat="47.5299" lon="-0.11633">
        <ele>42</ele>
        <time>2013-04-21T07:29:24.999Z</time>
      </trkpt>
      <trkpt lat="47.52993" lon="-0.11636">
        <ele>42</ele>
        <time>2013-04-21T07:29:49.999Z</time>
      </trkpt>
      <trkpt lat="47.52994" lon="-0.11638">
        <ele>42</ele>
        <time>2013-04-21T07:29:50.999Z</time>
      </trkpt>
      <trkpt lat="47.52997" lon="-0.11643">
        <ele>42</ele>
        <time>2013-04-21T07:29:57.999Z</time>
      </trkpt>
      <trkpt lat="47.52997" lon="-0.11644">
        <ele>42</ele>
        <time>2013-04-21T07:29:58.999Z</time>
      </trkpt>
      <trkpt lat="47.53" lon="-0.11649">
        <ele>43</ele>
        <time>2013-04-21T07:30:16.999Z</time>
      </trkpt>
      <trkpt lat="47.53" lon="-0.1165">
        <ele>42</ele>
        <time>2013-04-21T07:30:17.999Z</time>
      </trkpt>
      <trkpt lat="47.53002" lon="-0.11654">
        <ele>42</ele>
        <time>2013-04-21T07:30:21.999Z</time>
      </trkpt>
      <trkpt lat="47.53003" lon="-0.11656">
        <ele>43</ele>
        <time>2013-04-21T07:30:22.999Z</time>
      </trkpt>
      <trkpt lat="47.53005" lon="-0.1166">
        <ele>43</ele>
        <time>2013-04-21T07:30:25.999Z</time>
      </trkpt>
      <trkpt lat="47.53005" lon="-0.11663">
        <ele>43</ele>
        <time>2013-04-21T07:30:26.999Z</time>
      </trkpt>
      <trkpt lat="47.53005" lon="-0.11668">
        <ele>43</ele>
        <time>2013-04-21T07:30:29.999Z</time>
      </trkpt>
      <trkpt lat="47.53005" lon="-0.1167">
        <ele>43</ele>
        <time>2013-04-21T07:30:30.999Z</time>
      </trkpt>
      <trkpt lat="47.53007" lon="-0.11675">
        <ele>43</ele>
        <time>2013-04-21T07:30:35.999Z</time>
      </trkpt>
      <trkpt lat="47.53007" lon="-0.11676">
        <ele>43</ele>
        <time>2013-04-21T07:30:36.999Z</time>
      </trkpt>
      <trkpt lat="47.53009" lon="-0.11679">
        <ele>43</ele>
        <time>2013-04-21T07:30:38.999Z</time>
      </trkpt>
      <trkpt lat="47.5301" lon="-0.11681">
        <ele>43</ele>
        <time>2013-04-21T07:30:39.999Z</time>
      </trkpt>
      <trkpt lat="47.5301" lon="-0.11687">
        <ele>43</ele>
        <time>2013-04-21T07:30:42.999Z</time>
      </trkpt>
      <trkpt lat="47.5301" lon="-0.1169">
        <ele>43</ele>
        <time>2013-04-21T07:30:43.999Z</time>
      </trkpt>
      <trkpt lat="47.53012" lon="-0.11695">
        <ele>43</ele>
        <time>2013-04-21T07:30:50.999Z</time>
      </trkpt>
      <trkpt lat="47.53012" lon="-0.11696">
        <ele>42</ele>
        <time>2013-04-21T07:30:51.999Z</time>
      </trkpt>
      <trkpt lat="47.53014" lon="-0.11701">
        <ele>42</ele>
        <time>2013-04-21T07:30:54.999Z</time>
      </trkpt>
      <trkpt lat="47.53014" lon="-0.11702">
        <ele>42</ele>
        <time>2013-04-21T07:30:55.999Z</time>
      </trkpt>
      <trkpt lat="47.53016" lon="-0.11707">
        <ele>42</ele>
        <time>2013-04-21T07:30:58.999Z</time>
      </trkpt>
      <trkpt lat="47.53017" lon="-0.11709">
        <ele>42</ele>
        <time>2013-04-21T07:30:59.999Z</time>
      </trkpt>
      <trkpt lat="47.53019" lon="-0.11711">
        <ele>42</ele>
        <time>2013-04-21T07:31:01.999Z</time>
      </trkpt>
      <trkpt lat="47.5302" lon="-0.11713">
        <ele>42</ele>
        <time>2013-04-21T07:31:02.999Z</time>
      </trkpt>
      <trkpt lat="47.53022" lon="-0.11719">
        <ele>42</ele>
        <time>2013-04-21T07:31:06.999Z</time>
      </trkpt>
      <trkpt lat="47.53022" lon="-0.1172">
        <ele>42</ele>
        <time>2013-04-21T07:31:07.999Z</time>
      </trkpt>
      <trkpt lat="47.53025" lon="-0.11724">
        <ele>42</ele>
        <time>2013-04-21T07:31:12.999Z</time>
      </trkpt>
      <trkpt lat="47.53026" lon="-0.11725">
        <ele>42</ele>
        <time>2013-04-21T07:31:13.999Z</time>
      </trkpt>
      <trkpt lat="47.53029" lon="-0.11729">
        <ele>42</ele>
        <time>2013-04-21T07:31:15.999Z</time>
      </trkpt>
      <trkpt lat="47.5303" lon="-0.11731">
        <ele>42</ele>
        <time>2013-04-21T07:31:16.999Z</time>
      </trkpt>
      <trkpt lat="47.53033" lon="-0.11734">
        <ele>42</ele>
        <time>2013-04-21T07:31:18.999Z</time>
      </trkpt>
      <trkpt lat="47.53034" lon="-0.11735">
        <ele>42</ele>
        <time>2013-04-21T07:31:19.999Z</time>
      </trkpt>
      <trkpt lat="47.53036" lon="-0.11741">
        <ele>42</ele>
        <time>2013-04-21T07:31:23.999Z</time>
      </trkpt>
      <trkpt lat="47.53036" lon="-0.11742">
        <ele>42</ele>
        <time>2013-04-21T07:31:24.999Z</time>
      </trkpt>
      <trkpt lat="47.53038" lon="-0.11747">
        <ele>42</ele>
        <time>2013-04-21T07:31:29.999Z</time>
      </trkpt>
      <trkpt lat="47.53038" lon="-0.11748">
        <ele>42</ele>
        <time>2013-04-21T07:31:30.999Z</time>
      </trkpt>
      <trkpt lat="47.5304" lon="-0.11754">
        <ele>43</ele>
        <time>2013-04-21T07:31:34.999Z</time>
      </trkpt>
      <trkpt lat="47.53041" lon="-0.11755">
        <ele>43</ele>
        <time>2013-04-21T07:31:35.999Z</time>
      </trkpt>
      <trkpt lat="47.53043" lon="-0.1176">
        <ele>43</ele>
        <time>2013-04-21T07:31:39.999Z</time>
      </trkpt>
      <trkpt lat="47.53044" lon="-0.11761">
        <ele>43</ele>
        <time>2013-04-21T07:31:40.999Z</time>
      </trkpt>
      <trkpt lat="47.53046" lon="-0.11765">
        <ele>43</ele>
        <time>2013-04-21T07:31:43.999Z</time>
      </trkpt>
      <trkpt lat="47.53046" lon="-0.11768">
        <ele>43</ele>
        <time>2013-04-21T07:31:44.999Z</time>
      </trkpt>
      <trkpt lat="47.53048" lon="-0.11772">
        <ele>43</ele>
        <time>2013-04-21T07:31:47.999Z</time>
      </trkpt>
      <trkpt lat="47.53049" lon="-0.11774">
        <ele>43</ele>
        <time>2013-04-21T07:31:48.999Z</time>
      </trkpt>
      <trkpt lat="47.53052" lon="-0.11778">
        <ele>43</ele>
        <time>2013-04-21T07:31:51.999Z</time>
      </trkpt>
      <trkpt lat="47.53053" lon="-0.11779">
        <ele>43</ele>
        <time>2013-04-21T07:31:52.999Z</time>
      </trkpt>
      <trkpt lat="47.53055" lon="-0.11783">
        <ele>43</ele>
        <time>2013-04-21T07:31:54.999Z</time>
      </trkpt>
      <trkpt lat="47.53055" lon="-0.11785">
        <ele>43</ele>
        <time>2013-04-21T07:31:55.999Z</time>
      </trkpt>
      <trkpt lat="47.53057" lon="-0.11791">
        <ele>43</ele>
        <time>2013-04-21T07:31:59.999Z</time>
      </trkpt>
      <trkpt lat="47.53057" lon="-0.11792">
        <ele>43</ele>
        <time>2013-04-21T07:32:00.999Z</time>
      </trkpt>
      <trkpt lat="47.53059" lon="-0.11798">
        <ele>43</ele>
        <time>2013-04-21T07:32:02.999Z</time>
      </trkpt>
      <trkpt lat="47.53059" lon="-0.11798">
        <ele>43</ele>
        <time>2013-04-21T07:32:03.999Z</time>
      </trkpt>
      <trkpt lat="47.53062" lon="-0.11802">
        <ele>43</ele>
        <time>2013-04-21T07:32:08.999Z</time>
      </trkpt>
      <trkpt lat="47.53063" lon="-0.11803">
        <ele>43</ele>
        <time>2013-04-21T07:32:09.999Z</time>
      </trkpt>
      <trkpt lat="47.53066" lon="-0.11807">
        <ele>43</ele>
        <time>2013-04-21T07:32:12.999Z</time>
      </trkpt>
      <trkpt lat="47.53067" lon="-0.11809">
        <ele>43</ele>
        <time>2013-04-21T07:32:13.999Z</time>
      </trkpt>
      <trkpt lat="47.5307" lon="-0.11814">
        <ele>43</ele>
        <time>2013-04-21T07:32:17.999Z</time>
      </trkpt>
      <trkpt lat="47.5307" lon="-0.11815">
        <ele>43</ele>
        <time>2013-04-21T07:32:18.999Z</time>
      </trkpt>
      <trkpt lat="47.53072" lon="-0.11821">
        <ele>43</ele>
        <time>2013-04-21T07:32:22.999Z</time>
      </trkpt>
      <trkpt lat="47.53072" lon="-0.11822">
        <ele>43</ele>
        <time>2013-04-21T07:32:23.999Z</time>
      </trkpt>
      <trkpt lat="47.53075" lon="-0.11826">
        <ele>44</ele>
        <time>2013-04-21T07:32:26.999Z</time>
      </trkpt>
      <trkpt lat="47.53076" lon="-0.11828">
        <ele>44</ele>
        <time>2013-04-21T07:32:27.999Z</time>
      </trkpt>
      <trkpt lat="47.53078" lon="-0.11833">
        <ele>44</ele>
        <time>2013-04-21T07:32:30.999Z</time>
      </trkpt>
      <trkpt lat="47.53078" lon="-0.11834">
        <ele>44</ele>
        <time>2013-04-21T07:32:31.999Z</time>
      </trkpt>
      <trkpt lat="47.53081" lon="-0.11839">
        <ele>44</ele>
        <time>2013-04-21T07:32:35.999Z</time>
      </trkpt>
      <trkpt lat="47.53082" lon="-0.1184">
        <ele>44</ele>
        <time>2013-04-21T07:32:36.999Z</time>
      </trkpt>
      <trkpt lat="47.53084" lon="-0.11844">
        <ele>46</ele>
        <time>2013-04-21T07:32:41.999Z</time>
      </trkpt>
      <trkpt lat="47.53084" lon="-0.11846">
        <ele>46</ele>
        <time>2013-04-21T07:32:42.999Z</time>
      </trkpt>
      <trkpt lat="47.53085" lon="-0.11851">
        <ele>47</ele>
        <time>2013-04-21T07:32:45.999Z</time>
      </trkpt>
      <trkpt lat="47.53086" lon="-0.11853">
        <ele>47</ele>
        <time>2013-04-21T07:32:46.999Z</time>
      </trkpt>
      <trkpt lat="47.53088" lon="-0.11859">
        <ele>48</ele>
        <time>2013-04-21T07:32:51.999Z</time>
      </trkpt>
      <trkpt lat="47.53088" lon="-0.1186">
        <ele>48</ele>
        <time>2013-04-21T07:32:52.999Z</time>
      </trkpt>
      <trkpt lat="47.53089" lon="-0.11865">
        <ele>48</ele>
        <time>2013-04-21T07:32:57.999Z</time>
      </trkpt>
      <trkpt lat="47.53089" lon="-0.11867">
        <ele>48</ele>
        <time>2013-04-21T07:32:58.999Z</time>
      </trkpt>
      <trkpt lat="47.53091" lon="-0.11871">
        <ele>48</ele>
        <time>2013-04-21T07:33:03.999Z</time>
      </trkpt>
      <trkpt lat="47.53092" lon="-0.11872">
        <ele>48</ele>
        <time>2013-04-21T07:33:04.999Z</time>
      </trkpt>
      <trkpt lat="47.53095" lon="-0.11877">
        <ele>49</ele>
        <time>2013-04-21T07:33:09.999Z</time>
      </trkpt>
      <trkpt lat="47.53095" lon="-0.11878">
        <ele>49</ele>
        <time>2013-04-21T07:33:10.999Z</time>
      </trkpt>
      <trkpt lat="47.53097" lon="-0.11883">
        <ele>49</ele>
        <time>2013-04-21T07:33:26.999Z</time>
      </trkpt>
      <trkpt lat="47.53097" lon="-0.11884">
        <ele>49</ele>
        <time>2013-04-21T07:33:27.999Z</time>
      </trkpt>
      <trkpt lat="47.53099" lon="-0.11888">
        <ele>49</ele>
        <time>2013-04-21T07:33:30.999Z</time>
      </trkpt>
      <trkpt lat="47.531" lon="-0.11889">
        <ele>49</ele>
        <time>2013-04-21T07:33:31.999Z</time>
      </trkpt>
      <trkpt lat="47.53103" lon="-0.11893">
        <ele>49</ele>
        <time>2013-04-21T07:33:45.999Z</time>
      </trkpt>
      <trkpt lat="47.53103" lon="-0.11893">
        <ele>49</ele>
        <time>2013-04-21T07:33:46.999Z</time>
      </trkpt>
      <trkpt lat="47.53099" lon="-0.1189">
        <ele>49</ele>
        <time>2013-04-21T07:34:08.999Z</time>
      </trkpt>
      <trkpt lat="47.531" lon="-0.11889">
        <ele>49</ele>
        <time>2013-04-21T07:34:09.999Z</time>
      </trkpt>
      <trkpt lat="47.53101" lon="-0.11895">
        <ele>49</ele>
        <time>2013-04-21T07:34:30.999Z</time>
      </trkpt>
      <trkpt lat="47.53102" lon="-0.11896">
        <ele>49</ele>
        <time>2013-04-21T07:34:31.999Z</time>
      </trkpt>
      <trkpt lat="47.53105" lon="-0.11899">
        <ele>49</ele>
        <time>2013-04-21T07:34:38.999Z</time>
      </trkpt>
      <trkpt lat="47.53106" lon="-0.11899">
        <ele>49</ele>
        <time>2013-04-21T07:34:39.999Z</time>
      </trkpt>
      <trkpt lat="47.53108" lon="-0.11904">
        <ele>49</ele>
        <time>2013-04-21T07:34:43.999Z</time>
      </trkpt>
      <trkpt lat="47.53109" lon="-0.11905">
        <ele>50</ele>
        <time>2013-04-21T07:34:44.999Z</time>
      </trkpt>
      <trkpt lat="47.53112" lon="-0.11908">
        <ele>50</ele>
        <time>2013-04-21T07:34:47.999Z</time>
      </trkpt>
      <trkpt lat="47.53113" lon="-0.1191">
        <ele>50</ele>
        <time>2013-04-21T07:34:48.999Z</time>
      </trkpt>
      <trkpt lat="47.53115" lon="-0.11914">
        <ele>50</ele>
        <time>2013-04-21T07:34:54.999Z</time>
      </trkpt>
      <trkpt lat="47.53116" lon="-0.11915">
        <ele>50</ele>
        <time>2013-04-21T07:34:55.999Z</time>
      </trkpt>
      <trkpt lat="47.53118" lon="-0.11919">
        <ele>52</ele>
        <time>2013-04-21T07:35:00.999Z</time>
      </trkpt>
      <trkpt lat="47.53119" lon="-0.1192">
        <ele>52</ele>
        <time>2013-04-21T07:35:01.999Z</time>
      </trkpt>
      <trkpt lat="47.53118" lon="-0.11926">
        <ele>52</ele>
        <time>2013-04-21T07:35:05.999Z</time>
      </trkpt>
      <trkpt lat="47.5312" lon="-0.1193">
        <ele>52</ele>
        <time>2013-04-21T07:35:06.999Z</time>
      </trkpt>
      <trkpt lat="47.53123" lon="-0.11933">
        <ele>52</ele>
        <time>2013-04-21T07:35:09.999Z</time>
      </trkpt>
      <trkpt lat="47.53123" lon="-0.11934">
        <ele>52</ele>
        <time>2013-04-21T07:35:10.999Z</time>
      </trkpt>
      <trkpt lat="47.53126" lon="-0.11939">
        <ele>52</ele>
        <time>2013-04-21T07:35:14.999Z</time>
      </trkpt>
      <trkpt lat="47.53126" lon="-0.1194">
        <ele>52</ele>
        <time>2013-04-21T07:35:15.999Z</time>
      </trkpt>
      <trkpt lat="47.53129" lon="-0.11945">
        <ele>52</ele>
        <time>2013-04-21T07:35:18.999Z</time>
      </trkpt>
      <trkpt lat="47.5313" lon="-0.11946">
        <ele>52</ele>
        <time>2013-04-21T07:35:19.999Z</time>
      </trkpt>
      <trkpt lat="47.53131" lon="-0.1195">
        <ele>52</ele>
        <time>2013-04-21T07:35:22.999Z</time>
      </trkpt>
      <trkpt lat="47.53131" lon="-0.11952">
        <ele>52</ele>
        <time>2013-04-21T07:35:23.999Z</time>
      </trkpt>
      <trkpt lat="47.53133" lon="-0.11957">
        <ele>53</ele>
        <time>2013-04-21T07:35:26.999Z</time>
      </trkpt>
      <trkpt lat="47.53134" lon="-0.11959">
        <ele>53</ele>
        <time>2013-04-21T07:35:27.999Z</time>
      </trkpt>
      <trkpt lat="47.53138" lon="-0.11962">
        <ele>53</ele>
        <time>2013-04-21T07:35:30.999Z</time>
      </trkpt>
      <trkpt lat="47.5314" lon="-0.11964">
        <ele>53</ele>
        <time>2013-04-21T07:35:31.999Z</time>
      </trkpt>
      <trkpt lat="47.53142" lon="-0.1197">
        <ele>53</ele>
        <time>2013-04-21T07:35:40.999Z</time>
      </trkpt>
      <trkpt lat="47.53143" lon="-0.11971">
        <ele>53</ele>
        <time>2013-04-21T07:35:41.999Z</time>
      </trkpt>
      <trkpt lat="47.53143" lon="-0.11977">
        <ele>53</ele>
        <time>2013-04-21T07:35:44.999Z</time>
      </trkpt>
      <trkpt lat="47.53142" lon="-0.11979">
        <ele>53</ele>
        <time>2013-04-21T07:35:45.999Z</time>
      </trkpt>
      <trkpt lat="47.5314" lon="-0.11982">
        <ele>53</ele>
        <time>2013-04-21T07:35:48.999Z</time>
      </trkpt>
      <trkpt lat="47.53139" lon="-0.11984">
        <ele>53</ele>
        <time>2013-04-21T07:35:49.999Z</time>
      </trkpt>
      <trkpt lat="47.5314" lon="-0.1199">
        <ele>53</ele>
        <time>2013-04-21T07:35:53.999Z</time>
      </trkpt>
      <trkpt lat="47.5314" lon="-0.11992">
        <ele>53</ele>
        <time>2013-04-21T07:35:54.999Z</time>
      </trkpt>
      <trkpt lat="47.5314" lon="-0.11998">
        <ele>53</ele>
        <time>2013-04-21T07:35:57.999Z</time>
      </trkpt>
      <trkpt lat="47.53139" lon="-0.11999">
        <ele>53</ele>
        <time>2013-04-21T07:35:58.999Z</time>
      </trkpt>
      <trkpt lat="47.53137" lon="-0.12004">
        <ele>52</ele>
        <time>2013-04-21T07:36:03.999Z</time>
      </trkpt>
      <trkpt lat="47.53136" lon="-0.12004">
        <ele>52</ele>
        <time>2013-04-21T07:36:04.999Z</time>
      </trkpt>
      <trkpt lat="47.53137" lon="-0.1201">
        <ele>52</ele>
        <time>2013-04-21T07:36:07.999Z</time>
      </trkpt>
      <trkpt lat="47.53138" lon="-0.12011">
        <ele>52</ele>
        <time>2013-04-21T07:36:08.999Z</time>
      </trkpt>
      <trkpt lat="47.53137" lon="-0.12016">
        <ele>52</ele>
        <time>2013-04-21T07:36:15.999Z</time>
      </trkpt>
      <trkpt lat="47.53137" lon="-0.12018">
        <ele>52</ele>
        <time>2013-04-21T07:36:16.999Z</time>
      </trkpt>
      <trkpt lat="47.53137" lon="-0.12024">
        <ele>52</ele>
        <time>2013-04-21T07:36:19.999Z</time>
      </trkpt>
      <trkpt lat="47.53137" lon="-0.12026">
        <ele>52</ele>
        <time>2013-04-21T07:36:20.999Z</time>
      </trkpt>
      <trkpt lat="47.53137" lon="-0.12031">
        <ele>52</ele>
        <time>2013-04-21T07:36:23.999Z</time>
      </trkpt>
      <trkpt lat="47.53136" lon="-0.12034">
        <ele>52</ele>
        <time>2013-04-21T07:36:24.999Z</time>
      </trkpt>
      <trkpt lat="47.53136" lon="-0.1204">
        <ele>52</ele>
        <time>2013-04-21T07:36:28.999Z</time>
      </trkpt>
      <trkpt lat="47.53136" lon="-0.12041">
        <ele>52</ele>
        <time>2013-04-21T07:36:29.999Z</time>
      </trkpt>
      <trkpt lat="47.53136" lon="-0.12047">
        <ele>52</ele>
        <time>2013-04-21T07:36:33.999Z</time>
      </trkpt>
      <trkpt lat="47.53136" lon="-0.12049">
        <ele>52</ele>
        <time>2013-04-21T07:36:34.999Z</time>
      </trkpt>
      <trkpt lat="47.53138" lon="-0.12052">
        <ele>52</ele>
        <time>2013-04-21T07:36:39.999Z</time>
      </trkpt>
      <trkpt lat="47.5314" lon="-0.12054">
        <ele>52</ele>
        <time>2013-04-21T07:36:40.999Z</time>
      </trkpt>
      <trkpt lat="47.53141" lon="-0.12057">
        <ele>52</ele>
        <time>2013-04-21T07:36:42.999Z</time>
      </trkpt>
      <trkpt lat="47.53141" lon="-0.1206">
        <ele>52</ele>
        <time>2013-04-21T07:36:43.999Z</time>
      </trkpt>
      <trkpt lat="47.53142" lon="-0.12066">
        <ele>52</ele>
        <time>2013-04-21T07:36:47.999Z</time>
      </trkpt>
      <trkpt lat="47.53142" lon="-0.12068">
        <ele>52</ele>
        <time>2013-04-21T07:36:48.999Z</time>
      </trkpt>
      <trkpt lat="47.53144" lon="-0.12073">
        <ele>52</ele>
        <time>2013-04-21T07:36:53.999Z</time>
      </trkpt>
      <trkpt lat="47.53145" lon="-0.12075">
        <ele>52</ele>
        <time>2013-04-21T07:36:54.999Z</time>
      </trkpt>
      <trkpt lat="47.53146" lon="-0.1208">
        <ele>52</ele>
        <time>2013-04-21T07:36:57.999Z</time>
      </trkpt>
      <trkpt lat="47.53146" lon="-0.12082">
        <ele>52</ele>
        <time>2013-04-21T07:36:58.999Z</time>
      </trkpt>
      <trkpt lat="47.53147" lon="-0.12087">
        <ele>51</ele>
        <time>2013-04-21T07:37:02.999Z</time>
      </trkpt>
      <trkpt lat="47.53147" lon="-0.12089">
        <ele>51</ele>
        <time>2013-04-21T07:37:03.999Z</time>
      </trkpt>
      <trkpt lat="47.53148" lon="-0.12094">
        <ele>51</ele>
        <time>2013-04-21T07:37:07.999Z</time>
      </trkpt>
      <trkpt lat="47.53148" lon="-0.12096">
        <ele>51</ele>
        <time>2013-04-21T07:37:08.999Z</time>
      </trkpt>
      <trkpt lat="47.53153" lon="-0.12097">
        <ele>51</ele>
        <time>2013-04-21T07:37:16.999Z</time>
      </trkpt>
      <trkpt lat="47.53153" lon="-0.12096">
        <ele>51</ele>
        <time>2013-04-21T07:37:17.999Z</time>
      </trkpt>
      <trkpt lat="47.53155" lon="-0.12095">
        <ele>51</ele>
        <time>2013-04-21T07:37:18.999Z</time>
      </trkpt>
      <trkpt lat="47.53157" lon="-0.12092">
        <ele>51</ele>
        <time>2013-04-21T07:37:19.999Z</time>
      </trkpt>
      <trkpt lat="47.53161" lon="-0.12095">
        <ele>51</ele>
        <time>2013-04-21T07:37:22.999Z</time>
      </trkpt>
      <trkpt lat="47.53161" lon="-0.12096">
        <ele>51</ele>
        <time>2013-04-21T07:37:23.999Z</time>
      </trkpt>
      <trkpt lat="47.53161" lon="-0.12102">
        <ele>51</ele>
        <time>2013-04-21T07:37:26.999Z</time>
      </trkpt>
      <trkpt lat="47.5316" lon="-0.12103">
        <ele>51</ele>
        <time>2013-04-21T07:37:27.999Z</time>
      </trkpt>
      <trkpt lat="47.5316" lon="-0.1211">
        <ele>51</ele>
        <time>2013-04-21T07:37:32.999Z</time>
      </trkpt>
      <trkpt lat="47.5316" lon="-0.12111">
        <ele>51</ele>
        <time>2013-04-21T07:37:33.999Z</time>
      </trkpt>
      <trkpt lat="47.53162" lon="-0.12117">
        <ele>51</ele>
        <time>2013-04-21T07:37:38.999Z</time>
      </trkpt>
      <trkpt lat="47.53163" lon="-0.12117">
        <ele>51</ele>
        <time>2013-04-21T07:37:39.999Z</time>
      </trkpt>
      <trkpt lat="47.53166" lon="-0.12121">
        <ele>51</ele>
        <time>2013-04-21T07:37:42.999Z</time>
      </trkpt>
      <trkpt lat="47.53168" lon="-0.12122">
        <ele>53</ele>
        <time>2013-04-21T07:37:43.999Z</time>
      </trkpt>
      <trkpt lat="47.53171" lon="-0.12126">
        <ele>53</ele>
        <time>2013-04-21T07:37:46.999Z</time>
      </trkpt>
      <trkpt lat="47.53172" lon="-0.12128">
        <ele>53</ele>
        <time>2013-04-21T07:37:47.999Z</time>
      </trkpt>
      <trkpt lat="47.53174" lon="-0.12131">
        <ele>53</ele>
        <time>2013-04-21T07:37:51.999Z</time>
      </trkpt>
      <trkpt lat="47.53175" lon="-0.12133">
        <ele>53</ele>
        <time>2013-04-21T07:37:52.999Z</time>
      </trkpt>
      <trkpt lat="47.53178" lon="-0.12136">
        <ele>53</ele>
        <time>2013-04-21T07:37:54.999Z</time>
      </trkpt>
      <trkpt lat="47.53179" lon="-0.12137">
        <ele>53</ele>
        <time>2013-04-21T07:37:55.999Z</time>
      </trkpt>
      <trkpt lat="47.53182" lon="-0.1214">
        <ele>53</ele>
        <time>2013-04-21T07:37:58.999Z</time>
      </trkpt>
      <trkpt lat="47.53184" lon="-0.12141">
        <ele>53</ele>
        <time>2013-04-21T07:37:59.999Z</time>
      </trkpt>
      <trkpt lat="47.53187" lon="-0.12144">
        <ele>53</ele>
        <time>2013-04-21T07:38:03.999Z</time>
      </trkpt>
      <trkpt lat="47.53188" lon="-0.12145">
        <ele>53</ele>
        <time>2013-04-21T07:38:04.999Z</time>
      </trkpt>
      <trkpt lat="47.53191" lon="-0.12149">
        <ele>53</ele>
        <time>2013-04-21T07:38:08.999Z</time>
      </trkpt>
      <trkpt lat="47.53192" lon="-0.1215">
        <ele>53</ele>
        <time>2013-04-21T07:38:09.999Z</time>
      </trkpt>
      <trkpt lat="47.53195" lon="-0.12152">
        <ele>53</ele>
        <time>2013-04-21T07:38:12.999Z</time>
      </trkpt>
      <trkpt lat="47.53196" lon="-0.12153">
        <ele>53</ele>
        <time>2013-04-21T07:38:13.999Z</time>
      </trkpt>
      <trkpt lat="47.532" lon="-0.12157">
        <ele>53</ele>
        <time>2013-04-21T07:38:18.999Z</time>
      </trkpt>
      <trkpt lat="47.53201" lon="-0.12158">
        <ele>53</ele>
        <time>2013-04-21T07:38:19.999Z</time>
      </trkpt>
      <trkpt lat="47.53204" lon="-0.12161">
        <ele>53</ele>
        <time>2013-04-21T07:38:22.999Z</time>
      </trkpt>
      <trkpt lat="47.53205" lon="-0.12162">
        <ele>53</ele>
        <time>2013-04-21T07:38:23.999Z</time>
      </trkpt>
      <trkpt lat="47.53208" lon="-0.12164">
        <ele>53</ele>
        <time>2013-04-21T07:38:25.999Z</time>
      </trkpt>
      <trkpt lat="47.53209" lon="-0.12166">
        <ele>53</ele>
        <time>2013-04-21T07:38:26.999Z</time>
      </trkpt>
      <trkpt lat="47.53213" lon="-0.12167">
        <ele>52</ele>
        <time>2013-04-21T07:38:30.999Z</time>
      </trkpt>
      <trkpt lat="47.53214" lon="-0.12169">
        <ele>52</ele>
        <time>2013-04-21T07:38:31.999Z</time>
      </trkpt>
      <trkpt lat="47.53217" lon="-0.12172">
        <ele>52</ele>
        <time>2013-04-21T07:38:34.999Z</time>
      </trkpt>
      <trkpt lat="47.53218" lon="-0.12174">
        <ele>52</ele>
        <time>2013-04-21T07:38:35.999Z</time>
      </trkpt>
      <trkpt lat="47.53222" lon="-0.12177">
        <ele>52</ele>
        <time>2013-04-21T07:38:40.999Z</time>
      </trkpt>
      <trkpt lat="47.53222" lon="-0.12178">
        <ele>52</ele>
        <time>2013-04-21T07:38:41.999Z</time>
      </trkpt>
      <trkpt lat="47.53225" lon="-0.12181">
        <ele>52</ele>
        <time>2013-04-21T07:38:49.999Z</time>
      </trkpt>
      <trkpt lat="47.53226" lon="-0.12182">
        <ele>52</ele>
        <time>2013-04-21T07:38:50.999Z</time>
      </trkpt>
      <trkpt lat="47.53229" lon="-0.12185">
        <ele>53</ele>
        <time>2013-04-21T07:38:53.999Z</time>
      </trkpt>
      <trkpt lat="47.5323" lon="-0.12187">
        <ele>53</ele>
        <time>2013-04-21T07:38:54.999Z</time>
      </trkpt>
      <trkpt lat="47.53233" lon="-0.1219">
        <ele>53</ele>
        <time>2013-04-21T07:38:57.999Z</time>
      </trkpt>
      <trkpt lat="47.53234" lon="-0.12192">
        <ele>53</ele>
        <time>2013-04-21T07:38:58.999Z</time>
      </trkpt>
      <trkpt lat="47.53237" lon="-0.12196">
        <ele>53</ele>
        <time>2013-04-21T07:39:02.999Z</time>
      </trkpt>
      <trkpt lat="47.53238" lon="-0.12197">
        <ele>53</ele>
        <time>2013-04-21T07:39:03.999Z</time>
      </trkpt>
      <trkpt lat="47.53241" lon="-0.12201">
        <ele>53</ele>
        <time>2013-04-21T07:39:07.999Z</time>
      </trkpt>
      <trkpt lat="47.53242" lon="-0.12201">
        <ele>53</ele>
        <time>2013-04-21T07:39:08.999Z</time>
      </trkpt>
      <trkpt lat="47.53244" lon="-0.12206">
        <ele>53</ele>
        <time>2013-04-21T07:39:11.999Z</time>
      </trkpt>
      <trkpt lat="47.53244" lon="-0.12207">
        <ele>53</ele>
        <time>2013-04-21T07:39:12.999Z</time>
      </trkpt>
      <trkpt lat="47.53247" lon="-0.12213">
        <ele>53</ele>
        <time>2013-04-21T07:39:15.999Z</time>
      </trkpt>
      <trkpt lat="47.53248" lon="-0.12214">
        <ele>53</ele>
        <time>2013-04-21T07:39:16.999Z</time>
      </trkpt>
      <trkpt lat="47.53251" lon="-0.12217">
        <ele>56</ele>
        <time>2013-04-21T07:39:20.999Z</time>
      </trkpt>
      <trkpt lat="47.53252" lon="-0.12219">
        <ele>56</ele>
        <time>2013-04-21T07:39:21.999Z</time>
      </trkpt>
      <trkpt lat="47.53254" lon="-0.12223">
        <ele>56</ele>
        <time>2013-04-21T07:39:27.999Z</time>
      </trkpt>
      <trkpt lat="47.53255" lon="-0.12225">
        <ele>56</ele>
        <time>2013-04-21T07:39:28.999Z</time>
      </trkpt>
      <trkpt lat="47.53257" lon="-0.12229">
        <ele>55</ele>
        <time>2013-04-21T07:39:30.999Z</time>
      </trkpt>
      <trkpt lat="47.53257" lon="-0.12231">
        <ele>55</ele>
        <time>2013-04-21T07:39:31.999Z</time>
      </trkpt>
      <trkpt lat="47.5326" lon="-0.12236">
        <ele>55</ele>
        <time>2013-04-21T07:39:35.999Z</time>
      </trkpt>
      <trkpt lat="47.53261" lon="-0.12238">
        <ele>55</ele>
        <time>2013-04-21T07:39:36.999Z</time>
      </trkpt>
      <trkpt lat="47.53263" lon="-0.12242">
        <ele>55</ele>
        <time>2013-04-21T07:39:40.999Z</time>
      </trkpt>
      <trkpt lat="47.53264" lon="-0.12243">
        <ele>55</ele>
        <time>2013-04-21T07:39:41.999Z</time>
      </trkpt>
      <trkpt lat="47.53266" lon="-0.12246">
        <ele>55</ele>
        <time>2013-04-21T07:39:43.999Z</time>
      </trkpt>
      <trkpt lat="47.53267" lon="-0.12248">
        <ele>55</ele>
        <time>2013-04-21T07:39:44.999Z</time>
      </trkpt>
      <trkpt lat="47.5327" lon="-0.12251">
        <ele>55</ele>
        <time>2013-04-21T07:39:47.999Z</time>
      </trkpt>
      <trkpt lat="47.53271" lon="-0.12252">
        <ele>55</ele>
        <time>2013-04-21T07:39:48.999Z</time>
      </trkpt>
      <trkpt lat="47.53275" lon="-0.12254">
        <ele>55</ele>
        <time>2013-04-21T07:39:51.999Z</time>
      </trkpt>
      <trkpt lat="47.53276" lon="-0.12255">
        <ele>56</ele>
        <time>2013-04-21T07:39:52.999Z</time>
      </trkpt>
      <trkpt lat="47.53279" lon="-0.1226">
        <ele>56</ele>
        <time>2013-04-21T07:39:55.999Z</time>
      </trkpt>
      <trkpt lat="47.53281" lon="-0.12261">
        <ele>56</ele>
        <time>2013-04-21T07:39:56.999Z</time>
      </trkpt>
      <trkpt lat="47.53283" lon="-0.12264">
        <ele>56</ele>
        <time>2013-04-21T07:39:59.999Z</time>
      </trkpt>
      <trkpt lat="47.53284" lon="-0.12266">
        <ele>56</ele>
        <time>2013-04-21T07:40:00.999Z</time>
      </trkpt>
      <trkpt lat="47.53286" lon="-0.1227">
        <ele>56</ele>
        <time>2013-04-21T07:40:04.999Z</time>
      </trkpt>
      <trkpt lat="47.53287" lon="-0.12271">
        <ele>56</ele>
        <time>2013-04-21T07:40:05.999Z</time>
      </trkpt>
      <trkpt lat="47.53288" lon="-0.12277">
        <ele>56</ele>
        <time>2013-04-21T07:40:08.999Z</time>
      </trkpt>
      <trkpt lat="47.53289" lon="-0.12277">
        <ele>56</ele>
        <time>2013-04-21T07:40:09.999Z</time>
      </trkpt>
      <trkpt lat="47.53292" lon="-0.12282">
        <ele>56</ele>
        <time>2013-04-21T07:40:15.999Z</time>
      </trkpt>
      <trkpt lat="47.53293" lon="-0.12284">
        <ele>56</ele>
        <time>2013-04-21T07:40:16.999Z</time>
      </trkpt>
      <trkpt lat="47.53295" lon="-0.12289">
        <ele>56</ele>
        <time>2013-04-21T07:40:19.999Z</time>
      </trkpt>
      <trkpt lat="47.53296" lon="-0.12291">
        <ele>56</ele>
        <time>2013-04-21T07:40:20.999Z</time>
      </trkpt>
      <trkpt lat="47.53298" lon="-0.12294">
        <ele>56</ele>
        <time>2013-04-21T07:40:23.999Z</time>
      </trkpt>
      <trkpt lat="47.53299" lon="-0.12296">
        <ele>56</ele>
        <time>2013-04-21T07:40:24.999Z</time>
      </trkpt>
      <trkpt lat="47.53302" lon="-0.12299">
        <ele>57</ele>
        <time>2013-04-21T07:40:27.999Z</time>
      </trkpt>
      <trkpt lat="47.53303" lon="-0.123">
        <ele>57</ele>
        <time>2013-04-21T07:40:28.999Z</time>
      </trkpt>
      <trkpt lat="47.53306" lon="-0.12304">
        <ele>57</ele>
        <time>2013-04-21T07:40:32.999Z</time>
      </trkpt>
      <trkpt lat="47.53306" lon="-0.12306">
        <ele>57</ele>
        <time>2013-04-21T07:40:33.999Z</time>
      </trkpt>
      <trkpt lat="47.53308" lon="-0.1231">
        <ele>57</ele>
        <time>2013-04-21T07:40:36.999Z</time>
      </trkpt>
      <trkpt lat="47.53309" lon="-0.12312">
        <ele>57</ele>
        <time>2013-04-21T07:40:37.999Z</time>
      </trkpt>
      <trkpt lat="47.53313" lon="-0.12314">
        <ele>57</ele>
        <time>2013-04-21T07:40:42.999Z</time>
      </trkpt>
      <trkpt lat="47.53315" lon="-0.12315">
        <ele>57</ele>
        <time>2013-04-21T07:40:43.999Z</time>
      </trkpt>
      <trkpt lat="47.53318" lon="-0.12317">
        <ele>57</ele>
        <time>2013-04-21T07:40:45.999Z</time>
      </trkpt>
      <trkpt lat="47.53319" lon="-0.12318">
        <ele>57</ele>
        <time>2013-04-21T07:40:46.999Z</time>
      </trkpt>
      <trkpt lat="47.53322" lon="-0.1232">
        <ele>58</ele>
        <time>2013-04-21T07:40:50.999Z</time>
      </trkpt>
      <trkpt lat="47.53323" lon="-0.12321">
        <ele>58</ele>
        <time>2013-04-21T07:40:51.999Z</time>
      </trkpt>
      <trkpt lat="47.53326" lon="-0.12325">
        <ele>58</ele>
        <time>2013-04-21T07:40:54.999Z</time>
      </trkpt>
      <trkpt lat="47.53327" lon="-0.12326">
        <ele>58</ele>
        <time>2013-04-21T07:40:55.999Z</time>
      </trkpt>
      <trkpt lat="47.53329" lon="-0.1233">
        <ele>58</ele>
        <time>2013-04-21T07:40:58.999Z</time>
      </trkpt>
      <trkpt lat="47.5333" lon="-0.12332">
        <ele>59</ele>
        <time>2013-04-21T07:40:59.999Z</time>
      </trkpt>
      <trkpt lat="47.53332" lon="-0.12336">
        <ele>59</ele>
        <time>2013-04-21T07:41:03.999Z</time>
      </trkpt>
      <trkpt lat="47.53332" lon="-0.12337">
        <ele>59</ele>
        <time>2013-04-21T07:41:04.999Z</time>
      </trkpt>
      <trkpt lat="47.53335" lon="-0.12341">
        <ele>59</ele>
        <time>2013-04-21T07:41:08.999Z</time>
      </trkpt>
      <trkpt lat="47.53335" lon="-0.12342">
        <ele>60</ele>
        <time>2013-04-21T07:41:09.999Z</time>
      </trkpt>
      <trkpt lat="47.53338" lon="-0.12347">
        <ele>60</ele>
        <time>2013-04-21T07:41:13.999Z</time>
      </trkpt>
      <trkpt lat="47.53339" lon="-0.12348">
        <ele>60</ele>
        <time>2013-04-21T07:41:14.999Z</time>
      </trkpt>
      <trkpt lat="47.53341" lon="-0.12351">
        <ele>60</ele>
        <time>2013-04-21T07:41:16.999Z</time>
      </trkpt>
      <trkpt lat="47.53342" lon="-0.12353">
        <ele>60</ele>
        <time>2013-04-21T07:41:17.999Z</time>
      </trkpt>
      <trkpt lat="47.53345" lon="-0.12358">
        <ele>60</ele>
        <time>2013-04-21T07:41:23.999Z</time>
      </trkpt>
      <trkpt lat="47.53346" lon="-0.1236">
        <ele>60</ele>
        <time>2013-04-21T07:41:24.999Z</time>
      </trkpt>
      <trkpt lat="47.53348" lon="-0.12364">
        <ele>60</ele>
        <time>2013-04-21T07:41:27.999Z</time>
      </trkpt>
      <trkpt lat="47.53348" lon="-0.12366">
        <ele>60</ele>
        <time>2013-04-21T07:41:28.999Z</time>
      </trkpt>
      <trkpt lat="47.53351" lon="-0.12369">
        <ele>60</ele>
        <time>2013-04-21T07:41:31.999Z</time>
      </trkpt>
      <trkpt lat="47.53351" lon="-0.12371">
        <ele>60</ele>
        <time>2013-04-21T07:41:32.999Z</time>
      </trkpt>
      <trkpt lat="47.53354" lon="-0.12376">
        <ele>60</ele>
        <time>2013-04-21T07:41:36.999Z</time>
      </trkpt>
      <trkpt lat="47.53355" lon="-0.12377">
        <ele>60</ele>
        <time>2013-04-21T07:41:37.999Z</time>
      </trkpt>
      <trkpt lat="47.53358" lon="-0.12381">
        <ele>60</ele>
        <time>2013-04-21T07:41:40.999Z</time>
      </trkpt>
      <trkpt lat="47.53358" lon="-0.12381">
        <ele>60</ele>
        <time>2013-04-21T07:41:41.999Z</time>
      </trkpt>
      <trkpt lat="47.53361" lon="-0.12385">
        <ele>60</ele>
        <time>2013-04-21T07:41:46.999Z</time>
      </trkpt>
      <trkpt lat="47.53362" lon="-0.12386">
        <ele>60</ele>
        <time>2013-04-21T07:41:47.999Z</time>
      </trkpt>
      <trkpt lat="47.53366" lon="-0.1239">
        <ele>60</ele>
        <time>2013-04-21T07:41:52.999Z</time>
      </trkpt>
      <trkpt lat="47.53367" lon="-0.12391">
        <ele>60</ele>
        <time>2013-04-21T07:41:53.999Z</time>
      </trkpt>
      <trkpt lat="47.53369" lon="-0.12394">
        <ele>60</ele>
        <time>2013-04-21T07:41:57.999Z</time>
      </trkpt>
      <trkpt lat="47.5337" lon="-0.12395">
        <ele>60</ele>
        <time>2013-04-21T07:41:58.999Z</time>
      </trkpt>
      <trkpt lat="47.53372" lon="-0.12399">
        <ele>60</ele>
        <time>2013-04-21T07:42:01.999Z</time>
      </trkpt>
      <trkpt lat="47.53373" lon="-0.124">
        <ele>60</ele>
        <time>2013-04-21T07:42:02.999Z</time>
      </trkpt>
      <trkpt lat="47.53375" lon="-0.12404">
        <ele>61</ele>
        <time>2013-04-21T07:42:05.999Z</time>
      </trkpt>
      <trkpt lat="47.53376" lon="-0.12406">
        <ele>61</ele>
        <time>2013-04-21T07:42:06.999Z</time>
      </trkpt>
      <trkpt lat="47.53378" lon="-0.12409">
        <ele>61</ele>
        <time>2013-04-21T07:42:09.999Z</time>
      </trkpt>
      <trkpt lat="47.53379" lon="-0.1241">
        <ele>61</ele>
        <time>2013-04-21T07:42:10.999Z</time>
      </trkpt>
      <trkpt lat="47.53382" lon="-0.12414">
        <ele>61</ele>
        <time>2013-04-21T07:42:15.999Z</time>
      </trkpt>
      <trkpt lat="47.53383" lon="-0.12415">
        <ele>61</ele>
        <time>2013-04-21T07:42:16.999Z</time>
      </trkpt>
      <trkpt lat="47.53386" lon="-0.12418">
        <ele>59</ele>
        <time>2013-04-21T07:42:19.999Z</time>
      </trkpt>
      <trkpt lat="47.53387" lon="-0.12419">
        <ele>59</ele>
        <time>2013-04-21T07:42:20.999Z</time>
      </trkpt>
      <trkpt lat="47.53389" lon="-0.12424">
        <ele>59</ele>
        <time>2013-04-21T07:42:24.999Z</time>
      </trkpt>
      <trkpt lat="47.53391" lon="-0.12424">
        <ele>59</ele>
        <time>2013-04-21T07:42:25.999Z</time>
      </trkpt>
      <trkpt lat="47.53394" lon="-0.12427">
        <ele>59</ele>
        <time>2013-04-21T07:42:30.999Z</time>
      </trkpt>
      <trkpt lat="47.53394" lon="-0.12429">
        <ele>59</ele>
        <time>2013-04-21T07:42:31.999Z</time>
      </trkpt>
      <trkpt lat="47.53397" lon="-0.1243">
        <ele>59</ele>
        <time>2013-04-21T07:42:33.999Z</time>
      </trkpt>
      <trkpt lat="47.53399" lon="-0.12431">
        <ele>59</ele>
        <time>2013-04-21T07:42:34.999Z</time>
      </trkpt>
      <trkpt lat="47.53401" lon="-0.12436">
        <ele>59</ele>
        <time>2013-04-21T07:42:38.999Z</time>
      </trkpt>
      <trkpt lat="47.53402" lon="-0.12437">
        <ele>59</ele>
        <time>2013-04-21T07:42:39.999Z</time>
      </trkpt>
      <trkpt lat="47.53404" lon="-0.12441">
        <ele>59</ele>
        <time>2013-04-21T07:42:42.999Z</time>
      </trkpt>
      <trkpt lat="47.53405" lon="-0.12442">
        <ele>59</ele>
        <time>2013-04-21T07:42:43.999Z</time>
      </trkpt>
      <trkpt lat="47.53408" lon="-0.12446">
        <ele>59</ele>
        <time>2013-04-21T07:42:47.999Z</time>
      </trkpt>
      <trkpt lat="47.53409" lon="-0.12446">
        <ele>59</ele>
        <time>2013-04-21T07:42:48.999Z</time>
      </trkpt>
      <trkpt lat="47.53412" lon="-0.1245">
        <ele>59</ele>
        <time>2013-04-21T07:43:13.999Z</time>
      </trkpt>
      <trkpt lat="47.53413" lon="-0.1245">
        <ele>59</ele>
        <time>2013-04-21T07:43:14.999Z</time>
      </trkpt>
      <trkpt lat="47.53415" lon="-0.12454">
        <ele>59</ele>
        <time>2013-04-21T07:43:18.999Z</time>
      </trkpt>
      <trkpt lat="47.53416" lon="-0.12456">
        <ele>58</ele>
        <time>2013-04-21T07:43:19.999Z</time>
      </trkpt>
      <trkpt lat="47.53417" lon="-0.1246">
        <ele>59</ele>
        <time>2013-04-21T07:43:21.999Z</time>
      </trkpt>
      <trkpt lat="47.53418" lon="-0.12462">
        <ele>58</ele>
        <time>2013-04-21T07:43:22.999Z</time>
      </trkpt>
      <trkpt lat="47.53418" lon="-0.12467">
        <ele>58</ele>
        <time>2013-04-21T07:43:27.999Z</time>
      </trkpt>
      <trkpt lat="47.53419" lon="-0.12469">
        <ele>58</ele>
        <time>2013-04-21T07:43:28.999Z</time>
      </trkpt>
      <trkpt lat="47.53421" lon="-0.12472">
        <ele>58</ele>
        <time>2013-04-21T07:43:30.999Z</time>
      </trkpt>
      <trkpt lat="47.53422" lon="-0.12474">
        <ele>58</ele>
        <time>2013-04-21T07:43:31.999Z</time>
      </trkpt>
      <trkpt lat="47.53424" lon="-0.12477">
        <ele>58</ele>
        <time>2013-04-21T07:43:33.999Z</time>
      </trkpt>
      <trkpt lat="47.53426" lon="-0.12478">
        <ele>58</ele>
        <time>2013-04-21T07:43:34.999Z</time>
      </trkpt>
      <trkpt lat="47.53429" lon="-0.12481">
        <ele>58</ele>
        <time>2013-04-21T07:43:39.999Z</time>
      </trkpt>
      <trkpt lat="47.5343" lon="-0.12482">
        <ele>58</ele>
        <time>2013-04-21T07:43:40.999Z</time>
      </trkpt>
      <trkpt lat="47.53433" lon="-0.12486">
        <ele>57</ele>
        <time>2013-04-21T07:43:43.999Z</time>
      </trkpt>
      <trkpt lat="47.53433" lon="-0.12488">
        <ele>57</ele>
        <time>2013-04-21T07:43:44.999Z</time>
      </trkpt>
      <trkpt lat="47.53437" lon="-0.12492">
        <ele>57</ele>
        <time>2013-04-21T07:43:49.999Z</time>
      </trkpt>
      <trkpt lat="47.53437" lon="-0.12492">
        <ele>57</ele>
        <time>2013-04-21T07:43:50.999Z</time>
      </trkpt>
      <trkpt lat="47.53441" lon="-0.12496">
        <ele>57</ele>
        <time>2013-04-21T07:43:53.999Z</time>
      </trkpt>
      <trkpt lat="47.53442" lon="-0.12497">
        <ele>57</ele>
        <time>2013-04-21T07:43:54.999Z</time>
      </trkpt>
      <trkpt lat="47.53444" lon="-0.12502">
        <ele>56</ele>
        <time>2013-04-21T07:43:57.999Z</time>
      </trkpt>
      <trkpt lat="47.53445" lon="-0.12504">
        <ele>56</ele>
        <time>2013-04-21T07:43:58.999Z</time>
      </trkpt>
      <trkpt lat="47.53448" lon="-0.12509">
        <ele>56</ele>
        <time>2013-04-21T07:44:01.999Z</time>
      </trkpt>
      <trkpt lat="47.53449" lon="-0.12511">
        <ele>56</ele>
        <time>2013-04-21T07:44:02.999Z</time>
      </trkpt>
      <trkpt lat="47.53451" lon="-0.12515">
        <ele>56</ele>
        <time>2013-04-21T07:44:05.999Z</time>
      </trkpt>
      <trkpt lat="47.53452" lon="-0.12517">
        <ele>56</ele>
        <time>2013-04-21T07:44:06.999Z</time>
      </trkpt>
      <trkpt lat="47.53455" lon="-0.12522">
        <ele>56</ele>
        <time>2013-04-21T07:44:09.999Z</time>
      </trkpt>
      <trkpt lat="47.53456" lon="-0.12523">
        <ele>56</ele>
        <time>2013-04-21T07:44:10.999Z</time>
      </trkpt>
      <trkpt lat="47.53459" lon="-0.12527">
        <ele>56</ele>
        <time>2013-04-21T07:44:13.999Z</time>
      </trkpt>
      <trkpt lat="47.53459" lon="-0.12529">
        <ele>56</ele>
        <time>2013-04-21T07:44:14.999Z</time>
      </trkpt>
      <trkpt lat="47.53461" lon="-0.12534">
        <ele>56</ele>
        <time>2013-04-21T07:44:17.999Z</time>
      </trkpt>
      <trkpt lat="47.53462" lon="-0.12535">
        <ele>56</ele>
        <time>2013-04-21T07:44:18.999Z</time>
      </trkpt>
      <trkpt lat="47.53464" lon="-0.1254">
        <ele>56</ele>
        <time>2013-04-21T07:44:22.999Z</time>
      </trkpt>
      <trkpt lat="47.53464" lon="-0.12542">
        <ele>56</ele>
        <time>2013-04-21T07:44:23.999Z</time>
      </trkpt>
      <trkpt lat="47.53467" lon="-0.12546">
        <ele>56</ele>
        <time>2013-04-21T07:44:26.999Z</time>
      </trkpt>
      <trkpt lat="47.53469" lon="-0.12548">
        <ele>56</ele>
        <time>2013-04-21T07:44:27.999Z</time>
      </trkpt>
      <trkpt lat="47.5347" lon="-0.12554">
        <ele>56</ele>
        <time>2013-04-21T07:44:31.999Z</time>
      </trkpt>
      <trkpt lat="47.53471" lon="-0.12555">
        <ele>56</ele>
        <time>2013-04-21T07:44:32.999Z</time>
      </trkpt>
      <trkpt lat="47.53473" lon="-0.1256">
        <ele>56</ele>
        <time>2013-04-21T07:44:35.999Z</time>
      </trkpt>
      <trkpt lat="47.53473" lon="-0.12561">
        <ele>56</ele>
        <time>2013-04-21T07:44:36.999Z</time>
      </trkpt>
      <trkpt lat="47.53477" lon="-0.12565">
        <ele>56</ele>
        <time>2013-04-21T07:44:40.999Z</time>
      </trkpt>
      <trkpt lat="47.53477" lon="-0.12566">
        <ele>56</ele>
        <time>2013-04-21T07:44:41.999Z</time>
      </trkpt>
      <trkpt lat="47.5348" lon="-0.12571">
        <ele>56</ele>
        <time>2013-04-21T07:44:45.999Z</time>
      </trkpt>
      <trkpt lat="47.53481" lon="-0.12572">
        <ele>56</ele>
        <time>2013-04-21T07:44:46.999Z</time>
      </trkpt>
      <trkpt lat="47.53484" lon="-0.12576">
        <ele>56</ele>
        <time>2013-04-21T07:44:50.999Z</time>
      </trkpt>
      <trkpt lat="47.53484" lon="-0.12577">
        <ele>56</ele>
        <time>2013-04-21T07:44:51.999Z</time>
      </trkpt>
      <trkpt lat="47.53484" lon="-0.12584">
        <ele>57</ele>
        <time>2013-04-21T07:44:59.999Z</time>
      </trkpt>
      <trkpt lat="47.53485" lon="-0.12585">
        <ele>57</ele>
        <time>2013-04-21T07:45:00.999Z</time>
      </trkpt>
      <trkpt lat="47.53486" lon="-0.1259">
        <ele>57</ele>
        <time>2013-04-21T07:45:05.000Z</time>
      </trkpt>
      <trkpt lat="47.53487" lon="-0.12591">
        <ele>57</ele>
        <time>2013-04-21T07:45:06.000Z</time>
      </trkpt>
      <trkpt lat="47.53491" lon="-0.12594">
        <ele>57</ele>
        <time>2013-04-21T07:45:09.000Z</time>
      </trkpt>
      <trkpt lat="47.53491" lon="-0.12595">
        <ele>57</ele>
        <time>2013-04-21T07:45:10.000Z</time>
      </trkpt>
      <trkpt lat="47.53494" lon="-0.126">
        <ele>57</ele>
        <time>2013-04-21T07:45:14.000Z</time>
      </trkpt>
      <trkpt lat="47.53495" lon="-0.12603">
        <ele>57</ele>
        <time>2013-04-21T07:45:15.000Z</time>
      </trkpt>
      <trkpt lat="47.53497" lon="-0.12606">
        <ele>57</ele>
        <time>2013-04-21T07:45:17.000Z</time>
      </trkpt>
      <trkpt lat="47.53498" lon="-0.12608">
        <ele>57</ele>
        <time>2013-04-21T07:45:18.000Z</time>
      </trkpt>
      <trkpt lat="47.53501" lon="-0.12612">
        <ele>59</ele>
        <time>2013-04-21T07:45:21.000Z</time>
      </trkpt>
      <trkpt lat="47.53502" lon="-0.12614">
        <ele>59</ele>
        <time>2013-04-21T07:45:22.000Z</time>
      </trkpt>
      <trkpt lat="47.53504" lon="-0.1262">
        <ele>59</ele>
        <time>2013-04-21T07:45:25.000Z</time>
      </trkpt>
      <trkpt lat="47.53504" lon="-0.12621">
        <ele>59</ele>
        <time>2013-04-21T07:45:26.000Z</time>
      </trkpt>
      <trkpt lat="47.53506" lon="-0.12624">
        <ele>59</ele>
        <time>2013-04-21T07:45:29.000Z</time>
      </trkpt>
      <trkpt lat="47.53507" lon="-0.12626">
        <ele>59</ele>
        <time>2013-04-21T07:45:30.000Z</time>
      </trkpt>
      <trkpt lat="47.53508" lon="-0.12632">
        <ele>60</ele>
        <time>2013-04-21T07:45:34.000Z</time>
      </trkpt>
      <trkpt lat="47.53508" lon="-0.12634">
        <ele>60</ele>
        <time>2013-04-21T07:45:35.000Z</time>
      </trkpt>
      <trkpt lat="47.53509" lon="-0.12639">
        <ele>60</ele>
        <time>2013-04-21T07:45:38.000Z</time>
      </trkpt>
      <trkpt lat="47.53509" lon="-0.1264">
        <ele>59</ele>
        <time>2013-04-21T07:45:39.000Z</time>
      </trkpt>
      <trkpt lat="47.53511" lon="-0.12646">
        <ele>59</ele>
        <time>2013-04-21T07:45:43.000Z</time>
      </trkpt>
      <trkpt lat="47.53512" lon="-0.12647">
        <ele>59</ele>
        <time>2013-04-21T07:45:44.000Z</time>
      </trkpt>
      <trkpt lat="47.53513" lon="-0.12653">
        <ele>59</ele>
        <time>2013-04-21T07:45:48.000Z</time>
      </trkpt>
      <trkpt lat="47.53513" lon="-0.12654">
        <ele>59</ele>
        <time>2013-04-21T07:45:49.000Z</time>
      </trkpt>
      <trkpt lat="47.53515" lon="-0.1266">
        <ele>59</ele>
        <time>2013-04-21T07:45:53.000Z</time>
      </trkpt>
      <trkpt lat="47.53515" lon="-0.12662">
        <ele>59</ele>
        <time>2013-04-21T07:45:54.000Z</time>
      </trkpt>
      <trkpt lat="47.53516" lon="-0.12667">
        <ele>60</ele>
        <time>2013-04-21T07:45:59.000Z</time>
      </trkpt>
      <trkpt lat="47.53516" lon="-0.12669">
        <ele>60</ele>
        <time>2013-04-21T07:46:00.000Z</time>
      </trkpt>
      <trkpt lat="47.53518" lon="-0.12673">
        <ele>61</ele>
        <time>2013-04-21T07:46:05.000Z</time>
      </trkpt>
      <trkpt lat="47.53519" lon="-0.12674">
        <ele>61</ele>
        <time>2013-04-21T07:46:06.000Z</time>
      </trkpt>
      <trkpt lat="47.53523" lon="-0.12678">
        <ele>61</ele>
        <time>2013-04-21T07:46:10.000Z</time>
      </trkpt>
      <trkpt lat="47.53523" lon="-0.1268">
        <ele>61</ele>
        <time>2013-04-21T07:46:11.000Z</time>
      </trkpt>
      <trkpt lat="47.53524" lon="-0.12685">
        <ele>62</ele>
        <time>2013-04-21T07:46:15.000Z</time>
      </trkpt>
      <trkpt lat="47.53524" lon="-0.12686">
        <ele>62</ele>
        <time>2013-04-21T07:46:16.000Z</time>
      </trkpt>
      <trkpt lat="47.53525" lon="-0.12692">
        <ele>62</ele>
        <time>2013-04-21T07:46:20.000Z</time>
      </trkpt>
      <trkpt lat="47.53525" lon="-0.12694">
        <ele>62</ele>
        <time>2013-04-21T07:46:21.000Z</time>
      </trkpt>
      <trkpt lat="47.53526" lon="-0.127">
        <ele>62</ele>
        <time>2013-04-21T07:46:24.000Z</time>
      </trkpt>
      <trkpt lat="47.53527" lon="-0.12702">
        <ele>62</ele>
        <time>2013-04-21T07:46:25.000Z</time>
      </trkpt>
      <trkpt lat="47.53528" lon="-0.12707">
        <ele>63</ele>
        <time>2013-04-21T07:46:28.000Z</time>
      </trkpt>
      <trkpt lat="47.53529" lon="-0.12709">
        <ele>63</ele>
        <time>2013-04-21T07:46:29.000Z</time>
      </trkpt>
      <trkpt lat="47.53531" lon="-0.12714">
        <ele>63</ele>
        <time>2013-04-21T07:46:32.000Z</time>
      </trkpt>
      <trkpt lat="47.53532" lon="-0.12715">
        <ele>63</ele>
        <time>2013-04-21T07:46:33.000Z</time>
      </trkpt>
      <trkpt lat="47.53533" lon="-0.12721">
        <ele>63</ele>
        <time>2013-04-21T07:46:38.000Z</time>
      </trkpt>
      <trkpt lat="47.53533" lon="-0.12722">
        <ele>63</ele>
        <time>2013-04-21T07:46:39.000Z</time>
      </trkpt>
      <trkpt lat="47.53534" lon="-0.12728">
        <ele>63</ele>
        <time>2013-04-21T07:46:43.000Z</time>
      </trkpt>
      <trkpt lat="47.53534" lon="-0.12729">
        <ele>63</ele>
        <time>2013-04-21T07:46:44.000Z</time>
      </trkpt>
      <trkpt lat="47.53534" lon="-0.12736">
        <ele>63</ele>
        <time>2013-04-21T07:46:49.000Z</time>
      </trkpt>
      <trkpt lat="47.53534" lon="-0.12738">
        <ele>63</ele>
        <time>2013-04-21T07:46:50.000Z</time>
      </trkpt>
      <trkpt lat="47.53535" lon="-0.12744">
        <ele>63</ele>
        <time>2013-04-21T07:46:55.000Z</time>
      </trkpt>
      <trkpt lat="47.53535" lon="-0.12745">
        <ele>63</ele>
        <time>2013-04-21T07:46:56.000Z</time>
      </trkpt>
      <trkpt lat="47.53535" lon="-0.12751">
        <ele>65</ele>
        <time>2013-04-21T07:46:59.000Z</time>
      </trkpt>
      <trkpt lat="47.53535" lon="-0.12752">
        <ele>65</ele>
        <time>2013-04-21T07:47:00.000Z</time>
      </trkpt>
      <trkpt lat="47.53535" lon="-0.12758">
        <ele>65</ele>
        <time>2013-04-21T07:47:03.000Z</time>
      </trkpt>
      <trkpt lat="47.53535" lon="-0.1276">
        <ele>65</ele>
        <time>2013-04-21T07:47:04.000Z</time>
      </trkpt>
      <trkpt lat="47.53535" lon="-0.12767">
        <ele>65</ele>
        <time>2013-04-21T07:47:09.000Z</time>
      </trkpt>
      <trkpt lat="47.53535" lon="-0.12768">
        <ele>65</ele>
        <time>2013-04-21T07:47:10.000Z</time>
      </trkpt>
      <trkpt lat="47.53535" lon="-0.12774">
        <ele>65</ele>
        <time>2013-04-21T07:47:14.000Z</time>
      </trkpt>
      <trkpt lat="47.53535" lon="-0.12777">
        <ele>65</ele>
        <time>2013-04-21T07:47:15.000Z</time>
      </trkpt>
      <trkpt lat="47.53536" lon="-0.12782">
        <ele>65</ele>
        <time>2013-04-21T07:47:18.000Z</time>
      </trkpt>
      <trkpt lat="47.53537" lon="-0.12784">
        <ele>65</ele>
        <time>2013-04-21T07:47:19.000Z</time>
      </trkpt>
      <trkpt lat="47.53537" lon="-0.1279">
        <ele>65</ele>
        <time>2013-04-21T07:47:24.000Z</time>
      </trkpt>
      <trkpt lat="47.53537" lon="-0.12792">
        <ele>65</ele>
        <time>2013-04-21T07:47:25.000Z</time>
      </trkpt>
      <trkpt lat="47.53539" lon="-0.12796">
        <ele>65</ele>
        <time>2013-04-21T07:47:28.000Z</time>
      </trkpt>
      <trkpt lat="47.5354" lon="-0.12798">
        <ele>65</ele>
        <time>2013-04-21T07:47:29.000Z</time>
      </trkpt>
      <trkpt lat="47.53542" lon="-0.12803">
        <ele>66</ele>
        <time>2013-04-21T07:47:32.000Z</time>
      </trkpt>
      <trkpt lat="47.53542" lon="-0.12804">
        <ele>66</ele>
        <time>2013-04-21T07:47:33.000Z</time>
      </trkpt>
      <trkpt lat="47.53543" lon="-0.1281">
        <ele>66</ele>
        <time>2013-04-21T07:47:38.000Z</time>
      </trkpt>
      <trkpt lat="47.53542" lon="-0.12812">
        <ele>66</ele>
        <time>2013-04-21T07:47:39.000Z</time>
      </trkpt>
      <trkpt lat="47.53544" lon="-0.12817">
        <ele>66</ele>
        <time>2013-04-21T07:47:44.000Z</time>
      </trkpt>
      <trkpt lat="47.53543" lon="-0.12819">
        <ele>66</ele>
        <time>2013-04-21T07:47:45.000Z</time>
      </trkpt>
      <trkpt lat="47.53544" lon="-0.12825">
        <ele>66</ele>
        <time>2013-04-21T07:47:51.000Z</time>
      </trkpt>
      <trkpt lat="47.53545" lon="-0.12826">
        <ele>66</ele>
        <time>2013-04-21T07:47:52.000Z</time>
      </trkpt>
      <trkpt lat="47.53544" lon="-0.12833">
        <ele>66</ele>
        <time>2013-04-21T07:47:55.000Z</time>
      </trkpt>
      <trkpt lat="47.53544" lon="-0.12833">
        <ele>66</ele>
        <time>2013-04-21T07:47:56.000Z</time>
      </trkpt>
      <trkpt lat="47.53545" lon="-0.12839">
        <ele>67</ele>
        <time>2013-04-21T07:48:03.000Z</time>
      </trkpt>
      <trkpt lat="47.53545" lon="-0.1284">
        <ele>67</ele>
        <time>2013-04-21T07:48:04.000Z</time>
      </trkpt>
      <trkpt lat="47.53545" lon="-0.12845">
        <ele>67</ele>
        <time>2013-04-21T07:48:07.000Z</time>
      </trkpt>
      <trkpt lat="47.53545" lon="-0.12847">
        <ele>67</ele>
        <time>2013-04-21T07:48:08.000Z</time>
      </trkpt>
      <trkpt lat="47.53546" lon="-0.12853">
        <ele>67</ele>
        <time>2013-04-21T07:48:11.000Z</time>
      </trkpt>
      <trkpt lat="47.53544" lon="-0.12855">
        <ele>67</ele>
        <time>2013-04-21T07:48:12.000Z</time>
      </trkpt>
      <trkpt lat="47.53545" lon="-0.12859">
        <ele>67</ele>
        <time>2013-04-21T07:48:16.000Z</time>
      </trkpt>
      <trkpt lat="47.53545" lon="-0.12862">
        <ele>67</ele>
        <time>2013-04-21T07:48:17.000Z</time>
      </trkpt>
      <trkpt lat="47.53545" lon="-0.12867">
        <ele>67</ele>
        <time>2013-04-21T07:48:21.000Z</time>
      </trkpt>
      <trkpt lat="47.53546" lon="-0.12869">
        <ele>67</ele>
        <time>2013-04-21T07:48:22.000Z</time>
      </trkpt>
      <trkpt lat="47.53547" lon="-0.12875">
        <ele>67</ele>
        <time>2013-04-21T07:48:26.000Z</time>
      </trkpt>
      <trkpt lat="47.53548" lon="-0.12876">
        <ele>67</ele>
        <time>2013-04-21T07:48:27.000Z</time>
      </trkpt>
      <trkpt lat="47.53549" lon="-0.12882">
        <ele>67</ele>
        <time>2013-04-21T07:48:31.000Z</time>
      </trkpt>
      <trkpt lat="47.5355" lon="-0.12883">
        <ele>67</ele>
        <time>2013-04-21T07:48:32.000Z</time>
      </trkpt>
      <trkpt lat="47.53548" lon="-0.12889">
        <ele>67</ele>
        <time>2013-04-21T07:48:38.000Z</time>
      </trkpt>
      <trkpt lat="47.53548" lon="-0.12891">
        <ele>67</ele>
        <time>2013-04-21T07:48:39.000Z</time>
      </trkpt>
      <trkpt lat="47.53548" lon="-0.12896">
        <ele>67</ele>
        <time>2013-04-21T07:48:45.000Z</time>
      </trkpt>
      <trkpt lat="47.53549" lon="-0.12898">
        <ele>67</ele>
        <time>2013-04-21T07:48:46.000Z</time>
      </trkpt>
      <trkpt lat="47.53549" lon="-0.12904">
        <ele>67</ele>
        <time>2013-04-21T07:48:49.000Z</time>
      </trkpt>
      <trkpt lat="47.5355" lon="-0.12905">
        <ele>67</ele>
        <time>2013-04-21T07:48:50.000Z</time>
      </trkpt>
      <trkpt lat="47.53548" lon="-0.1291">
        <ele>67</ele>
        <time>2013-04-21T07:48:54.000Z</time>
      </trkpt>
      <trkpt lat="47.53548" lon="-0.12912">
        <ele>67</ele>
        <time>2013-04-21T07:48:55.000Z</time>
      </trkpt>
      <trkpt lat="47.53548" lon="-0.12918">
        <ele>70</ele>
        <time>2013-04-21T07:48:59.000Z</time>
      </trkpt>
      <trkpt lat="47.53548" lon="-0.12919">
        <ele>70</ele>
        <time>2013-04-21T07:49:00.000Z</time>
      </trkpt>
      <trkpt lat="47.53548" lon="-0.12924">
        <ele>70</ele>
        <time>2013-04-21T07:49:02.000Z</time>
      </trkpt>
      <trkpt lat="47.53548" lon="-0.12927">
        <ele>70</ele>
        <time>2013-04-21T07:49:03.000Z</time>
      </trkpt>
      <trkpt lat="47.53547" lon="-0.12932">
        <ele>70</ele>
        <time>2013-04-21T07:49:06.000Z</time>
      </trkpt>
      <trkpt lat="47.53547" lon="-0.12934">
        <ele>70</ele>
        <time>2013-04-21T07:49:07.000Z</time>
      </trkpt>
      <trkpt lat="47.53546" lon="-0.1294">
        <ele>70</ele>
        <time>2013-04-21T07:49:10.000Z</time>
      </trkpt>
      <trkpt lat="47.53545" lon="-0.12941">
        <ele>70</ele>
        <time>2013-04-21T07:49:11.000Z</time>
      </trkpt>
      <trkpt lat="47.53544" lon="-0.12948">
        <ele>71</ele>
        <time>2013-04-21T07:49:17.000Z</time>
      </trkpt>
      <trkpt lat="47.53544" lon="-0.12948">
        <ele>71</ele>
        <time>2013-04-21T07:49:18.000Z</time>
      </trkpt>
      <trkpt lat="47.53544" lon="-0.12954">
        <ele>71</ele>
        <time>2013-04-21T07:49:29.000Z</time>
      </trkpt>
      <trkpt lat="47.53544" lon="-0.12955">
        <ele>71</ele>
        <time>2013-04-21T07:49:30.000Z</time>
      </trkpt>
      <trkpt lat="47.53544" lon="-0.1296">
        <ele>71</ele>
        <time>2013-04-21T07:49:36.000Z</time>
      </trkpt>
      <trkpt lat="47.53543" lon="-0.12962">
        <ele>71</ele>
        <time>2013-04-21T07:49:37.000Z</time>
      </trkpt>
      <trkpt lat="47.53544" lon="-0.12967">
        <ele>72</ele>
        <time>2013-04-21T07:49:41.000Z</time>
      </trkpt>
      <trkpt lat="47.53544" lon="-0.12968">
        <ele>72</ele>
        <time>2013-04-21T07:49:42.000Z</time>
      </trkpt>
      <trkpt lat="47.53544" lon="-0.12973">
        <ele>72</ele>
        <time>2013-04-21T07:49:44.000Z</time>
      </trkpt>
      <trkpt lat="47.53544" lon="-0.12975">
        <ele>72</ele>
        <time>2013-04-21T07:49:45.000Z</time>
      </trkpt>
      <trkpt lat="47.53544" lon="-0.12981">
        <ele>72</ele>
        <time>2013-04-21T07:49:48.000Z</time>
      </trkpt>
      <trkpt lat="47.53543" lon="-0.12983">
        <ele>72</ele>
        <time>2013-04-21T07:49:49.000Z</time>
      </trkpt>
      <trkpt lat="47.53543" lon="-0.12987">
        <ele>72</ele>
        <time>2013-04-21T07:49:52.000Z</time>
      </trkpt>
      <trkpt lat="47.53543" lon="-0.1299">
        <ele>72</ele>
        <time>2013-04-21T07:49:53.000Z</time>
      </trkpt>
      <trkpt lat="47.53541" lon="-0.12994">
        <ele>72</ele>
        <time>2013-04-21T07:49:56.000Z</time>
      </trkpt>
      <trkpt lat="47.53541" lon="-0.12997">
        <ele>72</ele>
        <time>2013-04-21T07:49:57.000Z</time>
      </trkpt>
      <trkpt lat="47.5354" lon="-0.13001">
        <ele>76</ele>
        <time>2013-04-21T07:50:00.000Z</time>
      </trkpt>
      <trkpt lat="47.5354" lon="-0.13003">
        <ele>76</ele>
        <time>2013-04-21T07:50:01.000Z</time>
      </trkpt>
      <trkpt lat="47.5354" lon="-0.13009">
        <ele>76</ele>
        <time>2013-04-21T07:50:10.000Z</time>
      </trkpt>
      <trkpt lat="47.5354" lon="-0.1301">
        <ele>76</ele>
        <time>2013-04-21T07:50:11.000Z</time>
      </trkpt>
      <trkpt lat="47.5354" lon="-0.13016">
        <ele>76</ele>
        <time>2013-04-21T07:50:14.000Z</time>
      </trkpt>
      <trkpt lat="47.53539" lon="-0.13018">
        <ele>76</ele>
        <time>2013-04-21T07:50:15.000Z</time>
      </trkpt>
      <trkpt lat="47.53538" lon="-0.13024">
        <ele>77</ele>
        <time>2013-04-21T07:50:20.000Z</time>
      </trkpt>
      <trkpt lat="47.53538" lon="-0.13025">
        <ele>77</ele>
        <time>2013-04-21T07:50:21.000Z</time>
      </trkpt>
      <trkpt lat="47.53537" lon="-0.13031">
        <ele>77</ele>
        <time>2013-04-21T07:50:24.000Z</time>
      </trkpt>
      <trkpt lat="47.53537" lon="-0.13032">
        <ele>77</ele>
        <time>2013-04-21T07:50:25.000Z</time>
      </trkpt>
      <trkpt lat="47.53536" lon="-0.13039">
        <ele>77</ele>
        <time>2013-04-21T07:50:29.000Z</time>
      </trkpt>
      <trkpt lat="47.53535" lon="-0.1304">
        <ele>77</ele>
        <time>2013-04-21T07:50:30.000Z</time>
      </trkpt>
      <trkpt lat="47.53533" lon="-0.13044">
        <ele>77</ele>
        <time>2013-04-21T07:50:33.000Z</time>
      </trkpt>
      <trkpt lat="47.53533" lon="-0.13046">
        <ele>77</ele>
        <time>2013-04-21T07:50:34.000Z</time>
      </trkpt>
      <trkpt lat="47.53532" lon="-0.13051">
        <ele>77</ele>
        <time>2013-04-21T07:50:39.000Z</time>
      </trkpt>
      <trkpt lat="47.53532" lon="-0.13052">
        <ele>77</ele>
        <time>2013-04-21T07:50:40.000Z</time>
      </trkpt>
      <trkpt lat="47.53532" lon="-0.13059">
        <ele>77</ele>
        <time>2013-04-21T07:50:44.000Z</time>
      </trkpt>
      <trkpt lat="47.53532" lon="-0.13061">
        <ele>77</ele>
        <time>2013-04-21T07:50:45.000Z</time>
      </trkpt>
      <trkpt lat="47.53532" lon="-0.13066">
        <ele>77</ele>
        <time>2013-04-21T07:50:48.000Z</time>
      </trkpt>
      <trkpt lat="47.53532" lon="-0.13068">
        <ele>77</ele>
        <time>2013-04-21T07:50:49.000Z</time>
      </trkpt>
      <trkpt lat="47.53531" lon="-0.13073">
        <ele>78</ele>
        <time>2013-04-21T07:50:55.000Z</time>
      </trkpt>
      <trkpt lat="47.5353" lon="-0.13077">
        <ele>78</ele>
        <time>2013-04-21T07:50:56.000Z</time>
      </trkpt>
      <trkpt lat="47.5353" lon="-0.13082">
        <ele>78</ele>
        <time>2013-04-21T07:50:59.000Z</time>
      </trkpt>
      <trkpt lat="47.5353" lon="-0.13083">
        <ele>79</ele>
        <time>2013-04-21T07:51:00.000Z</time>
      </trkpt>
      <trkpt lat="47.5353" lon="-0.1309">
        <ele>79</ele>
        <time>2013-04-21T07:51:04.000Z</time>
      </trkpt>
      <trkpt lat="47.5353" lon="-0.1309">
        <ele>79</ele>
        <time>2013-04-21T07:51:05.000Z</time>
      </trkpt>
      <trkpt lat="47.5353" lon="-0.13096">
        <ele>79</ele>
        <time>2013-04-21T07:51:10.000Z</time>
      </trkpt>
      <trkpt lat="47.5353" lon="-0.13097">
        <ele>79</ele>
        <time>2013-04-21T07:51:11.000Z</time>
      </trkpt>
      <trkpt lat="47.5353" lon="-0.13101">
        <ele>79</ele>
        <time>2013-04-21T07:51:16.000Z</time>
      </trkpt>
      <trkpt lat="47.5353" lon="-0.13105">
        <ele>80</ele>
        <time>2013-04-21T07:51:17.000Z</time>
      </trkpt>
      <trkpt lat="47.5353" lon="-0.13111">
        <ele>80</ele>
        <time>2013-04-21T07:51:20.000Z</time>
      </trkpt>
      <trkpt lat="47.53529" lon="-0.13112">
        <ele>80</ele>
        <time>2013-04-21T07:51:21.000Z</time>
      </trkpt>
      <trkpt lat="47.53528" lon="-0.13118">
        <ele>80</ele>
        <time>2013-04-21T07:51:24.000Z</time>
      </trkpt>
      <trkpt lat="47.53528" lon="-0.1312">
        <ele>80</ele>
        <time>2013-04-21T07:51:25.000Z</time>
      </trkpt>
      <trkpt lat="47.53527" lon="-0.13126">
        <ele>80</ele>
        <time>2013-04-21T07:51:28.000Z</time>
      </trkpt>
      <trkpt lat="47.53527" lon="-0.13127">
        <ele>80</ele>
        <time>2013-04-21T07:51:29.000Z</time>
      </trkpt>
      <trkpt lat="47.53526" lon="-0.13133">
        <ele>80</ele>
        <time>2013-04-21T07:51:34.000Z</time>
      </trkpt>
      <trkpt lat="47.53526" lon="-0.13134">
        <ele>80</ele>
        <time>2013-04-21T07:51:35.000Z</time>
      </trkpt>
      <trkpt lat="47.53524" lon="-0.1314">
        <ele>80</ele>
        <time>2013-04-21T07:51:39.000Z</time>
      </trkpt>
      <trkpt lat="47.53523" lon="-0.13141">
        <ele>80</ele>
        <time>2013-04-21T07:51:40.000Z</time>
      </trkpt>
      <trkpt lat="47.53522" lon="-0.13145">
        <ele>80</ele>
        <time>2013-04-21T07:51:43.000Z</time>
      </trkpt>
      <trkpt lat="47.53521" lon="-0.13147">
        <ele>80</ele>
        <time>2013-04-21T07:51:44.000Z</time>
      </trkpt>
      <trkpt lat="47.53518" lon="-0.13151">
        <ele>80</ele>
        <time>2013-04-21T07:51:49.000Z</time>
      </trkpt>
      <trkpt lat="47.53517" lon="-0.13152">
        <ele>80</ele>
        <time>2013-04-21T07:51:50.000Z</time>
      </trkpt>
      <trkpt lat="47.53514" lon="-0.13156">
        <ele>80</ele>
        <time>2013-04-21T07:51:54.000Z</time>
      </trkpt>
      <trkpt lat="47.53513" lon="-0.13157">
        <ele>80</ele>
        <time>2013-04-21T07:51:55.000Z</time>
      </trkpt>
      <trkpt lat="47.5351" lon="-0.13162">
        <ele>81</ele>
        <time>2013-04-21T07:52:00.000Z</time>
      </trkpt>
      <trkpt lat="47.53509" lon="-0.13163">
        <ele>81</ele>
        <time>2013-04-21T07:52:01.000Z</time>
      </trkpt>
      <trkpt lat="47.53506" lon="-0.13167">
        <ele>81</ele>
        <time>2013-04-21T07:52:04.000Z</time>
      </trkpt>
      <trkpt lat="47.53505" lon="-0.13168">
        <ele>81</ele>
        <time>2013-04-21T07:52:05.000Z</time>
      </trkpt>
      <trkpt lat="47.53502" lon="-0.13171">
        <ele>81</ele>
        <time>2013-04-21T07:52:09.000Z</time>
      </trkpt>
      <trkpt lat="47.53502" lon="-0.13172">
        <ele>81</ele>
        <time>2013-04-21T07:52:10.000Z</time>
      </trkpt>
      <trkpt lat="47.53499" lon="-0.13177">
        <ele>81</ele>
        <time>2013-04-21T07:52:13.000Z</time>
      </trkpt>
      <trkpt lat="47.53498" lon="-0.13177">
        <ele>80</ele>
        <time>2013-04-21T07:52:14.000Z</time>
      </trkpt>
      <trkpt lat="47.53494" lon="-0.1318">
        <ele>80</ele>
        <time>2013-04-21T07:52:18.000Z</time>
      </trkpt>
      <trkpt lat="47.53494" lon="-0.13181">
        <ele>80</ele>
        <time>2013-04-21T07:52:19.000Z</time>
      </trkpt>
      <trkpt lat="47.53491" lon="-0.13184">
        <ele>80</ele>
        <time>2013-04-21T07:52:23.000Z</time>
      </trkpt>
      <trkpt lat="47.5349" lon="-0.13184">
        <ele>80</ele>
        <time>2013-04-21T07:52:24.000Z</time>
      </trkpt>
      <trkpt lat="47.53486" lon="-0.13187">
        <ele>80</ele>
        <time>2013-04-21T07:52:27.000Z</time>
      </trkpt>
      <trkpt lat="47.53486" lon="-0.13188">
        <ele>80</ele>
        <time>2013-04-21T07:52:28.000Z</time>
      </trkpt>
      <trkpt lat="47.53481" lon="-0.1319">
        <ele>80</ele>
        <time>2013-04-21T07:52:33.000Z</time>
      </trkpt>
      <trkpt lat="47.5348" lon="-0.13191">
        <ele>80</ele>
        <time>2013-04-21T07:52:34.000Z</time>
      </trkpt>
      <trkpt lat="47.53476" lon="-0.13194">
        <ele>80</ele>
        <time>2013-04-21T07:52:41.000Z</time>
      </trkpt>
      <trkpt lat="47.53476" lon="-0.13194">
        <ele>80</ele>
        <time>2013-04-21T07:52:42.000Z</time>
      </trkpt>
      <trkpt lat="47.53472" lon="-0.13198">
        <ele>80</ele>
        <time>2013-04-21T07:52:46.000Z</time>
      </trkpt>
      <trkpt lat="47.53472" lon="-0.13199">
        <ele>80</ele>
        <time>2013-04-21T07:52:47.000Z</time>
      </trkpt>
      <trkpt lat="47.5347" lon="-0.13204">
        <ele>80</ele>
        <time>2013-04-21T07:52:52.000Z</time>
      </trkpt>
      <trkpt lat="47.53469" lon="-0.13205">
        <ele>80</ele>
        <time>2013-04-21T07:52:53.000Z</time>
      </trkpt>
      <trkpt lat="47.53467" lon="-0.1321">
        <ele>80</ele>
        <time>2013-04-21T07:52:57.000Z</time>
      </trkpt>
      <trkpt lat="47.53467" lon="-0.13211">
        <ele>80</ele>
        <time>2013-04-21T07:52:58.000Z</time>
      </trkpt>
      <trkpt lat="47.53467" lon="-0.13218">
        <ele>80</ele>
        <time>2013-04-21T07:53:05.000Z</time>
      </trkpt>
      <trkpt lat="47.53467" lon="-0.13218">
        <ele>80</ele>
        <time>2013-04-21T07:53:06.000Z</time>
      </trkpt>
      <trkpt lat="47.53466" lon="-0.13222">
        <ele>80</ele>
        <time>2013-04-21T07:53:08.000Z</time>
      </trkpt>
      <trkpt lat="47.53465" lon="-0.13225">
        <ele>80</ele>
        <time>2013-04-21T07:53:09.000Z</time>
      </trkpt>
      <trkpt lat="47.53461" lon="-0.13228">
        <ele>79</ele>
        <time>2013-04-21T07:53:11.000Z</time>
      </trkpt>
      <trkpt lat="47.53459" lon="-0.1323">
        <ele>79</ele>
        <time>2013-04-21T07:53:12.000Z</time>
      </trkpt>
      <trkpt lat="47.53455" lon="-0.13232">
        <ele>79</ele>
        <time>2013-04-21T07:53:14.000Z</time>
      </trkpt>
      <trkpt lat="47.53454" lon="-0.13233">
        <ele>79</ele>
        <time>2013-04-21T07:53:15.000Z</time>
      </trkpt>
      <trkpt lat="47.5345" lon="-0.13236">
        <ele>79</ele>
        <time>2013-04-21T07:53:20.000Z</time>
      </trkpt>
      <trkpt lat="47.5345" lon="-0.13237">
        <ele>79</ele>
        <time>2013-04-21T07:53:21.000Z</time>
      </trkpt>
      <trkpt lat="47.53447" lon="-0.13241">
        <ele>79</ele>
        <time>2013-04-21T07:53:24.000Z</time>
      </trkpt>
      <trkpt lat="47.53446" lon="-0.13242">
        <ele>79</ele>
        <time>2013-04-21T07:53:25.000Z</time>
      </trkpt>
      <trkpt lat="47.53443" lon="-0.13244">
        <ele>78</ele>
        <time>2013-04-21T07:53:27.000Z</time>
      </trkpt>
      <trkpt lat="47.53441" lon="-0.13245">
        <ele>78</ele>
        <time>2013-04-21T07:53:28.000Z</time>
      </trkpt>
      <trkpt lat="47.53438" lon="-0.13248">
        <ele>78</ele>
        <time>2013-04-21T07:53:31.000Z</time>
      </trkpt>
      <trkpt lat="47.53437" lon="-0.13248">
        <ele>78</ele>
        <time>2013-04-21T07:53:32.000Z</time>
      </trkpt>
      <trkpt lat="47.53435" lon="-0.13254">
        <ele>78</ele>
        <time>2013-04-21T07:53:39.000Z</time>
      </trkpt>
      <trkpt lat="47.53435" lon="-0.13254">
        <ele>78</ele>
        <time>2013-04-21T07:53:40.000Z</time>
      </trkpt>
      <trkpt lat="47.53436" lon="-0.13259">
        <ele>78</ele>
        <time>2013-04-21T07:53:47.000Z</time>
      </trkpt>
      <trkpt lat="47.53436" lon="-0.13262">
        <ele>78</ele>
        <time>2013-04-21T07:53:48.000Z</time>
      </trkpt>
      <trkpt lat="47.53433" lon="-0.13266">
        <ele>78</ele>
        <time>2013-04-21T07:53:53.000Z</time>
      </trkpt>
      <trkpt lat="47.53433" lon="-0.13268">
        <ele>78</ele>
        <time>2013-04-21T07:53:54.000Z</time>
      </trkpt>
      <trkpt lat="47.53432" lon="-0.13273">
        <ele>78</ele>
        <time>2013-04-21T07:53:58.000Z</time>
      </trkpt>
      <trkpt lat="47.53432" lon="-0.13275">
        <ele>78</ele>
        <time>2013-04-21T07:53:59.000Z</time>
      </trkpt>
      <trkpt lat="47.5343" lon="-0.1328">
        <ele>78</ele>
        <time>2013-04-21T07:54:05.000Z</time>
      </trkpt>
      <trkpt lat="47.5343" lon="-0.13281">
        <ele>78</ele>
        <time>2013-04-21T07:54:06.000Z</time>
      </trkpt>
      <trkpt lat="47.53427" lon="-0.13286">
        <ele>78</ele>
        <time>2013-04-21T07:54:11.000Z</time>
      </trkpt>
      <trkpt lat="47.53427" lon="-0.13287">
        <ele>78</ele>
        <time>2013-04-21T07:54:12.000Z</time>
      </trkpt>
      <trkpt lat="47.53425" lon="-0.13293">
        <ele>77</ele>
        <time>2013-04-21T07:54:16.000Z</time>
      </trkpt>
      <trkpt lat="47.53425" lon="-0.13295">
        <ele>77</ele>
        <time>2013-04-21T07:54:17.000Z</time>
      </trkpt>
      <trkpt lat="47.53423" lon="-0.133">
        <ele>77</ele>
        <time>2013-04-21T07:54:21.000Z</time>
      </trkpt>
      <trkpt lat="47.53423" lon="-0.13302">
        <ele>77</ele>
        <time>2013-04-21T07:54:22.000Z</time>
      </trkpt>
      <trkpt lat="47.53422" lon="-0.13305">
        <ele>77</ele>
        <time>2013-04-21T07:54:24.000Z</time>
      </trkpt>
      <trkpt lat="47.53421" lon="-0.13308">
        <ele>77</ele>
        <time>2013-04-21T07:54:25.000Z</time>
      </trkpt>
      <trkpt lat="47.5342" lon="-0.13312">
        <ele>77</ele>
        <time>2013-04-21T07:54:27.000Z</time>
      </trkpt>
      <trkpt lat="47.53419" lon="-0.13314">
        <ele>76</ele>
        <time>2013-04-21T07:54:28.000Z</time>
      </trkpt>
      <trkpt lat="47.53417" lon="-0.13319">
        <ele>76</ele>
        <time>2013-04-21T07:54:33.000Z</time>
      </trkpt>
      <trkpt lat="47.53416" lon="-0.1332">
        <ele>73</ele>
        <time>2013-04-21T07:54:34.000Z</time>
      </trkpt>
      <trkpt lat="47.53414" lon="-0.13325">
        <ele>73</ele>
        <time>2013-04-21T07:54:38.000Z</time>
      </trkpt>
      <trkpt lat="47.53414" lon="-0.13327">
        <ele>73</ele>
        <time>2013-04-21T07:54:39.000Z</time>
      </trkpt>
      <trkpt lat="47.53414" lon="-0.13333">
        <ele>74</ele>
        <time>2013-04-21T07:54:42.000Z</time>
      </trkpt>
      <trkpt lat="47.53414" lon="-0.13335">
        <ele>74</ele>
        <time>2013-04-21T07:54:43.000Z</time>
      </trkpt>
      <trkpt lat="47.53413" lon="-0.13341">
        <ele>73</ele>
        <time>2013-04-21T07:54:46.000Z</time>
      </trkpt>
      <trkpt lat="47.53412" lon="-0.13342">
        <ele>73</ele>
        <time>2013-04-21T07:54:47.000Z</time>
      </trkpt>
      <trkpt lat="47.53411" lon="-0.13347">
        <ele>73</ele>
        <time>2013-04-21T07:54:50.000Z</time>
      </trkpt>
      <trkpt lat="47.5341" lon="-0.13349">
        <ele>73</ele>
        <time>2013-04-21T07:54:51.000Z</time>
      </trkpt>
      <trkpt lat="47.5341" lon="-0.13355">
        <ele>72</ele>
        <time>2013-04-21T07:54:54.000Z</time>
      </trkpt>
      <trkpt lat="47.5341" lon="-0.1336">
        <ele>72</ele>
        <time>2013-04-21T07:54:55.000Z</time>
      </trkpt>
      <trkpt lat="47.53411" lon="-0.13366">
        <ele>72</ele>
        <time>2013-04-21T07:54:58.000Z</time>
      </trkpt>
      <trkpt lat="47.53412" lon="-0.13367">
        <ele>72</ele>
        <time>2013-04-21T07:54:59.000Z</time>
      </trkpt>
      <trkpt lat="47.53412" lon="-0.13373">
        <ele>72</ele>
        <time>2013-04-21T07:55:03.000Z</time>
      </trkpt>
      <trkpt lat="47.53412" lon="-0.13375">
        <ele>72</ele>
        <time>2013-04-21T07:55:04.000Z</time>
      </trkpt>
      <trkpt lat="47.53412" lon="-0.1338">
        <ele>72</ele>
        <time>2013-04-21T07:55:08.000Z</time>
      </trkpt>
      <trkpt lat="47.53411" lon="-0.13384">
        <ele>72</ele>
        <time>2013-04-21T07:55:09.000Z</time>
      </trkpt>
      <trkpt lat="47.53411" lon="-0.13389">
        <ele>73</ele>
        <time>2013-04-21T07:55:11.000Z</time>
      </trkpt>
      <trkpt lat="47.53411" lon="-0.13392">
        <ele>73</ele>
        <time>2013-04-21T07:55:12.000Z</time>
      </trkpt>
      <trkpt lat="47.53411" lon="-0.13397">
        <ele>73</ele>
        <time>2013-04-21T07:55:17.000Z</time>
      </trkpt>
      <trkpt lat="47.53411" lon="-0.13398">
        <ele>73</ele>
        <time>2013-04-21T07:55:18.000Z</time>
      </trkpt>
      <trkpt lat="47.53411" lon="-0.13403">
        <ele>74</ele>
        <time>2013-04-21T07:55:21.000Z</time>
      </trkpt>
      <trkpt lat="47.53411" lon="-0.13405">
        <ele>74</ele>
        <time>2013-04-21T07:55:22.000Z</time>
      </trkpt>
      <trkpt lat="47.5341" lon="-0.13411">
        <ele>74</ele>
        <time>2013-04-21T07:55:25.000Z</time>
      </trkpt>
      <trkpt lat="47.5341" lon="-0.13413">
        <ele>75</ele>
        <time>2013-04-21T07:55:26.000Z</time>
      </trkpt>
      <trkpt lat="47.5341" lon="-0.13418">
        <ele>76</ele>
        <time>2013-04-21T07:55:30.000Z</time>
      </trkpt>
      <trkpt lat="47.5341" lon="-0.1342">
        <ele>76</ele>
        <time>2013-04-21T07:55:31.000Z</time>
      </trkpt>
      <trkpt lat="47.5341" lon="-0.13426">
        <ele>76</ele>
        <time>2013-04-21T07:55:35.000Z</time>
      </trkpt>
      <trkpt lat="47.5341" lon="-0.13427">
        <ele>76</ele>
        <time>2013-04-21T07:55:36.000Z</time>
      </trkpt>
      <trkpt lat="47.5341" lon="-0.13431">
        <ele>76</ele>
        <time>2013-04-21T07:55:38.000Z</time>
      </trkpt>
      <trkpt lat="47.5341" lon="-0.13434">
        <ele>76</ele>
        <time>2013-04-21T07:55:39.000Z</time>
      </trkpt>
      <trkpt lat="47.5341" lon="-0.1344">
        <ele>76</ele>
        <time>2013-04-21T07:55:43.000Z</time>
      </trkpt>
      <trkpt lat="47.53409" lon="-0.13441">
        <ele>76</ele>
        <time>2013-04-21T07:55:44.000Z</time>
      </trkpt>
      <trkpt lat="47.5341" lon="-0.13448">
        <ele>76</ele>
        <time>2013-04-21T07:55:48.000Z</time>
      </trkpt>
      <trkpt lat="47.5341" lon="-0.13449">
        <ele>76</ele>
        <time>2013-04-21T07:55:49.000Z</time>
      </trkpt>
      <trkpt lat="47.5341" lon="-0.13455">
        <ele>76</ele>
        <time>2013-04-21T07:55:53.000Z</time>
      </trkpt>
      <trkpt lat="47.5341" lon="-0.13457">
        <ele>76</ele>
        <time>2013-04-21T07:55:54.000Z</time>
      </trkpt>
      <trkpt lat="47.53409" lon="-0.13463">
        <ele>77</ele>
        <time>2013-04-21T07:55:58.000Z</time>
      </trkpt>
      <trkpt lat="47.53409" lon="-0.13464">
        <ele>77</ele>
        <time>2013-04-21T07:55:59.000Z</time>
      </trkpt>
      <trkpt lat="47.53409" lon="-0.1347">
        <ele>77</ele>
        <time>2013-04-21T07:56:02.000Z</time>
      </trkpt>
      <trkpt lat="47.53408" lon="-0.13473">
        <ele>77</ele>
        <time>2013-04-21T07:56:03.000Z</time>
      </trkpt>
      <trkpt lat="47.53407" lon="-0.13478">
        <ele>78</ele>
        <time>2013-04-21T07:56:06.000Z</time>
      </trkpt>
      <trkpt lat="47.53407" lon="-0.1348">
        <ele>78</ele>
        <time>2013-04-21T07:56:07.000Z</time>
      </trkpt>
      <trkpt lat="47.53406" lon="-0.13485">
        <ele>79</ele>
        <time>2013-04-21T07:56:11.000Z</time>
      </trkpt>
      <trkpt lat="47.53406" lon="-0.13487">
        <ele>79</ele>
        <time>2013-04-21T07:56:12.000Z</time>
      </trkpt>
      <trkpt lat="47.53404" lon="-0.13492">
        <ele>79</ele>
        <time>2013-04-21T07:56:16.000Z</time>
      </trkpt>
      <trkpt lat="47.53403" lon="-0.13493">
        <ele>79</ele>
        <time>2013-04-21T07:56:17.000Z</time>
      </trkpt>
      <trkpt lat="47.534" lon="-0.13498">
        <ele>79</ele>
        <time>2013-04-21T07:56:21.000Z</time>
      </trkpt>
      <trkpt lat="47.534" lon="-0.13499">
        <ele>79</ele>
        <time>2013-04-21T07:56:22.000Z</time>
      </trkpt>
      <trkpt lat="47.53398" lon="-0.13504">
        <ele>81</ele>
        <time>2013-04-21T07:56:26.000Z</time>
      </trkpt>
      <trkpt lat="47.53397" lon="-0.13505">
        <ele>81</ele>
        <time>2013-04-21T07:56:27.000Z</time>
      </trkpt>
      <trkpt lat="47.53395" lon="-0.1351">
        <ele>81</ele>
        <time>2013-04-21T07:56:31.000Z</time>
      </trkpt>
      <trkpt lat="47.53395" lon="-0.13512">
        <ele>81</ele>
        <time>2013-04-21T07:56:32.000Z</time>
      </trkpt>
      <trkpt lat="47.53394" lon="-0.13518">
        <ele>81</ele>
        <time>2013-04-21T07:56:35.000Z</time>
      </trkpt>
      <trkpt lat="47.53394" lon="-0.1352">
        <ele>81</ele>
        <time>2013-04-21T07:56:36.000Z</time>
      </trkpt>
      <trkpt lat="47.53393" lon="-0.13526">
        <ele>81</ele>
        <time>2013-04-21T07:56:39.000Z</time>
      </trkpt>
      <trkpt lat="47.53393" lon="-0.13528">
        <ele>81</ele>
        <time>2013-04-21T07:56:40.000Z</time>
      </trkpt>
      <trkpt lat="47.53391" lon="-0.13533">
        <ele>81</ele>
        <time>2013-04-21T07:56:44.000Z</time>
      </trkpt>
      <trkpt lat="47.53391" lon="-0.13534">
        <ele>81</ele>
        <time>2013-04-21T07:56:45.000Z</time>
      </trkpt>
      <trkpt lat="47.5339" lon="-0.1354">
        <ele>81</ele>
        <time>2013-04-21T07:56:48.000Z</time>
      </trkpt>
      <trkpt lat="47.53389" lon="-0.13542">
        <ele>81</ele>
        <time>2013-04-21T07:56:49.000Z</time>
      </trkpt>
      <trkpt lat="47.53388" lon="-0.13547">
        <ele>82</ele>
        <time>2013-04-21T07:56:53.000Z</time>
      </trkpt>
      <trkpt lat="47.53387" lon="-0.13549">
        <ele>82</ele>
        <time>2013-04-21T07:56:54.000Z</time>
      </trkpt>
      <trkpt lat="47.53385" lon="-0.13554">
        <ele>82</ele>
        <time>2013-04-21T07:56:59.000Z</time>
      </trkpt>
      <trkpt lat="47.53385" lon="-0.13555">
        <ele>82</ele>
        <time>2013-04-21T07:57:00.000Z</time>
      </trkpt>
      <trkpt lat="47.53384" lon="-0.13561">
        <ele>82</ele>
        <time>2013-04-21T07:57:04.000Z</time>
      </trkpt>
      <trkpt lat="47.53383" lon="-0.13561">
        <ele>82</ele>
        <time>2013-04-21T07:57:05.000Z</time>
      </trkpt>
      <trkpt lat="47.53381" lon="-0.13566">
        <ele>82</ele>
        <time>2013-04-21T07:57:08.000Z</time>
      </trkpt>
      <trkpt lat="47.5338" lon="-0.13569">
        <ele>82</ele>
        <time>2013-04-21T07:57:09.000Z</time>
      </trkpt>
      <trkpt lat="47.5338" lon="-0.13574">
        <ele>82</ele>
        <time>2013-04-21T07:57:12.000Z</time>
      </trkpt>
      <trkpt lat="47.53379" lon="-0.13575">
        <ele>82</ele>
        <time>2013-04-21T07:57:13.000Z</time>
      </trkpt>
      <trkpt lat="47.53376" lon="-0.13579">
        <ele>82</ele>
        <time>2013-04-21T07:57:17.000Z</time>
      </trkpt>
      <trkpt lat="47.53375" lon="-0.1358">
        <ele>82</ele>
        <time>2013-04-21T07:57:18.000Z</time>
      </trkpt>
      <trkpt lat="47.53373" lon="-0.13584">
        <ele>83</ele>
        <time>2013-04-21T07:57:21.000Z</time>
      </trkpt>
      <trkpt lat="47.53372" lon="-0.13585">
        <ele>83</ele>
        <time>2013-04-21T07:57:22.000Z</time>
      </trkpt>
      <trkpt lat="47.5337" lon="-0.13589">
        <ele>83</ele>
        <time>2013-04-21T07:57:25.000Z</time>
      </trkpt>
      <trkpt lat="47.53369" lon="-0.13591">
        <ele>83</ele>
        <time>2013-04-21T07:57:26.000Z</time>
      </trkpt>
      <trkpt lat="47.53366" lon="-0.13596">
        <ele>83</ele>
        <time>2013-04-21T07:57:31.000Z</time>
      </trkpt>
      <trkpt lat="47.53366" lon="-0.13597">
        <ele>83</ele>
        <time>2013-04-21T07:57:32.000Z</time>
      </trkpt>
      <trkpt lat="47.53364" lon="-0.13601">
        <ele>83</ele>
        <time>2013-04-21T07:57:35.000Z</time>
      </trkpt>
      <trkpt lat="47.53363" lon="-0.13602">
        <ele>83</ele>
        <time>2013-04-21T07:57:36.000Z</time>
      </trkpt>
      <trkpt lat="47.5336" lon="-0.13607">
        <ele>83</ele>
        <time>2013-04-21T07:57:39.000Z</time>
      </trkpt>
      <trkpt lat="47.53359" lon="-0.13608">
        <ele>83</ele>
        <time>2013-04-21T07:57:40.000Z</time>
      </trkpt>
      <trkpt lat="47.53355" lon="-0.13612">
        <ele>83</ele>
        <time>2013-04-21T07:57:43.000Z</time>
      </trkpt>
      <trkpt lat="47.53355" lon="-0.13613">
        <ele>83</ele>
        <time>2013-04-21T07:57:44.000Z</time>
      </trkpt>
      <trkpt lat="47.53353" lon="-0.13618">
        <ele>83</ele>
        <time>2013-04-21T07:57:48.000Z</time>
      </trkpt>
      <trkpt lat="47.53352" lon="-0.1362">
        <ele>83</ele>
        <time>2013-04-21T07:57:49.000Z</time>
      </trkpt>
      <trkpt lat="47.53351" lon="-0.13625">
        <ele>83</ele>
        <time>2013-04-21T07:57:51.000Z</time>
      </trkpt>
      <trkpt lat="47.5335" lon="-0.13627">
        <ele>83</ele>
        <time>2013-04-21T07:57:52.000Z</time>
      </trkpt>
      <trkpt lat="47.53349" lon="-0.13633">
        <ele>83</ele>
        <time>2013-04-21T07:57:55.000Z</time>
      </trkpt>
      <trkpt lat="47.53348" lon="-0.13635">
        <ele>83</ele>
        <time>2013-04-21T07:57:56.000Z</time>
      </trkpt>
      <trkpt lat="47.53346" lon="-0.13639">
        <ele>84</ele>
        <time>2013-04-21T07:57:59.000Z</time>
      </trkpt>
      <trkpt lat="47.53345" lon="-0.1364">
        <ele>84</ele>
        <time>2013-04-21T07:58:00.000Z</time>
      </trkpt>
      <trkpt lat="47.53343" lon="-0.13646">
        <ele>84</ele>
        <time>2013-04-21T07:58:05.000Z</time>
      </trkpt>
      <trkpt lat="47.53343" lon="-0.13647">
        <ele>84</ele>
        <time>2013-04-21T07:58:06.000Z</time>
      </trkpt>
      <trkpt lat="47.5334" lon="-0.13653">
        <ele>84</ele>
        <time>2013-04-21T07:58:09.000Z</time>
      </trkpt>
      <trkpt lat="47.5334" lon="-0.13653">
        <ele>84</ele>
        <time>2013-04-21T07:58:10.000Z</time>
      </trkpt>
      <trkpt lat="47.53337" lon="-0.13657">
        <ele>84</ele>
        <time>2013-04-21T07:58:13.000Z</time>
      </trkpt>
      <trkpt lat="47.53336" lon="-0.13658">
        <ele>84</ele>
        <time>2013-04-21T07:58:14.000Z</time>
      </trkpt>
      <trkpt lat="47.53334" lon="-0.13663">
        <ele>84</ele>
        <time>2013-04-21T07:58:17.000Z</time>
      </trkpt>
      <trkpt lat="47.53334" lon="-0.13665">
        <ele>84</ele>
        <time>2013-04-21T07:58:18.000Z</time>
      </trkpt>
      <trkpt lat="47.53332" lon="-0.13669">
        <ele>83</ele>
        <time>2013-04-21T07:58:21.000Z</time>
      </trkpt>
      <trkpt lat="47.53331" lon="-0.1367">
        <ele>83</ele>
        <time>2013-04-21T07:58:22.000Z</time>
      </trkpt>
      <trkpt lat="47.53329" lon="-0.13675">
        <ele>82</ele>
        <time>2013-04-21T07:58:26.000Z</time>
      </trkpt>
      <trkpt lat="47.53328" lon="-0.13677">
        <ele>82</ele>
        <time>2013-04-21T07:58:27.000Z</time>
      </trkpt>
      <trkpt lat="47.53326" lon="-0.13682">
        <ele>81</ele>
        <time>2013-04-21T07:58:30.000Z</time>
      </trkpt>
      <trkpt lat="47.53325" lon="-0.13683">
        <ele>81</ele>
        <time>2013-04-21T07:58:31.000Z</time>
      </trkpt>
      <trkpt lat="47.53325" lon="-0.13689">
        <ele>81</ele>
        <time>2013-04-21T07:58:36.000Z</time>
      </trkpt>
      <trkpt lat="47.53325" lon="-0.1369">
        <ele>81</ele>
        <time>2013-04-21T07:58:37.000Z</time>
      </trkpt>
      <trkpt lat="47.53322" lon="-0.13695">
        <ele>80</ele>
        <time>2013-04-21T07:58:42.000Z</time>
      </trkpt>
      <trkpt lat="47.53322" lon="-0.13697">
        <ele>80</ele>
        <time>2013-04-21T07:58:43.000Z</time>
      </trkpt>
      <trkpt lat="47.5332" lon="-0.13703">
        <ele>80</ele>
        <time>2013-04-21T07:58:45.000Z</time>
      </trkpt>
      <trkpt lat="47.53319" lon="-0.13705">
        <ele>80</ele>
        <time>2013-04-21T07:58:46.000Z</time>
      </trkpt>
      <trkpt lat="47.53316" lon="-0.13709">
        <ele>80</ele>
        <time>2013-04-21T07:58:50.000Z</time>
      </trkpt>
      <trkpt lat="47.53315" lon="-0.1371">
        <ele>80</ele>
        <time>2013-04-21T07:58:51.000Z</time>
      </trkpt>
      <trkpt lat="47.53313" lon="-0.13715">
        <ele>80</ele>
        <time>2013-04-21T07:58:56.000Z</time>
      </trkpt>
      <trkpt lat="47.53312" lon="-0.13716">
        <ele>80</ele>
        <time>2013-04-21T07:58:57.000Z</time>
      </trkpt>
      <trkpt lat="47.5331" lon="-0.13719">
        <ele>79</ele>
        <time>2013-04-21T07:58:59.000Z</time>
      </trkpt>
      <trkpt lat="47.53308" lon="-0.13721">
        <ele>79</ele>
        <time>2013-04-21T07:59:00.000Z</time>
      </trkpt>
      <trkpt lat="47.53305" lon="-0.13725">
        <ele>79</ele>
        <time>2013-04-21T07:59:03.000Z</time>
      </trkpt>
      <trkpt lat="47.53304" lon="-0.13726">
        <ele>79</ele>
        <time>2013-04-21T07:59:04.000Z</time>
      </trkpt>
      <trkpt lat="47.53301" lon="-0.1373">
        <ele>79</ele>
        <time>2013-04-21T07:59:11.000Z</time>
      </trkpt>
      <trkpt lat="47.53301" lon="-0.13731">
        <ele>79</ele>
        <time>2013-04-21T07:59:12.000Z</time>
      </trkpt>
      <trkpt lat="47.53298" lon="-0.13735">
        <ele>79</ele>
        <time>2013-04-21T07:59:15.000Z</time>
      </trkpt>
      <trkpt lat="47.53297" lon="-0.13736">
        <ele>79</ele>
        <time>2013-04-21T07:59:16.000Z</time>
      </trkpt>
      <trkpt lat="47.53295" lon="-0.13741">
        <ele>79</ele>
        <time>2013-04-21T07:59:20.000Z</time>
      </trkpt>
      <trkpt lat="47.53294" lon="-0.13742">
        <ele>79</ele>
        <time>2013-04-21T07:59:21.000Z</time>
      </trkpt>
      <trkpt lat="47.53291" lon="-0.13746">
        <ele>79</ele>
        <time>2013-04-21T07:59:40.000Z</time>
      </trkpt>
      <trkpt lat="47.5329" lon="-0.13747">
        <ele>79</ele>
        <time>2013-04-21T07:59:41.000Z</time>
      </trkpt>
      <trkpt lat="47.53287" lon="-0.13751">
        <ele>78</ele>
        <time>2013-04-21T07:59:46.000Z</time>
      </trkpt>
      <trkpt lat="47.53287" lon="-0.13751">
        <ele>78</ele>
        <time>2013-04-21T07:59:47.000Z</time>
      </trkpt>
      <trkpt lat="47.53283" lon="-0.13756">
        <ele>78</ele>
        <time>2013-04-21T07:59:54.000Z</time>
      </trkpt>
      <trkpt lat="47.53282" lon="-0.13756">
        <ele>78</ele>
        <time>2013-04-21T07:59:55.000Z</time>
      </trkpt>
      <trkpt lat="47.5328" lon="-0.1376">
        <ele>78</ele>
        <time>2013-04-21T07:59:57.000Z</time>
      </trkpt>
      <trkpt lat="47.53279" lon="-0.13762">
        <ele>78</ele>
        <time>2013-04-21T07:59:58.000Z</time>
      </trkpt>
      <trkpt lat="47.53276" lon="-0.13765">
        <ele>78</ele>
        <time>2013-04-21T08:00:01.000Z</time>
      </trkpt>
      <trkpt lat="47.53274" lon="-0.13767">
        <ele>78</ele>
        <time>2013-04-21T08:00:02.000Z</time>
      </trkpt>
      <trkpt lat="47.53272" lon="-0.13771">
        <ele>78</ele>
        <time>2013-04-21T08:00:05.000Z</time>
      </trkpt>
      <trkpt lat="47.53271" lon="-0.13772">
        <ele>78</ele>
        <time>2013-04-21T08:00:06.000Z</time>
      </trkpt>
      <trkpt lat="47.53269" lon="-0.13777">
        <ele>78</ele>
        <time>2013-04-21T08:00:10.000Z</time>
      </trkpt>
      <trkpt lat="47.53267" lon="-0.13779">
        <ele>77</ele>
        <time>2013-04-21T08:00:11.000Z</time>
      </trkpt>
      <trkpt lat="47.53265" lon="-0.13784">
        <ele>77</ele>
        <time>2013-04-21T08:00:15.000Z</time>
      </trkpt>
      <trkpt lat="47.53263" lon="-0.13786">
        <ele>77</ele>
        <time>2013-04-21T08:00:16.000Z</time>
      </trkpt>
      <trkpt lat="47.5326" lon="-0.13789">
        <ele>77</ele>
        <time>2013-04-21T08:00:20.000Z</time>
      </trkpt>
      <trkpt lat="47.53259" lon="-0.1379">
        <ele>77</ele>
        <time>2013-04-21T08:00:21.000Z</time>
      </trkpt>
      <trkpt lat="47.53256" lon="-0.13794">
        <ele>77</ele>
        <time>2013-04-21T08:00:25.000Z</time>
      </trkpt>
      <trkpt lat="47.53256" lon="-0.13796">
        <ele>77</ele>
        <time>2013-04-21T08:00:26.000Z</time>
      </trkpt>
      <trkpt lat="47.53253" lon="-0.138">
        <ele>77</ele>
        <time>2013-04-21T08:00:31.000Z</time>
      </trkpt>
      <trkpt lat="47.53253" lon="-0.13801">
        <ele>77</ele>
        <time>2013-04-21T08:00:32.000Z</time>
      </trkpt>
      <trkpt lat="47.53251" lon="-0.13805">
        <ele>77</ele>
        <time>2013-04-21T08:00:36.000Z</time>
      </trkpt>
      <trkpt lat="47.5325" lon="-0.13806">
        <ele>74</ele>
        <time>2013-04-21T08:00:37.000Z</time>
      </trkpt>
      <trkpt lat="47.53248" lon="-0.13811">
        <ele>74</ele>
        <time>2013-04-21T08:00:40.000Z</time>
      </trkpt>
      <trkpt lat="47.53247" lon="-0.13813">
        <ele>74</ele>
        <time>2013-04-21T08:00:41.000Z</time>
      </trkpt>
      <trkpt lat="47.53245" lon="-0.13818">
        <ele>74</ele>
        <time>2013-04-21T08:00:44.000Z</time>
      </trkpt>
      <trkpt lat="47.53244" lon="-0.13819">
        <ele>74</ele>
        <time>2013-04-21T08:00:45.000Z</time>
      </trkpt>
      <trkpt lat="47.53241" lon="-0.13822">
        <ele>74</ele>
        <time>2013-04-21T08:00:47.000Z</time>
      </trkpt>
      <trkpt lat="47.5324" lon="-0.13823">
        <ele>74</ele>
        <time>2013-04-21T08:00:48.000Z</time>
      </trkpt>
      <trkpt lat="47.53238" lon="-0.13826">
        <ele>74</ele>
        <time>2013-04-21T08:00:51.000Z</time>
      </trkpt>
      <trkpt lat="47.53237" lon="-0.13827">
        <ele>74</ele>
        <time>2013-04-21T08:00:52.000Z</time>
      </trkpt>
      <trkpt lat="47.53235" lon="-0.13833">
        <ele>74</ele>
        <time>2013-04-21T08:00:55.000Z</time>
      </trkpt>
      <trkpt lat="47.53235" lon="-0.13834">
        <ele>74</ele>
        <time>2013-04-21T08:00:56.000Z</time>
      </trkpt>
      <trkpt lat="47.53233" lon="-0.13839">
        <ele>74</ele>
        <time>2013-04-21T08:00:58.000Z</time>
      </trkpt>
      <trkpt lat="47.53233" lon="-0.13841">
        <ele>74</ele>
        <time>2013-04-21T08:00:59.000Z</time>
      </trkpt>
      <trkpt lat="47.53231" lon="-0.13847">
        <ele>74</ele>
        <time>2013-04-21T08:01:04.000Z</time>
      </trkpt>
      <trkpt lat="47.53231" lon="-0.13849">
        <ele>74</ele>
        <time>2013-04-21T08:01:05.000Z</time>
      </trkpt>
      <trkpt lat="47.5323" lon="-0.13855">
        <ele>74</ele>
        <time>2013-04-21T08:01:09.000Z</time>
      </trkpt>
      <trkpt lat="47.5323" lon="-0.13857">
        <ele>74</ele>
        <time>2013-04-21T08:01:10.000Z</time>
      </trkpt>
      <trkpt lat="47.53229" lon="-0.13863">
        <ele>74</ele>
        <time>2013-04-21T08:01:14.000Z</time>
      </trkpt>
      <trkpt lat="47.53229" lon="-0.13865">
        <ele>74</ele>
        <time>2013-04-21T08:01:15.000Z</time>
      </trkpt>
      <trkpt lat="47.53228" lon="-0.13871">
        <ele>74</ele>
        <time>2013-04-21T08:01:19.000Z</time>
      </trkpt>
      <trkpt lat="47.53227" lon="-0.13872">
        <ele>74</ele>
        <time>2013-04-21T08:01:20.000Z</time>
      </trkpt>
      <trkpt lat="47.53225" lon="-0.13877">
        <ele>74</ele>
        <time>2013-04-21T08:01:23.000Z</time>
      </trkpt>
      <trkpt lat="47.53225" lon="-0.13878">
        <ele>74</ele>
        <time>2013-04-21T08:01:24.000Z</time>
      </trkpt>
      <trkpt lat="47.53223" lon="-0.13882">
        <ele>74</ele>
        <time>2013-04-21T08:01:27.000Z</time>
      </trkpt>
      <trkpt lat="47.53221" lon="-0.13885">
        <ele>74</ele>
        <time>2013-04-21T08:01:28.000Z</time>
      </trkpt>
      <trkpt lat="47.53219" lon="-0.13889">
        <ele>74</ele>
        <time>2013-04-21T08:01:31.000Z</time>
      </trkpt>
      <trkpt lat="47.53218" lon="-0.13892">
        <ele>73</ele>
        <time>2013-04-21T08:01:32.000Z</time>
      </trkpt>
      <trkpt lat="47.53217" lon="-0.13896">
        <ele>73</ele>
        <time>2013-04-21T08:01:34.000Z</time>
      </trkpt>
      <trkpt lat="47.53216" lon="-0.13898">
        <ele>73</ele>
        <time>2013-04-21T08:01:35.000Z</time>
      </trkpt>
      <trkpt lat="47.53214" lon="-0.13904">
        <ele>73</ele>
        <time>2013-04-21T08:01:38.000Z</time>
      </trkpt>
      <trkpt lat="47.53214" lon="-0.13906">
        <ele>73</ele>
        <time>2013-04-21T08:01:39.000Z</time>
      </trkpt>
      <trkpt lat="47.53213" lon="-0.13911">
        <ele>73</ele>
        <time>2013-04-21T08:01:43.000Z</time>
      </trkpt>
      <trkpt lat="47.53212" lon="-0.13913">
        <ele>73</ele>
        <time>2013-04-21T08:01:44.000Z</time>
      </trkpt>
      <trkpt lat="47.53212" lon="-0.13919">
        <ele>74</ele>
        <time>2013-04-21T08:01:47.000Z</time>
      </trkpt>
      <trkpt lat="47.53211" lon="-0.13921">
        <ele>74</ele>
        <time>2013-04-21T08:01:48.000Z</time>
      </trkpt>
      <trkpt lat="47.5321" lon="-0.13927">
        <ele>74</ele>
        <time>2013-04-21T08:01:52.000Z</time>
      </trkpt>
      <trkpt lat="47.5321" lon="-0.13929">
        <ele>74</ele>
        <time>2013-04-21T08:01:53.000Z</time>
      </trkpt>
      <trkpt lat="47.53209" lon="-0.13933">
        <ele>74</ele>
        <time>2013-04-21T08:01:55.000Z</time>
      </trkpt>
      <trkpt lat="47.53209" lon="-0.13935">
        <ele>74</ele>
        <time>2013-04-21T08:01:56.000Z</time>
      </trkpt>
      <trkpt lat="47.53207" lon="-0.13941">
        <ele>74</ele>
        <time>2013-04-21T08:02:01.000Z</time>
      </trkpt>
      <trkpt lat="47.53207" lon="-0.13942">
        <ele>74</ele>
        <time>2013-04-21T08:02:02.000Z</time>
      </trkpt>
      <trkpt lat="47.53205" lon="-0.13947">
        <ele>74</ele>
        <time>2013-04-21T08:02:07.000Z</time>
      </trkpt>
      <trkpt lat="47.53204" lon="-0.13949">
        <ele>74</ele>
        <time>2013-04-21T08:02:08.000Z</time>
      </trkpt>
      <trkpt lat="47.53204" lon="-0.13955">
        <ele>74</ele>
        <time>2013-04-21T08:02:11.000Z</time>
      </trkpt>
      <trkpt lat="47.53203" lon="-0.13958">
        <ele>74</ele>
        <time>2013-04-21T08:02:12.000Z</time>
      </trkpt>
      <trkpt lat="47.53203" lon="-0.13963">
        <ele>74</ele>
        <time>2013-04-21T08:02:14.000Z</time>
      </trkpt>
      <trkpt lat="47.53203" lon="-0.13965">
        <ele>74</ele>
        <time>2013-04-21T08:02:15.000Z</time>
      </trkpt>
      <trkpt lat="47.53201" lon="-0.1397">
        <ele>74</ele>
        <time>2013-04-21T08:02:17.000Z</time>
      </trkpt>
      <trkpt lat="47.53201" lon="-0.13972">
        <ele>74</ele>
        <time>2013-04-21T08:02:18.000Z</time>
      </trkpt>
      <trkpt lat="47.53199" lon="-0.13977">
        <ele>74</ele>
        <time>2013-04-21T08:02:20.000Z</time>
      </trkpt>
      <trkpt lat="47.53199" lon="-0.13979">
        <ele>74</ele>
        <time>2013-04-21T08:02:21.000Z</time>
      </trkpt>
      <trkpt lat="47.53198" lon="-0.13985">
        <ele>74</ele>
        <time>2013-04-21T08:02:25.000Z</time>
      </trkpt>
      <trkpt lat="47.53198" lon="-0.13986">
        <ele>74</ele>
        <time>2013-04-21T08:02:26.000Z</time>
      </trkpt>
      <trkpt lat="47.53195" lon="-0.1399">
        <ele>74</ele>
        <time>2013-04-21T08:02:29.000Z</time>
      </trkpt>
      <trkpt lat="47.53194" lon="-0.13992">
        <ele>74</ele>
        <time>2013-04-21T08:02:30.000Z</time>
      </trkpt>
      <trkpt lat="47.53193" lon="-0.13997">
        <ele>74</ele>
        <time>2013-04-21T08:02:34.000Z</time>
      </trkpt>
      <trkpt lat="47.53193" lon="-0.13999">
        <ele>74</ele>
        <time>2013-04-21T08:02:35.000Z</time>
      </trkpt>
      <trkpt lat="47.53191" lon="-0.14004">
        <ele>76</ele>
        <time>2013-04-21T08:02:39.000Z</time>
      </trkpt>
      <trkpt lat="47.5319" lon="-0.14005">
        <ele>76</ele>
        <time>2013-04-21T08:02:40.000Z</time>
      </trkpt>
      <trkpt lat="47.53187" lon="-0.1401">
        <ele>76</ele>
        <time>2013-04-21T08:02:43.000Z</time>
      </trkpt>
      <trkpt lat="47.53186" lon="-0.14012">
        <ele>76</ele>
        <time>2013-04-21T08:02:44.000Z</time>
      </trkpt>
      <trkpt lat="47.53184" lon="-0.14016">
        <ele>76</ele>
        <time>2013-04-21T08:02:47.000Z</time>
      </trkpt>
      <trkpt lat="47.53184" lon="-0.14017">
        <ele>76</ele>
        <time>2013-04-21T08:02:48.000Z</time>
      </trkpt>
      <trkpt lat="47.53181" lon="-0.14022">
        <ele>76</ele>
        <time>2013-04-21T08:03:05.000Z</time>
      </trkpt>
      <trkpt lat="47.5318" lon="-0.14024">
        <ele>76</ele>
        <time>2013-04-21T08:03:06.000Z</time>
      </trkpt>
      <trkpt lat="47.53178" lon="-0.14028">
        <ele>77</ele>
        <time>2013-04-21T08:03:08.000Z</time>
      </trkpt>
      <trkpt lat="47.53177" lon="-0.1403">
        <ele>77</ele>
        <time>2013-04-21T08:03:09.000Z</time>
      </trkpt>
      <trkpt lat="47.53174" lon="-0.14035">
        <ele>77</ele>
        <time>2013-04-21T08:03:13.000Z</time>
      </trkpt>
      <trkpt lat="47.53173" lon="-0.14036">
        <ele>77</ele>
        <time>2013-04-21T08:03:14.000Z</time>
      </trkpt>
      <trkpt lat="47.5317" lon="-0.1404">
        <ele>77</ele>
        <time>2013-04-21T08:03:17.000Z</time>
      </trkpt>
      <trkpt lat="47.53168" lon="-0.14041">
        <ele>78</ele>
        <time>2013-04-21T08:03:18.000Z</time>
      </trkpt>
      <trkpt lat="47.53166" lon="-0.14045">
        <ele>74</ele>
        <time>2013-04-21T08:03:22.000Z</time>
      </trkpt>
      <trkpt lat="47.53165" lon="-0.14048">
        <ele>74</ele>
        <time>2013-04-21T08:03:23.000Z</time>
      </trkpt>
      <trkpt lat="47.53163" lon="-0.14052">
        <ele>75</ele>
        <time>2013-04-21T08:03:25.000Z</time>
      </trkpt>
      <trkpt lat="47.53162" lon="-0.14054">
        <ele>75</ele>
        <time>2013-04-21T08:03:26.000Z</time>
      </trkpt>
      <trkpt lat="47.5316" lon="-0.14058">
        <ele>75</ele>
        <time>2013-04-21T08:03:28.000Z</time>
      </trkpt>
      <trkpt lat="47.53159" lon="-0.1406">
        <ele>75</ele>
        <time>2013-04-21T08:03:29.000Z</time>
      </trkpt>
      <trkpt lat="47.53157" lon="-0.14064">
        <ele>76</ele>
        <time>2013-04-21T08:03:32.000Z</time>
      </trkpt>
      <trkpt lat="47.53156" lon="-0.14065">
        <ele>76</ele>
        <time>2013-04-21T08:03:33.000Z</time>
      </trkpt>
      <trkpt lat="47.53153" lon="-0.1407">
        <ele>76</ele>
        <time>2013-04-21T08:03:36.000Z</time>
      </trkpt>
      <trkpt lat="47.53152" lon="-0.14072">
        <ele>76</ele>
        <time>2013-04-21T08:03:37.000Z</time>
      </trkpt>
      <trkpt lat="47.53149" lon="-0.14076">
        <ele>76</ele>
        <time>2013-04-21T08:03:40.000Z</time>
      </trkpt>
      <trkpt lat="47.53148" lon="-0.14077">
        <ele>76</ele>
        <time>2013-04-21T08:03:41.000Z</time>
      </trkpt>
      <trkpt lat="47.53145" lon="-0.14081">
        <ele>76</ele>
        <time>2013-04-21T08:03:45.000Z</time>
      </trkpt>
      <trkpt lat="47.53145" lon="-0.14082">
        <ele>76</ele>
        <time>2013-04-21T08:03:46.000Z</time>
      </trkpt>
      <trkpt lat="47.53142" lon="-0.14087">
        <ele>79</ele>
        <time>2013-04-21T08:03:49.000Z</time>
      </trkpt>
      <trkpt lat="47.53141" lon="-0.14087">
        <ele>79</ele>
        <time>2013-04-21T08:03:50.000Z</time>
      </trkpt>
      <trkpt lat="47.53138" lon="-0.1409">
        <ele>79</ele>
        <time>2013-04-21T08:03:53.000Z</time>
      </trkpt>
      <trkpt lat="47.53137" lon="-0.14092">
        <ele>79</ele>
        <time>2013-04-21T08:03:54.000Z</time>
      </trkpt>
      <trkpt lat="47.53135" lon="-0.14096">
        <ele>79</ele>
        <time>2013-04-21T08:03:56.000Z</time>
      </trkpt>
      <trkpt lat="47.53134" lon="-0.14097">
        <ele>79</ele>
        <time>2013-04-21T08:03:57.000Z</time>
      </trkpt>
      <trkpt lat="47.53131" lon="-0.14101">
        <ele>79</ele>
        <time>2013-04-21T08:04:00.000Z</time>
      </trkpt>
      <trkpt lat="47.53131" lon="-0.14103">
        <ele>79</ele>
        <time>2013-04-21T08:04:01.000Z</time>
      </trkpt>
      <trkpt lat="47.53128" lon="-0.14107">
        <ele>79</ele>
        <time>2013-04-21T08:04:04.000Z</time>
      </trkpt>
      <trkpt lat="47.53127" lon="-0.14107">
        <ele>78</ele>
        <time>2013-04-21T08:04:05.000Z</time>
      </trkpt>
      <trkpt lat="47.53124" lon="-0.14112">
        <ele>79</ele>
        <time>2013-04-21T08:04:08.000Z</time>
      </trkpt>
      <trkpt lat="47.53123" lon="-0.14113">
        <ele>78</ele>
        <time>2013-04-21T08:04:09.000Z</time>
      </trkpt>
      <trkpt lat="47.53121" lon="-0.14117">
        <ele>79</ele>
        <time>2013-04-21T08:04:12.000Z</time>
      </trkpt>
      <trkpt lat="47.5312" lon="-0.14118">
        <ele>79</ele>
        <time>2013-04-21T08:04:13.000Z</time>
      </trkpt>
      <trkpt lat="47.53117" lon="-0.14123">
        <ele>79</ele>
        <time>2013-04-21T08:04:17.000Z</time>
      </trkpt>
      <trkpt lat="47.53116" lon="-0.14124">
        <ele>79</ele>
        <time>2013-04-21T08:04:18.000Z</time>
      </trkpt>
      <trkpt lat="47.53113" lon="-0.14128">
        <ele>79</ele>
        <time>2013-04-21T08:04:21.000Z</time>
      </trkpt>
      <trkpt lat="47.53112" lon="-0.1413">
        <ele>79</ele>
        <time>2013-04-21T08:04:22.000Z</time>
      </trkpt>
      <trkpt lat="47.53109" lon="-0.14134">
        <ele>79</ele>
        <time>2013-04-21T08:04:26.000Z</time>
      </trkpt>
      <trkpt lat="47.53108" lon="-0.14135">
        <ele>79</ele>
        <time>2013-04-21T08:04:27.000Z</time>
      </trkpt>
      <trkpt lat="47.53104" lon="-0.14138">
        <ele>79</ele>
        <time>2013-04-21T08:04:31.000Z</time>
      </trkpt>
      <trkpt lat="47.53103" lon="-0.14139">
        <ele>79</ele>
        <time>2013-04-21T08:04:32.000Z</time>
      </trkpt>
      <trkpt lat="47.53101" lon="-0.14144">
        <ele>79</ele>
        <time>2013-04-21T08:04:35.000Z</time>
      </trkpt>
      <trkpt lat="47.531" lon="-0.14145">
        <ele>79</ele>
        <time>2013-04-21T08:04:36.000Z</time>
      </trkpt>
      <trkpt lat="47.53098" lon="-0.1415">
        <ele>79</ele>
        <time>2013-04-21T08:04:39.000Z</time>
      </trkpt>
      <trkpt lat="47.53097" lon="-0.14152">
        <ele>79</ele>
        <time>2013-04-21T08:04:40.000Z</time>
      </trkpt>
      <trkpt lat="47.53095" lon="-0.14157">
        <ele>79</ele>
        <time>2013-04-21T08:05:46.000Z</time>
      </trkpt>
      <trkpt lat="47.53095" lon="-0.14159">
        <ele>79</ele>
        <time>2013-04-21T08:05:47.000Z</time>
      </trkpt>
      <trkpt lat="47.53092" lon="-0.14162">
        <ele>79</ele>
        <time>2013-04-21T08:05:49.000Z</time>
      </trkpt>
      <trkpt lat="47.53091" lon="-0.14164">
        <ele>79</ele>
        <time>2013-04-21T08:05:50.000Z</time>
      </trkpt>
      <trkpt lat="47.53089" lon="-0.14168">
        <ele>80</ele>
        <time>2013-04-21T08:05:52.000Z</time>
      </trkpt>
      <trkpt lat="47.53088" lon="-0.1417">
        <ele>80</ele>
        <time>2013-04-21T08:05:53.000Z</time>
      </trkpt>
      <trkpt lat="47.53085" lon="-0.14174">
        <ele>80</ele>
        <time>2013-04-21T08:05:55.000Z</time>
      </trkpt>
      <trkpt lat="47.53084" lon="-0.14175">
        <ele>80</ele>
        <time>2013-04-21T08:05:56.000Z</time>
      </trkpt>
      <trkpt lat="47.53081" lon="-0.14179">
        <ele>78</ele>
        <time>2013-04-21T08:05:59.000Z</time>
      </trkpt>
      <trkpt lat="47.5308" lon="-0.1418">
        <ele>78</ele>
        <time>2013-04-21T08:06:00.000Z</time>
      </trkpt>
      <trkpt lat="47.53077" lon="-0.14183">
        <ele>78</ele>
        <time>2013-04-21T08:06:03.000Z</time>
      </trkpt>
      <trkpt lat="47.53076" lon="-0.14185">
        <ele>78</ele>
        <time>2013-04-21T08:06:04.000Z</time>
      </trkpt>
      <trkpt lat="47.53072" lon="-0.14189">
        <ele>78</ele>
        <time>2013-04-21T08:06:08.000Z</time>
      </trkpt>
      <trkpt lat="47.53072" lon="-0.1419">
        <ele>78</ele>
        <time>2013-04-21T08:06:09.000Z</time>
      </trkpt>
      <trkpt lat="47.5307" lon="-0.14195">
        <ele>77</ele>
        <time>2013-04-21T08:06:12.000Z</time>
      </trkpt>
      <trkpt lat="47.5307" lon="-0.14197">
        <ele>77</ele>
        <time>2013-04-21T08:06:13.000Z</time>
      </trkpt>
      <trkpt lat="47.53067" lon="-0.14201">
        <ele>77</ele>
        <time>2013-04-21T08:06:17.000Z</time>
      </trkpt>
      <trkpt lat="47.53066" lon="-0.14202">
        <ele>77</ele>
        <time>2013-04-21T08:06:18.000Z</time>
      </trkpt>
      <trkpt lat="47.53062" lon="-0.14205">
        <ele>77</ele>
        <time>2013-04-21T08:06:22.000Z</time>
      </trkpt>
      <trkpt lat="47.53062" lon="-0.14207">
        <ele>77</ele>
        <time>2013-04-21T08:06:23.000Z</time>
      </trkpt>
      <trkpt lat="47.53059" lon="-0.14212">
        <ele>77</ele>
        <time>2013-04-21T08:06:26.000Z</time>
      </trkpt>
      <trkpt lat="47.53058" lon="-0.14213">
        <ele>77</ele>
        <time>2013-04-21T08:06:27.000Z</time>
      </trkpt>
      <trkpt lat="47.53056" lon="-0.14218">
        <ele>77</ele>
        <time>2013-04-21T08:06:30.000Z</time>
      </trkpt>
      <trkpt lat="47.53055" lon="-0.1422">
        <ele>77</ele>
        <time>2013-04-21T08:06:31.000Z</time>
      </trkpt>
      <trkpt lat="47.53053" lon="-0.14225">
        <ele>77</ele>
        <time>2013-04-21T08:06:38.000Z</time>
      </trkpt>
      <trkpt lat="47.53051" lon="-0.14229">
        <ele>77</ele>
        <time>2013-04-21T08:06:39.000Z</time>
      </trkpt>
      <trkpt lat="47.53049" lon="-0.14233">
        <ele>77</ele>
        <time>2013-04-21T08:06:42.000Z</time>
      </trkpt>
      <trkpt lat="47.53048" lon="-0.14235">
        <ele>77</ele>
        <time>2013-04-21T08:06:43.000Z</time>
      </trkpt>
      <trkpt lat="47.53046" lon="-0.14239">
        <ele>77</ele>
        <time>2013-04-21T08:06:45.000Z</time>
      </trkpt>
      <trkpt lat="47.53045" lon="-0.1424">
        <ele>77</ele>
        <time>2013-04-21T08:06:46.000Z</time>
      </trkpt>
      <trkpt lat="47.53043" lon="-0.14244">
        <ele>77</ele>
        <time>2013-04-21T08:06:50.000Z</time>
      </trkpt>
      <trkpt lat="47.53042" lon="-0.14245">
        <ele>77</ele>
        <time>2013-04-21T08:06:51.000Z</time>
      </trkpt>
      <trkpt lat="47.53039" lon="-0.14249">
        <ele>77</ele>
        <time>2013-04-21T08:06:54.000Z</time>
      </trkpt>
      <trkpt lat="47.53038" lon="-0.1425">
        <ele>77</ele>
        <time>2013-04-21T08:06:55.000Z</time>
      </trkpt>
      <trkpt lat="47.53035" lon="-0.14253">
        <ele>79</ele>
        <time>2013-04-21T08:06:59.000Z</time>
      </trkpt>
      <trkpt lat="47.53034" lon="-0.14254">
        <ele>78</ele>
        <time>2013-04-21T08:07:00.000Z</time>
      </trkpt>
      <trkpt lat="47.53031" lon="-0.14258">
        <ele>78</ele>
        <time>2013-04-21T08:07:04.000Z</time>
      </trkpt>
      <trkpt lat="47.5303" lon="-0.14259">
        <ele>78</ele>
        <time>2013-04-21T08:07:05.000Z</time>
      </trkpt>
      <trkpt lat="47.53027" lon="-0.14263">
        <ele>78</ele>
        <time>2013-04-21T08:07:09.000Z</time>
      </trkpt>
      <trkpt lat="47.53026" lon="-0.14265">
        <ele>78</ele>
        <time>2013-04-21T08:07:10.000Z</time>
      </trkpt>
      <trkpt lat="47.53023" lon="-0.14269">
        <ele>78</ele>
        <time>2013-04-21T08:07:12.000Z</time>
      </trkpt>
      <trkpt lat="47.53022" lon="-0.14271">
        <ele>78</ele>
        <time>2013-04-21T08:07:13.000Z</time>
      </trkpt>
      <trkpt lat="47.5302" lon="-0.14275">
        <ele>78</ele>
        <time>2013-04-21T08:07:15.000Z</time>
      </trkpt>
      <trkpt lat="47.53019" lon="-0.14277">
        <ele>78</ele>
        <time>2013-04-21T08:07:16.000Z</time>
      </trkpt>
      <trkpt lat="47.53016" lon="-0.14282">
        <ele>78</ele>
        <time>2013-04-21T08:07:20.000Z</time>
      </trkpt>
      <trkpt lat="47.53016" lon="-0.14283">
        <ele>78</ele>
        <time>2013-04-21T08:07:21.000Z</time>
      </trkpt>
      <trkpt lat="47.53014" lon="-0.14288">
        <ele>78</ele>
        <time>2013-04-21T08:07:25.000Z</time>
      </trkpt>
      <trkpt lat="47.53013" lon="-0.1429">
        <ele>79</ele>
        <time>2013-04-21T08:07:26.000Z</time>
      </trkpt>
      <trkpt lat="47.53012" lon="-0.14295">
        <ele>79</ele>
        <time>2013-04-21T08:07:29.000Z</time>
      </trkpt>
      <trkpt lat="47.53011" lon="-0.14297">
        <ele>79</ele>
        <time>2013-04-21T08:07:30.000Z</time>
      </trkpt>
      <trkpt lat="47.5301" lon="-0.14302">
        <ele>79</ele>
        <time>2013-04-21T08:07:32.000Z</time>
      </trkpt>
      <trkpt lat="47.53009" lon="-0.14304">
        <ele>79</ele>
        <time>2013-04-21T08:07:33.000Z</time>
      </trkpt>
      <trkpt lat="47.53007" lon="-0.14307">
        <ele>79</ele>
        <time>2013-04-21T08:07:36.000Z</time>
      </trkpt>
      <trkpt lat="47.53006" lon="-0.14309">
        <ele>79</ele>
        <time>2013-04-21T08:07:37.000Z</time>
      </trkpt>
      <trkpt lat="47.53005" lon="-0.14314">
        <ele>79</ele>
        <time>2013-04-21T08:07:39.000Z</time>
      </trkpt>
      <trkpt lat="47.53005" lon="-0.14316">
        <ele>79</ele>
        <time>2013-04-21T08:07:40.000Z</time>
      </trkpt>
      <trkpt lat="47.53003" lon="-0.14321">
        <ele>79</ele>
        <time>2013-04-21T08:07:43.000Z</time>
      </trkpt>
      <trkpt lat="47.53003" lon="-0.14324">
        <ele>79</ele>
        <time>2013-04-21T08:07:44.000Z</time>
      </trkpt>
      <trkpt lat="47.53003" lon="-0.14329">
        <ele>79</ele>
        <time>2013-04-21T08:07:47.000Z</time>
      </trkpt>
      <trkpt lat="47.53002" lon="-0.14331">
        <ele>79</ele>
        <time>2013-04-21T08:07:48.000Z</time>
      </trkpt>
      <trkpt lat="47.53001" lon="-0.14336">
        <ele>79</ele>
        <time>2013-04-21T08:07:51.000Z</time>
      </trkpt>
      <trkpt lat="47.53" lon="-0.14337">
        <ele>79</ele>
        <time>2013-04-21T08:07:52.000Z</time>
      </trkpt>
      <trkpt lat="47.52998" lon="-0.14343">
        <ele>78</ele>
        <time>2013-04-21T08:07:55.000Z</time>
      </trkpt>
      <trkpt lat="47.52998" lon="-0.14345">
        <ele>78</ele>
        <time>2013-04-21T08:07:56.000Z</time>
      </trkpt>
      <trkpt lat="47.52996" lon="-0.14349">
        <ele>77</ele>
        <time>2013-04-21T08:07:59.000Z</time>
      </trkpt>
      <trkpt lat="47.52996" lon="-0.14351">
        <ele>77</ele>
        <time>2013-04-21T08:08:00.000Z</time>
      </trkpt>
      <trkpt lat="47.52994" lon="-0.14357">
        <ele>77</ele>
        <time>2013-04-21T08:08:03.000Z</time>
      </trkpt>
      <trkpt lat="47.52993" lon="-0.14358">
        <ele>77</ele>
        <time>2013-04-21T08:08:04.000Z</time>
      </trkpt>
      <trkpt lat="47.52991" lon="-0.14363">
        <ele>77</ele>
        <time>2013-04-21T08:08:07.000Z</time>
      </trkpt>
      <trkpt lat="47.52991" lon="-0.14364">
        <ele>77</ele>
        <time>2013-04-21T08:08:08.000Z</time>
      </trkpt>
      <trkpt lat="47.52988" lon="-0.14368">
        <ele>76</ele>
        <time>2013-04-21T08:08:11.000Z</time>
      </trkpt>
      <trkpt lat="47.52988" lon="-0.1437">
        <ele>76</ele>
        <time>2013-04-21T08:08:12.000Z</time>
      </trkpt>
      <trkpt lat="47.52986" lon="-0.14374">
        <ele>76</ele>
        <time>2013-04-21T08:08:15.000Z</time>
      </trkpt>
      <trkpt lat="47.52985" lon="-0.14377">
        <ele>76</ele>
        <time>2013-04-21T08:08:16.000Z</time>
      </trkpt>
      <trkpt lat="47.52984" lon="-0.1438">
        <ele>76</ele>
        <time>2013-04-21T08:08:18.000Z</time>
      </trkpt>
      <trkpt lat="47.52983" lon="-0.14383">
        <ele>76</ele>
        <time>2013-04-21T08:08:19.000Z</time>
      </trkpt>
      <trkpt lat="47.52981" lon="-0.14387">
        <ele>76</ele>
        <time>2013-04-21T08:08:22.000Z</time>
      </trkpt>
      <trkpt lat="47.5298" lon="-0.14388">
        <ele>76</ele>
        <time>2013-04-21T08:08:23.000Z</time>
      </trkpt>
      <trkpt lat="47.52979" lon="-0.14393">
        <ele>76</ele>
        <time>2013-04-21T08:08:27.000Z</time>
      </trkpt>
      <trkpt lat="47.52979" lon="-0.14395">
        <ele>76</ele>
        <time>2013-04-21T08:08:28.000Z</time>
      </trkpt>
      <trkpt lat="47.52976" lon="-0.14398">
        <ele>76</ele>
        <time>2013-04-21T08:08:31.000Z</time>
      </trkpt>
      <trkpt lat="47.52975" lon="-0.144">
        <ele>76</ele>
        <time>2013-04-21T08:08:32.000Z</time>
      </trkpt>
      <trkpt lat="47.52973" lon="-0.14405">
        <ele>76</ele>
        <time>2013-04-21T08:08:36.000Z</time>
      </trkpt>
      <trkpt lat="47.52972" lon="-0.14407">
        <ele>76</ele>
        <time>2013-04-21T08:08:37.000Z</time>
      </trkpt>
      <trkpt lat="47.52971" lon="-0.14411">
        <ele>76</ele>
        <time>2013-04-21T08:08:39.000Z</time>
      </trkpt>
      <trkpt lat="47.5297" lon="-0.14413">
        <ele>76</ele>
        <time>2013-04-21T08:08:40.000Z</time>
      </trkpt>
      <trkpt lat="47.52968" lon="-0.14417">
        <ele>76</ele>
        <time>2013-04-21T08:08:43.000Z</time>
      </trkpt>
      <trkpt lat="47.52968" lon="-0.14418">
        <ele>76</ele>
        <time>2013-04-21T08:08:44.000Z</time>
      </trkpt>
      <trkpt lat="47.52966" lon="-0.14423">
        <ele>76</ele>
        <time>2013-04-21T08:08:47.000Z</time>
      </trkpt>
      <trkpt lat="47.52965" lon="-0.14424">
        <ele>76</ele>
        <time>2013-04-21T08:08:48.000Z</time>
      </trkpt>
      <trkpt lat="47.52962" lon="-0.14427">
        <ele>76</ele>
        <time>2013-04-21T08:08:51.000Z</time>
      </trkpt>
      <trkpt lat="47.52961" lon="-0.14429">
        <ele>76</ele>
        <time>2013-04-21T08:08:52.000Z</time>
      </trkpt>
      <trkpt lat="47.52958" lon="-0.14433">
        <ele>75</ele>
        <time>2013-04-21T08:08:56.000Z</time>
      </trkpt>
      <trkpt lat="47.52957" lon="-0.14433">
        <ele>75</ele>
        <time>2013-04-21T08:08:57.000Z</time>
      </trkpt>
      <trkpt lat="47.52954" lon="-0.14436">
        <ele>75</ele>
        <time>2013-04-21T08:09:00.000Z</time>
      </trkpt>
      <trkpt lat="47.52953" lon="-0.14438">
        <ele>75</ele>
        <time>2013-04-21T08:09:01.000Z</time>
      </trkpt>
      <trkpt lat="47.52951" lon="-0.14442">
        <ele>75</ele>
        <time>2013-04-21T08:09:04.000Z</time>
      </trkpt>
      <trkpt lat="47.5295" lon="-0.14443">
        <ele>75</ele>
        <time>2013-04-21T08:09:05.000Z</time>
      </trkpt>
      <trkpt lat="47.52948" lon="-0.14447">
        <ele>75</ele>
        <time>2013-04-21T08:09:08.000Z</time>
      </trkpt>
      <trkpt lat="47.52948" lon="-0.14449">
        <ele>75</ele>
        <time>2013-04-21T08:09:09.000Z</time>
      </trkpt>
      <trkpt lat="47.52949" lon="-0.14455">
        <ele>75</ele>
        <time>2013-04-21T08:09:12.000Z</time>
      </trkpt>
      <trkpt lat="47.52949" lon="-0.14456">
        <ele>75</ele>
        <time>2013-04-21T08:09:13.000Z</time>
      </trkpt>
      <trkpt lat="47.52949" lon="-0.14462">
        <ele>75</ele>
        <time>2013-04-21T08:09:17.000Z</time>
      </trkpt>
      <trkpt lat="47.52949" lon="-0.14464">
        <ele>75</ele>
        <time>2013-04-21T08:09:18.000Z</time>
      </trkpt>
      <trkpt lat="47.5295" lon="-0.1447">
        <ele>75</ele>
        <time>2013-04-21T08:09:21.000Z</time>
      </trkpt>
      <trkpt lat="47.5295" lon="-0.14471">
        <ele>75</ele>
        <time>2013-04-21T08:09:22.000Z</time>
      </trkpt>
      <trkpt lat="47.52951" lon="-0.14477">
        <ele>75</ele>
        <time>2013-04-21T08:09:25.000Z</time>
      </trkpt>
      <trkpt lat="47.52951" lon="-0.1448">
        <ele>75</ele>
        <time>2013-04-21T08:09:26.000Z</time>
      </trkpt>
      <trkpt lat="47.52951" lon="-0.14485">
        <ele>75</ele>
        <time>2013-04-21T08:09:29.000Z</time>
      </trkpt>
      <trkpt lat="47.52951" lon="-0.14487">
        <ele>75</ele>
        <time>2013-04-21T08:09:30.000Z</time>
      </trkpt>
      <trkpt lat="47.52952" lon="-0.14494">
        <ele>75</ele>
        <time>2013-04-21T08:09:34.000Z</time>
      </trkpt>
      <trkpt lat="47.52952" lon="-0.14495">
        <ele>75</ele>
        <time>2013-04-21T08:09:35.000Z</time>
      </trkpt>
      <trkpt lat="47.52951" lon="-0.14501">
        <ele>75</ele>
        <time>2013-04-21T08:09:38.000Z</time>
      </trkpt>
      <trkpt lat="47.52952" lon="-0.14502">
        <ele>75</ele>
        <time>2013-04-21T08:09:39.000Z</time>
      </trkpt>
      <trkpt lat="47.52952" lon="-0.14507">
        <ele>75</ele>
        <time>2013-04-21T08:09:42.000Z</time>
      </trkpt>
      <trkpt lat="47.52952" lon="-0.14509">
        <ele>75</ele>
        <time>2013-04-21T08:09:43.000Z</time>
      </trkpt>
      <trkpt lat="47.52951" lon="-0.14514">
        <ele>75</ele>
        <time>2013-04-21T08:09:46.000Z</time>
      </trkpt>
      <trkpt lat="47.5295" lon="-0.14516">
        <ele>75</ele>
        <time>2013-04-21T08:09:47.000Z</time>
      </trkpt>
      <trkpt lat="47.52951" lon="-0.14523">
        <ele>75</ele>
        <time>2013-04-21T08:09:51.000Z</time>
      </trkpt>
      <trkpt lat="47.52951" lon="-0.14524">
        <ele>75</ele>
        <time>2013-04-21T08:09:52.000Z</time>
      </trkpt>
      <trkpt lat="47.52952" lon="-0.1453">
        <ele>75</ele>
        <time>2013-04-21T08:09:55.000Z</time>
      </trkpt>
      <trkpt lat="47.52951" lon="-0.14531">
        <ele>75</ele>
        <time>2013-04-21T08:09:56.000Z</time>
      </trkpt>
      <trkpt lat="47.52951" lon="-0.14537">
        <ele>75</ele>
        <time>2013-04-21T08:10:00.000Z</time>
      </trkpt>
      <trkpt lat="47.52952" lon="-0.14539">
        <ele>75</ele>
        <time>2013-04-21T08:10:01.000Z</time>
      </trkpt>
      <trkpt lat="47.52954" lon="-0.14544">
        <ele>75</ele>
        <time>2013-04-21T08:10:04.000Z</time>
      </trkpt>
      <trkpt lat="47.52955" lon="-0.14547">
        <ele>75</ele>
        <time>2013-04-21T08:10:05.000Z</time>
      </trkpt>
      <trkpt lat="47.52957" lon="-0.14552">
        <ele>75</ele>
        <time>2013-04-21T08:10:08.000Z</time>
      </trkpt>
      <trkpt lat="47.52959" lon="-0.14553">
        <ele>76</ele>
        <time>2013-04-21T08:10:09.000Z</time>
      </trkpt>
      <trkpt lat="47.52961" lon="-0.14558">
        <ele>76</ele>
        <time>2013-04-21T08:10:22.000Z</time>
      </trkpt>
      <trkpt lat="47.52962" lon="-0.14559">
        <ele>76</ele>
        <time>2013-04-21T08:10:23.000Z</time>
      </trkpt>
      <trkpt lat="47.52965" lon="-0.14563">
        <ele>76</ele>
        <time>2013-04-21T08:10:27.000Z</time>
      </trkpt>
      <trkpt lat="47.52965" lon="-0.14564">
        <ele>76</ele>
        <time>2013-04-21T08:10:28.000Z</time>
      </trkpt>
      <trkpt lat="47.52967" lon="-0.14569">
        <ele>76</ele>
        <time>2013-04-21T08:10:31.000Z</time>
      </trkpt>
      <trkpt lat="47.52968" lon="-0.14571">
        <ele>76</ele>
        <time>2013-04-21T08:10:32.000Z</time>
      </trkpt>
      <trkpt lat="47.52971" lon="-0.14575">
        <ele>76</ele>
        <time>2013-04-21T08:10:39.000Z</time>
      </trkpt>
      <trkpt lat="47.52972" lon="-0.14577">
        <ele>76</ele>
        <time>2013-04-21T08:10:40.000Z</time>
      </trkpt>
      <trkpt lat="47.52974" lon="-0.14579">
        <ele>76</ele>
        <time>2013-04-21T08:10:42.000Z</time>
      </trkpt>
      <trkpt lat="47.52976" lon="-0.1458">
        <ele>76</ele>
        <time>2013-04-21T08:10:43.000Z</time>
      </trkpt>
      <trkpt lat="47.52978" lon="-0.14585">
        <ele>76</ele>
        <time>2013-04-21T08:10:46.000Z</time>
      </trkpt>
      <trkpt lat="47.52979" lon="-0.14586">
        <ele>76</ele>
        <time>2013-04-21T08:10:47.000Z</time>
      </trkpt>
      <trkpt lat="47.52982" lon="-0.14589">
        <ele>76</ele>
        <time>2013-04-21T08:10:50.000Z</time>
      </trkpt>
      <trkpt lat="47.52983" lon="-0.1459">
        <ele>76</ele>
        <time>2013-04-21T08:10:51.000Z</time>
      </trkpt>
      <trkpt lat="47.52986" lon="-0.14593">
        <ele>76</ele>
        <time>2013-04-21T08:10:56.000Z</time>
      </trkpt>
      <trkpt lat="47.52987" lon="-0.14594">
        <ele>76</ele>
        <time>2013-04-21T08:10:57.000Z</time>
      </trkpt>
      <trkpt lat="47.52991" lon="-0.14596">
        <ele>76</ele>
        <time>2013-04-21T08:11:02.000Z</time>
      </trkpt>
      <trkpt lat="47.52992" lon="-0.14597">
        <ele>76</ele>
        <time>2013-04-21T08:11:03.000Z</time>
      </trkpt>
      <trkpt lat="47.52994" lon="-0.146">
        <ele>76</ele>
        <time>2013-04-21T08:11:06.000Z</time>
      </trkpt>
      <trkpt lat="47.52996" lon="-0.146">
        <ele>76</ele>
        <time>2013-04-21T08:11:07.000Z</time>
      </trkpt>
      <trkpt lat="47.52999" lon="-0.14602">
        <ele>76</ele>
        <time>2013-04-21T08:11:10.000Z</time>
      </trkpt>
      <trkpt lat="47.53" lon="-0.14603">
        <ele>76</ele>
        <time>2013-04-21T08:11:11.000Z</time>
      </trkpt>
      <trkpt lat="47.53003" lon="-0.14606">
        <ele>77</ele>
        <time>2013-04-21T08:11:14.000Z</time>
      </trkpt>
      <trkpt lat="47.53004" lon="-0.14606">
        <ele>77</ele>
        <time>2013-04-21T08:11:15.000Z</time>
      </trkpt>
      <trkpt lat="47.53008" lon="-0.14608">
        <ele>77</ele>
        <time>2013-04-21T08:11:19.000Z</time>
      </trkpt>
      <trkpt lat="47.53009" lon="-0.14608">
        <ele>77</ele>
        <time>2013-04-21T08:11:20.000Z</time>
      </trkpt>
      <trkpt lat="47.53013" lon="-0.14611">
        <ele>77</ele>
        <time>2013-04-21T08:11:23.000Z</time>
      </trkpt>
      <trkpt lat="47.53014" lon="-0.14612">
        <ele>77</ele>
        <time>2013-04-21T08:11:24.000Z</time>
      </trkpt>
      <trkpt lat="47.53017" lon="-0.14614">
        <ele>77</ele>
        <time>2013-04-21T08:11:27.000Z</time>
      </trkpt>
      <trkpt lat="47.53018" lon="-0.14615">
        <ele>77</ele>
        <time>2013-04-21T08:11:28.000Z</time>
      </trkpt>
      <trkpt lat="47.53021" lon="-0.14618">
        <ele>77</ele>
        <time>2013-04-21T08:11:31.000Z</time>
      </trkpt>
      <trkpt lat="47.53022" lon="-0.14619">
        <ele>77</ele>
        <time>2013-04-21T08:11:32.000Z</time>
      </trkpt>
      <trkpt lat="47.53026" lon="-0.1462">
        <ele>77</ele>
        <time>2013-04-21T08:11:35.000Z</time>
      </trkpt>
      <trkpt lat="47.53027" lon="-0.1462">
        <ele>77</ele>
        <time>2013-04-21T08:11:36.000Z</time>
      </trkpt>
      <trkpt lat="47.53031" lon="-0.1462">
        <ele>77</ele>
        <time>2013-04-21T08:11:39.000Z</time>
      </trkpt>
      <trkpt lat="47.53033" lon="-0.14621">
        <ele>77</ele>
        <time>2013-04-21T08:11:40.000Z</time>
      </trkpt>
      <trkpt lat="47.53035" lon="-0.14622">
        <ele>77</ele>
        <time>2013-04-21T08:11:42.000Z</time>
      </trkpt>
      <trkpt lat="47.53037" lon="-0.14622">
        <ele>77</ele>
        <time>2013-04-21T08:11:43.000Z</time>
      </trkpt>
      <trkpt lat="47.53041" lon="-0.14623">
        <ele>77</ele>
        <time>2013-04-21T08:11:46.000Z</time>
      </trkpt>
      <trkpt lat="47.53043" lon="-0.14624">
        <ele>77</ele>
        <time>2013-04-21T08:11:47.000Z</time>
      </trkpt>
      <trkpt lat="47.53045" lon="-0.14627">
        <ele>77</ele>
        <time>2013-04-21T08:11:50.000Z</time>
      </trkpt>
      <trkpt lat="47.53047" lon="-0.14627">
        <ele>77</ele>
        <time>2013-04-21T08:11:51.000Z</time>
      </trkpt>
      <trkpt lat="47.53051" lon="-0.14628">
        <ele>77</ele>
        <time>2013-04-21T08:11:57.000Z</time>
      </trkpt>
      <trkpt lat="47.53051" lon="-0.14628">
        <ele>77</ele>
        <time>2013-04-21T08:11:58.000Z</time>
      </trkpt>
      <trkpt lat="47.53054" lon="-0.1463">
        <ele>77</ele>
        <time>2013-04-21T08:12:02.000Z</time>
      </trkpt>
      <trkpt lat="47.53056" lon="-0.1463">
        <ele>77</ele>
        <time>2013-04-21T08:12:03.000Z</time>
      </trkpt>
      <trkpt lat="47.5306" lon="-0.1463">
        <ele>77</ele>
        <time>2013-04-21T08:12:05.000Z</time>
      </trkpt>
      <trkpt lat="47.53062" lon="-0.1463">
        <ele>77</ele>
        <time>2013-04-21T08:12:06.000Z</time>
      </trkpt>
      <trkpt lat="47.53066" lon="-0.14628">
        <ele>77</ele>
        <time>2013-04-21T08:12:09.000Z</time>
      </trkpt>
      <trkpt lat="47.53067" lon="-0.14628">
        <ele>77</ele>
        <time>2013-04-21T08:12:10.000Z</time>
      </trkpt>
      <trkpt lat="47.53071" lon="-0.1463">
        <ele>77</ele>
        <time>2013-04-21T08:12:13.000Z</time>
      </trkpt>
      <trkpt lat="47.53072" lon="-0.1463">
        <ele>77</ele>
        <time>2013-04-21T08:12:14.000Z</time>
      </trkpt>
      <trkpt lat="47.53076" lon="-0.14632">
        <ele>77</ele>
        <time>2013-04-21T08:12:17.000Z</time>
      </trkpt>
      <trkpt lat="47.53078" lon="-0.14633">
        <ele>77</ele>
        <time>2013-04-21T08:12:18.000Z</time>
      </trkpt>
      <trkpt lat="47.53082" lon="-0.14635">
        <ele>77</ele>
        <time>2013-04-21T08:12:22.000Z</time>
      </trkpt>
      <trkpt lat="47.53083" lon="-0.14635">
        <ele>77</ele>
        <time>2013-04-21T08:12:23.000Z</time>
      </trkpt>
      <trkpt lat="47.53087" lon="-0.14637">
        <ele>76</ele>
        <time>2013-04-21T08:12:27.000Z</time>
      </trkpt>
      <trkpt lat="47.53087" lon="-0.14638">
        <ele>76</ele>
        <time>2013-04-21T08:12:28.000Z</time>
      </trkpt>
      <trkpt lat="47.53091" lon="-0.14637">
        <ele>76</ele>
        <time>2013-04-21T08:12:31.000Z</time>
      </trkpt>
      <trkpt lat="47.53093" lon="-0.14637">
        <ele>76</ele>
        <time>2013-04-21T08:12:32.000Z</time>
      </trkpt>
      <trkpt lat="47.53097" lon="-0.14638">
        <ele>76</ele>
        <time>2013-04-21T08:12:36.000Z</time>
      </trkpt>
      <trkpt lat="47.53098" lon="-0.14638">
        <ele>76</ele>
        <time>2013-04-21T08:12:37.000Z</time>
      </trkpt>
      <trkpt lat="47.53102" lon="-0.14641">
        <ele>76</ele>
        <time>2013-04-21T08:12:41.000Z</time>
      </trkpt>
      <trkpt lat="47.53103" lon="-0.14641">
        <ele>76</ele>
        <time>2013-04-21T08:12:42.000Z</time>
      </trkpt>
      <trkpt lat="47.53106" lon="-0.14643">
        <ele>76</ele>
        <time>2013-04-21T08:12:44.000Z</time>
      </trkpt>
      <trkpt lat="47.53108" lon="-0.14644">
        <ele>76</ele>
        <time>2013-04-21T08:12:45.000Z</time>
      </trkpt>
      <trkpt lat="47.53112" lon="-0.14646">
        <ele>75</ele>
        <time>2013-04-21T08:12:49.000Z</time>
      </trkpt>
      <trkpt lat="47.53113" lon="-0.14646">
        <ele>75</ele>
        <time>2013-04-21T08:12:50.000Z</time>
      </trkpt>
      <trkpt lat="47.53117" lon="-0.14645">
        <ele>75</ele>
        <time>2013-04-21T08:12:54.000Z</time>
      </trkpt>
      <trkpt lat="47.53117" lon="-0.14645">
        <ele>75</ele>
        <time>2013-04-21T08:12:55.000Z</time>
      </trkpt>
      <trkpt lat="47.53121" lon="-0.14647">
        <ele>75</ele>
        <time>2013-04-21T08:12:58.000Z</time>
      </trkpt>
      <trkpt lat="47.53123" lon="-0.14647">
        <ele>75</ele>
        <time>2013-04-21T08:12:59.000Z</time>
      </trkpt>
      <trkpt lat="47.53127" lon="-0.14648">
        <ele>75</ele>
        <time>2013-04-21T08:13:03.000Z</time>
      </trkpt>
      <trkpt lat="47.53128" lon="-0.14648">
        <ele>75</ele>
        <time>2013-04-21T08:13:04.000Z</time>
      </trkpt>
      <trkpt lat="47.53132" lon="-0.14648">
        <ele>75</ele>
        <time>2013-04-21T08:13:07.000Z</time>
      </trkpt>
      <trkpt lat="47.53133" lon="-0.14648">
        <ele>75</ele>
        <time>2013-04-21T08:13:08.000Z</time>
      </trkpt>
      <trkpt lat="47.53137" lon="-0.14649">
        <ele>74</ele>
        <time>2013-04-21T08:13:12.000Z</time>
      </trkpt>
      <trkpt lat="47.53138" lon="-0.1465">
        <ele>74</ele>
        <time>2013-04-21T08:13:13.000Z</time>
      </trkpt>
      <trkpt lat="47.53141" lon="-0.14649">
        <ele>74</ele>
        <time>2013-04-21T08:13:15.000Z</time>
      </trkpt>
      <trkpt lat="47.53143" lon="-0.14649">
        <ele>74</ele>
        <time>2013-04-21T08:13:16.000Z</time>
      </trkpt>
      <trkpt lat="47.53146" lon="-0.1465">
        <ele>74</ele>
        <time>2013-04-21T08:13:19.000Z</time>
      </trkpt>
      <trkpt lat="47.53147" lon="-0.14651">
        <ele>74</ele>
        <time>2013-04-21T08:13:20.000Z</time>
      </trkpt>
      <trkpt lat="47.53151" lon="-0.14651">
        <ele>74</ele>
        <time>2013-04-21T08:13:23.000Z</time>
      </trkpt>
      <trkpt lat="47.53152" lon="-0.14651">
        <ele>74</ele>
        <time>2013-04-21T08:13:24.000Z</time>
      </trkpt>
      <trkpt lat="47.53156" lon="-0.14653">
        <ele>73</ele>
        <time>2013-04-21T08:13:27.000Z</time>
      </trkpt>
      <trkpt lat="47.53157" lon="-0.14653">
        <ele>73</ele>
        <time>2013-04-21T08:13:28.000Z</time>
      </trkpt>
      <trkpt lat="47.5316" lon="-0.14652">
        <ele>73</ele>
        <time>2013-04-21T08:13:31.000Z</time>
      </trkpt>
      <trkpt lat="47.53161" lon="-0.14652">
        <ele>73</ele>
        <time>2013-04-21T08:13:32.000Z</time>
      </trkpt>
      <trkpt lat="47.53166" lon="-0.14653">
        <ele>73</ele>
        <time>2013-04-21T08:13:36.000Z</time>
      </trkpt>
      <trkpt lat="47.53166" lon="-0.14653">
        <ele>73</ele>
        <time>2013-04-21T08:13:37.000Z</time>
      </trkpt>
      <trkpt lat="47.5317" lon="-0.14653">
        <ele>70</ele>
        <time>2013-04-21T08:13:40.000Z</time>
      </trkpt>
      <trkpt lat="47.53171" lon="-0.14654">
        <ele>70</ele>
        <time>2013-04-21T08:13:41.000Z</time>
      </trkpt>
      <trkpt lat="47.53174" lon="-0.14655">
        <ele>70</ele>
        <time>2013-04-21T08:13:44.000Z</time>
      </trkpt>
      <trkpt lat="47.53175" lon="-0.14656">
        <ele>70</ele>
        <time>2013-04-21T08:13:45.000Z</time>
      </trkpt>
      <trkpt lat="47.53179" lon="-0.14656">
        <ele>70</ele>
        <time>2013-04-21T08:13:48.000Z</time>
      </trkpt>
      <trkpt lat="47.53181" lon="-0.14657">
        <ele>70</ele>
        <time>2013-04-21T08:13:49.000Z</time>
      </trkpt>
      <trkpt lat="47.53185" lon="-0.14657">
        <ele>70</ele>
        <time>2013-04-21T08:13:52.000Z</time>
      </trkpt>
      <trkpt lat="47.53186" lon="-0.14657">
        <ele>70</ele>
        <time>2013-04-21T08:13:53.000Z</time>
      </trkpt>
      <trkpt lat="47.53189" lon="-0.14658">
        <ele>70</ele>
        <time>2013-04-21T08:13:56.000Z</time>
      </trkpt>
      <trkpt lat="47.53191" lon="-0.14658">
        <ele>70</ele>
        <time>2013-04-21T08:13:57.000Z</time>
      </trkpt>
      <trkpt lat="47.53193" lon="-0.1466">
        <ele>69</ele>
        <time>2013-04-21T08:13:59.000Z</time>
      </trkpt>
      <trkpt lat="47.53195" lon="-0.1466">
        <ele>69</ele>
        <time>2013-04-21T08:14:00.000Z</time>
      </trkpt>
      <trkpt lat="47.53199" lon="-0.14662">
        <ele>69</ele>
        <time>2013-04-21T08:14:03.000Z</time>
      </trkpt>
      <trkpt lat="47.532" lon="-0.14662">
        <ele>69</ele>
        <time>2013-04-21T08:14:04.000Z</time>
      </trkpt>
      <trkpt lat="47.53204" lon="-0.14663">
        <ele>69</ele>
        <time>2013-04-21T08:14:09.000Z</time>
      </trkpt>
      <trkpt lat="47.53205" lon="-0.14663">
        <ele>69</ele>
        <time>2013-04-21T08:14:10.000Z</time>
      </trkpt>
      <trkpt lat="47.53208" lon="-0.14666">
        <ele>69</ele>
        <time>2013-04-21T08:14:14.000Z</time>
      </trkpt>
      <trkpt lat="47.53209" lon="-0.14667">
        <ele>68</ele>
        <time>2013-04-21T08:14:15.000Z</time>
      </trkpt>
      <trkpt lat="47.53212" lon="-0.14669">
        <ele>67</ele>
        <time>2013-04-21T08:14:18.000Z</time>
      </trkpt>
      <trkpt lat="47.53214" lon="-0.1467">
        <ele>67</ele>
        <time>2013-04-21T08:14:19.000Z</time>
      </trkpt>
      <trkpt lat="47.53217" lon="-0.14673">
        <ele>67</ele>
        <time>2013-04-21T08:14:23.000Z</time>
      </trkpt>
      <trkpt lat="47.53218" lon="-0.14674">
        <ele>67</ele>
        <time>2013-04-21T08:14:24.000Z</time>
      </trkpt>
      <trkpt lat="47.5322" lon="-0.14677">
        <ele>67</ele>
        <time>2013-04-21T08:14:26.000Z</time>
      </trkpt>
      <trkpt lat="47.53222" lon="-0.14678">
        <ele>67</ele>
        <time>2013-04-21T08:14:27.000Z</time>
      </trkpt>
      <trkpt lat="47.53224" lon="-0.14683">
        <ele>67</ele>
        <time>2013-04-21T08:14:31.000Z</time>
      </trkpt>
      <trkpt lat="47.53225" lon="-0.14684">
        <ele>67</ele>
        <time>2013-04-21T08:14:32.000Z</time>
      </trkpt>
      <trkpt lat="47.53227" lon="-0.14688">
        <ele>67</ele>
        <time>2013-04-21T08:14:35.000Z</time>
      </trkpt>
      <trkpt lat="47.53228" lon="-0.1469">
        <ele>67</ele>
        <time>2013-04-21T08:14:36.000Z</time>
      </trkpt>
      <trkpt lat="47.53229" lon="-0.14693">
        <ele>67</ele>
        <time>2013-04-21T08:14:38.000Z</time>
      </trkpt>
      <trkpt lat="47.5323" lon="-0.14695">
        <ele>67</ele>
        <time>2013-04-21T08:14:39.000Z</time>
      </trkpt>
      <trkpt lat="47.53234" lon="-0.14699">
        <ele>67</ele>
        <time>2013-04-21T08:14:42.000Z</time>
      </trkpt>
      <trkpt lat="47.53234" lon="-0.147">
        <ele>67</ele>
        <time>2013-04-21T08:14:43.000Z</time>
      </trkpt>
      <trkpt lat="47.53237" lon="-0.14704">
        <ele>67</ele>
        <time>2013-04-21T08:14:46.000Z</time>
      </trkpt>
      <trkpt lat="47.53237" lon="-0.14705">
        <ele>67</ele>
        <time>2013-04-21T08:14:47.000Z</time>
      </trkpt>
      <trkpt lat="47.5324" lon="-0.14709">
        <ele>67</ele>
        <time>2013-04-21T08:14:50.000Z</time>
      </trkpt>
      <trkpt lat="47.53241" lon="-0.1471">
        <ele>66</ele>
        <time>2013-04-21T08:14:51.000Z</time>
      </trkpt>
      <trkpt lat="47.53244" lon="-0.14715">
        <ele>66</ele>
        <time>2013-04-21T08:14:54.000Z</time>
      </trkpt>
      <trkpt lat="47.53245" lon="-0.14716">
        <ele>66</ele>
        <time>2013-04-21T08:14:55.000Z</time>
      </trkpt>
      <trkpt lat="47.53248" lon="-0.14719">
        <ele>66</ele>
        <time>2013-04-21T08:14:58.000Z</time>
      </trkpt>
      <trkpt lat="47.53249" lon="-0.14721">
        <ele>66</ele>
        <time>2013-04-21T08:14:59.000Z</time>
      </trkpt>
      <trkpt lat="47.53252" lon="-0.14725">
        <ele>65</ele>
        <time>2013-04-21T08:15:02.000Z</time>
      </trkpt>
      <trkpt lat="47.53253" lon="-0.14726">
        <ele>65</ele>
        <time>2013-04-21T08:15:03.000Z</time>
      </trkpt>
      <trkpt lat="47.53256" lon="-0.14731">
        <ele>65</ele>
        <time>2013-04-21T08:15:07.000Z</time>
      </trkpt>
      <trkpt lat="47.53257" lon="-0.14732">
        <ele>65</ele>
        <time>2013-04-21T08:15:08.000Z</time>
      </trkpt>
      <trkpt lat="47.5326" lon="-0.14734">
        <ele>65</ele>
        <time>2013-04-21T08:15:11.000Z</time>
      </trkpt>
      <trkpt lat="47.53262" lon="-0.14734">
        <ele>65</ele>
        <time>2013-04-21T08:15:12.000Z</time>
      </trkpt>
      <trkpt lat="47.53266" lon="-0.14735">
        <ele>65</ele>
        <time>2013-04-21T08:15:15.000Z</time>
      </trkpt>
      <trkpt lat="47.53268" lon="-0.14736">
        <ele>65</ele>
        <time>2013-04-21T08:15:16.000Z</time>
      </trkpt>
      <trkpt lat="47.53272" lon="-0.14735">
        <ele>65</ele>
        <time>2013-04-21T08:15:19.000Z</time>
      </trkpt>
      <trkpt lat="47.53274" lon="-0.14734">
        <ele>65</ele>
        <time>2013-04-21T08:15:20.000Z</time>
      </trkpt>
      <trkpt lat="47.53277" lon="-0.14738">
        <ele>65</ele>
        <time>2013-04-21T08:15:53.000Z</time>
      </trkpt>
      <trkpt lat="47.53277" lon="-0.14738">
        <ele>65</ele>
        <time>2013-04-21T08:15:54.000Z</time>
      </trkpt>
      <trkpt lat="47.53281" lon="-0.14736">
        <ele>65</ele>
        <time>2013-04-21T08:16:08.000Z</time>
      </trkpt>
      <trkpt lat="47.53281" lon="-0.14735">
        <ele>65</ele>
        <time>2013-04-21T08:16:09.000Z</time>
      </trkpt>
      <trkpt lat="47.53285" lon="-0.14735">
        <ele>65</ele>
        <time>2013-04-21T08:16:15.000Z</time>
      </trkpt>
      <trkpt lat="47.53286" lon="-0.14734">
        <ele>65</ele>
        <time>2013-04-21T08:16:16.000Z</time>
      </trkpt>
      <trkpt lat="47.5329" lon="-0.14731">
        <ele>65</ele>
        <time>2013-04-21T08:16:28.000Z</time>
      </trkpt>
      <trkpt lat="47.5329" lon="-0.14731">
        <ele>65</ele>
        <time>2013-04-21T08:16:29.000Z</time>
      </trkpt>
      <trkpt lat="47.53294" lon="-0.14729">
        <ele>65</ele>
        <time>2013-04-21T08:17:12.000Z</time>
      </trkpt>
      <trkpt lat="47.53294" lon="-0.14728">
        <ele>65</ele>
        <time>2013-04-21T08:17:13.000Z</time>
      </trkpt>
      <trkpt lat="47.53298" lon="-0.14726">
        <ele>65</ele>
        <time>2013-04-21T08:17:20.000Z</time>
      </trkpt>
      <trkpt lat="47.53298" lon="-0.14725">
        <ele>65</ele>
        <time>2013-04-21T08:17:21.000Z</time>
      </trkpt>
      <trkpt lat="47.53301" lon="-0.14723">
        <ele>65</ele>
        <time>2013-04-21T08:17:32.000Z</time>
      </trkpt>
      <trkpt lat="47.53302" lon="-0.14722">
        <ele>65</ele>
        <time>2013-04-21T08:17:33.000Z</time>
      </trkpt>
      <trkpt lat="47.53306" lon="-0.14721">
        <ele>65</ele>
        <time>2013-04-21T08:17:36.000Z</time>
      </trkpt>
      <trkpt lat="47.53308" lon="-0.1472">
        <ele>65</ele>
        <time>2013-04-21T08:17:37.000Z</time>
      </trkpt>
      <trkpt lat="47.53312" lon="-0.14718">
        <ele>65</ele>
        <time>2013-04-21T08:17:41.000Z</time>
      </trkpt>
      <trkpt lat="47.53313" lon="-0.14718">
        <ele>65</ele>
        <time>2013-04-21T08:17:42.000Z</time>
      </trkpt>
      <trkpt lat="47.53317" lon="-0.14718">
        <ele>65</ele>
        <time>2013-04-21T08:17:55.000Z</time>
      </trkpt>
      <trkpt lat="47.53317" lon="-0.14718">
        <ele>65</ele>
        <time>2013-04-21T08:17:56.000Z</time>
      </trkpt>
      <trkpt lat="47.53321" lon="-0.14716">
        <ele>65</ele>
        <time>2013-04-21T08:18:20.000Z</time>
      </trkpt>
      <trkpt lat="47.53321" lon="-0.14715">
        <ele>65</ele>
        <time>2013-04-21T08:18:21.000Z</time>
      </trkpt>
      <trkpt lat="47.53325" lon="-0.14711">
        <ele>65</ele>
        <time>2013-04-21T08:18:26.000Z</time>
      </trkpt>
      <trkpt lat="47.53326" lon="-0.1471">
        <ele>65</ele>
        <time>2013-04-21T08:18:27.000Z</time>
      </trkpt>
      <trkpt lat="47.53328" lon="-0.14704">
        <ele>65</ele>
        <time>2013-04-21T08:18:31.000Z</time>
      </trkpt>
      <trkpt lat="47.53327" lon="-0.14703">
        <ele>65</ele>
        <time>2013-04-21T08:18:32.000Z</time>
      </trkpt>
      <trkpt lat="47.53329" lon="-0.14698">
        <ele>65</ele>
        <time>2013-04-21T08:18:36.000Z</time>
      </trkpt>
      <trkpt lat="47.53331" lon="-0.14697">
        <ele>65</ele>
        <time>2013-04-21T08:18:37.000Z</time>
      </trkpt>
      <trkpt lat="47.53332" lon="-0.14692">
        <ele>65</ele>
        <time>2013-04-21T08:18:43.000Z</time>
      </trkpt>
      <trkpt lat="47.53333" lon="-0.14691">
        <ele>65</ele>
        <time>2013-04-21T08:18:44.000Z</time>
      </trkpt>
      <trkpt lat="47.53335" lon="-0.14686">
        <ele>65</ele>
        <time>2013-04-21T08:18:48.000Z</time>
      </trkpt>
      <trkpt lat="47.53336" lon="-0.14685">
        <ele>65</ele>
        <time>2013-04-21T08:18:49.000Z</time>
      </trkpt>
      <trkpt lat="47.53339" lon="-0.14682">
        <ele>65</ele>
        <time>2013-04-21T08:18:54.000Z</time>
      </trkpt>
      <trkpt lat="47.5334" lon="-0.1468">
        <ele>65</ele>
        <time>2013-04-21T08:18:55.000Z</time>
      </trkpt>
      <trkpt lat="47.53342" lon="-0.14675">
        <ele>65</ele>
        <time>2013-04-21T08:18:58.000Z</time>
      </trkpt>
      <trkpt lat="47.53343" lon="-0.14674">
        <ele>65</ele>
        <time>2013-04-21T08:18:59.000Z</time>
      </trkpt>
      <trkpt lat="47.53342" lon="-0.1467">
        <ele>65</ele>
        <time>2013-04-21T08:19:11.000Z</time>
      </trkpt>
      <trkpt lat="47.53343" lon="-0.14666">
        <ele>65</ele>
        <time>2013-04-21T08:19:12.000Z</time>
      </trkpt>
      <trkpt lat="47.53345" lon="-0.14662">
        <ele>65</ele>
        <time>2013-04-21T08:19:14.000Z</time>
      </trkpt>
      <trkpt lat="47.53347" lon="-0.14661">
        <ele>65</ele>
        <time>2013-04-21T08:19:15.000Z</time>
      </trkpt>
      <trkpt lat="47.5335" lon="-0.14656">
        <ele>65</ele>
        <time>2013-04-21T08:19:20.000Z</time>
      </trkpt>
      <trkpt lat="47.5335" lon="-0.14655">
        <ele>65</ele>
        <time>2013-04-21T08:19:21.000Z</time>
      </trkpt>
      <trkpt lat="47.53351" lon="-0.1465">
        <ele>65</ele>
        <time>2013-04-21T08:19:24.000Z</time>
      </trkpt>
      <trkpt lat="47.53351" lon="-0.14648">
        <ele>65</ele>
        <time>2013-04-21T08:19:25.000Z</time>
      </trkpt>
      <trkpt lat="47.53352" lon="-0.14643">
        <ele>65</ele>
        <time>2013-04-21T08:19:28.000Z</time>
      </trkpt>
      <trkpt lat="47.53353" lon="-0.14641">
        <ele>65</ele>
        <time>2013-04-21T08:19:29.000Z</time>
      </trkpt>
      <trkpt lat="47.53354" lon="-0.14637">
        <ele>65</ele>
        <time>2013-04-21T08:19:32.000Z</time>
      </trkpt>
      <trkpt lat="47.53355" lon="-0.14635">
        <ele>65</ele>
        <time>2013-04-21T08:19:33.000Z</time>
      </trkpt>
      <trkpt lat="47.53357" lon="-0.14629">
        <ele>65</ele>
        <time>2013-04-21T08:19:38.000Z</time>
      </trkpt>
      <trkpt lat="47.53357" lon="-0.14628">
        <ele>65</ele>
        <time>2013-04-21T08:19:39.000Z</time>
      </trkpt>
      <trkpt lat="47.53359" lon="-0.14623">
        <ele>65</ele>
        <time>2013-04-21T08:19:43.000Z</time>
      </trkpt>
      <trkpt lat="47.53359" lon="-0.14621">
        <ele>65</ele>
        <time>2013-04-21T08:19:44.000Z</time>
      </trkpt>
      <trkpt lat="47.53362" lon="-0.14616">
        <ele>65</ele>
        <time>2013-04-21T08:19:47.000Z</time>
      </trkpt>
      <trkpt lat="47.53362" lon="-0.14614">
        <ele>65</ele>
        <time>2013-04-21T08:19:48.000Z</time>
      </trkpt>
      <trkpt lat="47.53363" lon="-0.14609">
        <ele>65</ele>
        <time>2013-04-21T08:19:50.000Z</time>
      </trkpt>
      <trkpt lat="47.53364" lon="-0.14607">
        <ele>65</ele>
        <time>2013-04-21T08:19:51.000Z</time>
      </trkpt>
      <trkpt lat="47.53364" lon="-0.14601">
        <ele>65</ele>
        <time>2013-04-21T08:19:55.000Z</time>
      </trkpt>
      <trkpt lat="47.53365" lon="-0.14599">
        <ele>65</ele>
        <time>2013-04-21T08:19:56.000Z</time>
      </trkpt>
      <trkpt lat="47.53364" lon="-0.14594">
        <ele>65</ele>
        <time>2013-04-21T08:19:59.000Z</time>
      </trkpt>
      <trkpt lat="47.53363" lon="-0.14592">
        <ele>65</ele>
        <time>2013-04-21T08:20:00.000Z</time>
      </trkpt>
      <trkpt lat="47.53364" lon="-0.14587">
        <ele>65</ele>
        <time>2013-04-21T08:20:04.000Z</time>
      </trkpt>
      <trkpt lat="47.53365" lon="-0.14585">
        <ele>65</ele>
        <time>2013-04-21T08:20:05.000Z</time>
      </trkpt>
      <trkpt lat="47.53367" lon="-0.1458">
        <ele>64</ele>
        <time>2013-04-21T08:20:10.000Z</time>
      </trkpt>
      <trkpt lat="47.53368" lon="-0.14579">
        <ele>64</ele>
        <time>2013-04-21T08:20:11.000Z</time>
      </trkpt>
      <trkpt lat="47.53371" lon="-0.14574">
        <ele>64</ele>
        <time>2013-04-21T08:20:21.000Z</time>
      </trkpt>
      <trkpt lat="47.53372" lon="-0.14574">
        <ele>64</ele>
        <time>2013-04-21T08:20:22.000Z</time>
      </trkpt>
      <trkpt lat="47.53375" lon="-0.14575">
        <ele>64</ele>
        <time>2013-04-21T08:20:27.000Z</time>
      </trkpt>
      <trkpt lat="47.53376" lon="-0.14575">
        <ele>64</ele>
        <time>2013-04-21T08:20:28.000Z</time>
      </trkpt>
      <trkpt lat="47.53381" lon="-0.14575">
        <ele>64</ele>
        <time>2013-04-21T08:20:32.000Z</time>
      </trkpt>
      <trkpt lat="47.53382" lon="-0.14575">
        <ele>64</ele>
        <time>2013-04-21T08:20:33.000Z</time>
      </trkpt>
      <trkpt lat="47.53386" lon="-0.14576">
        <ele>64</ele>
        <time>2013-04-21T08:20:37.000Z</time>
      </trkpt>
      <trkpt lat="47.53387" lon="-0.14576">
        <ele>64</ele>
        <time>2013-04-21T08:20:38.000Z</time>
      </trkpt>
      <trkpt lat="47.5339" lon="-0.14579">
        <ele>64</ele>
        <time>2013-04-21T08:20:41.000Z</time>
      </trkpt>
      <trkpt lat="47.53391" lon="-0.1458">
        <ele>64</ele>
        <time>2013-04-21T08:20:42.000Z</time>
      </trkpt>
      <trkpt lat="47.53395" lon="-0.14582">
        <ele>64</ele>
        <time>2013-04-21T08:20:49.000Z</time>
      </trkpt>
      <trkpt lat="47.53396" lon="-0.14582">
        <ele>64</ele>
        <time>2013-04-21T08:20:50.000Z</time>
      </trkpt>
      <trkpt lat="47.53398" lon="-0.14586">
        <ele>64</ele>
        <time>2013-04-21T08:20:57.000Z</time>
      </trkpt>
      <trkpt lat="47.53399" lon="-0.14587">
        <ele>64</ele>
        <time>2013-04-21T08:20:58.000Z</time>
      </trkpt>
      <trkpt lat="47.53403" lon="-0.14588">
        <ele>64</ele>
        <time>2013-04-21T08:21:01.000Z</time>
      </trkpt>
      <trkpt lat="47.53405" lon="-0.14588">
        <ele>64</ele>
        <time>2013-04-21T08:21:02.000Z</time>
      </trkpt>
      <trkpt lat="47.53409" lon="-0.14589">
        <ele>64</ele>
        <time>2013-04-21T08:21:05.000Z</time>
      </trkpt>
      <trkpt lat="47.5341" lon="-0.14589">
        <ele>64</ele>
        <time>2013-04-21T08:21:06.000Z</time>
      </trkpt>
      <trkpt lat="47.53413" lon="-0.14591">
        <ele>64</ele>
        <time>2013-04-21T08:21:09.000Z</time>
      </trkpt>
      <trkpt lat="47.53414" lon="-0.14591">
        <ele>64</ele>
        <time>2013-04-21T08:21:10.000Z</time>
      </trkpt>
      <trkpt lat="47.53418" lon="-0.14593">
        <ele>65</ele>
        <time>2013-04-21T08:21:13.000Z</time>
      </trkpt>
      <trkpt lat="47.5342" lon="-0.14593">
        <ele>65</ele>
        <time>2013-04-21T08:21:14.000Z</time>
      </trkpt>
      <trkpt lat="47.53424" lon="-0.14595">
        <ele>65</ele>
        <time>2013-04-21T08:21:17.000Z</time>
      </trkpt>
      <trkpt lat="47.53426" lon="-0.14596">
        <ele>65</ele>
        <time>2013-04-21T08:21:18.000Z</time>
      </trkpt>
      <trkpt lat="47.5343" lon="-0.14599">
        <ele>65</ele>
        <time>2013-04-21T08:21:21.000Z</time>
      </trkpt>
      <trkpt lat="47.5343" lon="-0.146">
        <ele>65</ele>
        <time>2013-04-21T08:21:22.000Z</time>
      </trkpt>
      <trkpt lat="47.53433" lon="-0.14605">
        <ele>65</ele>
        <time>2013-04-21T08:21:27.000Z</time>
      </trkpt>
      <trkpt lat="47.53435" lon="-0.14606">
        <ele>65</ele>
        <time>2013-04-21T08:21:28.000Z</time>
      </trkpt>
      <trkpt lat="47.53438" lon="-0.14608">
        <ele>65</ele>
        <time>2013-04-21T08:21:32.000Z</time>
      </trkpt>
      <trkpt lat="47.53439" lon="-0.14609">
        <ele>65</ele>
        <time>2013-04-21T08:21:33.000Z</time>
      </trkpt>
      <trkpt lat="47.53442" lon="-0.14611">
        <ele>65</ele>
        <time>2013-04-21T08:21:35.000Z</time>
      </trkpt>
      <trkpt lat="47.53443" lon="-0.14612">
        <ele>65</ele>
        <time>2013-04-21T08:21:36.000Z</time>
      </trkpt>
      <trkpt lat="47.53447" lon="-0.14614">
        <ele>66</ele>
        <time>2013-04-21T08:21:38.000Z</time>
      </trkpt>
      <trkpt lat="47.53449" lon="-0.14615">
        <ele>66</ele>
        <time>2013-04-21T08:21:39.000Z</time>
      </trkpt>
      <trkpt lat="47.53452" lon="-0.14617">
        <ele>66</ele>
        <time>2013-04-21T08:21:44.000Z</time>
      </trkpt>
      <trkpt lat="47.53454" lon="-0.14617">
        <ele>66</ele>
        <time>2013-04-21T08:21:45.000Z</time>
      </trkpt>
      <trkpt lat="47.53458" lon="-0.14617">
        <ele>66</ele>
        <time>2013-04-21T08:21:48.000Z</time>
      </trkpt>
      <trkpt lat="47.53459" lon="-0.14617">
        <ele>66</ele>
        <time>2013-04-21T08:21:49.000Z</time>
      </trkpt>
      <trkpt lat="47.53462" lon="-0.14617">
        <ele>66</ele>
        <time>2013-04-21T08:21:53.000Z</time>
      </trkpt>
      <trkpt lat="47.53464" lon="-0.14618">
        <ele>66</ele>
        <time>2013-04-21T08:21:54.000Z</time>
      </trkpt>
      <trkpt lat="47.53467" lon="-0.1462">
        <ele>66</ele>
        <time>2013-04-21T08:21:56.000Z</time>
      </trkpt>
      <trkpt lat="47.53468" lon="-0.1462">
        <ele>66</ele>
        <time>2013-04-21T08:21:57.000Z</time>
      </trkpt>
      <trkpt lat="47.53472" lon="-0.14619">
        <ele>66</ele>
        <time>2013-04-21T08:22:02.000Z</time>
      </trkpt>
      <trkpt lat="47.53474" lon="-0.14619">
        <ele>66</ele>
        <time>2013-04-21T08:22:03.000Z</time>
      </trkpt>
      <trkpt lat="47.53477" lon="-0.1462">
        <ele>66</ele>
        <time>2013-04-21T08:22:05.000Z</time>
      </trkpt>
      <trkpt lat="47.53479" lon="-0.14621">
        <ele>66</ele>
        <time>2013-04-21T08:22:06.000Z</time>
      </trkpt>
      <trkpt lat="47.53483" lon="-0.14623">
        <ele>66</ele>
        <time>2013-04-21T08:22:09.000Z</time>
      </trkpt>
      <trkpt lat="47.53484" lon="-0.14624">
        <ele>66</ele>
        <time>2013-04-21T08:22:10.000Z</time>
      </trkpt>
      <trkpt lat="47.53488" lon="-0.14627">
        <ele>66</ele>
        <time>2013-04-21T08:22:14.000Z</time>
      </trkpt>
      <trkpt lat="47.53489" lon="-0.14628">
        <ele>66</ele>
        <time>2013-04-21T08:22:15.000Z</time>
      </trkpt>
      <trkpt lat="47.53492" lon="-0.1463">
        <ele>66</ele>
        <time>2013-04-21T08:22:17.000Z</time>
      </trkpt>
      <trkpt lat="47.53494" lon="-0.14631">
        <ele>66</ele>
        <time>2013-04-21T08:22:18.000Z</time>
      </trkpt>
      <trkpt lat="47.53497" lon="-0.14632">
        <ele>66</ele>
        <time>2013-04-21T08:22:21.000Z</time>
      </trkpt>
      <trkpt lat="47.53498" lon="-0.14633">
        <ele>66</ele>
        <time>2013-04-21T08:22:22.000Z</time>
      </trkpt>
      <trkpt lat="47.53502" lon="-0.14635">
        <ele>67</ele>
        <time>2013-04-21T08:22:26.000Z</time>
      </trkpt>
      <trkpt lat="47.53503" lon="-0.14635">
        <ele>67</ele>
        <time>2013-04-21T08:22:27.000Z</time>
      </trkpt>
      <trkpt lat="47.53507" lon="-0.14635">
        <ele>67</ele>
        <time>2013-04-21T08:22:31.000Z</time>
      </trkpt>
      <trkpt lat="47.53508" lon="-0.14635">
        <ele>67</ele>
        <time>2013-04-21T08:22:32.000Z</time>
      </trkpt>
      <trkpt lat="47.53512" lon="-0.14635">
        <ele>67</ele>
        <time>2013-04-21T08:22:36.000Z</time>
      </trkpt>
      <trkpt lat="47.53513" lon="-0.14635">
        <ele>67</ele>
        <time>2013-04-21T08:22:37.000Z</time>
      </trkpt>
      <trkpt lat="47.53517" lon="-0.14637">
        <ele>67</ele>
        <time>2013-04-21T08:22:42.000Z</time>
      </trkpt>
      <trkpt lat="47.53517" lon="-0.14638">
        <ele>67</ele>
        <time>2013-04-21T08:22:43.000Z</time>
      </trkpt>
      <trkpt lat="47.5352" lon="-0.1464">
        <ele>67</ele>
        <time>2013-04-21T08:22:46.000Z</time>
      </trkpt>
      <trkpt lat="47.53521" lon="-0.14641">
        <ele>67</ele>
        <time>2013-04-21T08:22:47.000Z</time>
      </trkpt>
      <trkpt lat="47.53524" lon="-0.14645">
        <ele>67</ele>
        <time>2013-04-21T08:22:51.000Z</time>
      </trkpt>
      <trkpt lat="47.53525" lon="-0.14645">
        <ele>67</ele>
        <time>2013-04-21T08:22:52.000Z</time>
      </trkpt>
      <trkpt lat="47.53529" lon="-0.14646">
        <ele>67</ele>
        <time>2013-04-21T08:22:55.000Z</time>
      </trkpt>
      <trkpt lat="47.5353" lon="-0.14646">
        <ele>67</ele>
        <time>2013-04-21T08:22:56.000Z</time>
      </trkpt>
      <trkpt lat="47.53534" lon="-0.14646">
        <ele>67</ele>
        <time>2013-04-21T08:22:58.000Z</time>
      </trkpt>
      <trkpt lat="47.53536" lon="-0.14646">
        <ele>67</ele>
        <time>2013-04-21T08:22:59.000Z</time>
      </trkpt>
      <trkpt lat="47.53539" lon="-0.14645">
        <ele>67</ele>
        <time>2013-04-21T08:23:02.000Z</time>
      </trkpt>
      <trkpt lat="47.53541" lon="-0.14645">
        <ele>67</ele>
        <time>2013-04-21T08:23:03.000Z</time>
      </trkpt>
      <trkpt lat="47.53544" lon="-0.14645">
        <ele>67</ele>
        <time>2013-04-21T08:23:06.000Z</time>
      </trkpt>
      <trkpt lat="47.53545" lon="-0.14645">
        <ele>67</ele>
        <time>2013-04-21T08:23:07.000Z</time>
      </trkpt>
      <trkpt lat="47.5355" lon="-0.14646">
        <ele>67</ele>
        <time>2013-04-21T08:23:10.000Z</time>
      </trkpt>
      <trkpt lat="47.53551" lon="-0.14646">
        <ele>67</ele>
        <time>2013-04-21T08:23:11.000Z</time>
      </trkpt>
      <trkpt lat="47.53555" lon="-0.14647">
        <ele>67</ele>
        <time>2013-04-21T08:23:14.000Z</time>
      </trkpt>
      <trkpt lat="47.53556" lon="-0.14648">
        <ele>67</ele>
        <time>2013-04-21T08:23:15.000Z</time>
      </trkpt>
      <trkpt lat="47.53559" lon="-0.1465">
        <ele>67</ele>
        <time>2013-04-21T08:23:20.000Z</time>
      </trkpt>
      <trkpt lat="47.5356" lon="-0.1465">
        <ele>67</ele>
        <time>2013-04-21T08:23:21.000Z</time>
      </trkpt>
      <trkpt lat="47.53564" lon="-0.14652">
        <ele>67</ele>
        <time>2013-04-21T08:23:24.000Z</time>
      </trkpt>
      <trkpt lat="47.53565" lon="-0.14653">
        <ele>67</ele>
        <time>2013-04-21T08:23:25.000Z</time>
      </trkpt>
      <trkpt lat="47.53569" lon="-0.14654">
        <ele>67</ele>
        <time>2013-04-21T08:23:29.000Z</time>
      </trkpt>
      <trkpt lat="47.5357" lon="-0.14655">
        <ele>67</ele>
        <time>2013-04-21T08:23:30.000Z</time>
      </trkpt>
      <trkpt lat="47.53573" lon="-0.14655">
        <ele>67</ele>
        <time>2013-04-21T08:23:33.000Z</time>
      </trkpt>
      <trkpt lat="47.53575" lon="-0.14654">
        <ele>67</ele>
        <time>2013-04-21T08:23:34.000Z</time>
      </trkpt>
      <trkpt lat="47.53579" lon="-0.14655">
        <ele>67</ele>
        <time>2013-04-21T08:23:37.000Z</time>
      </trkpt>
      <trkpt lat="47.5358" lon="-0.14655">
        <ele>67</ele>
        <time>2013-04-21T08:23:38.000Z</time>
      </trkpt>
      <trkpt lat="47.53583" lon="-0.14656">
        <ele>67</ele>
        <time>2013-04-21T08:23:41.000Z</time>
      </trkpt>
      <trkpt lat="47.53584" lon="-0.14657">
        <ele>67</ele>
        <time>2013-04-21T08:23:42.000Z</time>
      </trkpt>
      <trkpt lat="47.53588" lon="-0.14658">
        <ele>67</ele>
        <time>2013-04-21T08:23:48.000Z</time>
      </trkpt>
      <trkpt lat="47.53589" lon="-0.14658">
        <ele>67</ele>
        <time>2013-04-21T08:23:49.000Z</time>
      </trkpt>
      <trkpt lat="47.53593" lon="-0.14658">
        <ele>66</ele>
        <time>2013-04-21T08:23:52.000Z</time>
      </trkpt>
      <trkpt lat="47.53594" lon="-0.14659">
        <ele>66</ele>
        <time>2013-04-21T08:23:53.000Z</time>
      </trkpt>
      <trkpt lat="47.53598" lon="-0.14661">
        <ele>66</ele>
        <time>2013-04-21T08:23:58.000Z</time>
      </trkpt>
      <trkpt lat="47.53599" lon="-0.14661">
        <ele>66</ele>
        <time>2013-04-21T08:23:59.000Z</time>
      </trkpt>
      <trkpt lat="47.53603" lon="-0.14663">
        <ele>66</ele>
        <time>2013-04-21T08:24:04.000Z</time>
      </trkpt>
      <trkpt lat="47.53604" lon="-0.14664">
        <ele>66</ele>
        <time>2013-04-21T08:24:05.000Z</time>
      </trkpt>
      <trkpt lat="47.53608" lon="-0.14666">
        <ele>66</ele>
        <time>2013-04-21T08:24:08.000Z</time>
      </trkpt>
      <trkpt lat="47.53609" lon="-0.14667">
        <ele>67</ele>
        <time>2013-04-21T08:24:09.000Z</time>
      </trkpt>
      <trkpt lat="47.53613" lon="-0.14669">
        <ele>67</ele>
        <time>2013-04-21T08:24:13.000Z</time>
      </trkpt>
      <trkpt lat="47.53614" lon="-0.1467">
        <ele>67</ele>
        <time>2013-04-21T08:24:14.000Z</time>
      </trkpt>
      <trkpt lat="47.53618" lon="-0.14671">
        <ele>67</ele>
        <time>2013-04-21T08:24:19.000Z</time>
      </trkpt>
      <trkpt lat="47.53619" lon="-0.14672">
        <ele>67</ele>
        <time>2013-04-21T08:24:20.000Z</time>
      </trkpt>
      <trkpt lat="47.53622" lon="-0.14674">
        <ele>67</ele>
        <time>2013-04-21T08:24:24.000Z</time>
      </trkpt>
      <trkpt lat="47.53623" lon="-0.14675">
        <ele>67</ele>
        <time>2013-04-21T08:24:25.000Z</time>
      </trkpt>
      <trkpt lat="47.53628" lon="-0.14675">
        <ele>67</ele>
        <time>2013-04-21T08:24:28.000Z</time>
      </trkpt>
      <trkpt lat="47.53629" lon="-0.14675">
        <ele>67</ele>
        <time>2013-04-21T08:24:29.000Z</time>
      </trkpt>
      <trkpt lat="47.53633" lon="-0.14676">
        <ele>67</ele>
        <time>2013-04-21T08:24:32.000Z</time>
      </trkpt>
      <trkpt lat="47.53634" lon="-0.14676">
        <ele>67</ele>
        <time>2013-04-21T08:24:33.000Z</time>
      </trkpt>
      <trkpt lat="47.53637" lon="-0.14678">
        <ele>67</ele>
        <time>2013-04-21T08:24:37.000Z</time>
      </trkpt>
      <trkpt lat="47.53639" lon="-0.14679">
        <ele>67</ele>
        <time>2013-04-21T08:24:38.000Z</time>
      </trkpt>
      <trkpt lat="47.53642" lon="-0.14681">
        <ele>67</ele>
        <time>2013-04-21T08:24:41.000Z</time>
      </trkpt>
      <trkpt lat="47.53643" lon="-0.14681">
        <ele>67</ele>
        <time>2013-04-21T08:24:42.000Z</time>
      </trkpt>
      <trkpt lat="47.53647" lon="-0.14682">
        <ele>67</ele>
        <time>2013-04-21T08:24:45.000Z</time>
      </trkpt>
      <trkpt lat="47.53648" lon="-0.14682">
        <ele>67</ele>
        <time>2013-04-21T08:24:46.000Z</time>
      </trkpt>
      <trkpt lat="47.53652" lon="-0.14683">
        <ele>67</ele>
        <time>2013-04-21T08:24:49.000Z</time>
      </trkpt>
      <trkpt lat="47.53654" lon="-0.14683">
        <ele>67</ele>
        <time>2013-04-21T08:24:50.000Z</time>
      </trkpt>
      <trkpt lat="47.53658" lon="-0.14684">
        <ele>67</ele>
        <time>2013-04-21T08:24:53.000Z</time>
      </trkpt>
      <trkpt lat="47.53659" lon="-0.14684">
        <ele>67</ele>
        <time>2013-04-21T08:24:54.000Z</time>
      </trkpt>
      <trkpt lat="47.53663" lon="-0.14686">
        <ele>67</ele>
        <time>2013-04-21T08:24:58.000Z</time>
      </trkpt>
      <trkpt lat="47.53663" lon="-0.14687">
        <ele>67</ele>
        <time>2013-04-21T08:24:59.000Z</time>
      </trkpt>
      <trkpt lat="47.53667" lon="-0.14689">
        <ele>67</ele>
        <time>2013-04-21T08:25:03.000Z</time>
      </trkpt>
      <trkpt lat="47.53668" lon="-0.14689">
        <ele>67</ele>
        <time>2013-04-21T08:25:04.000Z</time>
      </trkpt>
      <trkpt lat="47.53672" lon="-0.14691">
        <ele>67</ele>
        <time>2013-04-21T08:25:08.000Z</time>
      </trkpt>
      <trkpt lat="47.53673" lon="-0.14691">
        <ele>67</ele>
        <time>2013-04-21T08:25:09.000Z</time>
      </trkpt>
      <trkpt lat="47.53677" lon="-0.14691">
        <ele>67</ele>
        <time>2013-04-21T08:25:11.000Z</time>
      </trkpt>
      <trkpt lat="47.53679" lon="-0.14691">
        <ele>67</ele>
        <time>2013-04-21T08:25:12.000Z</time>
      </trkpt>
      <trkpt lat="47.53683" lon="-0.14692">
        <ele>67</ele>
        <time>2013-04-21T08:25:16.000Z</time>
      </trkpt>
      <trkpt lat="47.53684" lon="-0.14693">
        <ele>67</ele>
        <time>2013-04-21T08:25:17.000Z</time>
      </trkpt>
      <trkpt lat="47.53687" lon="-0.14694">
        <ele>67</ele>
        <time>2013-04-21T08:25:20.000Z</time>
      </trkpt>
      <trkpt lat="47.53688" lon="-0.14695">
        <ele>67</ele>
        <time>2013-04-21T08:25:21.000Z</time>
      </trkpt>
      <trkpt lat="47.53691" lon="-0.14697">
        <ele>67</ele>
        <time>2013-04-21T08:25:24.000Z</time>
      </trkpt>
      <trkpt lat="47.53693" lon="-0.14697">
        <ele>67</ele>
        <time>2013-04-21T08:25:25.000Z</time>
      </trkpt>
      <trkpt lat="47.53697" lon="-0.14698">
        <ele>67</ele>
        <time>2013-04-21T08:25:27.000Z</time>
      </trkpt>
      <trkpt lat="47.53699" lon="-0.14698">
        <ele>67</ele>
        <time>2013-04-21T08:25:28.000Z</time>
      </trkpt>
      <trkpt lat="47.53703" lon="-0.14699">
        <ele>67</ele>
        <time>2013-04-21T08:25:31.000Z</time>
      </trkpt>
      <trkpt lat="47.53704" lon="-0.14699">
        <ele>67</ele>
        <time>2013-04-21T08:25:32.000Z</time>
      </trkpt>
      <trkpt lat="47.53708" lon="-0.14697">
        <ele>67</ele>
        <time>2013-04-21T08:25:35.000Z</time>
      </trkpt>
      <trkpt lat="47.53709" lon="-0.14698">
        <ele>67</ele>
        <time>2013-04-21T08:25:36.000Z</time>
      </trkpt>
      <trkpt lat="47.53713" lon="-0.14698">
        <ele>67</ele>
        <time>2013-04-21T08:25:40.000Z</time>
      </trkpt>
      <trkpt lat="47.53714" lon="-0.14699">
        <ele>67</ele>
        <time>2013-04-21T08:25:41.000Z</time>
      </trkpt>
      <trkpt lat="47.53718" lon="-0.147">
        <ele>67</ele>
        <time>2013-04-21T08:25:45.000Z</time>
      </trkpt>
      <trkpt lat="47.53719" lon="-0.14701">
        <ele>67</ele>
        <time>2013-04-21T08:25:46.000Z</time>
      </trkpt>
      <trkpt lat="47.53722" lon="-0.14703">
        <ele>67</ele>
        <time>2013-04-21T08:25:48.000Z</time>
      </trkpt>
      <trkpt lat="47.53724" lon="-0.14705">
        <ele>67</ele>
        <time>2013-04-21T08:25:49.000Z</time>
      </trkpt>
      <trkpt lat="47.53728" lon="-0.14707">
        <ele>67</ele>
        <time>2013-04-21T08:25:55.000Z</time>
      </trkpt>
      <trkpt lat="47.53728" lon="-0.14707">
        <ele>67</ele>
        <time>2013-04-21T08:25:56.000Z</time>
      </trkpt>
      <trkpt lat="47.53732" lon="-0.14709">
        <ele>67</ele>
        <time>2013-04-21T08:25:59.000Z</time>
      </trkpt>
      <trkpt lat="47.53733" lon="-0.1471">
        <ele>67</ele>
        <time>2013-04-21T08:26:00.000Z</time>
      </trkpt>
      <trkpt lat="47.53737" lon="-0.14711">
        <ele>67</ele>
        <time>2013-04-21T08:26:05.000Z</time>
      </trkpt>
      <trkpt lat="47.53738" lon="-0.14712">
        <ele>67</ele>
        <time>2013-04-21T08:26:06.000Z</time>
      </trkpt>
      <trkpt lat="47.53741" lon="-0.14714">
        <ele>67</ele>
        <time>2013-04-21T08:26:08.000Z</time>
      </trkpt>
      <trkpt lat="47.53742" lon="-0.14715">
        <ele>67</ele>
        <time>2013-04-21T08:26:09.000Z</time>
      </trkpt>
      <trkpt lat="47.53745" lon="-0.14719">
        <ele>67</ele>
        <time>2013-04-21T08:26:33.000Z</time>
      </trkpt>
      <trkpt lat="47.53745" lon="-0.1472">
        <ele>67</ele>
        <time>2013-04-21T08:26:34.000Z</time>
      </trkpt>
      <trkpt lat="47.53744" lon="-0.14726">
        <ele>68</ele>
        <time>2013-04-21T08:26:42.000Z</time>
      </trkpt>
      <trkpt lat="47.53744" lon="-0.14728">
        <ele>68</ele>
        <time>2013-04-21T08:26:43.000Z</time>
      </trkpt>
      <trkpt lat="47.53741" lon="-0.14733">
        <ele>68</ele>
        <time>2013-04-21T08:26:47.000Z</time>
      </trkpt>
      <trkpt lat="47.53741" lon="-0.14734">
        <ele>68</ele>
        <time>2013-04-21T08:26:48.000Z</time>
      </trkpt>
      <trkpt lat="47.53739" lon="-0.14739">
        <ele>68</ele>
        <time>2013-04-21T08:26:52.000Z</time>
      </trkpt>
      <trkpt lat="47.53739" lon="-0.14741">
        <ele>68</ele>
        <time>2013-04-21T08:26:53.000Z</time>
      </trkpt>
      <trkpt lat="47.53738" lon="-0.14746">
        <ele>68</ele>
        <time>2013-04-21T08:26:56.000Z</time>
      </trkpt>
      <trkpt lat="47.53738" lon="-0.14747">
        <ele>68</ele>
        <time>2013-04-21T08:26:57.000Z</time>
      </trkpt>
      <trkpt lat="47.53736" lon="-0.14753">
        <ele>68</ele>
        <time>2013-04-21T08:27:01.000Z</time>
      </trkpt>
      <trkpt lat="47.53736" lon="-0.14754">
        <ele>68</ele>
        <time>2013-04-21T08:27:02.000Z</time>
      </trkpt>
      <trkpt lat="47.53735" lon="-0.1476">
        <ele>68</ele>
        <time>2013-04-21T08:27:05.000Z</time>
      </trkpt>
      <trkpt lat="47.53735" lon="-0.14762">
        <ele>68</ele>
        <time>2013-04-21T08:27:06.000Z</time>
      </trkpt>
      <trkpt lat="47.53735" lon="-0.14767">
        <ele>68</ele>
        <time>2013-04-21T08:27:09.000Z</time>
      </trkpt>
      <trkpt lat="47.53735" lon="-0.14769">
        <ele>68</ele>
        <time>2013-04-21T08:27:10.000Z</time>
      </trkpt>
      <trkpt lat="47.53735" lon="-0.14775">
        <ele>68</ele>
        <time>2013-04-21T08:27:14.000Z</time>
      </trkpt>
      <trkpt lat="47.53735" lon="-0.14777">
        <ele>68</ele>
        <time>2013-04-21T08:27:15.000Z</time>
      </trkpt>
      <trkpt lat="47.53734" lon="-0.14783">
        <ele>68</ele>
        <time>2013-04-21T08:27:19.000Z</time>
      </trkpt>
      <trkpt lat="47.53734" lon="-0.14785">
        <ele>68</ele>
        <time>2013-04-21T08:27:20.000Z</time>
      </trkpt>
      <trkpt lat="47.53733" lon="-0.1479">
        <ele>68</ele>
        <time>2013-04-21T08:27:23.000Z</time>
      </trkpt>
      <trkpt lat="47.53733" lon="-0.14791">
        <ele>68</ele>
        <time>2013-04-21T08:27:24.000Z</time>
      </trkpt>
      <trkpt lat="47.53731" lon="-0.14797">
        <ele>68</ele>
        <time>2013-04-21T08:27:27.000Z</time>
      </trkpt>
      <trkpt lat="47.53731" lon="-0.14798">
        <ele>68</ele>
        <time>2013-04-21T08:27:28.000Z</time>
      </trkpt>
      <trkpt lat="47.53731" lon="-0.14804">
        <ele>68</ele>
        <time>2013-04-21T08:27:32.000Z</time>
      </trkpt>
      <trkpt lat="47.53731" lon="-0.14806">
        <ele>68</ele>
        <time>2013-04-21T08:27:33.000Z</time>
      </trkpt>
      <trkpt lat="47.5373" lon="-0.14811">
        <ele>68</ele>
        <time>2013-04-21T08:27:36.000Z</time>
      </trkpt>
      <trkpt lat="47.5373" lon="-0.14813">
        <ele>68</ele>
        <time>2013-04-21T08:27:37.000Z</time>
      </trkpt>
      <trkpt lat="47.5373" lon="-0.14819">
        <ele>68</ele>
        <time>2013-04-21T08:27:40.000Z</time>
      </trkpt>
      <trkpt lat="47.5373" lon="-0.14821">
        <ele>68</ele>
        <time>2013-04-21T08:27:41.000Z</time>
      </trkpt>
      <trkpt lat="47.53729" lon="-0.14825">
        <ele>68</ele>
        <time>2013-04-21T08:27:44.000Z</time>
      </trkpt>
      <trkpt lat="47.53729" lon="-0.14828">
        <ele>68</ele>
        <time>2013-04-21T08:27:45.000Z</time>
      </trkpt>
      <trkpt lat="47.53729" lon="-0.14833">
        <ele>68</ele>
        <time>2013-04-21T08:27:48.000Z</time>
      </trkpt>
      <trkpt lat="47.53728" lon="-0.14834">
        <ele>68</ele>
        <time>2013-04-21T08:27:49.000Z</time>
      </trkpt>
      <trkpt lat="47.53727" lon="-0.1484">
        <ele>68</ele>
        <time>2013-04-21T08:27:54.000Z</time>
      </trkpt>
      <trkpt lat="47.53727" lon="-0.14841">
        <ele>68</ele>
        <time>2013-04-21T08:27:55.000Z</time>
      </trkpt>
      <trkpt lat="47.53727" lon="-0.14848">
        <ele>69</ele>
        <time>2013-04-21T08:28:00.000Z</time>
      </trkpt>
      <trkpt lat="47.53727" lon="-0.14849">
        <ele>69</ele>
        <time>2013-04-21T08:28:01.000Z</time>
      </trkpt>
      <trkpt lat="47.53727" lon="-0.14854">
        <ele>69</ele>
        <time>2013-04-21T08:28:04.000Z</time>
      </trkpt>
      <trkpt lat="47.53727" lon="-0.14856">
        <ele>69</ele>
        <time>2013-04-21T08:28:05.000Z</time>
      </trkpt>
      <trkpt lat="47.53727" lon="-0.14863">
        <ele>69</ele>
        <time>2013-04-21T08:28:10.000Z</time>
      </trkpt>
      <trkpt lat="47.53728" lon="-0.14863">
        <ele>69</ele>
        <time>2013-04-21T08:28:11.000Z</time>
      </trkpt>
      <trkpt lat="47.53727" lon="-0.14869">
        <ele>69</ele>
        <time>2013-04-21T08:28:25.000Z</time>
      </trkpt>
      <trkpt lat="47.53727" lon="-0.1487">
        <ele>69</ele>
        <time>2013-04-21T08:28:26.000Z</time>
      </trkpt>
      <trkpt lat="47.53726" lon="-0.14876">
        <ele>69</ele>
        <time>2013-04-21T08:28:30.000Z</time>
      </trkpt>
      <trkpt lat="47.53726" lon="-0.14878">
        <ele>69</ele>
        <time>2013-04-21T08:28:31.000Z</time>
      </trkpt>
      <trkpt lat="47.53725" lon="-0.14884">
        <ele>69</ele>
        <time>2013-04-21T08:28:36.000Z</time>
      </trkpt>
      <trkpt lat="47.53725" lon="-0.14886">
        <ele>69</ele>
        <time>2013-04-21T08:28:37.000Z</time>
      </trkpt>
      <trkpt lat="47.53724" lon="-0.14892">
        <ele>69</ele>
        <time>2013-04-21T08:28:44.000Z</time>
      </trkpt>
      <trkpt lat="47.53725" lon="-0.14894">
        <ele>69</ele>
        <time>2013-04-21T08:28:45.000Z</time>
      </trkpt>
      <trkpt lat="47.53725" lon="-0.14899">
        <ele>69</ele>
        <time>2013-04-21T08:28:47.000Z</time>
      </trkpt>
      <trkpt lat="47.53725" lon="-0.14902">
        <ele>69</ele>
        <time>2013-04-21T08:28:48.000Z</time>
      </trkpt>
      <trkpt lat="47.53724" lon="-0.14908">
        <ele>69</ele>
        <time>2013-04-21T08:29:06.000Z</time>
      </trkpt>
      <trkpt lat="47.53724" lon="-0.14909">
        <ele>69</ele>
        <time>2013-04-21T08:29:07.000Z</time>
      </trkpt>
      <trkpt lat="47.53724" lon="-0.14915">
        <ele>69</ele>
        <time>2013-04-21T08:29:15.000Z</time>
      </trkpt>
      <trkpt lat="47.53723" lon="-0.14915">
        <ele>69</ele>
        <time>2013-04-21T08:29:16.000Z</time>
      </trkpt>
      <trkpt lat="47.53723" lon="-0.14922">
        <ele>69</ele>
        <time>2013-04-21T08:29:24.000Z</time>
      </trkpt>
      <trkpt lat="47.53723" lon="-0.14924">
        <ele>69</ele>
        <time>2013-04-21T08:29:25.000Z</time>
      </trkpt>
      <trkpt lat="47.53724" lon="-0.1493">
        <ele>69</ele>
        <time>2013-04-21T08:29:31.000Z</time>
      </trkpt>
      <trkpt lat="47.53724" lon="-0.14931">
        <ele>69</ele>
        <time>2013-04-21T08:29:32.000Z</time>
      </trkpt>
      <trkpt lat="47.53724" lon="-0.14937">
        <ele>69</ele>
        <time>2013-04-21T08:29:35.000Z</time>
      </trkpt>
      <trkpt lat="47.53724" lon="-0.14939">
        <ele>69</ele>
        <time>2013-04-21T08:29:36.000Z</time>
      </trkpt>
      <trkpt lat="47.53725" lon="-0.14945">
        <ele>69</ele>
        <time>2013-04-21T08:29:39.000Z</time>
      </trkpt>
      <trkpt lat="47.53725" lon="-0.14946">
        <ele>69</ele>
        <time>2013-04-21T08:29:40.000Z</time>
      </trkpt>
      <trkpt lat="47.53724" lon="-0.14952">
        <ele>69</ele>
        <time>2013-04-21T08:29:44.000Z</time>
      </trkpt>
      <trkpt lat="47.53724" lon="-0.14953">
        <ele>69</ele>
        <time>2013-04-21T08:29:45.000Z</time>
      </trkpt>
      <trkpt lat="47.53724" lon="-0.14959">
        <ele>69</ele>
        <time>2013-04-21T08:29:48.000Z</time>
      </trkpt>
      <trkpt lat="47.53724" lon="-0.14961">
        <ele>69</ele>
        <time>2013-04-21T08:29:49.000Z</time>
      </trkpt>
      <trkpt lat="47.53724" lon="-0.14965">
        <ele>69</ele>
        <time>2013-04-21T08:29:51.000Z</time>
      </trkpt>
      <trkpt lat="47.53724" lon="-0.14968">
        <ele>69</ele>
        <time>2013-04-21T08:29:52.000Z</time>
      </trkpt>
      <trkpt lat="47.53723" lon="-0.14973">
        <ele>69</ele>
        <time>2013-04-21T08:29:55.000Z</time>
      </trkpt>
      <trkpt lat="47.53723" lon="-0.14975">
        <ele>69</ele>
        <time>2013-04-21T08:29:56.000Z</time>
      </trkpt>
      <trkpt lat="47.53723" lon="-0.1498">
        <ele>69</ele>
        <time>2013-04-21T08:29:58.000Z</time>
      </trkpt>
      <trkpt lat="47.53723" lon="-0.14982">
        <ele>69</ele>
        <time>2013-04-21T08:29:59.000Z</time>
      </trkpt>
      <trkpt lat="47.53723" lon="-0.14988">
        <ele>69</ele>
        <time>2013-04-21T08:30:03.000Z</time>
      </trkpt>
      <trkpt lat="47.53723" lon="-0.1499">
        <ele>69</ele>
        <time>2013-04-21T08:30:04.000Z</time>
      </trkpt>
      <trkpt lat="47.53722" lon="-0.14997">
        <ele>69</ele>
        <time>2013-04-21T08:30:08.000Z</time>
      </trkpt>
      <trkpt lat="47.53722" lon="-0.14999">
        <ele>69</ele>
        <time>2013-04-21T08:30:09.000Z</time>
      </trkpt>
      <trkpt lat="47.53721" lon="-0.15004">
        <ele>70</ele>
        <time>2013-04-21T08:30:12.000Z</time>
      </trkpt>
      <trkpt lat="47.53721" lon="-0.15006">
        <ele>70</ele>
        <time>2013-04-21T08:30:13.000Z</time>
      </trkpt>
      <trkpt lat="47.53721" lon="-0.15012">
        <ele>70</ele>
        <time>2013-04-21T08:30:17.000Z</time>
      </trkpt>
      <trkpt lat="47.53722" lon="-0.15014">
        <ele>70</ele>
        <time>2013-04-21T08:30:18.000Z</time>
      </trkpt>
      <trkpt lat="47.5372" lon="-0.1502">
        <ele>70</ele>
        <time>2013-04-21T08:30:22.000Z</time>
      </trkpt>
      <trkpt lat="47.5372" lon="-0.15022">
        <ele>70</ele>
        <time>2013-04-21T08:30:23.000Z</time>
      </trkpt>
      <trkpt lat="47.5372" lon="-0.15026">
        <ele>70</ele>
        <time>2013-04-21T08:30:25.000Z</time>
      </trkpt>
      <trkpt lat="47.5372" lon="-0.15029">
        <ele>70</ele>
        <time>2013-04-21T08:30:26.000Z</time>
      </trkpt>
      <trkpt lat="47.5372" lon="-0.15035">
        <ele>70</ele>
        <time>2013-04-21T08:30:29.000Z</time>
      </trkpt>
      <trkpt lat="47.5372" lon="-0.15037">
        <ele>70</ele>
        <time>2013-04-21T08:30:30.000Z</time>
      </trkpt>
      <trkpt lat="47.53719" lon="-0.15044">
        <ele>70</ele>
        <time>2013-04-21T08:30:33.000Z</time>
      </trkpt>
      <trkpt lat="47.53719" lon="-0.15046">
        <ele>70</ele>
        <time>2013-04-21T08:30:34.000Z</time>
      </trkpt>
      <trkpt lat="47.5372" lon="-0.15051">
        <ele>70</ele>
        <time>2013-04-21T08:30:37.000Z</time>
      </trkpt>
      <trkpt lat="47.5372" lon="-0.15053">
        <ele>70</ele>
        <time>2013-04-21T08:30:38.000Z</time>
      </trkpt>
      <trkpt lat="47.5372" lon="-0.1506">
        <ele>70</ele>
        <time>2013-04-21T08:30:41.000Z</time>
      </trkpt>
      <trkpt lat="47.5372" lon="-0.15061">
        <ele>70</ele>
        <time>2013-04-21T08:30:42.000Z</time>
      </trkpt>
      <trkpt lat="47.5372" lon="-0.15067">
        <ele>70</ele>
        <time>2013-04-21T08:30:46.000Z</time>
      </trkpt>
      <trkpt lat="47.5372" lon="-0.15068">
        <ele>70</ele>
        <time>2013-04-21T08:30:47.000Z</time>
      </trkpt>
      <trkpt lat="47.53717" lon="-0.15072">
        <ele>70</ele>
        <time>2013-04-21T08:31:02.000Z</time>
      </trkpt>
      <trkpt lat="47.53715" lon="-0.15073">
        <ele>70</ele>
        <time>2013-04-21T08:31:03.000Z</time>
      </trkpt>
      <trkpt lat="47.53711" lon="-0.15073">
        <ele>70</ele>
        <time>2013-04-21T08:31:07.000Z</time>
      </trkpt>
      <trkpt lat="47.5371" lon="-0.15073">
        <ele>70</ele>
        <time>2013-04-21T08:31:08.000Z</time>
      </trkpt>
      <trkpt lat="47.53706" lon="-0.15075">
        <ele>70</ele>
        <time>2013-04-21T08:31:11.000Z</time>
      </trkpt>
      <trkpt lat="47.53705" lon="-0.15075">
        <ele>70</ele>
        <time>2013-04-21T08:31:12.000Z</time>
      </trkpt>
      <trkpt lat="47.53702" lon="-0.15075">
        <ele>70</ele>
        <time>2013-04-21T08:31:15.000Z</time>
      </trkpt>
      <trkpt lat="47.537" lon="-0.15076">
        <ele>70</ele>
        <time>2013-04-21T08:31:16.000Z</time>
      </trkpt>
      <trkpt lat="47.53697" lon="-0.15077">
        <ele>70</ele>
        <time>2013-04-21T08:31:19.000Z</time>
      </trkpt>
      <trkpt lat="47.53696" lon="-0.15078">
        <ele>70</ele>
        <time>2013-04-21T08:31:20.000Z</time>
      </trkpt>
      <trkpt lat="47.53693" lon="-0.15079">
        <ele>70</ele>
        <time>2013-04-21T08:31:23.000Z</time>
      </trkpt>
      <trkpt lat="47.53691" lon="-0.15079">
        <ele>70</ele>
        <time>2013-04-21T08:31:24.000Z</time>
      </trkpt>
      <trkpt lat="47.53689" lon="-0.15081">
        <ele>70</ele>
        <time>2013-04-21T08:31:27.000Z</time>
      </trkpt>
      <trkpt lat="47.53687" lon="-0.15082">
        <ele>70</ele>
        <time>2013-04-21T08:31:28.000Z</time>
      </trkpt>
      <trkpt lat="47.53684" lon="-0.15085">
        <ele>70</ele>
        <time>2013-04-21T08:31:32.000Z</time>
      </trkpt>
      <trkpt lat="47.53683" lon="-0.15086">
        <ele>70</ele>
        <time>2013-04-21T08:31:33.000Z</time>
      </trkpt>
      <trkpt lat="47.53681" lon="-0.1509">
        <ele>70</ele>
        <time>2013-04-21T08:31:36.000Z</time>
      </trkpt>
      <trkpt lat="47.53681" lon="-0.15092">
        <ele>70</ele>
        <time>2013-04-21T08:31:37.000Z</time>
      </trkpt>
      <trkpt lat="47.53678" lon="-0.15097">
        <ele>70</ele>
        <time>2013-04-21T08:31:41.000Z</time>
      </trkpt>
      <trkpt lat="47.53678" lon="-0.15098">
        <ele>70</ele>
        <time>2013-04-21T08:31:42.000Z</time>
      </trkpt>
      <trkpt lat="47.53676" lon="-0.15103">
        <ele>70</ele>
        <time>2013-04-21T08:31:45.000Z</time>
      </trkpt>
      <trkpt lat="47.53675" lon="-0.15104">
        <ele>70</ele>
        <time>2013-04-21T08:31:46.000Z</time>
      </trkpt>
      <trkpt lat="47.53675" lon="-0.15109">
        <ele>70</ele>
        <time>2013-04-21T08:31:48.000Z</time>
      </trkpt>
      <trkpt lat="47.53674" lon="-0.15111">
        <ele>70</ele>
        <time>2013-04-21T08:31:49.000Z</time>
      </trkpt>
      <trkpt lat="47.53672" lon="-0.15116">
        <ele>70</ele>
        <time>2013-04-21T08:31:52.000Z</time>
      </trkpt>
      <trkpt lat="47.53671" lon="-0.15117">
        <ele>70</ele>
        <time>2013-04-21T08:31:53.000Z</time>
      </trkpt>
      <trkpt lat="47.5367" lon="-0.15122">
        <ele>70</ele>
        <time>2013-04-21T08:31:56.000Z</time>
      </trkpt>
      <trkpt lat="47.53669" lon="-0.15124">
        <ele>70</ele>
        <time>2013-04-21T08:31:57.000Z</time>
      </trkpt>
      <trkpt lat="47.53668" lon="-0.1513">
        <ele>70</ele>
        <time>2013-04-21T08:32:01.000Z</time>
      </trkpt>
      <trkpt lat="47.53668" lon="-0.1513">
        <ele>70</ele>
        <time>2013-04-21T08:32:02.000Z</time>
      </trkpt>
      <trkpt lat="47.53665" lon="-0.15135">
        <ele>70</ele>
        <time>2013-04-21T08:32:07.000Z</time>
      </trkpt>
      <trkpt lat="47.53665" lon="-0.15136">
        <ele>70</ele>
        <time>2013-04-21T08:32:08.000Z</time>
      </trkpt>
      <trkpt lat="47.53662" lon="-0.1514">
        <ele>70</ele>
        <time>2013-04-21T08:32:13.000Z</time>
      </trkpt>
      <trkpt lat="47.53661" lon="-0.15141">
        <ele>70</ele>
        <time>2013-04-21T08:32:14.000Z</time>
      </trkpt>
      <trkpt lat="47.53658" lon="-0.15146">
        <ele>70</ele>
        <time>2013-04-21T08:32:17.000Z</time>
      </trkpt>
      <trkpt lat="47.53657" lon="-0.15147">
        <ele>70</ele>
        <time>2013-04-21T08:32:18.000Z</time>
      </trkpt>
      <trkpt lat="47.53655" lon="-0.15152">
        <ele>70</ele>
        <time>2013-04-21T08:32:21.000Z</time>
      </trkpt>
      <trkpt lat="47.53655" lon="-0.15156">
        <ele>70</ele>
        <time>2013-04-21T08:32:22.000Z</time>
      </trkpt>
      <trkpt lat="47.53653" lon="-0.15161">
        <ele>70</ele>
        <time>2013-04-21T08:32:25.000Z</time>
      </trkpt>
      <trkpt lat="47.53653" lon="-0.15163">
        <ele>70</ele>
        <time>2013-04-21T08:32:26.000Z</time>
      </trkpt>
      <trkpt lat="47.53653" lon="-0.15167">
        <ele>70</ele>
        <time>2013-04-21T08:32:29.000Z</time>
      </trkpt>
      <trkpt lat="47.53653" lon="-0.1517">
        <ele>70</ele>
        <time>2013-04-21T08:32:30.000Z</time>
      </trkpt>
      <trkpt lat="47.53652" lon="-0.15175">
        <ele>70</ele>
        <time>2013-04-21T08:32:33.000Z</time>
      </trkpt>
      <trkpt lat="47.53652" lon="-0.15177">
        <ele>69</ele>
        <time>2013-04-21T08:32:34.000Z</time>
      </trkpt>
      <trkpt lat="47.53652" lon="-0.15183">
        <ele>69</ele>
        <time>2013-04-21T08:32:37.000Z</time>
      </trkpt>
      <trkpt lat="47.53651" lon="-0.15185">
        <ele>69</ele>
        <time>2013-04-21T08:32:38.000Z</time>
      </trkpt>
      <trkpt lat="47.53651" lon="-0.15191">
        <ele>69</ele>
        <time>2013-04-21T08:32:41.000Z</time>
      </trkpt>
      <trkpt lat="47.53651" lon="-0.15192">
        <ele>69</ele>
        <time>2013-04-21T08:32:42.000Z</time>
      </trkpt>
      <trkpt lat="47.5365" lon="-0.15197">
        <ele>69</ele>
        <time>2013-04-21T08:32:45.000Z</time>
      </trkpt>
      <trkpt lat="47.5365" lon="-0.15199">
        <ele>69</ele>
        <time>2013-04-21T08:32:46.000Z</time>
      </trkpt>
      <trkpt lat="47.53649" lon="-0.15204">
        <ele>69</ele>
        <time>2013-04-21T08:32:49.000Z</time>
      </trkpt>
      <trkpt lat="47.53649" lon="-0.15205">
        <ele>69</ele>
        <time>2013-04-21T08:32:50.000Z</time>
      </trkpt>
      <trkpt lat="47.53649" lon="-0.15211">
        <ele>69</ele>
        <time>2013-04-21T08:32:53.000Z</time>
      </trkpt>
      <trkpt lat="47.53649" lon="-0.15213">
        <ele>69</ele>
        <time>2013-04-21T08:32:54.000Z</time>
      </trkpt>
      <trkpt lat="47.53649" lon="-0.15219">
        <ele>69</ele>
        <time>2013-04-21T08:32:58.000Z</time>
      </trkpt>
      <trkpt lat="47.53649" lon="-0.1522">
        <ele>69</ele>
        <time>2013-04-21T08:32:59.000Z</time>
      </trkpt>
      <trkpt lat="47.53648" lon="-0.15225">
        <ele>69</ele>
        <time>2013-04-21T08:33:02.000Z</time>
      </trkpt>
      <trkpt lat="47.53648" lon="-0.15227">
        <ele>69</ele>
        <time>2013-04-21T08:33:03.000Z</time>
      </trkpt>
      <trkpt lat="47.53647" lon="-0.15232">
        <ele>69</ele>
        <time>2013-04-21T08:33:06.000Z</time>
      </trkpt>
      <trkpt lat="47.53647" lon="-0.15234">
        <ele>69</ele>
        <time>2013-04-21T08:33:07.000Z</time>
      </trkpt>
      <trkpt lat="47.53648" lon="-0.15239">
        <ele>69</ele>
        <time>2013-04-21T08:33:10.000Z</time>
      </trkpt>
      <trkpt lat="47.53647" lon="-0.15241">
        <ele>69</ele>
        <time>2013-04-21T08:33:11.000Z</time>
      </trkpt>
      <trkpt lat="47.53646" lon="-0.15247">
        <ele>69</ele>
        <time>2013-04-21T08:33:14.000Z</time>
      </trkpt>
      <trkpt lat="47.53646" lon="-0.15249">
        <ele>69</ele>
        <time>2013-04-21T08:33:15.000Z</time>
      </trkpt>
      <trkpt lat="47.53646" lon="-0.15255">
        <ele>68</ele>
        <time>2013-04-21T08:33:19.000Z</time>
      </trkpt>
      <trkpt lat="47.53646" lon="-0.15256">
        <ele>68</ele>
        <time>2013-04-21T08:33:20.000Z</time>
      </trkpt>
      <trkpt lat="47.53646" lon="-0.15262">
        <ele>68</ele>
        <time>2013-04-21T08:33:24.000Z</time>
      </trkpt>
      <trkpt lat="47.53646" lon="-0.15264">
        <ele>68</ele>
        <time>2013-04-21T08:33:25.000Z</time>
      </trkpt>
      <trkpt lat="47.53645" lon="-0.15268">
        <ele>68</ele>
        <time>2013-04-21T08:33:27.000Z</time>
      </trkpt>
      <trkpt lat="47.53645" lon="-0.15271">
        <ele>68</ele>
        <time>2013-04-21T08:33:28.000Z</time>
      </trkpt>
      <trkpt lat="47.53645" lon="-0.15275">
        <ele>68</ele>
        <time>2013-04-21T08:33:30.000Z</time>
      </trkpt>
      <trkpt lat="47.53645" lon="-0.15277">
        <ele>68</ele>
        <time>2013-04-21T08:33:31.000Z</time>
      </trkpt>
      <trkpt lat="47.53645" lon="-0.15283">
        <ele>68</ele>
        <time>2013-04-21T08:33:34.000Z</time>
      </trkpt>
      <trkpt lat="47.53645" lon="-0.15285">
        <ele>68</ele>
        <time>2013-04-21T08:33:35.000Z</time>
      </trkpt>
      <trkpt lat="47.53643" lon="-0.15291">
        <ele>68</ele>
        <time>2013-04-21T08:33:38.000Z</time>
      </trkpt>
      <trkpt lat="47.53643" lon="-0.15293">
        <ele>68</ele>
        <time>2013-04-21T08:33:39.000Z</time>
      </trkpt>
      <trkpt lat="47.53643" lon="-0.15298">
        <ele>68</ele>
        <time>2013-04-21T08:33:42.000Z</time>
      </trkpt>
      <trkpt lat="47.53643" lon="-0.15299">
        <ele>68</ele>
        <time>2013-04-21T08:33:43.000Z</time>
      </trkpt>
      <trkpt lat="47.53642" lon="-0.15305">
        <ele>68</ele>
        <time>2013-04-21T08:33:46.000Z</time>
      </trkpt>
      <trkpt lat="47.53642" lon="-0.15307">
        <ele>68</ele>
        <time>2013-04-21T08:33:47.000Z</time>
      </trkpt>
      <trkpt lat="47.53642" lon="-0.15313">
        <ele>68</ele>
        <time>2013-04-21T08:33:51.000Z</time>
      </trkpt>
      <trkpt lat="47.53643" lon="-0.15313">
        <ele>68</ele>
        <time>2013-04-21T08:33:52.000Z</time>
      </trkpt>
      <trkpt lat="47.53643" lon="-0.15318">
        <ele>68</ele>
        <time>2013-04-21T08:34:00.000Z</time>
      </trkpt>
      <trkpt lat="47.53642" lon="-0.15321">
        <ele>68</ele>
        <time>2013-04-21T08:34:01.000Z</time>
      </trkpt>
      <trkpt lat="47.53641" lon="-0.15325">
        <ele>68</ele>
        <time>2013-04-21T08:34:10.000Z</time>
      </trkpt>
      <trkpt lat="47.53641" lon="-0.15327">
        <ele>68</ele>
        <time>2013-04-21T08:34:11.000Z</time>
      </trkpt>
      <trkpt lat="47.5364" lon="-0.15333">
        <ele>68</ele>
        <time>2013-04-21T08:34:14.000Z</time>
      </trkpt>
      <trkpt lat="47.5364" lon="-0.15335">
        <ele>68</ele>
        <time>2013-04-21T08:34:15.000Z</time>
      </trkpt>
      <trkpt lat="47.53639" lon="-0.15341">
        <ele>68</ele>
        <time>2013-04-21T08:34:19.000Z</time>
      </trkpt>
      <trkpt lat="47.53639" lon="-0.15342">
        <ele>68</ele>
        <time>2013-04-21T08:34:20.000Z</time>
      </trkpt>
      <trkpt lat="47.53638" lon="-0.15348">
        <ele>68</ele>
        <time>2013-04-21T08:34:24.000Z</time>
      </trkpt>
      <trkpt lat="47.53637" lon="-0.15349">
        <ele>68</ele>
        <time>2013-04-21T08:34:25.000Z</time>
      </trkpt>
      <trkpt lat="47.53637" lon="-0.15355">
        <ele>68</ele>
        <time>2013-04-21T08:34:28.000Z</time>
      </trkpt>
      <trkpt lat="47.53637" lon="-0.15357">
        <ele>68</ele>
        <time>2013-04-21T08:34:29.000Z</time>
      </trkpt>
      <trkpt lat="47.53637" lon="-0.15363">
        <ele>68</ele>
        <time>2013-04-21T08:34:32.000Z</time>
      </trkpt>
      <trkpt lat="47.53636" lon="-0.15366">
        <ele>68</ele>
        <time>2013-04-21T08:34:33.000Z</time>
      </trkpt>
      <trkpt lat="47.53636" lon="-0.15371">
        <ele>68</ele>
        <time>2013-04-21T08:34:36.000Z</time>
      </trkpt>
      <trkpt lat="47.53636" lon="-0.15374">
        <ele>68</ele>
        <time>2013-04-21T08:34:37.000Z</time>
      </trkpt>
      <trkpt lat="47.53635" lon="-0.1538">
        <ele>68</ele>
        <time>2013-04-21T08:34:40.000Z</time>
      </trkpt>
      <trkpt lat="47.53635" lon="-0.15382">
        <ele>68</ele>
        <time>2013-04-21T08:34:41.000Z</time>
      </trkpt>
      <trkpt lat="47.53636" lon="-0.15387">
        <ele>68</ele>
        <time>2013-04-21T08:34:44.000Z</time>
      </trkpt>
      <trkpt lat="47.53636" lon="-0.15389">
        <ele>68</ele>
        <time>2013-04-21T08:34:45.000Z</time>
      </trkpt>
      <trkpt lat="47.53637" lon="-0.15393">
        <ele>68</ele>
        <time>2013-04-21T08:34:47.000Z</time>
      </trkpt>
      <trkpt lat="47.53637" lon="-0.15396">
        <ele>68</ele>
        <time>2013-04-21T08:34:48.000Z</time>
      </trkpt>
      <trkpt lat="47.53637" lon="-0.15402">
        <ele>68</ele>
        <time>2013-04-21T08:34:51.000Z</time>
      </trkpt>
      <trkpt lat="47.53637" lon="-0.15403">
        <ele>68</ele>
        <time>2013-04-21T08:34:52.000Z</time>
      </trkpt>
      <trkpt lat="47.53637" lon="-0.1541">
        <ele>68</ele>
        <time>2013-04-21T08:34:56.000Z</time>
      </trkpt>
      <trkpt lat="47.53637" lon="-0.15412">
        <ele>68</ele>
        <time>2013-04-21T08:34:57.000Z</time>
      </trkpt>
      <trkpt lat="47.53637" lon="-0.15416">
        <ele>68</ele>
        <time>2013-04-21T08:34:59.000Z</time>
      </trkpt>
      <trkpt lat="47.53637" lon="-0.15419">
        <ele>68</ele>
        <time>2013-04-21T08:35:00.000Z</time>
      </trkpt>
      <trkpt lat="47.53638" lon="-0.15424">
        <ele>68</ele>
        <time>2013-04-21T08:35:03.000Z</time>
      </trkpt>
      <trkpt lat="47.53638" lon="-0.15426">
        <ele>68</ele>
        <time>2013-04-21T08:35:04.000Z</time>
      </trkpt>
      <trkpt lat="47.53639" lon="-0.15433">
        <ele>69</ele>
        <time>2013-04-21T08:35:08.000Z</time>
      </trkpt>
      <trkpt lat="47.53639" lon="-0.15435">
        <ele>69</ele>
        <time>2013-04-21T08:35:09.000Z</time>
      </trkpt>
      <trkpt lat="47.53638" lon="-0.15441">
        <ele>69</ele>
        <time>2013-04-21T08:35:13.000Z</time>
      </trkpt>
      <trkpt lat="47.53638" lon="-0.15442">
        <ele>69</ele>
        <time>2013-04-21T08:35:14.000Z</time>
      </trkpt>
      <trkpt lat="47.53637" lon="-0.15448">
        <ele>69</ele>
        <time>2013-04-21T08:35:18.000Z</time>
      </trkpt>
      <trkpt lat="47.53637" lon="-0.15449">
        <ele>69</ele>
        <time>2013-04-21T08:35:19.000Z</time>
      </trkpt>
      <trkpt lat="47.53636" lon="-0.15455">
        <ele>69</ele>
        <time>2013-04-21T08:35:23.000Z</time>
      </trkpt>
      <trkpt lat="47.53636" lon="-0.15458">
        <ele>69</ele>
        <time>2013-04-21T08:35:24.000Z</time>
      </trkpt>
      <trkpt lat="47.53636" lon="-0.15463">
        <ele>69</ele>
        <time>2013-04-21T08:35:27.000Z</time>
      </trkpt>
      <trkpt lat="47.53636" lon="-0.15465">
        <ele>69</ele>
        <time>2013-04-21T08:35:28.000Z</time>
      </trkpt>
      <trkpt lat="47.53636" lon="-0.1547">
        <ele>69</ele>
        <time>2013-04-21T08:35:31.000Z</time>
      </trkpt>
      <trkpt lat="47.53635" lon="-0.15472">
        <ele>69</ele>
        <time>2013-04-21T08:35:32.000Z</time>
      </trkpt>
      <trkpt lat="47.53634" lon="-0.15478">
        <ele>69</ele>
        <time>2013-04-21T08:35:36.000Z</time>
      </trkpt>
      <trkpt lat="47.53634" lon="-0.1548">
        <ele>69</ele>
        <time>2013-04-21T08:35:37.000Z</time>
      </trkpt>
      <trkpt lat="47.53633" lon="-0.15484">
        <ele>69</ele>
        <time>2013-04-21T08:35:40.000Z</time>
      </trkpt>
      <trkpt lat="47.53633" lon="-0.15487">
        <ele>69</ele>
        <time>2013-04-21T08:35:41.000Z</time>
      </trkpt>
      <trkpt lat="47.53633" lon="-0.15493">
        <ele>69</ele>
        <time>2013-04-21T08:35:44.000Z</time>
      </trkpt>
      <trkpt lat="47.53633" lon="-0.15495">
        <ele>69</ele>
        <time>2013-04-21T08:35:45.000Z</time>
      </trkpt>
      <trkpt lat="47.53632" lon="-0.15501">
        <ele>70</ele>
        <time>2013-04-21T08:35:48.000Z</time>
      </trkpt>
      <trkpt lat="47.53632" lon="-0.15502">
        <ele>70</ele>
        <time>2013-04-21T08:35:49.000Z</time>
      </trkpt>
      <trkpt lat="47.53632" lon="-0.15509">
        <ele>70</ele>
        <time>2013-04-21T08:35:52.000Z</time>
      </trkpt>
      <trkpt lat="47.53632" lon="-0.15511">
        <ele>70</ele>
        <time>2013-04-21T08:35:53.000Z</time>
      </trkpt>
      <trkpt lat="47.53632" lon="-0.15517">
        <ele>70</ele>
        <time>2013-04-21T08:35:56.000Z</time>
      </trkpt>
      <trkpt lat="47.53633" lon="-0.15519">
        <ele>70</ele>
        <time>2013-04-21T08:35:57.000Z</time>
      </trkpt>
      <trkpt lat="47.53635" lon="-0.15524">
        <ele>70</ele>
        <time>2013-04-21T08:36:01.000Z</time>
      </trkpt>
      <trkpt lat="47.53635" lon="-0.15526">
        <ele>70</ele>
        <time>2013-04-21T08:36:02.000Z</time>
      </trkpt>
      <trkpt lat="47.53636" lon="-0.15531">
        <ele>70</ele>
        <time>2013-04-21T08:36:05.000Z</time>
      </trkpt>
      <trkpt lat="47.53636" lon="-0.15533">
        <ele>70</ele>
        <time>2013-04-21T08:36:06.000Z</time>
      </trkpt>
      <trkpt lat="47.53638" lon="-0.15538">
        <ele>70</ele>
        <time>2013-04-21T08:36:10.000Z</time>
      </trkpt>
      <trkpt lat="47.53639" lon="-0.1554">
        <ele>70</ele>
        <time>2013-04-21T08:36:11.000Z</time>
      </trkpt>
      <trkpt lat="47.53641" lon="-0.15546">
        <ele>70</ele>
        <time>2013-04-21T08:36:14.000Z</time>
      </trkpt>
      <trkpt lat="47.53641" lon="-0.15548">
        <ele>70</ele>
        <time>2013-04-21T08:36:15.000Z</time>
      </trkpt>
      <trkpt lat="47.53641" lon="-0.15554">
        <ele>70</ele>
        <time>2013-04-21T08:36:18.000Z</time>
      </trkpt>
      <trkpt lat="47.53641" lon="-0.15555">
        <ele>70</ele>
        <time>2013-04-21T08:36:19.000Z</time>
      </trkpt>
      <trkpt lat="47.53643" lon="-0.15561">
        <ele>70</ele>
        <time>2013-04-21T08:36:24.000Z</time>
      </trkpt>
      <trkpt lat="47.53643" lon="-0.15563">
        <ele>70</ele>
        <time>2013-04-21T08:36:25.000Z</time>
      </trkpt>
      <trkpt lat="47.53643" lon="-0.15569">
        <ele>70</ele>
        <time>2013-04-21T08:36:28.000Z</time>
      </trkpt>
      <trkpt lat="47.53643" lon="-0.15571">
        <ele>70</ele>
        <time>2013-04-21T08:36:29.000Z</time>
      </trkpt>
      <trkpt lat="47.53642" lon="-0.15577">
        <ele>70</ele>
        <time>2013-04-21T08:36:32.000Z</time>
      </trkpt>
      <trkpt lat="47.53642" lon="-0.15579">
        <ele>70</ele>
        <time>2013-04-21T08:36:33.000Z</time>
      </trkpt>
      <trkpt lat="47.53642" lon="-0.15586">
        <ele>70</ele>
        <time>2013-04-21T08:36:37.000Z</time>
      </trkpt>
      <trkpt lat="47.53642" lon="-0.15587">
        <ele>70</ele>
        <time>2013-04-21T08:36:38.000Z</time>
      </trkpt>
      <trkpt lat="47.53641" lon="-0.15593">
        <ele>70</ele>
        <time>2013-04-21T08:36:42.000Z</time>
      </trkpt>
      <trkpt lat="47.53641" lon="-0.15594">
        <ele>70</ele>
        <time>2013-04-21T08:36:43.000Z</time>
      </trkpt>
      <trkpt lat="47.53643" lon="-0.156">
        <ele>70</ele>
        <time>2013-04-21T08:36:47.000Z</time>
      </trkpt>
      <trkpt lat="47.53644" lon="-0.156">
        <ele>70</ele>
        <time>2013-04-21T08:36:48.000Z</time>
      </trkpt>
      <trkpt lat="47.53647" lon="-0.15604">
        <ele>70</ele>
        <time>2013-04-21T08:36:52.000Z</time>
      </trkpt>
      <trkpt lat="47.53648" lon="-0.15605">
        <ele>70</ele>
        <time>2013-04-21T08:36:53.000Z</time>
      </trkpt>
      <trkpt lat="47.53652" lon="-0.15607">
        <ele>70</ele>
        <time>2013-04-21T08:36:55.000Z</time>
      </trkpt>
      <trkpt lat="47.53653" lon="-0.15608">
        <ele>70</ele>
        <time>2013-04-21T08:36:56.000Z</time>
      </trkpt>
      <trkpt lat="47.53656" lon="-0.15609">
        <ele>70</ele>
        <time>2013-04-21T08:36:59.000Z</time>
      </trkpt>
      <trkpt lat="47.53657" lon="-0.1561">
        <ele>70</ele>
        <time>2013-04-21T08:37:00.000Z</time>
      </trkpt>
      <trkpt lat="47.53661" lon="-0.15613">
        <ele>70</ele>
        <time>2013-04-21T08:37:04.000Z</time>
      </trkpt>
      <trkpt lat="47.53662" lon="-0.15613">
        <ele>70</ele>
        <time>2013-04-21T08:37:05.000Z</time>
      </trkpt>
      <trkpt lat="47.53665" lon="-0.15616">
        <ele>70</ele>
        <time>2013-04-21T08:37:09.000Z</time>
      </trkpt>
      <trkpt lat="47.53666" lon="-0.15617">
        <ele>70</ele>
        <time>2013-04-21T08:37:10.000Z</time>
      </trkpt>
      <trkpt lat="47.5367" lon="-0.15617">
        <ele>69</ele>
        <time>2013-04-21T08:37:13.000Z</time>
      </trkpt>
      <trkpt lat="47.53671" lon="-0.15618">
        <ele>69</ele>
        <time>2013-04-21T08:37:14.000Z</time>
      </trkpt>
      <trkpt lat="47.53675" lon="-0.15619">
        <ele>69</ele>
        <time>2013-04-21T08:37:16.000Z</time>
      </trkpt>
      <trkpt lat="47.53676" lon="-0.15619">
        <ele>68</ele>
        <time>2013-04-21T08:37:17.000Z</time>
      </trkpt>
      <trkpt lat="47.53679" lon="-0.15621">
        <ele>68</ele>
        <time>2013-04-21T08:37:21.000Z</time>
      </trkpt>
      <trkpt lat="47.53681" lon="-0.15621">
        <ele>68</ele>
        <time>2013-04-21T08:37:22.000Z</time>
      </trkpt>
      <trkpt lat="47.53685" lon="-0.15623">
        <ele>68</ele>
        <time>2013-04-21T08:37:26.000Z</time>
      </trkpt>
      <trkpt lat="47.53686" lon="-0.15624">
        <ele>68</ele>
        <time>2013-04-21T08:37:27.000Z</time>
      </trkpt>
      <trkpt lat="47.5369" lon="-0.15626">
        <ele>68</ele>
        <time>2013-04-21T08:37:31.000Z</time>
      </trkpt>
      <trkpt lat="47.53692" lon="-0.15626">
        <ele>68</ele>
        <time>2013-04-21T08:37:32.000Z</time>
      </trkpt>
      <trkpt lat="47.53696" lon="-0.15627">
        <ele>68</ele>
        <time>2013-04-21T08:37:35.000Z</time>
      </trkpt>
      <trkpt lat="47.53696" lon="-0.15628">
        <ele>68</ele>
        <time>2013-04-21T08:37:36.000Z</time>
      </trkpt>
      <trkpt lat="47.537" lon="-0.15631">
        <ele>68</ele>
        <time>2013-04-21T08:37:43.000Z</time>
      </trkpt>
      <trkpt lat="47.537" lon="-0.15631">
        <ele>68</ele>
        <time>2013-04-21T08:37:44.000Z</time>
      </trkpt>
      <trkpt lat="47.53705" lon="-0.15632">
        <ele>68</ele>
        <time>2013-04-21T08:37:48.000Z</time>
      </trkpt>
      <trkpt lat="47.53705" lon="-0.15633">
        <ele>68</ele>
        <time>2013-04-21T08:37:49.000Z</time>
      </trkpt>
      <trkpt lat="47.53709" lon="-0.15636">
        <ele>67</ele>
        <time>2013-04-21T08:37:53.000Z</time>
      </trkpt>
      <trkpt lat="47.5371" lon="-0.15637">
        <ele>67</ele>
        <time>2013-04-21T08:37:54.000Z</time>
      </trkpt>
      <trkpt lat="47.53713" lon="-0.15639">
        <ele>67</ele>
        <time>2013-04-21T08:37:57.000Z</time>
      </trkpt>
      <trkpt lat="47.53714" lon="-0.15639">
        <ele>67</ele>
        <time>2013-04-21T08:37:58.000Z</time>
      </trkpt>
      <trkpt lat="47.53717" lon="-0.1564">
        <ele>67</ele>
        <time>2013-04-21T08:38:00.000Z</time>
      </trkpt>
      <trkpt lat="47.53719" lon="-0.1564">
        <ele>67</ele>
        <time>2013-04-21T08:38:01.000Z</time>
      </trkpt>
      <trkpt lat="47.53723" lon="-0.15642">
        <ele>67</ele>
        <time>2013-04-21T08:38:05.000Z</time>
      </trkpt>
      <trkpt lat="47.53724" lon="-0.15642">
        <ele>67</ele>
        <time>2013-04-21T08:38:06.000Z</time>
      </trkpt>
      <trkpt lat="47.53727" lon="-0.15646">
        <ele>67</ele>
        <time>2013-04-21T08:38:10.000Z</time>
      </trkpt>
      <trkpt lat="47.53728" lon="-0.15646">
        <ele>67</ele>
        <time>2013-04-21T08:38:11.000Z</time>
      </trkpt>
      <trkpt lat="47.53731" lon="-0.15647">
        <ele>66</ele>
        <time>2013-04-21T08:38:13.000Z</time>
      </trkpt>
      <trkpt lat="47.53733" lon="-0.15648">
        <ele>66</ele>
        <time>2013-04-21T08:38:14.000Z</time>
      </trkpt>
      <trkpt lat="47.53737" lon="-0.15648">
        <ele>66</ele>
        <time>2013-04-21T08:38:18.000Z</time>
      </trkpt>
      <trkpt lat="47.53738" lon="-0.15648">
        <ele>66</ele>
        <time>2013-04-21T08:38:19.000Z</time>
      </trkpt>
      <trkpt lat="47.53741" lon="-0.15649">
        <ele>66</ele>
        <time>2013-04-21T08:38:23.000Z</time>
      </trkpt>
      <trkpt lat="47.53742" lon="-0.15651">
        <ele>66</ele>
        <time>2013-04-21T08:38:24.000Z</time>
      </trkpt>
      <trkpt lat="47.53744" lon="-0.15656">
        <ele>65</ele>
        <time>2013-04-21T08:38:29.000Z</time>
      </trkpt>
      <trkpt lat="47.53745" lon="-0.15657">
        <ele>65</ele>
        <time>2013-04-21T08:38:30.000Z</time>
      </trkpt>
      <trkpt lat="47.53746" lon="-0.15662">
        <ele>65</ele>
        <time>2013-04-21T08:38:34.000Z</time>
      </trkpt>
      <trkpt lat="47.53747" lon="-0.15663">
        <ele>65</ele>
        <time>2013-04-21T08:38:35.000Z</time>
      </trkpt>
      <trkpt lat="47.53747" lon="-0.15669">
        <ele>65</ele>
        <time>2013-04-21T08:38:40.000Z</time>
      </trkpt>
      <trkpt lat="47.53747" lon="-0.15671">
        <ele>65</ele>
        <time>2013-04-21T08:38:41.000Z</time>
      </trkpt>
      <trkpt lat="47.53744" lon="-0.15675">
        <ele>65</ele>
        <time>2013-04-21T08:38:48.000Z</time>
      </trkpt>
      <trkpt lat="47.53743" lon="-0.15676">
        <ele>65</ele>
        <time>2013-04-21T08:38:49.000Z</time>
      </trkpt>
      <trkpt lat="47.53746" lon="-0.1568">
        <ele>66</ele>
        <time>2013-04-21T08:39:20.000Z</time>
      </trkpt>
      <trkpt lat="47.53746" lon="-0.1568">
        <ele>66</ele>
        <time>2013-04-21T08:39:21.000Z</time>
      </trkpt>
      <trkpt lat="47.5375" lon="-0.15677">
        <ele>65</ele>
        <time>2013-04-21T08:39:50.000Z</time>
      </trkpt>
      <trkpt lat="47.5375" lon="-0.15676">
        <ele>63</ele>
        <time>2013-04-21T08:39:51.000Z</time>
      </trkpt>
      <trkpt lat="47.53751" lon="-0.1567">
        <ele>64</ele>
        <time>2013-04-21T08:40:00.000Z</time>
      </trkpt>
      <trkpt lat="47.53751" lon="-0.15668">
        <ele>64</ele>
        <time>2013-04-21T08:40:01.000Z</time>
      </trkpt>
      <trkpt lat="47.5375" lon="-0.15663">
        <ele>64</ele>
        <time>2013-04-21T08:40:04.000Z</time>
      </trkpt>
      <trkpt lat="47.5375" lon="-0.15661">
        <ele>64</ele>
        <time>2013-04-21T08:40:05.000Z</time>
      </trkpt>
      <trkpt lat="47.53748" lon="-0.15655">
        <ele>65</ele>
        <time>2013-04-21T08:40:10.000Z</time>
      </trkpt>
      <trkpt lat="47.53747" lon="-0.15655">
        <ele>65</ele>
        <time>2013-04-21T08:40:11.000Z</time>
      </trkpt>
      <trkpt lat="47.53743" lon="-0.15651">
        <ele>66</ele>
        <time>2013-04-21T08:40:43.000Z</time>
      </trkpt>
      <trkpt lat="47.53743" lon="-0.15651">
        <ele>66</ele>
        <time>2013-04-21T08:40:44.000Z</time>
      </trkpt>
      <trkpt lat="47.5374" lon="-0.15647">
        <ele>66</ele>
        <time>2013-04-21T08:41:02.000Z</time>
      </trkpt>
      <trkpt lat="47.53739" lon="-0.15647">
        <ele>66</ele>
        <time>2013-04-21T08:41:03.000Z</time>
      </trkpt>
      <trkpt lat="47.53736" lon="-0.15644">
        <ele>66</ele>
        <time>2013-04-21T08:41:15.000Z</time>
      </trkpt>
      <trkpt lat="47.53735" lon="-0.15643">
        <ele>66</ele>
        <time>2013-04-21T08:41:16.000Z</time>
      </trkpt>
      <trkpt lat="47.53732" lon="-0.15639">
        <ele>67</ele>
        <time>2013-04-21T08:41:20.000Z</time>
      </trkpt>
      <trkpt lat="47.53731" lon="-0.15638">
        <ele>67</ele>
        <time>2013-04-21T08:41:21.000Z</time>
      </trkpt>
      <trkpt lat="47.53729" lon="-0.15636">
        <ele>67</ele>
        <time>2013-04-21T08:41:26.000Z</time>
      </trkpt>
      <trkpt lat="47.53727" lon="-0.15634">
        <ele>67</ele>
        <time>2013-04-21T08:41:27.000Z</time>
      </trkpt>
      <trkpt lat="47.53723" lon="-0.15633">
        <ele>67</ele>
        <time>2013-04-21T08:41:31.000Z</time>
      </trkpt>
      <trkpt lat="47.53722" lon="-0.15633">
        <ele>67</ele>
        <time>2013-04-21T08:41:32.000Z</time>
      </trkpt>
      <trkpt lat="47.53718" lon="-0.15631">
        <ele>67</ele>
        <time>2013-04-21T08:41:39.000Z</time>
      </trkpt>
      <trkpt lat="47.53716" lon="-0.15632">
        <ele>67</ele>
        <time>2013-04-21T08:41:40.000Z</time>
      </trkpt>
      <trkpt lat="47.53713" lon="-0.15629">
        <ele>67</ele>
        <time>2013-04-21T08:41:42.000Z</time>
      </trkpt>
      <trkpt lat="47.53711" lon="-0.15629">
        <ele>67</ele>
        <time>2013-04-21T08:41:43.000Z</time>
      </trkpt>
      <trkpt lat="47.53708" lon="-0.15626">
        <ele>68</ele>
        <time>2013-04-21T08:41:46.001Z</time>
      </trkpt>
      <trkpt lat="47.53707" lon="-0.15625">
        <ele>68</ele>
        <time>2013-04-21T08:41:47.001Z</time>
      </trkpt>
      <trkpt lat="47.53703" lon="-0.15623">
        <ele>68</ele>
        <time>2013-04-21T08:41:50.001Z</time>
      </trkpt>
      <trkpt lat="47.53703" lon="-0.15622">
        <ele>68</ele>
        <time>2013-04-21T08:41:51.001Z</time>
      </trkpt>
      <trkpt lat="47.53699" lon="-0.1562">
        <ele>68</ele>
        <time>2013-04-21T08:41:58.001Z</time>
      </trkpt>
      <trkpt lat="47.53698" lon="-0.15619">
        <ele>68</ele>
        <time>2013-04-21T08:41:59.001Z</time>
      </trkpt>
      <trkpt lat="47.53694" lon="-0.15617">
        <ele>68</ele>
        <time>2013-04-21T08:42:03.001Z</time>
      </trkpt>
      <trkpt lat="47.53693" lon="-0.15617">
        <ele>68</ele>
        <time>2013-04-21T08:42:04.001Z</time>
      </trkpt>
      <trkpt lat="47.53689" lon="-0.15614">
        <ele>68</ele>
        <time>2013-04-21T08:42:08.001Z</time>
      </trkpt>
      <trkpt lat="47.53688" lon="-0.15613">
        <ele>68</ele>
        <time>2013-04-21T08:42:09.001Z</time>
      </trkpt>
      <trkpt lat="47.53684" lon="-0.1561">
        <ele>68</ele>
        <time>2013-04-21T08:42:15.001Z</time>
      </trkpt>
      <trkpt lat="47.53683" lon="-0.1561">
        <ele>68</ele>
        <time>2013-04-21T08:42:16.001Z</time>
      </trkpt>
      <trkpt lat="47.53679" lon="-0.15608">
        <ele>69</ele>
        <time>2013-04-21T08:42:19.001Z</time>
      </trkpt>
      <trkpt lat="47.53678" lon="-0.15608">
        <ele>69</ele>
        <time>2013-04-21T08:42:20.001Z</time>
      </trkpt>
      <trkpt lat="47.53674" lon="-0.15606">
        <ele>69</ele>
        <time>2013-04-21T08:42:23.001Z</time>
      </trkpt>
      <trkpt lat="47.53673" lon="-0.15606">
        <ele>69</ele>
        <time>2013-04-21T08:42:24.001Z</time>
      </trkpt>
      <trkpt lat="47.53668" lon="-0.15603">
        <ele>69</ele>
        <time>2013-04-21T08:42:29.001Z</time>
      </trkpt>
      <trkpt lat="47.53667" lon="-0.15602">
        <ele>69</ele>
        <time>2013-04-21T08:42:30.001Z</time>
      </trkpt>
      <trkpt lat="47.53663" lon="-0.156">
        <ele>70</ele>
        <time>2013-04-21T08:42:34.001Z</time>
      </trkpt>
      <trkpt lat="47.53663" lon="-0.15599">
        <ele>70</ele>
        <time>2013-04-21T08:42:35.001Z</time>
      </trkpt>
      <trkpt lat="47.53659" lon="-0.15598">
        <ele>70</ele>
        <time>2013-04-21T08:42:38.001Z</time>
      </trkpt>
      <trkpt lat="47.53657" lon="-0.15598">
        <ele>70</ele>
        <time>2013-04-21T08:42:39.001Z</time>
      </trkpt>
      <trkpt lat="47.53653" lon="-0.15597">
        <ele>70</ele>
        <time>2013-04-21T08:42:45.001Z</time>
      </trkpt>
      <trkpt lat="47.53652" lon="-0.15597">
        <ele>70</ele>
        <time>2013-04-21T08:42:46.001Z</time>
      </trkpt>
      <trkpt lat="47.53649" lon="-0.15596">
        <ele>70</ele>
        <time>2013-04-21T08:42:49.001Z</time>
      </trkpt>
      <trkpt lat="47.53647" lon="-0.15596">
        <ele>70</ele>
        <time>2013-04-21T08:42:50.001Z</time>
      </trkpt>
      <trkpt lat="47.53644" lon="-0.15595">
        <ele>70</ele>
        <time>2013-04-21T08:42:55.001Z</time>
      </trkpt>
      <trkpt lat="47.53643" lon="-0.15594">
        <ele>70</ele>
        <time>2013-04-21T08:42:56.001Z</time>
      </trkpt>
      <trkpt lat="47.5364" lon="-0.15594">
        <ele>70</ele>
        <time>2013-04-21T08:42:59.001Z</time>
      </trkpt>
      <trkpt lat="47.53638" lon="-0.15593">
        <ele>70</ele>
        <time>2013-04-21T08:43:00.001Z</time>
      </trkpt>
      <trkpt lat="47.53634" lon="-0.15592">
        <ele>70</ele>
        <time>2013-04-21T08:43:03.001Z</time>
      </trkpt>
      <trkpt lat="47.53632" lon="-0.15591">
        <ele>70</ele>
        <time>2013-04-21T08:43:04.001Z</time>
      </trkpt>
      <trkpt lat="47.53628" lon="-0.15591">
        <ele>70</ele>
        <time>2013-04-21T08:43:08.001Z</time>
      </trkpt>
      <trkpt lat="47.53627" lon="-0.15591">
        <ele>70</ele>
        <time>2013-04-21T08:43:09.001Z</time>
      </trkpt>
      <trkpt lat="47.53623" lon="-0.15588">
        <ele>70</ele>
        <time>2013-04-21T08:43:13.001Z</time>
      </trkpt>
      <trkpt lat="47.53621" lon="-0.15588">
        <ele>70</ele>
        <time>2013-04-21T08:43:14.001Z</time>
      </trkpt>
      <trkpt lat="47.53617" lon="-0.15585">
        <ele>70</ele>
        <time>2013-04-21T08:43:19.001Z</time>
      </trkpt>
      <trkpt lat="47.53616" lon="-0.15585">
        <ele>70</ele>
        <time>2013-04-21T08:43:20.001Z</time>
      </trkpt>
      <trkpt lat="47.53613" lon="-0.15585">
        <ele>70</ele>
        <time>2013-04-21T08:43:24.001Z</time>
      </trkpt>
      <trkpt lat="47.53612" lon="-0.15585">
        <ele>70</ele>
        <time>2013-04-21T08:43:25.001Z</time>
      </trkpt>
      <trkpt lat="47.53609" lon="-0.15585">
        <ele>70</ele>
        <time>2013-04-21T08:43:28.001Z</time>
      </trkpt>
      <trkpt lat="47.53606" lon="-0.15585">
        <ele>70</ele>
        <time>2013-04-21T08:43:29.001Z</time>
      </trkpt>
      <trkpt lat="47.53603" lon="-0.15583">
        <ele>70</ele>
        <time>2013-04-21T08:43:31.001Z</time>
      </trkpt>
      <trkpt lat="47.53601" lon="-0.15582">
        <ele>70</ele>
        <time>2013-04-21T08:43:32.001Z</time>
      </trkpt>
      <trkpt lat="47.53598" lon="-0.15581">
        <ele>70</ele>
        <time>2013-04-21T08:43:35.001Z</time>
      </trkpt>
      <trkpt lat="47.53597" lon="-0.1558">
        <ele>70</ele>
        <time>2013-04-21T08:43:36.001Z</time>
      </trkpt>
      <trkpt lat="47.53593" lon="-0.15579">
        <ele>70</ele>
        <time>2013-04-21T08:43:41.001Z</time>
      </trkpt>
      <trkpt lat="47.53591" lon="-0.15579">
        <ele>70</ele>
        <time>2013-04-21T08:43:42.001Z</time>
      </trkpt>
      <trkpt lat="47.53587" lon="-0.15579">
        <ele>70</ele>
        <time>2013-04-21T08:43:46.001Z</time>
      </trkpt>
      <trkpt lat="47.53586" lon="-0.15579">
        <ele>70</ele>
        <time>2013-04-21T08:43:47.001Z</time>
      </trkpt>
      <trkpt lat="47.53583" lon="-0.15578">
        <ele>70</ele>
        <time>2013-04-21T08:43:51.001Z</time>
      </trkpt>
      <trkpt lat="47.53582" lon="-0.15577">
        <ele>70</ele>
        <time>2013-04-21T08:43:52.001Z</time>
      </trkpt>
      <trkpt lat="47.53578" lon="-0.15576">
        <ele>70</ele>
        <time>2013-04-21T08:43:56.001Z</time>
      </trkpt>
      <trkpt lat="47.53577" lon="-0.15576">
        <ele>70</ele>
        <time>2013-04-21T08:43:57.001Z</time>
      </trkpt>
      <trkpt lat="47.53573" lon="-0.15577">
        <ele>70</ele>
        <time>2013-04-21T08:44:01.001Z</time>
      </trkpt>
      <trkpt lat="47.53572" lon="-0.15577">
        <ele>70</ele>
        <time>2013-04-21T08:44:02.001Z</time>
      </trkpt>
      <trkpt lat="47.53568" lon="-0.15579">
        <ele>70</ele>
        <time>2013-04-21T08:44:05.001Z</time>
      </trkpt>
      <trkpt lat="47.53567" lon="-0.15579">
        <ele>70</ele>
        <time>2013-04-21T08:44:06.001Z</time>
      </trkpt>
      <trkpt lat="47.53564" lon="-0.15578">
        <ele>70</ele>
        <time>2013-04-21T08:44:08.001Z</time>
      </trkpt>
      <trkpt lat="47.53562" lon="-0.15578">
        <ele>70</ele>
        <time>2013-04-21T08:44:09.001Z</time>
      </trkpt>
      <trkpt lat="47.53558" lon="-0.15576">
        <ele>70</ele>
        <time>2013-04-21T08:44:12.001Z</time>
      </trkpt>
      <trkpt lat="47.53557" lon="-0.15575">
        <ele>70</ele>
        <time>2013-04-21T08:44:13.001Z</time>
      </trkpt>
      <trkpt lat="47.53554" lon="-0.15573">
        <ele>70</ele>
        <time>2013-04-21T08:44:17.001Z</time>
      </trkpt>
      <trkpt lat="47.53553" lon="-0.15572">
        <ele>70</ele>
        <time>2013-04-21T08:44:18.001Z</time>
      </trkpt>
      <trkpt lat="47.53549" lon="-0.15572">
        <ele>70</ele>
        <time>2013-04-21T08:44:21.001Z</time>
      </trkpt>
      <trkpt lat="47.53548" lon="-0.15571">
        <ele>69</ele>
        <time>2013-04-21T08:44:22.001Z</time>
      </trkpt>
      <trkpt lat="47.53544" lon="-0.15569">
        <ele>69</ele>
        <time>2013-04-21T08:44:24.001Z</time>
      </trkpt>
      <trkpt lat="47.53543" lon="-0.15569">
        <ele>69</ele>
        <time>2013-04-21T08:44:25.001Z</time>
      </trkpt>
      <trkpt lat="47.5354" lon="-0.15568">
        <ele>69</ele>
        <time>2013-04-21T08:44:28.001Z</time>
      </trkpt>
      <trkpt lat="47.53538" lon="-0.15568">
        <ele>69</ele>
        <time>2013-04-21T08:44:29.001Z</time>
      </trkpt>
      <trkpt lat="47.53535" lon="-0.15566">
        <ele>69</ele>
        <time>2013-04-21T08:44:32.001Z</time>
      </trkpt>
      <trkpt lat="47.53534" lon="-0.15566">
        <ele>69</ele>
        <time>2013-04-21T08:44:33.001Z</time>
      </trkpt>
      <trkpt lat="47.5353" lon="-0.15564">
        <ele>69</ele>
        <time>2013-04-21T08:44:36.001Z</time>
      </trkpt>
      <trkpt lat="47.53529" lon="-0.15564">
        <ele>69</ele>
        <time>2013-04-21T08:44:37.001Z</time>
      </trkpt>
      <trkpt lat="47.53526" lon="-0.15564">
        <ele>69</ele>
        <time>2013-04-21T08:44:41.001Z</time>
      </trkpt>
      <trkpt lat="47.53524" lon="-0.15563">
        <ele>69</ele>
        <time>2013-04-21T08:44:42.001Z</time>
      </trkpt>
      <trkpt lat="47.5352" lon="-0.15563">
        <ele>69</ele>
        <time>2013-04-21T08:44:45.001Z</time>
      </trkpt>
      <trkpt lat="47.53519" lon="-0.15562">
        <ele>69</ele>
        <time>2013-04-21T08:44:46.001Z</time>
      </trkpt>
      <trkpt lat="47.53515" lon="-0.15561">
        <ele>69</ele>
        <time>2013-04-21T08:44:50.001Z</time>
      </trkpt>
      <trkpt lat="47.53514" lon="-0.15561">
        <ele>69</ele>
        <time>2013-04-21T08:44:51.001Z</time>
      </trkpt>
      <trkpt lat="47.5351" lon="-0.15561">
        <ele>69</ele>
        <time>2013-04-21T08:44:55.001Z</time>
      </trkpt>
      <trkpt lat="47.53509" lon="-0.15562">
        <ele>69</ele>
        <time>2013-04-21T08:44:56.001Z</time>
      </trkpt>
      <trkpt lat="47.53506" lon="-0.15561">
        <ele>69</ele>
        <time>2013-04-21T08:44:58.001Z</time>
      </trkpt>
      <trkpt lat="47.53504" lon="-0.15561">
        <ele>69</ele>
        <time>2013-04-21T08:44:59.001Z</time>
      </trkpt>
      <trkpt lat="47.53501" lon="-0.15559">
        <ele>69</ele>
        <time>2013-04-21T08:45:02.001Z</time>
      </trkpt>
      <trkpt lat="47.53499" lon="-0.15558">
        <ele>69</ele>
        <time>2013-04-21T08:45:03.001Z</time>
      </trkpt>
      <trkpt lat="47.53496" lon="-0.15555">
        <ele>69</ele>
        <time>2013-04-21T08:45:06.001Z</time>
      </trkpt>
      <trkpt lat="47.53495" lon="-0.15555">
        <ele>69</ele>
        <time>2013-04-21T08:45:07.001Z</time>
      </trkpt>
      <trkpt lat="47.53491" lon="-0.15552">
        <ele>69</ele>
        <time>2013-04-21T08:45:11.001Z</time>
      </trkpt>
      <trkpt lat="47.5349" lon="-0.15551">
        <ele>69</ele>
        <time>2013-04-21T08:45:12.001Z</time>
      </trkpt>
      <trkpt lat="47.53486" lon="-0.1555">
        <ele>69</ele>
        <time>2013-04-21T08:45:16.001Z</time>
      </trkpt>
      <trkpt lat="47.53485" lon="-0.1555">
        <ele>69</ele>
        <time>2013-04-21T08:45:17.001Z</time>
      </trkpt>
      <trkpt lat="47.53482" lon="-0.1555">
        <ele>69</ele>
        <time>2013-04-21T08:45:20.001Z</time>
      </trkpt>
      <trkpt lat="47.5348" lon="-0.15549">
        <ele>69</ele>
        <time>2013-04-21T08:45:21.001Z</time>
      </trkpt>
      <trkpt lat="47.53476" lon="-0.15549">
        <ele>69</ele>
        <time>2013-04-21T08:45:25.001Z</time>
      </trkpt>
      <trkpt lat="47.53474" lon="-0.15549">
        <ele>69</ele>
        <time>2013-04-21T08:45:26.001Z</time>
      </trkpt>
      <trkpt lat="47.5347" lon="-0.1555">
        <ele>69</ele>
        <time>2013-04-21T08:45:29.001Z</time>
      </trkpt>
      <trkpt lat="47.53469" lon="-0.1555">
        <ele>69</ele>
        <time>2013-04-21T08:45:30.001Z</time>
      </trkpt>
      <trkpt lat="47.53466" lon="-0.15552">
        <ele>69</ele>
        <time>2013-04-21T08:45:34.001Z</time>
      </trkpt>
      <trkpt lat="47.53465" lon="-0.15553">
        <ele>69</ele>
        <time>2013-04-21T08:45:35.001Z</time>
      </trkpt>
      <trkpt lat="47.53463" lon="-0.15557">
        <ele>69</ele>
        <time>2013-04-21T08:45:37.001Z</time>
      </trkpt>
      <trkpt lat="47.53463" lon="-0.15559">
        <ele>69</ele>
        <time>2013-04-21T08:45:38.001Z</time>
      </trkpt>
      <trkpt lat="47.53461" lon="-0.15564">
        <ele>69</ele>
        <time>2013-04-21T08:45:41.001Z</time>
      </trkpt>
      <trkpt lat="47.53461" lon="-0.15568">
        <ele>69</ele>
        <time>2013-04-21T08:45:42.001Z</time>
      </trkpt>
      <trkpt lat="47.53461" lon="-0.15573">
        <ele>69</ele>
        <time>2013-04-21T08:45:44.001Z</time>
      </trkpt>
      <trkpt lat="47.53461" lon="-0.15575">
        <ele>69</ele>
        <time>2013-04-21T08:45:45.001Z</time>
      </trkpt>
      <trkpt lat="47.5346" lon="-0.1558">
        <ele>69</ele>
        <time>2013-04-21T08:45:49.001Z</time>
      </trkpt>
      <trkpt lat="47.53459" lon="-0.15581">
        <ele>69</ele>
        <time>2013-04-21T08:45:50.001Z</time>
      </trkpt>
      <trkpt lat="47.53458" lon="-0.15587">
        <ele>70</ele>
        <time>2013-04-21T08:45:54.001Z</time>
      </trkpt>
      <trkpt lat="47.53458" lon="-0.15588">
        <ele>70</ele>
        <time>2013-04-21T08:45:55.001Z</time>
      </trkpt>
      <trkpt lat="47.53458" lon="-0.15593">
        <ele>70</ele>
        <time>2013-04-21T08:45:58.001Z</time>
      </trkpt>
      <trkpt lat="47.53458" lon="-0.15595">
        <ele>70</ele>
        <time>2013-04-21T08:45:59.001Z</time>
      </trkpt>
      <trkpt lat="47.53458" lon="-0.15602">
        <ele>70</ele>
        <time>2013-04-21T08:46:03.001Z</time>
      </trkpt>
      <trkpt lat="47.53457" lon="-0.15603">
        <ele>70</ele>
        <time>2013-04-21T08:46:04.001Z</time>
      </trkpt>
      <trkpt lat="47.53457" lon="-0.15608">
        <ele>70</ele>
        <time>2013-04-21T08:46:06.001Z</time>
      </trkpt>
      <trkpt lat="47.53456" lon="-0.1561">
        <ele>70</ele>
        <time>2013-04-21T08:46:07.001Z</time>
      </trkpt>
      <trkpt lat="47.53455" lon="-0.15615">
        <ele>70</ele>
        <time>2013-04-21T08:46:11.001Z</time>
      </trkpt>
      <trkpt lat="47.53455" lon="-0.15617">
        <ele>70</ele>
        <time>2013-04-21T08:46:12.001Z</time>
      </trkpt>
      <trkpt lat="47.53454" lon="-0.15622">
        <ele>70</ele>
        <time>2013-04-21T08:46:15.001Z</time>
      </trkpt>
      <trkpt lat="47.53453" lon="-0.15624">
        <ele>70</ele>
        <time>2013-04-21T08:46:16.001Z</time>
      </trkpt>
      <trkpt lat="47.53453" lon="-0.1563">
        <ele>70</ele>
        <time>2013-04-21T08:46:20.001Z</time>
      </trkpt>
      <trkpt lat="47.53453" lon="-0.15632">
        <ele>70</ele>
        <time>2013-04-21T08:46:21.001Z</time>
      </trkpt>
      <trkpt lat="47.53452" lon="-0.15638">
        <ele>70</ele>
        <time>2013-04-21T08:46:25.001Z</time>
      </trkpt>
      <trkpt lat="47.53452" lon="-0.1564">
        <ele>70</ele>
        <time>2013-04-21T08:46:26.001Z</time>
      </trkpt>
      <trkpt lat="47.53452" lon="-0.15646">
        <ele>70</ele>
        <time>2013-04-21T08:46:29.001Z</time>
      </trkpt>
      <trkpt lat="47.53452" lon="-0.15648">
        <ele>70</ele>
        <time>2013-04-21T08:46:30.001Z</time>
      </trkpt>
      <trkpt lat="47.53451" lon="-0.15653">
        <ele>70</ele>
        <time>2013-04-21T08:46:32.001Z</time>
      </trkpt>
      <trkpt lat="47.53451" lon="-0.15655">
        <ele>70</ele>
        <time>2013-04-21T08:46:33.001Z</time>
      </trkpt>
      <trkpt lat="47.53452" lon="-0.15661">
        <ele>70</ele>
        <time>2013-04-21T08:46:36.001Z</time>
      </trkpt>
      <trkpt lat="47.53452" lon="-0.15663">
        <ele>70</ele>
        <time>2013-04-21T08:46:37.001Z</time>
      </trkpt>
      <trkpt lat="47.53453" lon="-0.15668">
        <ele>71</ele>
        <time>2013-04-21T08:46:40.001Z</time>
      </trkpt>
      <trkpt lat="47.53452" lon="-0.1567">
        <ele>71</ele>
        <time>2013-04-21T08:46:41.001Z</time>
      </trkpt>
      <trkpt lat="47.53452" lon="-0.15675">
        <ele>71</ele>
        <time>2013-04-21T08:46:43.001Z</time>
      </trkpt>
      <trkpt lat="47.53453" lon="-0.15677">
        <ele>71</ele>
        <time>2013-04-21T08:46:44.001Z</time>
      </trkpt>
      <trkpt lat="47.53454" lon="-0.15682">
        <ele>71</ele>
        <time>2013-04-21T08:46:47.001Z</time>
      </trkpt>
      <trkpt lat="47.53454" lon="-0.15684">
        <ele>71</ele>
        <time>2013-04-21T08:46:48.001Z</time>
      </trkpt>
      <trkpt lat="47.53455" lon="-0.1569">
        <ele>71</ele>
        <time>2013-04-21T08:46:51.001Z</time>
      </trkpt>
      <trkpt lat="47.53456" lon="-0.15692">
        <ele>71</ele>
        <time>2013-04-21T08:46:52.001Z</time>
      </trkpt>
      <trkpt lat="47.53457" lon="-0.15697">
        <ele>71</ele>
        <time>2013-04-21T08:46:55.001Z</time>
      </trkpt>
      <trkpt lat="47.53457" lon="-0.15699">
        <ele>71</ele>
        <time>2013-04-21T08:46:56.001Z</time>
      </trkpt>
      <trkpt lat="47.53459" lon="-0.15704">
        <ele>71</ele>
        <time>2013-04-21T08:47:01.001Z</time>
      </trkpt>
      <trkpt lat="47.53459" lon="-0.15705">
        <ele>71</ele>
        <time>2013-04-21T08:47:02.001Z</time>
      </trkpt>
      <trkpt lat="47.53462" lon="-0.1571">
        <ele>71</ele>
        <time>2013-04-21T08:47:05.001Z</time>
      </trkpt>
      <trkpt lat="47.53463" lon="-0.15711">
        <ele>71</ele>
        <time>2013-04-21T08:47:06.001Z</time>
      </trkpt>
      <trkpt lat="47.53465" lon="-0.15717">
        <ele>71</ele>
        <time>2013-04-21T08:47:10.001Z</time>
      </trkpt>
      <trkpt lat="47.53466" lon="-0.15719">
        <ele>71</ele>
        <time>2013-04-21T08:47:11.001Z</time>
      </trkpt>
      <trkpt lat="47.53467" lon="-0.15723">
        <ele>71</ele>
        <time>2013-04-21T08:47:14.001Z</time>
      </trkpt>
      <trkpt lat="47.53468" lon="-0.15725">
        <ele>72</ele>
        <time>2013-04-21T08:47:15.001Z</time>
      </trkpt>
      <trkpt lat="47.53469" lon="-0.1573">
        <ele>72</ele>
        <time>2013-04-21T08:47:18.001Z</time>
      </trkpt>
      <trkpt lat="47.5347" lon="-0.15732">
        <ele>72</ele>
        <time>2013-04-21T08:47:19.001Z</time>
      </trkpt>
      <trkpt lat="47.53471" lon="-0.15737">
        <ele>72</ele>
        <time>2013-04-21T08:47:23.001Z</time>
      </trkpt>
      <trkpt lat="47.53471" lon="-0.15738">
        <ele>72</ele>
        <time>2013-04-21T08:47:24.001Z</time>
      </trkpt>
      <trkpt lat="47.53474" lon="-0.15743">
        <ele>72</ele>
        <time>2013-04-21T08:47:27.001Z</time>
      </trkpt>
      <trkpt lat="47.53475" lon="-0.15745">
        <ele>72</ele>
        <time>2013-04-21T08:47:28.001Z</time>
      </trkpt>
      <trkpt lat="47.53476" lon="-0.15752">
        <ele>73</ele>
        <time>2013-04-21T08:47:31.001Z</time>
      </trkpt>
      <trkpt lat="47.53477" lon="-0.15754">
        <ele>73</ele>
        <time>2013-04-21T08:47:32.001Z</time>
      </trkpt>
      <trkpt lat="47.53479" lon="-0.15759">
        <ele>73</ele>
        <time>2013-04-21T08:47:35.001Z</time>
      </trkpt>
      <trkpt lat="47.5348" lon="-0.15761">
        <ele>73</ele>
        <time>2013-04-21T08:47:36.001Z</time>
      </trkpt>
      <trkpt lat="47.53482" lon="-0.15766">
        <ele>73</ele>
        <time>2013-04-21T08:47:40.001Z</time>
      </trkpt>
      <trkpt lat="47.53482" lon="-0.15767">
        <ele>73</ele>
        <time>2013-04-21T08:47:41.001Z</time>
      </trkpt>
      <trkpt lat="47.53483" lon="-0.15772">
        <ele>73</ele>
        <time>2013-04-21T08:47:44.001Z</time>
      </trkpt>
      <trkpt lat="47.53483" lon="-0.15775">
        <ele>73</ele>
        <time>2013-04-21T08:47:45.001Z</time>
      </trkpt>
      <trkpt lat="47.53484" lon="-0.15778">
        <ele>73</ele>
        <time>2013-04-21T08:47:48.001Z</time>
      </trkpt>
      <trkpt lat="47.53485" lon="-0.15781">
        <ele>73</ele>
        <time>2013-04-21T08:47:49.001Z</time>
      </trkpt>
      <trkpt lat="47.53488" lon="-0.15786">
        <ele>73</ele>
        <time>2013-04-21T08:47:53.001Z</time>
      </trkpt>
      <trkpt lat="47.53488" lon="-0.15788">
        <ele>73</ele>
        <time>2013-04-21T08:47:54.001Z</time>
      </trkpt>
      <trkpt lat="47.53489" lon="-0.15793">
        <ele>73</ele>
        <time>2013-04-21T08:47:57.001Z</time>
      </trkpt>
      <trkpt lat="47.53489" lon="-0.15794">
        <ele>73</ele>
        <time>2013-04-21T08:47:58.001Z</time>
      </trkpt>
      <trkpt lat="47.53492" lon="-0.158">
        <ele>74</ele>
        <time>2013-04-21T08:48:02.001Z</time>
      </trkpt>
      <trkpt lat="47.53492" lon="-0.15801">
        <ele>74</ele>
        <time>2013-04-21T08:48:03.001Z</time>
      </trkpt>
      <trkpt lat="47.53493" lon="-0.15807">
        <ele>74</ele>
        <time>2013-04-21T08:48:08.001Z</time>
      </trkpt>
      <trkpt lat="47.53494" lon="-0.15809">
        <ele>74</ele>
        <time>2013-04-21T08:48:09.001Z</time>
      </trkpt>
      <trkpt lat="47.53497" lon="-0.15813">
        <ele>74</ele>
        <time>2013-04-21T08:48:13.001Z</time>
      </trkpt>
      <trkpt lat="47.53497" lon="-0.15815">
        <ele>74</ele>
        <time>2013-04-21T08:48:14.001Z</time>
      </trkpt>
      <trkpt lat="47.53499" lon="-0.1582">
        <ele>75</ele>
        <time>2013-04-21T08:48:18.001Z</time>
      </trkpt>
      <trkpt lat="47.535" lon="-0.15821">
        <ele>75</ele>
        <time>2013-04-21T08:48:19.001Z</time>
      </trkpt>
      <trkpt lat="47.53501" lon="-0.15828">
        <ele>76</ele>
        <time>2013-04-21T08:48:25.001Z</time>
      </trkpt>
      <trkpt lat="47.53501" lon="-0.15829">
        <ele>76</ele>
        <time>2013-04-21T08:48:26.001Z</time>
      </trkpt>
      <trkpt lat="47.53503" lon="-0.15835">
        <ele>76</ele>
        <time>2013-04-21T08:48:38.001Z</time>
      </trkpt>
      <trkpt lat="47.53503" lon="-0.15837">
        <ele>76</ele>
        <time>2013-04-21T08:48:39.001Z</time>
      </trkpt>
      <trkpt lat="47.53504" lon="-0.15842">
        <ele>76</ele>
        <time>2013-04-21T08:48:42.001Z</time>
      </trkpt>
      <trkpt lat="47.53504" lon="-0.15844">
        <ele>76</ele>
        <time>2013-04-21T08:48:43.001Z</time>
      </trkpt>
      <trkpt lat="47.53506" lon="-0.15848">
        <ele>76</ele>
        <time>2013-04-21T08:48:47.001Z</time>
      </trkpt>
      <trkpt lat="47.53506" lon="-0.1585">
        <ele>76</ele>
        <time>2013-04-21T08:48:48.001Z</time>
      </trkpt>
      <trkpt lat="47.53508" lon="-0.15856">
        <ele>76</ele>
        <time>2013-04-21T08:48:52.001Z</time>
      </trkpt>
      <trkpt lat="47.53509" lon="-0.15857">
        <ele>76</ele>
        <time>2013-04-21T08:48:53.001Z</time>
      </trkpt>
      <trkpt lat="47.53511" lon="-0.15862">
        <ele>76</ele>
        <time>2013-04-21T08:48:57.001Z</time>
      </trkpt>
      <trkpt lat="47.53513" lon="-0.15866">
        <ele>76</ele>
        <time>2013-04-21T08:48:58.001Z</time>
      </trkpt>
      <trkpt lat="47.53513" lon="-0.1587">
        <ele>76</ele>
        <time>2013-04-21T08:49:02.001Z</time>
      </trkpt>
      <trkpt lat="47.53513" lon="-0.15873">
        <ele>75</ele>
        <time>2013-04-21T08:49:03.001Z</time>
      </trkpt>
      <trkpt lat="47.53513" lon="-0.15878">
        <ele>75</ele>
        <time>2013-04-21T08:49:06.001Z</time>
      </trkpt>
      <trkpt lat="47.53514" lon="-0.1588">
        <ele>75</ele>
        <time>2013-04-21T08:49:07.001Z</time>
      </trkpt>
      <trkpt lat="47.53514" lon="-0.15885">
        <ele>75</ele>
        <time>2013-04-21T08:49:10.001Z</time>
      </trkpt>
      <trkpt lat="47.53515" lon="-0.15887">
        <ele>75</ele>
        <time>2013-04-21T08:49:11.001Z</time>
      </trkpt>
      <trkpt lat="47.53517" lon="-0.15892">
        <ele>75</ele>
        <time>2013-04-21T08:49:15.001Z</time>
      </trkpt>
      <trkpt lat="47.53517" lon="-0.15894">
        <ele>75</ele>
        <time>2013-04-21T08:49:16.001Z</time>
      </trkpt>
      <trkpt lat="47.53517" lon="-0.159">
        <ele>75</ele>
        <time>2013-04-21T08:49:19.001Z</time>
      </trkpt>
      <trkpt lat="47.53517" lon="-0.15903">
        <ele>75</ele>
        <time>2013-04-21T08:49:20.001Z</time>
      </trkpt>
      <trkpt lat="47.53518" lon="-0.15909">
        <ele>74</ele>
        <time>2013-04-21T08:49:24.001Z</time>
      </trkpt>
      <trkpt lat="47.53519" lon="-0.1591">
        <ele>74</ele>
        <time>2013-04-21T08:49:25.001Z</time>
      </trkpt>
      <trkpt lat="47.5352" lon="-0.15916">
        <ele>74</ele>
        <time>2013-04-21T08:49:29.001Z</time>
      </trkpt>
      <trkpt lat="47.5352" lon="-0.15916">
        <ele>74</ele>
        <time>2013-04-21T08:49:30.001Z</time>
      </trkpt>
      <trkpt lat="47.53521" lon="-0.15921">
        <ele>71</ele>
        <time>2013-04-21T08:49:34.001Z</time>
      </trkpt>
      <trkpt lat="47.53521" lon="-0.15923">
        <ele>71</ele>
        <time>2013-04-21T08:49:35.001Z</time>
      </trkpt>
      <trkpt lat="47.53522" lon="-0.15928">
        <ele>71</ele>
        <time>2013-04-21T08:49:39.001Z</time>
      </trkpt>
      <trkpt lat="47.53522" lon="-0.15931">
        <ele>71</ele>
        <time>2013-04-21T08:49:40.001Z</time>
      </trkpt>
      <trkpt lat="47.53523" lon="-0.15937">
        <ele>71</ele>
        <time>2013-04-21T08:49:42.001Z</time>
      </trkpt>
      <trkpt lat="47.53523" lon="-0.15939">
        <ele>71</ele>
        <time>2013-04-21T08:49:43.001Z</time>
      </trkpt>
      <trkpt lat="47.53524" lon="-0.15945">
        <ele>70</ele>
        <time>2013-04-21T08:49:48.001Z</time>
      </trkpt>
      <trkpt lat="47.53525" lon="-0.15947">
        <ele>70</ele>
        <time>2013-04-21T08:49:49.001Z</time>
      </trkpt>
      <trkpt lat="47.53526" lon="-0.15952">
        <ele>70</ele>
        <time>2013-04-21T08:49:52.001Z</time>
      </trkpt>
      <trkpt lat="47.53526" lon="-0.15954">
        <ele>70</ele>
        <time>2013-04-21T08:49:53.001Z</time>
      </trkpt>
      <trkpt lat="47.53527" lon="-0.1596">
        <ele>70</ele>
        <time>2013-04-21T08:49:58.001Z</time>
      </trkpt>
      <trkpt lat="47.53527" lon="-0.15962">
        <ele>70</ele>
        <time>2013-04-21T08:49:59.001Z</time>
      </trkpt>
      <trkpt lat="47.53528" lon="-0.15969">
        <ele>69</ele>
        <time>2013-04-21T08:50:02.001Z</time>
      </trkpt>
      <trkpt lat="47.53528" lon="-0.15971">
        <ele>69</ele>
        <time>2013-04-21T08:50:03.001Z</time>
      </trkpt>
      <trkpt lat="47.53529" lon="-0.15977">
        <ele>69</ele>
        <time>2013-04-21T08:50:06.001Z</time>
      </trkpt>
      <trkpt lat="47.5353" lon="-0.15979">
        <ele>69</ele>
        <time>2013-04-21T08:50:07.001Z</time>
      </trkpt>
      <trkpt lat="47.53532" lon="-0.15984">
        <ele>69</ele>
        <time>2013-04-21T08:50:11.001Z</time>
      </trkpt>
      <trkpt lat="47.53533" lon="-0.15985">
        <ele>69</ele>
        <time>2013-04-21T08:50:12.001Z</time>
      </trkpt>
      <trkpt lat="47.53533" lon="-0.15992">
        <ele>69</ele>
        <time>2013-04-21T08:50:15.001Z</time>
      </trkpt>
      <trkpt lat="47.53533" lon="-0.15993">
        <ele>69</ele>
        <time>2013-04-21T08:50:16.001Z</time>
      </trkpt>
      <trkpt lat="47.53534" lon="-0.15998">
        <ele>69</ele>
        <time>2013-04-21T08:50:19.001Z</time>
      </trkpt>
      <trkpt lat="47.53534" lon="-0.16">
        <ele>69</ele>
        <time>2013-04-21T08:50:20.001Z</time>
      </trkpt>
      <trkpt lat="47.53535" lon="-0.16006">
        <ele>65</ele>
        <time>2013-04-21T08:50:23.001Z</time>
      </trkpt>
      <trkpt lat="47.53535" lon="-0.16008">
        <ele>65</ele>
        <time>2013-04-21T08:50:24.001Z</time>
      </trkpt>
      <trkpt lat="47.53536" lon="-0.16013">
        <ele>65</ele>
        <time>2013-04-21T08:50:28.001Z</time>
      </trkpt>
      <trkpt lat="47.53536" lon="-0.16015">
        <ele>65</ele>
        <time>2013-04-21T08:50:29.001Z</time>
      </trkpt>
      <trkpt lat="47.53536" lon="-0.16021">
        <ele>65</ele>
        <time>2013-04-21T08:50:32.001Z</time>
      </trkpt>
      <trkpt lat="47.53536" lon="-0.16024">
        <ele>65</ele>
        <time>2013-04-21T08:50:33.001Z</time>
      </trkpt>
      <trkpt lat="47.53537" lon="-0.16028">
        <ele>65</ele>
        <time>2013-04-21T08:50:35.001Z</time>
      </trkpt>
      <trkpt lat="47.53537" lon="-0.1603">
        <ele>65</ele>
        <time>2013-04-21T08:50:36.001Z</time>
      </trkpt>
      <trkpt lat="47.53538" lon="-0.16035">
        <ele>65</ele>
        <time>2013-04-21T08:50:38.001Z</time>
      </trkpt>
      <trkpt lat="47.53538" lon="-0.16037">
        <ele>65</ele>
        <time>2013-04-21T08:50:39.001Z</time>
      </trkpt>
      <trkpt lat="47.5354" lon="-0.16042">
        <ele>65</ele>
        <time>2013-04-21T08:50:42.001Z</time>
      </trkpt>
      <trkpt lat="47.5354" lon="-0.16043">
        <ele>65</ele>
        <time>2013-04-21T08:50:43.001Z</time>
      </trkpt>
      <trkpt lat="47.53541" lon="-0.16049">
        <ele>65</ele>
        <time>2013-04-21T08:50:50.001Z</time>
      </trkpt>
      <trkpt lat="47.53541" lon="-0.16052">
        <ele>65</ele>
        <time>2013-04-21T08:50:51.001Z</time>
      </trkpt>
      <trkpt lat="47.53542" lon="-0.16057">
        <ele>65</ele>
        <time>2013-04-21T08:50:54.001Z</time>
      </trkpt>
      <trkpt lat="47.53542" lon="-0.16058">
        <ele>65</ele>
        <time>2013-04-21T08:50:55.001Z</time>
      </trkpt>
      <trkpt lat="47.53542" lon="-0.16062">
        <ele>64</ele>
        <time>2013-04-21T08:50:57.001Z</time>
      </trkpt>
      <trkpt lat="47.53543" lon="-0.16065">
        <ele>64</ele>
        <time>2013-04-21T08:50:58.001Z</time>
      </trkpt>
      <trkpt lat="47.53544" lon="-0.1607">
        <ele>64</ele>
        <time>2013-04-21T08:51:00.001Z</time>
      </trkpt>
      <trkpt lat="47.53544" lon="-0.16072">
        <ele>64</ele>
        <time>2013-04-21T08:51:01.001Z</time>
      </trkpt>
      <trkpt lat="47.53544" lon="-0.16078">
        <ele>64</ele>
        <time>2013-04-21T08:51:05.001Z</time>
      </trkpt>
      <trkpt lat="47.53544" lon="-0.16079">
        <ele>64</ele>
        <time>2013-04-21T08:51:06.001Z</time>
      </trkpt>
      <trkpt lat="47.53544" lon="-0.16085">
        <ele>63</ele>
        <time>2013-04-21T08:51:10.001Z</time>
      </trkpt>
      <trkpt lat="47.53544" lon="-0.16086">
        <ele>63</ele>
        <time>2013-04-21T08:51:11.001Z</time>
      </trkpt>
      <trkpt lat="47.53544" lon="-0.16092">
        <ele>63</ele>
        <time>2013-04-21T08:51:22.001Z</time>
      </trkpt>
      <trkpt lat="47.53544" lon="-0.16094">
        <ele>63</ele>
        <time>2013-04-21T08:51:23.001Z</time>
      </trkpt>
      <trkpt lat="47.53545" lon="-0.161">
        <ele>63</ele>
        <time>2013-04-21T08:51:26.001Z</time>
      </trkpt>
      <trkpt lat="47.53544" lon="-0.16101">
        <ele>63</ele>
        <time>2013-04-21T08:51:27.001Z</time>
      </trkpt>
      <trkpt lat="47.53545" lon="-0.16108">
        <ele>63</ele>
        <time>2013-04-21T08:51:31.001Z</time>
      </trkpt>
      <trkpt lat="47.53545" lon="-0.16109">
        <ele>63</ele>
        <time>2013-04-21T08:51:32.001Z</time>
      </trkpt>
      <trkpt lat="47.53544" lon="-0.16114">
        <ele>63</ele>
        <time>2013-04-21T08:51:36.001Z</time>
      </trkpt>
      <trkpt lat="47.53544" lon="-0.16116">
        <ele>63</ele>
        <time>2013-04-21T08:51:37.001Z</time>
      </trkpt>
      <trkpt lat="47.53543" lon="-0.1612">
        <ele>63</ele>
        <time>2013-04-21T08:51:39.001Z</time>
      </trkpt>
      <trkpt lat="47.53543" lon="-0.16123">
        <ele>63</ele>
        <time>2013-04-21T08:51:40.001Z</time>
      </trkpt>
      <trkpt lat="47.53544" lon="-0.16128">
        <ele>63</ele>
        <time>2013-04-21T08:51:45.001Z</time>
      </trkpt>
      <trkpt lat="47.53544" lon="-0.1613">
        <ele>63</ele>
        <time>2013-04-21T08:51:46.001Z</time>
      </trkpt>
      <trkpt lat="47.53544" lon="-0.16136">
        <ele>63</ele>
        <time>2013-04-21T08:51:50.001Z</time>
      </trkpt>
      <trkpt lat="47.53545" lon="-0.16138">
        <ele>63</ele>
        <time>2013-04-21T08:51:51.001Z</time>
      </trkpt>
      <trkpt lat="47.53545" lon="-0.16144">
        <ele>63</ele>
        <time>2013-04-21T08:51:54.001Z</time>
      </trkpt>
      <trkpt lat="47.53545" lon="-0.16147">
        <ele>63</ele>
        <time>2013-04-21T08:51:55.001Z</time>
      </trkpt>
      <trkpt lat="47.53545" lon="-0.16152">
        <ele>63</ele>
        <time>2013-04-21T08:51:57.001Z</time>
      </trkpt>
      <trkpt lat="47.53545" lon="-0.16155">
        <ele>63</ele>
        <time>2013-04-21T08:51:58.001Z</time>
      </trkpt>
      <trkpt lat="47.53544" lon="-0.16161">
        <ele>63</ele>
        <time>2013-04-21T08:52:03.001Z</time>
      </trkpt>
      <trkpt lat="47.53544" lon="-0.16162">
        <ele>63</ele>
        <time>2013-04-21T08:52:04.001Z</time>
      </trkpt>
      <trkpt lat="47.53544" lon="-0.16168">
        <ele>63</ele>
        <time>2013-04-21T08:52:09.001Z</time>
      </trkpt>
      <trkpt lat="47.53544" lon="-0.16169">
        <ele>63</ele>
        <time>2013-04-21T08:52:10.001Z</time>
      </trkpt>
      <trkpt lat="47.53543" lon="-0.16175">
        <ele>63</ele>
        <time>2013-04-21T08:52:12.001Z</time>
      </trkpt>
      <trkpt lat="47.53543" lon="-0.16177">
        <ele>63</ele>
        <time>2013-04-21T08:52:13.001Z</time>
      </trkpt>
      <trkpt lat="47.53543" lon="-0.16183">
        <ele>63</ele>
        <time>2013-04-21T08:52:17.001Z</time>
      </trkpt>
      <trkpt lat="47.53543" lon="-0.16185">
        <ele>63</ele>
        <time>2013-04-21T08:52:18.001Z</time>
      </trkpt>
      <trkpt lat="47.53543" lon="-0.16191">
        <ele>63</ele>
        <time>2013-04-21T08:52:22.001Z</time>
      </trkpt>
      <trkpt lat="47.53543" lon="-0.16192">
        <ele>63</ele>
        <time>2013-04-21T08:52:23.001Z</time>
      </trkpt>
      <trkpt lat="47.53543" lon="-0.16197">
        <ele>63</ele>
        <time>2013-04-21T08:52:26.001Z</time>
      </trkpt>
      <trkpt lat="47.53543" lon="-0.16199">
        <ele>63</ele>
        <time>2013-04-21T08:52:27.001Z</time>
      </trkpt>
      <trkpt lat="47.53543" lon="-0.16204">
        <ele>63</ele>
        <time>2013-04-21T08:52:30.001Z</time>
      </trkpt>
      <trkpt lat="47.53543" lon="-0.16207">
        <ele>63</ele>
        <time>2013-04-21T08:52:31.001Z</time>
      </trkpt>
      <trkpt lat="47.53544" lon="-0.16212">
        <ele>63</ele>
        <time>2013-04-21T08:52:34.001Z</time>
      </trkpt>
      <trkpt lat="47.53544" lon="-0.16214">
        <ele>63</ele>
        <time>2013-04-21T08:52:35.001Z</time>
      </trkpt>
      <trkpt lat="47.53544" lon="-0.1622">
        <ele>63</ele>
        <time>2013-04-21T08:52:38.001Z</time>
      </trkpt>
      <trkpt lat="47.53543" lon="-0.16221">
        <ele>63</ele>
        <time>2013-04-21T08:52:39.001Z</time>
      </trkpt>
      <trkpt lat="47.53542" lon="-0.16227">
        <ele>63</ele>
        <time>2013-04-21T08:52:42.001Z</time>
      </trkpt>
      <trkpt lat="47.53542" lon="-0.16229">
        <ele>63</ele>
        <time>2013-04-21T08:52:43.001Z</time>
      </trkpt>
      <trkpt lat="47.53542" lon="-0.16234">
        <ele>63</ele>
        <time>2013-04-21T08:52:45.001Z</time>
      </trkpt>
      <trkpt lat="47.53542" lon="-0.16236">
        <ele>63</ele>
        <time>2013-04-21T08:52:46.001Z</time>
      </trkpt>
      <trkpt lat="47.53543" lon="-0.16242">
        <ele>63</ele>
        <time>2013-04-21T08:52:50.001Z</time>
      </trkpt>
      <trkpt lat="47.53542" lon="-0.16243">
        <ele>63</ele>
        <time>2013-04-21T08:52:51.001Z</time>
      </trkpt>
      <trkpt lat="47.53542" lon="-0.16249">
        <ele>63</ele>
        <time>2013-04-21T08:52:54.001Z</time>
      </trkpt>
      <trkpt lat="47.53542" lon="-0.16251">
        <ele>63</ele>
        <time>2013-04-21T08:52:55.001Z</time>
      </trkpt>
      <trkpt lat="47.53541" lon="-0.16257">
        <ele>63</ele>
        <time>2013-04-21T08:52:58.001Z</time>
      </trkpt>
      <trkpt lat="47.53541" lon="-0.1626">
        <ele>63</ele>
        <time>2013-04-21T08:52:59.001Z</time>
      </trkpt>
      <trkpt lat="47.53541" lon="-0.16267">
        <ele>63</ele>
        <time>2013-04-21T08:53:03.001Z</time>
      </trkpt>
      <trkpt lat="47.53541" lon="-0.16268">
        <ele>63</ele>
        <time>2013-04-21T08:53:04.001Z</time>
      </trkpt>
      <trkpt lat="47.53541" lon="-0.16274">
        <ele>63</ele>
        <time>2013-04-21T08:53:08.001Z</time>
      </trkpt>
      <trkpt lat="47.53541" lon="-0.16276">
        <ele>63</ele>
        <time>2013-04-21T08:53:09.001Z</time>
      </trkpt>
      <trkpt lat="47.53542" lon="-0.1628">
        <ele>63</ele>
        <time>2013-04-21T08:53:12.001Z</time>
      </trkpt>
      <trkpt lat="47.53542" lon="-0.16282">
        <ele>63</ele>
        <time>2013-04-21T08:53:13.001Z</time>
      </trkpt>
      <trkpt lat="47.53542" lon="-0.16288">
        <ele>63</ele>
        <time>2013-04-21T08:53:15.001Z</time>
      </trkpt>
      <trkpt lat="47.53543" lon="-0.1629">
        <ele>63</ele>
        <time>2013-04-21T08:53:16.001Z</time>
      </trkpt>
      <trkpt lat="47.53543" lon="-0.16295">
        <ele>63</ele>
        <time>2013-04-21T08:53:18.001Z</time>
      </trkpt>
      <trkpt lat="47.53543" lon="-0.16297">
        <ele>63</ele>
        <time>2013-04-21T08:53:19.001Z</time>
      </trkpt>
      <trkpt lat="47.53543" lon="-0.16301">
        <ele>64</ele>
        <time>2013-04-21T08:53:21.001Z</time>
      </trkpt>
      <trkpt lat="47.53543" lon="-0.16304">
        <ele>64</ele>
        <time>2013-04-21T08:53:22.001Z</time>
      </trkpt>
      <trkpt lat="47.53542" lon="-0.1631">
        <ele>64</ele>
        <time>2013-04-21T08:53:26.001Z</time>
      </trkpt>
      <trkpt lat="47.53542" lon="-0.16312">
        <ele>64</ele>
        <time>2013-04-21T08:53:27.001Z</time>
      </trkpt>
      <trkpt lat="47.53543" lon="-0.16317">
        <ele>64</ele>
        <time>2013-04-21T08:53:29.001Z</time>
      </trkpt>
      <trkpt lat="47.53543" lon="-0.16318">
        <ele>64</ele>
        <time>2013-04-21T08:53:30.001Z</time>
      </trkpt>
      <trkpt lat="47.53542" lon="-0.16325">
        <ele>64</ele>
        <time>2013-04-21T08:53:35.001Z</time>
      </trkpt>
      <trkpt lat="47.53542" lon="-0.16326">
        <ele>64</ele>
        <time>2013-04-21T08:53:36.001Z</time>
      </trkpt>
      <trkpt lat="47.53542" lon="-0.1633">
        <ele>64</ele>
        <time>2013-04-21T08:53:39.001Z</time>
      </trkpt>
      <trkpt lat="47.53542" lon="-0.16333">
        <ele>64</ele>
        <time>2013-04-21T08:53:40.001Z</time>
      </trkpt>
      <trkpt lat="47.53542" lon="-0.16339">
        <ele>64</ele>
        <time>2013-04-21T08:53:43.001Z</time>
      </trkpt>
      <trkpt lat="47.53542" lon="-0.16341">
        <ele>64</ele>
        <time>2013-04-21T08:53:44.001Z</time>
      </trkpt>
      <trkpt lat="47.53543" lon="-0.16347">
        <ele>64</ele>
        <time>2013-04-21T08:53:47.001Z</time>
      </trkpt>
      <trkpt lat="47.53543" lon="-0.16349">
        <ele>64</ele>
        <time>2013-04-21T08:53:48.001Z</time>
      </trkpt>
      <trkpt lat="47.53543" lon="-0.16355">
        <ele>64</ele>
        <time>2013-04-21T08:53:51.001Z</time>
      </trkpt>
      <trkpt lat="47.53543" lon="-0.16358">
        <ele>64</ele>
        <time>2013-04-21T08:53:52.001Z</time>
      </trkpt>
      <trkpt lat="47.53544" lon="-0.16363">
        <ele>64</ele>
        <time>2013-04-21T08:53:56.001Z</time>
      </trkpt>
      <trkpt lat="47.53544" lon="-0.16364">
        <ele>64</ele>
        <time>2013-04-21T08:53:57.001Z</time>
      </trkpt>
      <trkpt lat="47.53546" lon="-0.1637">
        <ele>64</ele>
        <time>2013-04-21T08:54:01.001Z</time>
      </trkpt>
      <trkpt lat="47.53546" lon="-0.1637">
        <ele>64</ele>
        <time>2013-04-21T08:54:02.001Z</time>
      </trkpt>
      <trkpt lat="47.53547" lon="-0.16376">
        <ele>64</ele>
        <time>2013-04-21T08:54:05.001Z</time>
      </trkpt>
      <trkpt lat="47.53548" lon="-0.16379">
        <ele>64</ele>
        <time>2013-04-21T08:54:06.001Z</time>
      </trkpt>
      <trkpt lat="47.5355" lon="-0.16383">
        <ele>64</ele>
        <time>2013-04-21T08:54:09.001Z</time>
      </trkpt>
      <trkpt lat="47.5355" lon="-0.16385">
        <ele>64</ele>
        <time>2013-04-21T08:54:10.001Z</time>
      </trkpt>
      <trkpt lat="47.53551" lon="-0.16392">
        <ele>64</ele>
        <time>2013-04-21T08:54:13.001Z</time>
      </trkpt>
      <trkpt lat="47.53551" lon="-0.16393">
        <ele>64</ele>
        <time>2013-04-21T08:54:14.001Z</time>
      </trkpt>
      <trkpt lat="47.53553" lon="-0.16397">
        <ele>64</ele>
        <time>2013-04-21T08:54:17.001Z</time>
      </trkpt>
      <trkpt lat="47.53554" lon="-0.16398">
        <ele>64</ele>
        <time>2013-04-21T08:54:18.001Z</time>
      </trkpt>
      <trkpt lat="47.53556" lon="-0.16404">
        <ele>64</ele>
        <time>2013-04-21T08:54:23.001Z</time>
      </trkpt>
      <trkpt lat="47.53556" lon="-0.16405">
        <ele>63</ele>
        <time>2013-04-21T08:54:24.001Z</time>
      </trkpt>
      <trkpt lat="47.53557" lon="-0.16411">
        <ele>63</ele>
        <time>2013-04-21T08:54:28.001Z</time>
      </trkpt>
      <trkpt lat="47.53557" lon="-0.16412">
        <ele>63</ele>
        <time>2013-04-21T08:54:29.001Z</time>
      </trkpt>
      <trkpt lat="47.53559" lon="-0.16418">
        <ele>63</ele>
        <time>2013-04-21T08:54:48.001Z</time>
      </trkpt>
      <trkpt lat="47.53559" lon="-0.16418">
        <ele>63</ele>
        <time>2013-04-21T08:54:49.001Z</time>
      </trkpt>
      <trkpt lat="47.53563" lon="-0.16415">
        <ele>63</ele>
        <time>2013-04-21T08:55:44.001Z</time>
      </trkpt>
      <trkpt lat="47.53563" lon="-0.16415">
        <ele>63</ele>
        <time>2013-04-21T08:55:45.001Z</time>
      </trkpt>
      <trkpt lat="47.53562" lon="-0.16421">
        <ele>63</ele>
        <time>2013-04-21T08:57:27.001Z</time>
      </trkpt>
      <trkpt lat="47.53562" lon="-0.16422">
        <ele>63</ele>
        <time>2013-04-21T08:57:28.001Z</time>
      </trkpt>
      <trkpt lat="47.53562" lon="-0.16426">
        <ele>63</ele>
        <time>2013-04-21T08:57:54.001Z</time>
      </trkpt>
      <trkpt lat="47.53561" lon="-0.16429">
        <ele>63</ele>
        <time>2013-04-21T08:57:55.001Z</time>
      </trkpt>
      <trkpt lat="47.53561" lon="-0.16434">
        <ele>63</ele>
        <time>2013-04-21T08:57:57.001Z</time>
      </trkpt>
      <trkpt lat="47.53562" lon="-0.16436">
        <ele>63</ele>
        <time>2013-04-21T08:57:58.001Z</time>
      </trkpt>
      <trkpt lat="47.53563" lon="-0.16442">
        <ele>64</ele>
        <time>2013-04-21T08:58:03.001Z</time>
      </trkpt>
      <trkpt lat="47.53563" lon="-0.16445">
        <ele>64</ele>
        <time>2013-04-21T08:58:04.001Z</time>
      </trkpt>
      <trkpt lat="47.53564" lon="-0.16449">
        <ele>64</ele>
        <time>2013-04-21T08:58:05.001Z</time>
      </trkpt>
      <trkpt lat="47.53565" lon="-0.16452">
        <ele>64</ele>
        <time>2013-04-21T08:58:06.001Z</time>
      </trkpt>
      <trkpt lat="47.53568" lon="-0.16457">
        <ele>64</ele>
        <time>2013-04-21T08:58:09.001Z</time>
      </trkpt>
      <trkpt lat="47.53568" lon="-0.16458">
        <ele>64</ele>
        <time>2013-04-21T08:58:10.001Z</time>
      </trkpt>
      <trkpt lat="47.53569" lon="-0.16462">
        <ele>64</ele>
        <time>2013-04-21T08:58:14.001Z</time>
      </trkpt>
      <trkpt lat="47.5357" lon="-0.16464">
        <ele>64</ele>
        <time>2013-04-21T08:58:15.001Z</time>
      </trkpt>
      <trkpt lat="47.53569" lon="-0.16469">
        <ele>64</ele>
        <time>2013-04-21T08:58:19.001Z</time>
      </trkpt>
      <trkpt lat="47.53569" lon="-0.16471">
        <ele>64</ele>
        <time>2013-04-21T08:58:20.001Z</time>
      </trkpt>
      <trkpt lat="47.5357" lon="-0.16477">
        <ele>64</ele>
        <time>2013-04-21T08:58:24.001Z</time>
      </trkpt>
      <trkpt lat="47.5357" lon="-0.16479">
        <ele>64</ele>
        <time>2013-04-21T08:58:25.001Z</time>
      </trkpt>
      <trkpt lat="47.5357" lon="-0.16485">
        <ele>64</ele>
        <time>2013-04-21T08:58:30.001Z</time>
      </trkpt>
      <trkpt lat="47.53571" lon="-0.16486">
        <ele>63</ele>
        <time>2013-04-21T08:58:31.001Z</time>
      </trkpt>
      <trkpt lat="47.53572" lon="-0.16492">
        <ele>63</ele>
        <time>2013-04-21T08:58:33.001Z</time>
      </trkpt>
      <trkpt lat="47.53572" lon="-0.16494">
        <ele>63</ele>
        <time>2013-04-21T08:58:34.001Z</time>
      </trkpt>
      <trkpt lat="47.53572" lon="-0.16499">
        <ele>63</ele>
        <time>2013-04-21T08:58:37.001Z</time>
      </trkpt>
      <trkpt lat="47.53572" lon="-0.16501">
        <ele>63</ele>
        <time>2013-04-21T08:58:38.001Z</time>
      </trkpt>
      <trkpt lat="47.53573" lon="-0.16507">
        <ele>63</ele>
        <time>2013-04-21T08:58:41.001Z</time>
      </trkpt>
      <trkpt lat="47.53573" lon="-0.16509">
        <ele>63</ele>
        <time>2013-04-21T08:58:42.001Z</time>
      </trkpt>
      <trkpt lat="47.53575" lon="-0.16514">
        <ele>64</ele>
        <time>2013-04-21T08:58:45.001Z</time>
      </trkpt>
      <trkpt lat="47.53574" lon="-0.16516">
        <ele>64</ele>
        <time>2013-04-21T08:58:46.001Z</time>
      </trkpt>
      <trkpt lat="47.53575" lon="-0.16522">
        <ele>64</ele>
        <time>2013-04-21T08:58:51.001Z</time>
      </trkpt>
      <trkpt lat="47.53575" lon="-0.16524">
        <ele>64</ele>
        <time>2013-04-21T08:58:52.001Z</time>
      </trkpt>
      <trkpt lat="47.53576" lon="-0.1653">
        <ele>64</ele>
        <time>2013-04-21T08:58:55.001Z</time>
      </trkpt>
      <trkpt lat="47.53575" lon="-0.16531">
        <ele>64</ele>
        <time>2013-04-21T08:58:56.001Z</time>
      </trkpt>
      <trkpt lat="47.53575" lon="-0.16536">
        <ele>64</ele>
        <time>2013-04-21T08:59:00.001Z</time>
      </trkpt>
      <trkpt lat="47.53575" lon="-0.16538">
        <ele>64</ele>
        <time>2013-04-21T08:59:01.001Z</time>
      </trkpt>
      <trkpt lat="47.53576" lon="-0.16543">
        <ele>64</ele>
        <time>2013-04-21T08:59:04.001Z</time>
      </trkpt>
      <trkpt lat="47.53577" lon="-0.16545">
        <ele>64</ele>
        <time>2013-04-21T08:59:05.001Z</time>
      </trkpt>
      <trkpt lat="47.53577" lon="-0.16552">
        <ele>64</ele>
        <time>2013-04-21T08:59:08.001Z</time>
      </trkpt>
      <trkpt lat="47.53577" lon="-0.16554">
        <ele>64</ele>
        <time>2013-04-21T08:59:09.001Z</time>
      </trkpt>
      <trkpt lat="47.53578" lon="-0.1656">
        <ele>64</ele>
        <time>2013-04-21T08:59:12.001Z</time>
      </trkpt>
      <trkpt lat="47.53578" lon="-0.16561">
        <ele>64</ele>
        <time>2013-04-21T08:59:13.001Z</time>
      </trkpt>
      <trkpt lat="47.53581" lon="-0.16565">
        <ele>64</ele>
        <time>2013-04-21T08:59:29.001Z</time>
      </trkpt>
      <trkpt lat="47.53581" lon="-0.16566">
        <ele>64</ele>
        <time>2013-04-21T08:59:30.001Z</time>
      </trkpt>
      <trkpt lat="47.53583" lon="-0.1657">
        <ele>64</ele>
        <time>2013-04-21T08:59:32.001Z</time>
      </trkpt>
      <trkpt lat="47.53583" lon="-0.16575">
        <ele>64</ele>
        <time>2013-04-21T08:59:33.001Z</time>
      </trkpt>
      <trkpt lat="47.53584" lon="-0.1658">
        <ele>64</ele>
        <time>2013-04-21T08:59:34.001Z</time>
      </trkpt>
      <trkpt lat="47.53584" lon="-0.16584">
        <ele>64</ele>
        <time>2013-04-21T08:59:35.001Z</time>
      </trkpt>
      <trkpt lat="47.53585" lon="-0.16588">
        <ele>63</ele>
        <time>2013-04-21T08:59:37.001Z</time>
      </trkpt>
      <trkpt lat="47.53586" lon="-0.1659">
        <ele>63</ele>
        <time>2013-04-21T08:59:38.001Z</time>
      </trkpt>
      <trkpt lat="47.53588" lon="-0.16595">
        <ele>63</ele>
        <time>2013-04-21T08:59:41.001Z</time>
      </trkpt>
      <trkpt lat="47.53589" lon="-0.16597">
        <ele>63</ele>
        <time>2013-04-21T08:59:42.001Z</time>
      </trkpt>
      <trkpt lat="47.53589" lon="-0.16603">
        <ele>62</ele>
        <time>2013-04-21T08:59:46.001Z</time>
      </trkpt>
      <trkpt lat="47.5359" lon="-0.16605">
        <ele>62</ele>
        <time>2013-04-21T08:59:47.001Z</time>
      </trkpt>
      <trkpt lat="47.5359" lon="-0.1661">
        <ele>62</ele>
        <time>2013-04-21T08:59:49.001Z</time>
      </trkpt>
      <trkpt lat="47.5359" lon="-0.16612">
        <ele>62</ele>
        <time>2013-04-21T08:59:50.001Z</time>
      </trkpt>
      <trkpt lat="47.5359" lon="-0.16616">
        <ele>62</ele>
        <time>2013-04-21T08:59:52.001Z</time>
      </trkpt>
      <trkpt lat="47.5359" lon="-0.16619">
        <ele>62</ele>
        <time>2013-04-21T08:59:53.001Z</time>
      </trkpt>
      <trkpt lat="47.53591" lon="-0.16624">
        <ele>62</ele>
        <time>2013-04-21T08:59:58.001Z</time>
      </trkpt>
      <trkpt lat="47.53591" lon="-0.16625">
        <ele>62</ele>
        <time>2013-04-21T08:59:59.001Z</time>
      </trkpt>
      <trkpt lat="47.53592" lon="-0.16629">
        <ele>62</ele>
        <time>2013-04-21T09:00:01.001Z</time>
      </trkpt>
      <trkpt lat="47.53592" lon="-0.16632">
        <ele>62</ele>
        <time>2013-04-21T09:00:02.001Z</time>
      </trkpt>
      <trkpt lat="47.53591" lon="-0.16638">
        <ele>62</ele>
        <time>2013-04-21T09:00:06.001Z</time>
      </trkpt>
      <trkpt lat="47.53591" lon="-0.1664">
        <ele>62</ele>
        <time>2013-04-21T09:00:07.001Z</time>
      </trkpt>
      <trkpt lat="47.5359" lon="-0.16645">
        <ele>62</ele>
        <time>2013-04-21T09:00:11.001Z</time>
      </trkpt>
      <trkpt lat="47.5359" lon="-0.16647">
        <ele>62</ele>
        <time>2013-04-21T09:00:12.001Z</time>
      </trkpt>
      <trkpt lat="47.5359" lon="-0.16652">
        <ele>62</ele>
        <time>2013-04-21T09:00:14.001Z</time>
      </trkpt>
      <trkpt lat="47.5359" lon="-0.16654">
        <ele>62</ele>
        <time>2013-04-21T09:00:15.001Z</time>
      </trkpt>
      <trkpt lat="47.53589" lon="-0.16659">
        <ele>62</ele>
        <time>2013-04-21T09:00:18.001Z</time>
      </trkpt>
      <trkpt lat="47.53589" lon="-0.16661">
        <ele>62</ele>
        <time>2013-04-21T09:00:19.001Z</time>
      </trkpt>
      <trkpt lat="47.5359" lon="-0.16667">
        <ele>62</ele>
        <time>2013-04-21T09:00:23.001Z</time>
      </trkpt>
      <trkpt lat="47.5359" lon="-0.16668">
        <ele>62</ele>
        <time>2013-04-21T09:00:24.001Z</time>
      </trkpt>
      <trkpt lat="47.53588" lon="-0.16674">
        <ele>62</ele>
        <time>2013-04-21T09:00:27.001Z</time>
      </trkpt>
      <trkpt lat="47.53587" lon="-0.16676">
        <ele>62</ele>
        <time>2013-04-21T09:00:28.001Z</time>
      </trkpt>
      <trkpt lat="47.53586" lon="-0.16682">
        <ele>61</ele>
        <time>2013-04-21T09:00:33.001Z</time>
      </trkpt>
      <trkpt lat="47.53585" lon="-0.16684">
        <ele>61</ele>
        <time>2013-04-21T09:00:34.001Z</time>
      </trkpt>
      <trkpt lat="47.53583" lon="-0.1669">
        <ele>62</ele>
        <time>2013-04-21T09:00:37.001Z</time>
      </trkpt>
      <trkpt lat="47.53582" lon="-0.16691">
        <ele>61</ele>
        <time>2013-04-21T09:00:38.001Z</time>
      </trkpt>
      <trkpt lat="47.5358" lon="-0.16695">
        <ele>61</ele>
        <time>2013-04-21T09:00:41.001Z</time>
      </trkpt>
      <trkpt lat="47.53579" lon="-0.16696">
        <ele>61</ele>
        <time>2013-04-21T09:00:42.001Z</time>
      </trkpt>
      <trkpt lat="47.53576" lon="-0.167">
        <ele>61</ele>
        <time>2013-04-21T09:00:46.001Z</time>
      </trkpt>
      <trkpt lat="47.53576" lon="-0.16701">
        <ele>61</ele>
        <time>2013-04-21T09:00:47.001Z</time>
      </trkpt>
      <trkpt lat="47.53574" lon="-0.16706">
        <ele>61</ele>
        <time>2013-04-21T09:00:51.001Z</time>
      </trkpt>
      <trkpt lat="47.53574" lon="-0.16708">
        <ele>61</ele>
        <time>2013-04-21T09:00:52.001Z</time>
      </trkpt>
      <trkpt lat="47.53572" lon="-0.16712">
        <ele>61</ele>
        <time>2013-04-21T09:00:54.001Z</time>
      </trkpt>
      <trkpt lat="47.53572" lon="-0.16714">
        <ele>61</ele>
        <time>2013-04-21T09:00:55.001Z</time>
      </trkpt>
      <trkpt lat="47.53571" lon="-0.16719">
        <ele>61</ele>
        <time>2013-04-21T09:00:57.001Z</time>
      </trkpt>
      <trkpt lat="47.5357" lon="-0.16721">
        <ele>60</ele>
        <time>2013-04-21T09:00:58.001Z</time>
      </trkpt>
      <trkpt lat="47.5357" lon="-0.16726">
        <ele>60</ele>
        <time>2013-04-21T09:01:01.001Z</time>
      </trkpt>
      <trkpt lat="47.53569" lon="-0.16728">
        <ele>60</ele>
        <time>2013-04-21T09:01:02.001Z</time>
      </trkpt>
      <trkpt lat="47.53567" lon="-0.16733">
        <ele>60</ele>
        <time>2013-04-21T09:01:05.001Z</time>
      </trkpt>
      <trkpt lat="47.53566" lon="-0.16735">
        <ele>60</ele>
        <time>2013-04-21T09:01:06.001Z</time>
      </trkpt>
      <trkpt lat="47.53565" lon="-0.1674">
        <ele>60</ele>
        <time>2013-04-21T09:01:09.001Z</time>
      </trkpt>
      <trkpt lat="47.53565" lon="-0.16742">
        <ele>60</ele>
        <time>2013-04-21T09:01:10.001Z</time>
      </trkpt>
      <trkpt lat="47.53565" lon="-0.16746">
        <ele>60</ele>
        <time>2013-04-21T09:01:12.001Z</time>
      </trkpt>
      <trkpt lat="47.53565" lon="-0.16749">
        <ele>60</ele>
        <time>2013-04-21T09:01:13.001Z</time>
      </trkpt>
      <trkpt lat="47.53566" lon="-0.16755">
        <ele>58</ele>
        <time>2013-04-21T09:01:16.001Z</time>
      </trkpt>
      <trkpt lat="47.53566" lon="-0.16757">
        <ele>58</ele>
        <time>2013-04-21T09:01:17.001Z</time>
      </trkpt>
      <trkpt lat="47.53566" lon="-0.16763">
        <ele>58</ele>
        <time>2013-04-21T09:01:20.001Z</time>
      </trkpt>
      <trkpt lat="47.53565" lon="-0.16765">
        <ele>58</ele>
        <time>2013-04-21T09:01:21.001Z</time>
      </trkpt>
      <trkpt lat="47.53564" lon="-0.1677">
        <ele>58</ele>
        <time>2013-04-21T09:01:24.001Z</time>
      </trkpt>
      <trkpt lat="47.53564" lon="-0.16772">
        <ele>58</ele>
        <time>2013-04-21T09:01:25.001Z</time>
      </trkpt>
      <trkpt lat="47.53564" lon="-0.16778">
        <ele>58</ele>
        <time>2013-04-21T09:01:27.001Z</time>
      </trkpt>
      <trkpt lat="47.53564" lon="-0.1678">
        <ele>58</ele>
        <time>2013-04-21T09:01:28.001Z</time>
      </trkpt>
      <trkpt lat="47.53563" lon="-0.16786">
        <ele>57</ele>
        <time>2013-04-21T09:01:31.001Z</time>
      </trkpt>
      <trkpt lat="47.53563" lon="-0.16788">
        <ele>57</ele>
        <time>2013-04-21T09:01:32.001Z</time>
      </trkpt>
      <trkpt lat="47.53563" lon="-0.16792">
        <ele>57</ele>
        <time>2013-04-21T09:01:34.001Z</time>
      </trkpt>
      <trkpt lat="47.53563" lon="-0.16795">
        <ele>57</ele>
        <time>2013-04-21T09:01:35.001Z</time>
      </trkpt>
      <trkpt lat="47.53563" lon="-0.16801">
        <ele>57</ele>
        <time>2013-04-21T09:01:38.001Z</time>
      </trkpt>
      <trkpt lat="47.53563" lon="-0.16803">
        <ele>57</ele>
        <time>2013-04-21T09:01:39.001Z</time>
      </trkpt>
      <trkpt lat="47.53562" lon="-0.16809">
        <ele>57</ele>
        <time>2013-04-21T09:01:43.001Z</time>
      </trkpt>
      <trkpt lat="47.53562" lon="-0.16811">
        <ele>57</ele>
        <time>2013-04-21T09:01:44.001Z</time>
      </trkpt>
      <trkpt lat="47.53563" lon="-0.16817">
        <ele>57</ele>
        <time>2013-04-21T09:01:47.001Z</time>
      </trkpt>
      <trkpt lat="47.53563" lon="-0.16818">
        <ele>57</ele>
        <time>2013-04-21T09:01:48.001Z</time>
      </trkpt>
      <trkpt lat="47.53564" lon="-0.16824">
        <ele>57</ele>
        <time>2013-04-21T09:01:51.001Z</time>
      </trkpt>
      <trkpt lat="47.53564" lon="-0.16825">
        <ele>57</ele>
        <time>2013-04-21T09:01:52.001Z</time>
      </trkpt>
      <trkpt lat="47.53564" lon="-0.16832">
        <ele>57</ele>
        <time>2013-04-21T09:01:59.001Z</time>
      </trkpt>
      <trkpt lat="47.53565" lon="-0.16833">
        <ele>57</ele>
        <time>2013-04-21T09:02:00.001Z</time>
      </trkpt>
      <trkpt lat="47.53568" lon="-0.16837">
        <ele>55</ele>
        <time>2013-04-21T09:02:03.001Z</time>
      </trkpt>
      <trkpt lat="47.53569" lon="-0.16837">
        <ele>56</ele>
        <time>2013-04-21T09:02:04.001Z</time>
      </trkpt>
      <trkpt lat="47.53572" lon="-0.16841">
        <ele>56</ele>
        <time>2013-04-21T09:02:08.001Z</time>
      </trkpt>
      <trkpt lat="47.53574" lon="-0.16842">
        <ele>56</ele>
        <time>2013-04-21T09:02:09.001Z</time>
      </trkpt>
      <trkpt lat="47.53577" lon="-0.16846">
        <ele>56</ele>
        <time>2013-04-21T09:02:12.001Z</time>
      </trkpt>
      <trkpt lat="47.53578" lon="-0.16847">
        <ele>56</ele>
        <time>2013-04-21T09:02:13.001Z</time>
      </trkpt>
      <trkpt lat="47.53581" lon="-0.1685">
        <ele>55</ele>
        <time>2013-04-21T09:02:18.001Z</time>
      </trkpt>
      <trkpt lat="47.53583" lon="-0.1685">
        <ele>55</ele>
        <time>2013-04-21T09:02:19.001Z</time>
      </trkpt>
      <trkpt lat="47.53587" lon="-0.16852">
        <ele>55</ele>
        <time>2013-04-21T09:02:22.001Z</time>
      </trkpt>
      <trkpt lat="47.53587" lon="-0.16852">
        <ele>55</ele>
        <time>2013-04-21T09:02:23.001Z</time>
      </trkpt>
      <trkpt lat="47.53591" lon="-0.16855">
        <ele>55</ele>
        <time>2013-04-21T09:02:27.001Z</time>
      </trkpt>
      <trkpt lat="47.53592" lon="-0.16856">
        <ele>55</ele>
        <time>2013-04-21T09:02:28.001Z</time>
      </trkpt>
      <trkpt lat="47.53595" lon="-0.16858">
        <ele>54</ele>
        <time>2013-04-21T09:02:31.001Z</time>
      </trkpt>
      <trkpt lat="47.53596" lon="-0.1686">
        <ele>54</ele>
        <time>2013-04-21T09:02:32.001Z</time>
      </trkpt>
      <trkpt lat="47.53598" lon="-0.16866">
        <ele>54</ele>
        <time>2013-04-21T09:02:35.001Z</time>
      </trkpt>
      <trkpt lat="47.53598" lon="-0.16868">
        <ele>54</ele>
        <time>2013-04-21T09:02:36.001Z</time>
      </trkpt>
      <trkpt lat="47.536" lon="-0.16872">
        <ele>54</ele>
        <time>2013-04-21T09:02:39.001Z</time>
      </trkpt>
      <trkpt lat="47.53601" lon="-0.16875">
        <ele>54</ele>
        <time>2013-04-21T09:02:40.001Z</time>
      </trkpt>
      <trkpt lat="47.53602" lon="-0.16881">
        <ele>53</ele>
        <time>2013-04-21T09:02:45.001Z</time>
      </trkpt>
      <trkpt lat="47.53602" lon="-0.16882">
        <ele>53</ele>
        <time>2013-04-21T09:02:46.001Z</time>
      </trkpt>
      <trkpt lat="47.536" lon="-0.16888">
        <ele>53</ele>
        <time>2013-04-21T09:02:49.001Z</time>
      </trkpt>
      <trkpt lat="47.536" lon="-0.16889">
        <ele>53</ele>
        <time>2013-04-21T09:02:50.001Z</time>
      </trkpt>
      <trkpt lat="47.53601" lon="-0.16895">
        <ele>53</ele>
        <time>2013-04-21T09:02:56.001Z</time>
      </trkpt>
      <trkpt lat="47.53601" lon="-0.16897">
        <ele>53</ele>
        <time>2013-04-21T09:02:57.001Z</time>
      </trkpt>
      <trkpt lat="47.53601" lon="-0.16903">
        <ele>53</ele>
        <time>2013-04-21T09:03:00.001Z</time>
      </trkpt>
      <trkpt lat="47.536" lon="-0.16904">
        <ele>53</ele>
        <time>2013-04-21T09:03:01.001Z</time>
      </trkpt>
      <trkpt lat="47.536" lon="-0.16911">
        <ele>53</ele>
        <time>2013-04-21T09:03:04.001Z</time>
      </trkpt>
      <trkpt lat="47.53599" lon="-0.16911">
        <ele>53</ele>
        <time>2013-04-21T09:03:05.001Z</time>
      </trkpt>
      <trkpt lat="47.53597" lon="-0.16916">
        <ele>52</ele>
        <time>2013-04-21T09:03:11.001Z</time>
      </trkpt>
      <trkpt lat="47.53597" lon="-0.16917">
        <ele>51</ele>
        <time>2013-04-21T09:03:12.001Z</time>
      </trkpt>
      <trkpt lat="47.53598" lon="-0.16922">
        <ele>51</ele>
        <time>2013-04-21T09:03:14.001Z</time>
      </trkpt>
      <trkpt lat="47.53598" lon="-0.16924">
        <ele>51</ele>
        <time>2013-04-21T09:03:15.001Z</time>
      </trkpt>
      <trkpt lat="47.53598" lon="-0.16929">
        <ele>51</ele>
        <time>2013-04-21T09:03:17.001Z</time>
      </trkpt>
      <trkpt lat="47.53598" lon="-0.16931">
        <ele>51</ele>
        <time>2013-04-21T09:03:18.001Z</time>
      </trkpt>
      <trkpt lat="47.53599" lon="-0.16936">
        <ele>50</ele>
        <time>2013-04-21T09:03:20.001Z</time>
      </trkpt>
      <trkpt lat="47.53599" lon="-0.16938">
        <ele>50</ele>
        <time>2013-04-21T09:03:21.001Z</time>
      </trkpt>
      <trkpt lat="47.53599" lon="-0.16942">
        <ele>50</ele>
        <time>2013-04-21T09:03:23.001Z</time>
      </trkpt>
      <trkpt lat="47.53598" lon="-0.16945">
        <ele>50</ele>
        <time>2013-04-21T09:03:24.001Z</time>
      </trkpt>
      <trkpt lat="47.53597" lon="-0.1695">
        <ele>50</ele>
        <time>2013-04-21T09:03:28.001Z</time>
      </trkpt>
      <trkpt lat="47.53597" lon="-0.16951">
        <ele>50</ele>
        <time>2013-04-21T09:03:29.001Z</time>
      </trkpt>
      <trkpt lat="47.53597" lon="-0.16957">
        <ele>50</ele>
        <time>2013-04-21T09:03:32.001Z</time>
      </trkpt>
      <trkpt lat="47.53597" lon="-0.1696">
        <ele>50</ele>
        <time>2013-04-21T09:03:33.001Z</time>
      </trkpt>
      <trkpt lat="47.53597" lon="-0.16966">
        <ele>50</ele>
        <time>2013-04-21T09:03:36.001Z</time>
      </trkpt>
      <trkpt lat="47.53597" lon="-0.16968">
        <ele>50</ele>
        <time>2013-04-21T09:03:37.001Z</time>
      </trkpt>
      <trkpt lat="47.53596" lon="-0.16974">
        <ele>49</ele>
        <time>2013-04-21T09:03:40.001Z</time>
      </trkpt>
      <trkpt lat="47.53596" lon="-0.16975">
        <ele>49</ele>
        <time>2013-04-21T09:03:41.001Z</time>
      </trkpt>
      <trkpt lat="47.53594" lon="-0.16981">
        <ele>49</ele>
        <time>2013-04-21T09:03:44.001Z</time>
      </trkpt>
      <trkpt lat="47.53594" lon="-0.16983">
        <ele>49</ele>
        <time>2013-04-21T09:03:45.001Z</time>
      </trkpt>
      <trkpt lat="47.53594" lon="-0.16989">
        <ele>49</ele>
        <time>2013-04-21T09:03:48.001Z</time>
      </trkpt>
      <trkpt lat="47.53593" lon="-0.16991">
        <ele>49</ele>
        <time>2013-04-21T09:03:49.001Z</time>
      </trkpt>
      <trkpt lat="47.53591" lon="-0.16996">
        <ele>49</ele>
        <time>2013-04-21T09:03:52.001Z</time>
      </trkpt>
      <trkpt lat="47.5359" lon="-0.16997">
        <ele>49</ele>
        <time>2013-04-21T09:03:53.001Z</time>
      </trkpt>
      <trkpt lat="47.53588" lon="-0.17003">
        <ele>49</ele>
        <time>2013-04-21T09:04:01.001Z</time>
      </trkpt>
      <trkpt lat="47.53588" lon="-0.17004">
        <ele>49</ele>
        <time>2013-04-21T09:04:02.001Z</time>
      </trkpt>
      <trkpt lat="47.53587" lon="-0.17009">
        <ele>48</ele>
        <time>2013-04-21T09:04:05.001Z</time>
      </trkpt>
      <trkpt lat="47.53586" lon="-0.17013">
        <ele>48</ele>
        <time>2013-04-21T09:04:06.001Z</time>
      </trkpt>
      <trkpt lat="47.53587" lon="-0.17017">
        <ele>48</ele>
        <time>2013-04-21T09:04:13.001Z</time>
      </trkpt>
      <trkpt lat="47.53587" lon="-0.17019">
        <ele>48</ele>
        <time>2013-04-21T09:04:14.001Z</time>
      </trkpt>
      <trkpt lat="47.53587" lon="-0.17025">
        <ele>48</ele>
        <time>2013-04-21T09:04:17.001Z</time>
      </trkpt>
      <trkpt lat="47.53586" lon="-0.17027">
        <ele>48</ele>
        <time>2013-04-21T09:04:18.001Z</time>
      </trkpt>
      <trkpt lat="47.53586" lon="-0.17033">
        <ele>48</ele>
        <time>2013-04-21T09:04:22.001Z</time>
      </trkpt>
      <trkpt lat="47.53586" lon="-0.17036">
        <ele>47</ele>
        <time>2013-04-21T09:04:23.001Z</time>
      </trkpt>
      <trkpt lat="47.53585" lon="-0.1704">
        <ele>47</ele>
        <time>2013-04-21T09:04:30.001Z</time>
      </trkpt>
      <trkpt lat="47.53584" lon="-0.17042">
        <ele>47</ele>
        <time>2013-04-21T09:04:31.001Z</time>
      </trkpt>
      <trkpt lat="47.53583" lon="-0.17047">
        <ele>48</ele>
        <time>2013-04-21T09:04:33.001Z</time>
      </trkpt>
      <trkpt lat="47.53583" lon="-0.17049">
        <ele>48</ele>
        <time>2013-04-21T09:04:34.001Z</time>
      </trkpt>
      <trkpt lat="47.53582" lon="-0.17055">
        <ele>48</ele>
        <time>2013-04-21T09:04:38.001Z</time>
      </trkpt>
      <trkpt lat="47.53582" lon="-0.17058">
        <ele>48</ele>
        <time>2013-04-21T09:04:39.001Z</time>
      </trkpt>
      <trkpt lat="47.53581" lon="-0.17063">
        <ele>48</ele>
        <time>2013-04-21T09:04:42.001Z</time>
      </trkpt>
      <trkpt lat="47.53581" lon="-0.17065">
        <ele>48</ele>
        <time>2013-04-21T09:04:43.001Z</time>
      </trkpt>
      <trkpt lat="47.53579" lon="-0.17068">
        <ele>48</ele>
        <time>2013-04-21T09:04:46.001Z</time>
      </trkpt>
      <trkpt lat="47.53578" lon="-0.17071">
        <ele>48</ele>
        <time>2013-04-21T09:04:47.001Z</time>
      </trkpt>
      <trkpt lat="47.53577" lon="-0.17076">
        <ele>47</ele>
        <time>2013-04-21T09:04:49.001Z</time>
      </trkpt>
      <trkpt lat="47.53577" lon="-0.17078">
        <ele>47</ele>
        <time>2013-04-21T09:04:50.001Z</time>
      </trkpt>
      <trkpt lat="47.53577" lon="-0.17083">
        <ele>47</ele>
        <time>2013-04-21T09:04:53.001Z</time>
      </trkpt>
      <trkpt lat="47.53577" lon="-0.17085">
        <ele>47</ele>
        <time>2013-04-21T09:04:54.001Z</time>
      </trkpt>
      <trkpt lat="47.53576" lon="-0.17091">
        <ele>47</ele>
        <time>2013-04-21T09:04:58.001Z</time>
      </trkpt>
      <trkpt lat="47.53576" lon="-0.17093">
        <ele>47</ele>
        <time>2013-04-21T09:04:59.001Z</time>
      </trkpt>
      <trkpt lat="47.53575" lon="-0.17099">
        <ele>47</ele>
        <time>2013-04-21T09:05:02.001Z</time>
      </trkpt>
      <trkpt lat="47.53575" lon="-0.171">
        <ele>47</ele>
        <time>2013-04-21T09:05:03.001Z</time>
      </trkpt>
      <trkpt lat="47.53573" lon="-0.17106">
        <ele>47</ele>
        <time>2013-04-21T09:05:08.001Z</time>
      </trkpt>
      <trkpt lat="47.53573" lon="-0.17107">
        <ele>47</ele>
        <time>2013-04-21T09:05:09.001Z</time>
      </trkpt>
      <trkpt lat="47.53572" lon="-0.17111">
        <ele>47</ele>
        <time>2013-04-21T09:05:13.001Z</time>
      </trkpt>
      <trkpt lat="47.5357" lon="-0.17114">
        <ele>47</ele>
        <time>2013-04-21T09:05:14.001Z</time>
      </trkpt>
      <trkpt lat="47.53569" lon="-0.17119">
        <ele>47</ele>
        <time>2013-04-21T09:05:17.001Z</time>
      </trkpt>
      <trkpt lat="47.53568" lon="-0.17121">
        <ele>47</ele>
        <time>2013-04-21T09:05:18.001Z</time>
      </trkpt>
      <trkpt lat="47.53567" lon="-0.17125">
        <ele>47</ele>
        <time>2013-04-21T09:05:20.001Z</time>
      </trkpt>
      <trkpt lat="47.53567" lon="-0.17128">
        <ele>47</ele>
        <time>2013-04-21T09:05:21.001Z</time>
      </trkpt>
      <trkpt lat="47.53565" lon="-0.17134">
        <ele>47</ele>
        <time>2013-04-21T09:05:25.001Z</time>
      </trkpt>
      <trkpt lat="47.53565" lon="-0.17135">
        <ele>47</ele>
        <time>2013-04-21T09:05:26.001Z</time>
      </trkpt>
      <trkpt lat="47.53563" lon="-0.17141">
        <ele>47</ele>
        <time>2013-04-21T09:05:30.001Z</time>
      </trkpt>
      <trkpt lat="47.53563" lon="-0.17142">
        <ele>47</ele>
        <time>2013-04-21T09:05:31.001Z</time>
      </trkpt>
      <trkpt lat="47.53561" lon="-0.17147">
        <ele>47</ele>
        <time>2013-04-21T09:05:34.001Z</time>
      </trkpt>
      <trkpt lat="47.5356" lon="-0.17148">
        <ele>47</ele>
        <time>2013-04-21T09:05:35.001Z</time>
      </trkpt>
      <trkpt lat="47.53558" lon="-0.17153">
        <ele>47</ele>
        <time>2013-04-21T09:05:39.001Z</time>
      </trkpt>
      <trkpt lat="47.53557" lon="-0.17155">
        <ele>47</ele>
        <time>2013-04-21T09:05:40.001Z</time>
      </trkpt>
      <trkpt lat="47.53554" lon="-0.17159">
        <ele>47</ele>
        <time>2013-04-21T09:05:44.001Z</time>
      </trkpt>
      <trkpt lat="47.53553" lon="-0.1716">
        <ele>47</ele>
        <time>2013-04-21T09:05:45.001Z</time>
      </trkpt>
      <trkpt lat="47.5355" lon="-0.17163">
        <ele>47</ele>
        <time>2013-04-21T09:05:48.001Z</time>
      </trkpt>
      <trkpt lat="47.53549" lon="-0.17164">
        <ele>47</ele>
        <time>2013-04-21T09:05:49.001Z</time>
      </trkpt>
      <trkpt lat="47.53546" lon="-0.17169">
        <ele>46</ele>
        <time>2013-04-21T09:05:52.001Z</time>
      </trkpt>
      <trkpt lat="47.53545" lon="-0.17169">
        <ele>46</ele>
        <time>2013-04-21T09:05:53.001Z</time>
      </trkpt>
      <trkpt lat="47.53543" lon="-0.17173">
        <ele>46</ele>
        <time>2013-04-21T09:05:56.001Z</time>
      </trkpt>
      <trkpt lat="47.53542" lon="-0.17175">
        <ele>46</ele>
        <time>2013-04-21T09:05:57.001Z</time>
      </trkpt>
      <trkpt lat="47.53539" lon="-0.17178">
        <ele>46</ele>
        <time>2013-04-21T09:06:00.001Z</time>
      </trkpt>
      <trkpt lat="47.53538" lon="-0.17179">
        <ele>46</ele>
        <time>2013-04-21T09:06:01.001Z</time>
      </trkpt>
      <trkpt lat="47.53536" lon="-0.17182">
        <ele>46</ele>
        <time>2013-04-21T09:06:04.001Z</time>
      </trkpt>
      <trkpt lat="47.53534" lon="-0.17185">
        <ele>46</ele>
        <time>2013-04-21T09:06:05.001Z</time>
      </trkpt>
      <trkpt lat="47.53531" lon="-0.17189">
        <ele>46</ele>
        <time>2013-04-21T09:06:08.001Z</time>
      </trkpt>
      <trkpt lat="47.53531" lon="-0.1719">
        <ele>46</ele>
        <time>2013-04-21T09:06:09.001Z</time>
      </trkpt>
      <trkpt lat="47.53528" lon="-0.17193">
        <ele>46</ele>
        <time>2013-04-21T09:06:12.001Z</time>
      </trkpt>
      <trkpt lat="47.53526" lon="-0.17195">
        <ele>46</ele>
        <time>2013-04-21T09:06:13.001Z</time>
      </trkpt>
      <trkpt lat="47.53524" lon="-0.172">
        <ele>46</ele>
        <time>2013-04-21T09:06:16.001Z</time>
      </trkpt>
      <trkpt lat="47.53523" lon="-0.17201">
        <ele>46</ele>
        <time>2013-04-21T09:06:17.001Z</time>
      </trkpt>
      <trkpt lat="47.53521" lon="-0.17206">
        <ele>46</ele>
        <time>2013-04-21T09:06:21.001Z</time>
      </trkpt>
      <trkpt lat="47.5352" lon="-0.17208">
        <ele>46</ele>
        <time>2013-04-21T09:06:22.001Z</time>
      </trkpt>
      <trkpt lat="47.53518" lon="-0.17212">
        <ele>46</ele>
        <time>2013-04-21T09:06:25.001Z</time>
      </trkpt>
      <trkpt lat="47.53517" lon="-0.17214">
        <ele>46</ele>
        <time>2013-04-21T09:06:26.001Z</time>
      </trkpt>
      <trkpt lat="47.53514" lon="-0.17216">
        <ele>46</ele>
        <time>2013-04-21T09:06:29.001Z</time>
      </trkpt>
      <trkpt lat="47.53512" lon="-0.17218">
        <ele>46</ele>
        <time>2013-04-21T09:06:30.001Z</time>
      </trkpt>
      <trkpt lat="47.53508" lon="-0.1722">
        <ele>46</ele>
        <time>2013-04-21T09:06:34.001Z</time>
      </trkpt>
      <trkpt lat="47.53507" lon="-0.1722">
        <ele>46</ele>
        <time>2013-04-21T09:06:35.001Z</time>
      </trkpt>
      <trkpt lat="47.53503" lon="-0.17223">
        <ele>46</ele>
        <time>2013-04-21T09:06:39.001Z</time>
      </trkpt>
      <trkpt lat="47.53502" lon="-0.17224">
        <ele>46</ele>
        <time>2013-04-21T09:06:40.001Z</time>
      </trkpt>
      <trkpt lat="47.53499" lon="-0.17227">
        <ele>46</ele>
        <time>2013-04-21T09:06:43.001Z</time>
      </trkpt>
      <trkpt lat="47.53498" lon="-0.17228">
        <ele>46</ele>
        <time>2013-04-21T09:06:44.001Z</time>
      </trkpt>
      <trkpt lat="47.53494" lon="-0.17231">
        <ele>46</ele>
        <time>2013-04-21T09:06:48.001Z</time>
      </trkpt>
      <trkpt lat="47.53493" lon="-0.17231">
        <ele>46</ele>
        <time>2013-04-21T09:06:49.001Z</time>
      </trkpt>
      <trkpt lat="47.5349" lon="-0.17234">
        <ele>46</ele>
        <time>2013-04-21T09:06:52.001Z</time>
      </trkpt>
      <trkpt lat="47.5349" lon="-0.17235">
        <ele>46</ele>
        <time>2013-04-21T09:06:53.001Z</time>
      </trkpt>
      <trkpt lat="47.53486" lon="-0.17239">
        <ele>46</ele>
        <time>2013-04-21T09:06:56.001Z</time>
      </trkpt>
      <trkpt lat="47.53486" lon="-0.1724">
        <ele>46</ele>
        <time>2013-04-21T09:06:57.001Z</time>
      </trkpt>
      <trkpt lat="47.53482" lon="-0.17244">
        <ele>46</ele>
        <time>2013-04-21T09:07:05.001Z</time>
      </trkpt>
      <trkpt lat="47.53482" lon="-0.17245">
        <ele>46</ele>
        <time>2013-04-21T09:07:06.001Z</time>
      </trkpt>
      <trkpt lat="47.53478" lon="-0.17247">
        <ele>46</ele>
        <time>2013-04-21T09:07:10.001Z</time>
      </trkpt>
      <trkpt lat="47.53477" lon="-0.17248">
        <ele>46</ele>
        <time>2013-04-21T09:07:11.001Z</time>
      </trkpt>
      <trkpt lat="47.53474" lon="-0.17249">
        <ele>46</ele>
        <time>2013-04-21T09:07:13.001Z</time>
      </trkpt>
      <trkpt lat="47.53472" lon="-0.1725">
        <ele>45</ele>
        <time>2013-04-21T09:07:14.001Z</time>
      </trkpt>
      <trkpt lat="47.53468" lon="-0.17252">
        <ele>46</ele>
        <time>2013-04-21T09:07:17.001Z</time>
      </trkpt>
      <trkpt lat="47.53467" lon="-0.17252">
        <ele>46</ele>
        <time>2013-04-21T09:07:18.001Z</time>
      </trkpt>
      <trkpt lat="47.53463" lon="-0.17253">
        <ele>46</ele>
        <time>2013-04-21T09:07:20.001Z</time>
      </trkpt>
      <trkpt lat="47.53462" lon="-0.17254">
        <ele>46</ele>
        <time>2013-04-21T09:07:21.001Z</time>
      </trkpt>
      <trkpt lat="47.53458" lon="-0.17256">
        <ele>46</ele>
        <time>2013-04-21T09:07:24.001Z</time>
      </trkpt>
      <trkpt lat="47.53457" lon="-0.17256">
        <ele>46</ele>
        <time>2013-04-21T09:07:25.001Z</time>
      </trkpt>
      <trkpt lat="47.53454" lon="-0.17257">
        <ele>46</ele>
        <time>2013-04-21T09:07:27.001Z</time>
      </trkpt>
      <trkpt lat="47.53452" lon="-0.17257">
        <ele>46</ele>
        <time>2013-04-21T09:07:28.001Z</time>
      </trkpt>
      <trkpt lat="47.53448" lon="-0.17258">
        <ele>46</ele>
        <time>2013-04-21T09:07:31.001Z</time>
      </trkpt>
      <trkpt lat="47.53447" lon="-0.17258">
        <ele>46</ele>
        <time>2013-04-21T09:07:32.001Z</time>
      </trkpt>
      <trkpt lat="47.53443" lon="-0.17259">
        <ele>46</ele>
        <time>2013-04-21T09:07:36.001Z</time>
      </trkpt>
      <trkpt lat="47.53442" lon="-0.17259">
        <ele>46</ele>
        <time>2013-04-21T09:07:37.001Z</time>
      </trkpt>
      <trkpt lat="47.53439" lon="-0.17262">
        <ele>46</ele>
        <time>2013-04-21T09:07:40.001Z</time>
      </trkpt>
      <trkpt lat="47.53438" lon="-0.17262">
        <ele>46</ele>
        <time>2013-04-21T09:07:41.001Z</time>
      </trkpt>
      <trkpt lat="47.53434" lon="-0.17264">
        <ele>46</ele>
        <time>2013-04-21T09:07:45.001Z</time>
      </trkpt>
      <trkpt lat="47.53433" lon="-0.17265">
        <ele>46</ele>
        <time>2013-04-21T09:07:46.001Z</time>
      </trkpt>
      <trkpt lat="47.53429" lon="-0.17268">
        <ele>46</ele>
        <time>2013-04-21T09:07:50.001Z</time>
      </trkpt>
      <trkpt lat="47.53428" lon="-0.17269">
        <ele>46</ele>
        <time>2013-04-21T09:07:51.001Z</time>
      </trkpt>
      <trkpt lat="47.53425" lon="-0.1727">
        <ele>46</ele>
        <time>2013-04-21T09:07:53.001Z</time>
      </trkpt>
      <trkpt lat="47.53423" lon="-0.1727">
        <ele>46</ele>
        <time>2013-04-21T09:07:54.001Z</time>
      </trkpt>
      <trkpt lat="47.53419" lon="-0.17271">
        <ele>46</ele>
        <time>2013-04-21T09:07:59.001Z</time>
      </trkpt>
      <trkpt lat="47.53418" lon="-0.17272">
        <ele>46</ele>
        <time>2013-04-21T09:08:00.001Z</time>
      </trkpt>
      <trkpt lat="47.53415" lon="-0.17275">
        <ele>48</ele>
        <time>2013-04-21T09:08:03.001Z</time>
      </trkpt>
      <trkpt lat="47.53414" lon="-0.17276">
        <ele>48</ele>
        <time>2013-04-21T09:08:04.001Z</time>
      </trkpt>
      <trkpt lat="47.53411" lon="-0.17278">
        <ele>48</ele>
        <time>2013-04-21T09:08:07.001Z</time>
      </trkpt>
      <trkpt lat="47.53409" lon="-0.17279">
        <ele>48</ele>
        <time>2013-04-21T09:08:08.001Z</time>
      </trkpt>
      <trkpt lat="47.53406" lon="-0.17283">
        <ele>48</ele>
        <time>2013-04-21T09:08:12.001Z</time>
      </trkpt>
      <trkpt lat="47.53405" lon="-0.17284">
        <ele>48</ele>
        <time>2013-04-21T09:08:13.001Z</time>
      </trkpt>
      <trkpt lat="47.53401" lon="-0.17286">
        <ele>49</ele>
        <time>2013-04-21T09:08:17.001Z</time>
      </trkpt>
      <trkpt lat="47.53398" lon="-0.17287">
        <ele>49</ele>
        <time>2013-04-21T09:08:18.001Z</time>
      </trkpt>
      <trkpt lat="47.53394" lon="-0.17289">
        <ele>49</ele>
        <time>2013-04-21T09:08:21.001Z</time>
      </trkpt>
      <trkpt lat="47.53393" lon="-0.1729">
        <ele>49</ele>
        <time>2013-04-21T09:08:22.001Z</time>
      </trkpt>
      <trkpt lat="47.5339" lon="-0.17292">
        <ele>49</ele>
        <time>2013-04-21T09:08:24.001Z</time>
      </trkpt>
      <trkpt lat="47.53389" lon="-0.17293">
        <ele>49</ele>
        <time>2013-04-21T09:08:25.001Z</time>
      </trkpt>
      <trkpt lat="47.53384" lon="-0.17295">
        <ele>49</ele>
        <time>2013-04-21T09:08:29.001Z</time>
      </trkpt>
      <trkpt lat="47.53383" lon="-0.17296">
        <ele>49</ele>
        <time>2013-04-21T09:08:30.001Z</time>
      </trkpt>
      <trkpt lat="47.5338" lon="-0.17298">
        <ele>49</ele>
        <time>2013-04-21T09:08:34.001Z</time>
      </trkpt>
      <trkpt lat="47.53379" lon="-0.17299">
        <ele>49</ele>
        <time>2013-04-21T09:08:35.001Z</time>
      </trkpt>
      <trkpt lat="47.53376" lon="-0.17302">
        <ele>49</ele>
        <time>2013-04-21T09:08:38.001Z</time>
      </trkpt>
      <trkpt lat="47.53375" lon="-0.17303">
        <ele>49</ele>
        <time>2013-04-21T09:08:39.001Z</time>
      </trkpt>
      <trkpt lat="47.53372" lon="-0.17307">
        <ele>49</ele>
        <time>2013-04-21T09:08:43.001Z</time>
      </trkpt>
      <trkpt lat="47.5337" lon="-0.17308">
        <ele>49</ele>
        <time>2013-04-21T09:08:44.001Z</time>
      </trkpt>
      <trkpt lat="47.53367" lon="-0.17308">
        <ele>50</ele>
        <time>2013-04-21T09:08:48.001Z</time>
      </trkpt>
      <trkpt lat="47.53366" lon="-0.17307">
        <ele>50</ele>
        <time>2013-04-21T09:08:49.001Z</time>
      </trkpt>
      <trkpt lat="47.53362" lon="-0.17303">
        <ele>50</ele>
        <time>2013-04-21T09:08:53.001Z</time>
      </trkpt>
      <trkpt lat="47.53361" lon="-0.17302">
        <ele>50</ele>
        <time>2013-04-21T09:08:54.001Z</time>
      </trkpt>
      <trkpt lat="47.53359" lon="-0.173">
        <ele>50</ele>
        <time>2013-04-21T09:08:57.001Z</time>
      </trkpt>
      <trkpt lat="47.53358" lon="-0.17298">
        <ele>50</ele>
        <time>2013-04-21T09:08:58.001Z</time>
      </trkpt>
      <trkpt lat="47.53355" lon="-0.17293">
        <ele>50</ele>
        <time>2013-04-21T09:09:01.001Z</time>
      </trkpt>
      <trkpt lat="47.53354" lon="-0.17291">
        <ele>50</ele>
        <time>2013-04-21T09:09:02.001Z</time>
      </trkpt>
      <trkpt lat="47.53352" lon="-0.17286">
        <ele>50</ele>
        <time>2013-04-21T09:09:05.001Z</time>
      </trkpt>
      <trkpt lat="47.53351" lon="-0.17284">
        <ele>50</ele>
        <time>2013-04-21T09:09:06.001Z</time>
      </trkpt>
      <trkpt lat="47.53349" lon="-0.17279">
        <ele>50</ele>
        <time>2013-04-21T09:09:10.001Z</time>
      </trkpt>
      <trkpt lat="47.53348" lon="-0.17278">
        <ele>50</ele>
        <time>2013-04-21T09:09:11.001Z</time>
      </trkpt>
      <trkpt lat="47.53347" lon="-0.17274">
        <ele>50</ele>
        <time>2013-04-21T09:09:15.001Z</time>
      </trkpt>
      <trkpt lat="47.53346" lon="-0.17272">
        <ele>50</ele>
        <time>2013-04-21T09:09:16.001Z</time>
      </trkpt>
      <trkpt lat="47.53343" lon="-0.17267">
        <ele>50</ele>
        <time>2013-04-21T09:09:22.001Z</time>
      </trkpt>
      <trkpt lat="47.53342" lon="-0.17266">
        <ele>51</ele>
        <time>2013-04-21T09:09:23.001Z</time>
      </trkpt>
      <trkpt lat="47.5334" lon="-0.17261">
        <ele>51</ele>
        <time>2013-04-21T09:09:29.001Z</time>
      </trkpt>
      <trkpt lat="47.53339" lon="-0.1726">
        <ele>51</ele>
        <time>2013-04-21T09:09:30.001Z</time>
      </trkpt>
      <trkpt lat="47.53337" lon="-0.17255">
        <ele>51</ele>
        <time>2013-04-21T09:09:33.001Z</time>
      </trkpt>
      <trkpt lat="47.53335" lon="-0.17252">
        <ele>52</ele>
        <time>2013-04-21T09:09:34.001Z</time>
      </trkpt>
      <trkpt lat="47.53333" lon="-0.17248">
        <ele>52</ele>
        <time>2013-04-21T09:09:36.001Z</time>
      </trkpt>
      <trkpt lat="47.53332" lon="-0.17245">
        <ele>52</ele>
        <time>2013-04-21T09:09:37.001Z</time>
      </trkpt>
      <trkpt lat="47.5333" lon="-0.1724">
        <ele>53</ele>
        <time>2013-04-21T09:09:41.001Z</time>
      </trkpt>
      <trkpt lat="47.5333" lon="-0.17238">
        <ele>53</ele>
        <time>2013-04-21T09:09:42.001Z</time>
      </trkpt>
      <trkpt lat="47.53327" lon="-0.17236">
        <ele>53</ele>
        <time>2013-04-21T09:09:45.001Z</time>
      </trkpt>
      <trkpt lat="47.53326" lon="-0.17233">
        <ele>53</ele>
        <time>2013-04-21T09:09:46.001Z</time>
      </trkpt>
      <trkpt lat="47.53324" lon="-0.17227">
        <ele>53</ele>
        <time>2013-04-21T09:09:49.001Z</time>
      </trkpt>
      <trkpt lat="47.53324" lon="-0.17226">
        <ele>53</ele>
        <time>2013-04-21T09:09:50.001Z</time>
      </trkpt>
      <trkpt lat="47.53321" lon="-0.17221">
        <ele>53</ele>
        <time>2013-04-21T09:09:54.001Z</time>
      </trkpt>
      <trkpt lat="47.53321" lon="-0.1722">
        <ele>53</ele>
        <time>2013-04-21T09:09:55.001Z</time>
      </trkpt>
      <trkpt lat="47.53317" lon="-0.17216">
        <ele>53</ele>
        <time>2013-04-21T09:09:59.001Z</time>
      </trkpt>
      <trkpt lat="47.53317" lon="-0.17215">
        <ele>53</ele>
        <time>2013-04-21T09:10:00.001Z</time>
      </trkpt>
      <trkpt lat="47.53314" lon="-0.17211">
        <ele>53</ele>
        <time>2013-04-21T09:10:03.001Z</time>
      </trkpt>
      <trkpt lat="47.53313" lon="-0.1721">
        <ele>53</ele>
        <time>2013-04-21T09:10:04.001Z</time>
      </trkpt>
      <trkpt lat="47.5331" lon="-0.17205">
        <ele>53</ele>
        <time>2013-04-21T09:10:09.001Z</time>
      </trkpt>
      <trkpt lat="47.53309" lon="-0.17205">
        <ele>53</ele>
        <time>2013-04-21T09:10:10.001Z</time>
      </trkpt>
      <trkpt lat="47.53307" lon="-0.17202">
        <ele>53</ele>
        <time>2013-04-21T09:10:12.001Z</time>
      </trkpt>
      <trkpt lat="47.53306" lon="-0.172">
        <ele>53</ele>
        <time>2013-04-21T09:10:13.001Z</time>
      </trkpt>
      <trkpt lat="47.53304" lon="-0.17195">
        <ele>53</ele>
        <time>2013-04-21T09:10:16.001Z</time>
      </trkpt>
      <trkpt lat="47.53303" lon="-0.17194">
        <ele>53</ele>
        <time>2013-04-21T09:10:17.001Z</time>
      </trkpt>
      <trkpt lat="47.533" lon="-0.1719">
        <ele>53</ele>
        <time>2013-04-21T09:10:21.000Z</time>
      </trkpt>
      <trkpt lat="47.53299" lon="-0.17189">
        <ele>53</ele>
        <time>2013-04-21T09:10:22.000Z</time>
      </trkpt>
      <trkpt lat="47.53296" lon="-0.17185">
        <ele>53</ele>
        <time>2013-04-21T09:10:24.000Z</time>
      </trkpt>
      <trkpt lat="47.53295" lon="-0.17184">
        <ele>53</ele>
        <time>2013-04-21T09:10:25.000Z</time>
      </trkpt>
      <trkpt lat="47.53293" lon="-0.1718">
        <ele>53</ele>
        <time>2013-04-21T09:10:28.000Z</time>
      </trkpt>
      <trkpt lat="47.53292" lon="-0.17179">
        <ele>54</ele>
        <time>2013-04-21T09:10:29.000Z</time>
      </trkpt>
      <trkpt lat="47.53289" lon="-0.17174">
        <ele>54</ele>
        <time>2013-04-21T09:10:32.000Z</time>
      </trkpt>
      <trkpt lat="47.53289" lon="-0.17174">
        <ele>54</ele>
        <time>2013-04-21T09:10:33.000Z</time>
      </trkpt>
      <trkpt lat="47.53285" lon="-0.17169">
        <ele>54</ele>
        <time>2013-04-21T09:10:36.000Z</time>
      </trkpt>
      <trkpt lat="47.53284" lon="-0.17168">
        <ele>54</ele>
        <time>2013-04-21T09:10:37.000Z</time>
      </trkpt>
      <trkpt lat="47.53281" lon="-0.17164">
        <ele>53</ele>
        <time>2013-04-21T09:10:41.000Z</time>
      </trkpt>
      <trkpt lat="47.5328" lon="-0.17163">
        <ele>53</ele>
        <time>2013-04-21T09:10:42.000Z</time>
      </trkpt>
      <trkpt lat="47.53278" lon="-0.17159">
        <ele>53</ele>
        <time>2013-04-21T09:10:45.000Z</time>
      </trkpt>
      <trkpt lat="47.53277" lon="-0.17158">
        <ele>53</ele>
        <time>2013-04-21T09:10:46.000Z</time>
      </trkpt>
      <trkpt lat="47.53274" lon="-0.17154">
        <ele>53</ele>
        <time>2013-04-21T09:10:49.000Z</time>
      </trkpt>
      <trkpt lat="47.53272" lon="-0.17153">
        <ele>53</ele>
        <time>2013-04-21T09:10:50.000Z</time>
      </trkpt>
      <trkpt lat="47.53269" lon="-0.17149">
        <ele>53</ele>
        <time>2013-04-21T09:10:53.000Z</time>
      </trkpt>
      <trkpt lat="47.53268" lon="-0.17148">
        <ele>53</ele>
        <time>2013-04-21T09:10:54.000Z</time>
      </trkpt>
      <trkpt lat="47.53265" lon="-0.17144">
        <ele>53</ele>
        <time>2013-04-21T09:10:58.000Z</time>
      </trkpt>
      <trkpt lat="47.53264" lon="-0.17143">
        <ele>53</ele>
        <time>2013-04-21T09:10:59.000Z</time>
      </trkpt>
      <trkpt lat="47.53261" lon="-0.1714">
        <ele>53</ele>
        <time>2013-04-21T09:11:02.000Z</time>
      </trkpt>
      <trkpt lat="47.5326" lon="-0.17139">
        <ele>53</ele>
        <time>2013-04-21T09:11:03.000Z</time>
      </trkpt>
      <trkpt lat="47.53256" lon="-0.17136">
        <ele>53</ele>
        <time>2013-04-21T09:11:07.000Z</time>
      </trkpt>
      <trkpt lat="47.53255" lon="-0.17134">
        <ele>53</ele>
        <time>2013-04-21T09:11:08.000Z</time>
      </trkpt>
      <trkpt lat="47.53252" lon="-0.1713">
        <ele>53</ele>
        <time>2013-04-21T09:11:13.000Z</time>
      </trkpt>
      <trkpt lat="47.53251" lon="-0.17129">
        <ele>53</ele>
        <time>2013-04-21T09:11:14.000Z</time>
      </trkpt>
      <trkpt lat="47.53248" lon="-0.17125">
        <ele>56</ele>
        <time>2013-04-21T09:11:17.000Z</time>
      </trkpt>
      <trkpt lat="47.53247" lon="-0.17124">
        <ele>56</ele>
        <time>2013-04-21T09:11:18.000Z</time>
      </trkpt>
      <trkpt lat="47.53244" lon="-0.17121">
        <ele>56</ele>
        <time>2013-04-21T09:11:20.000Z</time>
      </trkpt>
      <trkpt lat="47.53243" lon="-0.1712">
        <ele>56</ele>
        <time>2013-04-21T09:11:21.000Z</time>
      </trkpt>
      <trkpt lat="47.53241" lon="-0.17114">
        <ele>56</ele>
        <time>2013-04-21T09:11:29.000Z</time>
      </trkpt>
      <trkpt lat="47.53241" lon="-0.17113">
        <ele>56</ele>
        <time>2013-04-21T09:11:30.000Z</time>
      </trkpt>
      <trkpt lat="47.53237" lon="-0.1711">
        <ele>56</ele>
        <time>2013-04-21T09:11:33.000Z</time>
      </trkpt>
      <trkpt lat="47.53236" lon="-0.17109">
        <ele>56</ele>
        <time>2013-04-21T09:11:34.000Z</time>
      </trkpt>
      <trkpt lat="47.53234" lon="-0.17107">
        <ele>56</ele>
        <time>2013-04-21T09:11:36.000Z</time>
      </trkpt>
      <trkpt lat="47.53232" lon="-0.17106">
        <ele>56</ele>
        <time>2013-04-21T09:11:37.000Z</time>
      </trkpt>
      <trkpt lat="47.53229" lon="-0.17101">
        <ele>56</ele>
        <time>2013-04-21T09:11:41.000Z</time>
      </trkpt>
      <trkpt lat="47.53228" lon="-0.17099">
        <ele>56</ele>
        <time>2013-04-21T09:11:42.000Z</time>
      </trkpt>
      <trkpt lat="47.53226" lon="-0.17096">
        <ele>56</ele>
        <time>2013-04-21T09:11:46.000Z</time>
      </trkpt>
      <trkpt lat="47.53224" lon="-0.17094">
        <ele>56</ele>
        <time>2013-04-21T09:11:47.000Z</time>
      </trkpt>
      <trkpt lat="47.53222" lon="-0.17092">
        <ele>56</ele>
        <time>2013-04-21T09:11:50.000Z</time>
      </trkpt>
      <trkpt lat="47.53221" lon="-0.1709">
        <ele>56</ele>
        <time>2013-04-21T09:11:51.000Z</time>
      </trkpt>
      <trkpt lat="47.53219" lon="-0.17085">
        <ele>56</ele>
        <time>2013-04-21T09:11:54.000Z</time>
      </trkpt>
      <trkpt lat="47.53219" lon="-0.17083">
        <ele>56</ele>
        <time>2013-04-21T09:11:55.000Z</time>
      </trkpt>
      <trkpt lat="47.53217" lon="-0.17077">
        <ele>56</ele>
        <time>2013-04-21T09:12:00.000Z</time>
      </trkpt>
      <trkpt lat="47.53217" lon="-0.17076">
        <ele>56</ele>
        <time>2013-04-21T09:12:01.000Z</time>
      </trkpt>
      <trkpt lat="47.53213" lon="-0.17073">
        <ele>56</ele>
        <time>2013-04-21T09:12:09.000Z</time>
      </trkpt>
      <trkpt lat="47.53212" lon="-0.17074">
        <ele>56</ele>
        <time>2013-04-21T09:12:10.000Z</time>
      </trkpt>
      <trkpt lat="47.5321" lon="-0.17071">
        <ele>56</ele>
        <time>2013-04-21T09:12:15.000Z</time>
      </trkpt>
      <trkpt lat="47.53209" lon="-0.17069">
        <ele>56</ele>
        <time>2013-04-21T09:12:16.000Z</time>
      </trkpt>
      <trkpt lat="47.53205" lon="-0.17067">
        <ele>56</ele>
        <time>2013-04-21T09:12:28.000Z</time>
      </trkpt>
      <trkpt lat="47.53204" lon="-0.17066">
        <ele>56</ele>
        <time>2013-04-21T09:12:29.000Z</time>
      </trkpt>
      <trkpt lat="47.53201" lon="-0.17062">
        <ele>56</ele>
        <time>2013-04-21T09:12:36.000Z</time>
      </trkpt>
      <trkpt lat="47.532" lon="-0.17062">
        <ele>57</ele>
        <time>2013-04-21T09:12:37.000Z</time>
      </trkpt>
      <trkpt lat="47.53196" lon="-0.17062">
        <ele>57</ele>
        <time>2013-04-21T09:12:59.000Z</time>
      </trkpt>
      <trkpt lat="47.53196" lon="-0.17062">
        <ele>57</ele>
        <time>2013-04-21T09:13:00.000Z</time>
      </trkpt>
      <trkpt lat="47.53199" lon="-0.17066">
        <ele>57</ele>
        <time>2013-04-21T09:13:25.000Z</time>
      </trkpt>
      <trkpt lat="47.53199" lon="-0.17066">
        <ele>57</ele>
        <time>2013-04-21T09:13:26.000Z</time>
      </trkpt>
      <trkpt lat="47.53195" lon="-0.17062">
        <ele>57</ele>
        <time>2013-04-21T09:14:15.000Z</time>
      </trkpt>
      <trkpt lat="47.53195" lon="-0.17062">
        <ele>57</ele>
        <time>2013-04-21T09:14:16.000Z</time>
      </trkpt>
      <trkpt lat="47.53193" lon="-0.17057">
        <ele>57</ele>
        <time>2013-04-21T09:15:11.000Z</time>
      </trkpt>
      <trkpt lat="47.53193" lon="-0.17056">
        <ele>57</ele>
        <time>2013-04-21T09:15:12.000Z</time>
      </trkpt>
      <trkpt lat="47.5319" lon="-0.17052">
        <ele>57</ele>
        <time>2013-04-21T09:15:18.000Z</time>
      </trkpt>
      <trkpt lat="47.5319" lon="-0.17051">
        <ele>57</ele>
        <time>2013-04-21T09:15:19.000Z</time>
      </trkpt>
      <trkpt lat="47.53187" lon="-0.17046">
        <ele>57</ele>
        <time>2013-04-21T09:15:23.000Z</time>
      </trkpt>
      <trkpt lat="47.53186" lon="-0.17044">
        <ele>57</ele>
        <time>2013-04-21T09:15:24.000Z</time>
      </trkpt>
      <trkpt lat="47.53183" lon="-0.17042">
        <ele>57</ele>
        <time>2013-04-21T09:15:26.000Z</time>
      </trkpt>
      <trkpt lat="47.53182" lon="-0.17041">
        <ele>57</ele>
        <time>2013-04-21T09:15:27.000Z</time>
      </trkpt>
      <trkpt lat="47.53179" lon="-0.17039">
        <ele>57</ele>
        <time>2013-04-21T09:15:29.000Z</time>
      </trkpt>
      <trkpt lat="47.53178" lon="-0.17037">
        <ele>57</ele>
        <time>2013-04-21T09:15:30.000Z</time>
      </trkpt>
      <trkpt lat="47.53174" lon="-0.17033">
        <ele>57</ele>
        <time>2013-04-21T09:15:33.000Z</time>
      </trkpt>
      <trkpt lat="47.53174" lon="-0.17032">
        <ele>57</ele>
        <time>2013-04-21T09:15:34.000Z</time>
      </trkpt>
      <trkpt lat="47.53171" lon="-0.17028">
        <ele>57</ele>
        <time>2013-04-21T09:15:38.000Z</time>
      </trkpt>
      <trkpt lat="47.5317" lon="-0.17027">
        <ele>57</ele>
        <time>2013-04-21T09:15:39.000Z</time>
      </trkpt>
      <trkpt lat="47.53167" lon="-0.17024">
        <ele>57</ele>
        <time>2013-04-21T09:15:43.000Z</time>
      </trkpt>
      <trkpt lat="47.53166" lon="-0.17022">
        <ele>61</ele>
        <time>2013-04-21T09:15:44.000Z</time>
      </trkpt>
      <trkpt lat="47.53163" lon="-0.17019">
        <ele>61</ele>
        <time>2013-04-21T09:15:48.000Z</time>
      </trkpt>
      <trkpt lat="47.53162" lon="-0.17017">
        <ele>61</ele>
        <time>2013-04-21T09:15:49.000Z</time>
      </trkpt>
      <trkpt lat="47.5316" lon="-0.17012">
        <ele>60</ele>
        <time>2013-04-21T09:15:53.000Z</time>
      </trkpt>
      <trkpt lat="47.5316" lon="-0.17011">
        <ele>60</ele>
        <time>2013-04-21T09:15:54.000Z</time>
      </trkpt>
      <trkpt lat="47.53156" lon="-0.17009">
        <ele>60</ele>
        <time>2013-04-21T09:15:59.000Z</time>
      </trkpt>
      <trkpt lat="47.53155" lon="-0.17009">
        <ele>60</ele>
        <time>2013-04-21T09:16:00.000Z</time>
      </trkpt>
      <trkpt lat="47.53152" lon="-0.17005">
        <ele>61</ele>
        <time>2013-04-21T09:16:05.000Z</time>
      </trkpt>
      <trkpt lat="47.53151" lon="-0.17005">
        <ele>61</ele>
        <time>2013-04-21T09:16:06.000Z</time>
      </trkpt>
      <trkpt lat="47.53148" lon="-0.17001">
        <ele>61</ele>
        <time>2013-04-21T09:16:11.000Z</time>
      </trkpt>
      <trkpt lat="47.53146" lon="-0.16998">
        <ele>61</ele>
        <time>2013-04-21T09:16:12.000Z</time>
      </trkpt>
      <trkpt lat="47.53144" lon="-0.16996">
        <ele>61</ele>
        <time>2013-04-21T09:16:13.000Z</time>
      </trkpt>
      <trkpt lat="47.53142" lon="-0.16994">
        <ele>61</ele>
        <time>2013-04-21T09:16:14.000Z</time>
      </trkpt>
      <trkpt lat="47.5314" lon="-0.16989">
        <ele>61</ele>
        <time>2013-04-21T09:16:17.000Z</time>
      </trkpt>
      <trkpt lat="47.53138" lon="-0.16986">
        <ele>61</ele>
        <time>2013-04-21T09:16:18.000Z</time>
      </trkpt>
      <trkpt lat="47.53135" lon="-0.16983">
        <ele>62</ele>
        <time>2013-04-21T09:16:20.000Z</time>
      </trkpt>
      <trkpt lat="47.53133" lon="-0.16982">
        <ele>62</ele>
        <time>2013-04-21T09:16:21.000Z</time>
      </trkpt>
      <trkpt lat="47.5313" lon="-0.16979">
        <ele>62</ele>
        <time>2013-04-21T09:16:26.000Z</time>
      </trkpt>
      <trkpt lat="47.53129" lon="-0.16979">
        <ele>62</ele>
        <time>2013-04-21T09:16:27.000Z</time>
      </trkpt>
      <trkpt lat="47.53125" lon="-0.16976">
        <ele>62</ele>
        <time>2013-04-21T09:16:31.000Z</time>
      </trkpt>
      <trkpt lat="47.53124" lon="-0.16974">
        <ele>62</ele>
        <time>2013-04-21T09:16:32.000Z</time>
      </trkpt>
      <trkpt lat="47.53121" lon="-0.1697">
        <ele>62</ele>
        <time>2013-04-21T09:16:35.000Z</time>
      </trkpt>
      <trkpt lat="47.5312" lon="-0.16968">
        <ele>62</ele>
        <time>2013-04-21T09:16:36.000Z</time>
      </trkpt>
      <trkpt lat="47.53117" lon="-0.16964">
        <ele>62</ele>
        <time>2013-04-21T09:16:41.000Z</time>
      </trkpt>
      <trkpt lat="47.53116" lon="-0.16963">
        <ele>63</ele>
        <time>2013-04-21T09:16:42.000Z</time>
      </trkpt>
      <trkpt lat="47.53113" lon="-0.16959">
        <ele>63</ele>
        <time>2013-04-21T09:16:45.000Z</time>
      </trkpt>
      <trkpt lat="47.53112" lon="-0.16957">
        <ele>63</ele>
        <time>2013-04-21T09:16:46.000Z</time>
      </trkpt>
      <trkpt lat="47.53109" lon="-0.16953">
        <ele>63</ele>
        <time>2013-04-21T09:16:49.000Z</time>
      </trkpt>
      <trkpt lat="47.53108" lon="-0.16951">
        <ele>63</ele>
        <time>2013-04-21T09:16:50.000Z</time>
      </trkpt>
      <trkpt lat="47.53106" lon="-0.16947">
        <ele>63</ele>
        <time>2013-04-21T09:16:53.000Z</time>
      </trkpt>
      <trkpt lat="47.53105" lon="-0.16946">
        <ele>63</ele>
        <time>2013-04-21T09:16:54.000Z</time>
      </trkpt>
      <trkpt lat="47.53103" lon="-0.16942">
        <ele>63</ele>
        <time>2013-04-21T09:16:57.000Z</time>
      </trkpt>
      <trkpt lat="47.53102" lon="-0.1694">
        <ele>63</ele>
        <time>2013-04-21T09:16:58.000Z</time>
      </trkpt>
      <trkpt lat="47.531" lon="-0.16938">
        <ele>63</ele>
        <time>2013-04-21T09:17:01.000Z</time>
      </trkpt>
      <trkpt lat="47.53098" lon="-0.16936">
        <ele>63</ele>
        <time>2013-04-21T09:17:02.000Z</time>
      </trkpt>
      <trkpt lat="47.53094" lon="-0.16935">
        <ele>63</ele>
        <time>2013-04-21T09:17:12.000Z</time>
      </trkpt>
      <trkpt lat="47.53093" lon="-0.16935">
        <ele>63</ele>
        <time>2013-04-21T09:17:13.000Z</time>
      </trkpt>
      <trkpt lat="47.5309" lon="-0.16939">
        <ele>63</ele>
        <time>2013-04-21T09:17:19.000Z</time>
      </trkpt>
      <trkpt lat="47.5309" lon="-0.1694">
        <ele>63</ele>
        <time>2013-04-21T09:17:20.000Z</time>
      </trkpt>
      <trkpt lat="47.53086" lon="-0.16943">
        <ele>63</ele>
        <time>2013-04-21T09:17:23.000Z</time>
      </trkpt>
      <trkpt lat="47.53086" lon="-0.16943">
        <ele>63</ele>
        <time>2013-04-21T09:17:24.000Z</time>
      </trkpt>
      <trkpt lat="47.53083" lon="-0.16947">
        <ele>69</ele>
        <time>2013-04-21T09:17:28.000Z</time>
      </trkpt>
      <trkpt lat="47.53081" lon="-0.16948">
        <ele>69</ele>
        <time>2013-04-21T09:17:29.000Z</time>
      </trkpt>
      <trkpt lat="47.53078" lon="-0.16952">
        <ele>69</ele>
        <time>2013-04-21T09:17:33.000Z</time>
      </trkpt>
      <trkpt lat="47.53077" lon="-0.16952">
        <ele>69</ele>
        <time>2013-04-21T09:17:34.000Z</time>
      </trkpt>
      <trkpt lat="47.53074" lon="-0.16956">
        <ele>69</ele>
        <time>2013-04-21T09:17:39.000Z</time>
      </trkpt>
      <trkpt lat="47.53073" lon="-0.16958">
        <ele>70</ele>
        <time>2013-04-21T09:17:40.000Z</time>
      </trkpt>
      <trkpt lat="47.53071" lon="-0.16962">
        <ele>70</ele>
        <time>2013-04-21T09:17:44.000Z</time>
      </trkpt>
      <trkpt lat="47.5307" lon="-0.16964">
        <ele>70</ele>
        <time>2013-04-21T09:17:45.000Z</time>
      </trkpt>
      <trkpt lat="47.53066" lon="-0.16967">
        <ele>70</ele>
        <time>2013-04-21T09:18:04.000Z</time>
      </trkpt>
      <trkpt lat="47.53066" lon="-0.16968">
        <ele>70</ele>
        <time>2013-04-21T09:18:05.000Z</time>
      </trkpt>
      <trkpt lat="47.53064" lon="-0.16971">
        <ele>70</ele>
        <time>2013-04-21T09:18:08.000Z</time>
      </trkpt>
      <trkpt lat="47.53063" lon="-0.16974">
        <ele>70</ele>
        <time>2013-04-21T09:18:09.000Z</time>
      </trkpt>
      <trkpt lat="47.53059" lon="-0.16978">
        <ele>70</ele>
        <time>2013-04-21T09:18:13.000Z</time>
      </trkpt>
      <trkpt lat="47.53059" lon="-0.16979">
        <ele>71</ele>
        <time>2013-04-21T09:18:14.000Z</time>
      </trkpt>
      <trkpt lat="47.53056" lon="-0.16982">
        <ele>71</ele>
        <time>2013-04-21T09:18:17.000Z</time>
      </trkpt>
      <trkpt lat="47.53054" lon="-0.16984">
        <ele>71</ele>
        <time>2013-04-21T09:18:18.000Z</time>
      </trkpt>
      <trkpt lat="47.53053" lon="-0.16989">
        <ele>71</ele>
        <time>2013-04-21T09:18:23.000Z</time>
      </trkpt>
      <trkpt lat="47.53053" lon="-0.16992">
        <ele>71</ele>
        <time>2013-04-21T09:18:24.000Z</time>
      </trkpt>
      <trkpt lat="47.5305" lon="-0.16997">
        <ele>71</ele>
        <time>2013-04-21T09:18:29.000Z</time>
      </trkpt>
      <trkpt lat="47.53049" lon="-0.16998">
        <ele>71</ele>
        <time>2013-04-21T09:18:30.000Z</time>
      </trkpt>
      <trkpt lat="47.53045" lon="-0.17002">
        <ele>74</ele>
        <time>2013-04-21T09:18:32.000Z</time>
      </trkpt>
      <trkpt lat="47.53045" lon="-0.17003">
        <ele>74</ele>
        <time>2013-04-21T09:18:33.000Z</time>
      </trkpt>
      <trkpt lat="47.53043" lon="-0.17007">
        <ele>74</ele>
        <time>2013-04-21T09:18:36.000Z</time>
      </trkpt>
      <trkpt lat="47.53042" lon="-0.17009">
        <ele>74</ele>
        <time>2013-04-21T09:18:37.000Z</time>
      </trkpt>
      <trkpt lat="47.53039" lon="-0.17013">
        <ele>75</ele>
        <time>2013-04-21T09:18:43.000Z</time>
      </trkpt>
      <trkpt lat="47.53038" lon="-0.17014">
        <ele>75</ele>
        <time>2013-04-21T09:18:44.000Z</time>
      </trkpt>
      <trkpt lat="47.53036" lon="-0.17016">
        <ele>75</ele>
        <time>2013-04-21T09:18:48.000Z</time>
      </trkpt>
      <trkpt lat="47.53035" lon="-0.1702">
        <ele>75</ele>
        <time>2013-04-21T09:18:49.000Z</time>
      </trkpt>
      <trkpt lat="47.53032" lon="-0.17025">
        <ele>75</ele>
        <time>2013-04-21T09:18:53.000Z</time>
      </trkpt>
      <trkpt lat="47.53032" lon="-0.17026">
        <ele>75</ele>
        <time>2013-04-21T09:18:54.000Z</time>
      </trkpt>
      <trkpt lat="47.5303" lon="-0.1703">
        <ele>75</ele>
        <time>2013-04-21T09:18:58.000Z</time>
      </trkpt>
      <trkpt lat="47.5303" lon="-0.17032">
        <ele>75</ele>
        <time>2013-04-21T09:18:59.000Z</time>
      </trkpt>
      <trkpt lat="47.53028" lon="-0.17037">
        <ele>76</ele>
        <time>2013-04-21T09:19:06.000Z</time>
      </trkpt>
      <trkpt lat="47.53027" lon="-0.17038">
        <ele>76</ele>
        <time>2013-04-21T09:19:07.000Z</time>
      </trkpt>
      <trkpt lat="47.53023" lon="-0.17041">
        <ele>76</ele>
        <time>2013-04-21T09:19:12.000Z</time>
      </trkpt>
      <trkpt lat="47.53022" lon="-0.17043">
        <ele>76</ele>
        <time>2013-04-21T09:19:13.000Z</time>
      </trkpt>
      <trkpt lat="47.5302" lon="-0.17046">
        <ele>76</ele>
        <time>2013-04-21T09:19:16.000Z</time>
      </trkpt>
      <trkpt lat="47.5302" lon="-0.17049">
        <ele>77</ele>
        <time>2013-04-21T09:19:17.000Z</time>
      </trkpt>
      <trkpt lat="47.53016" lon="-0.17051">
        <ele>77</ele>
        <time>2013-04-21T09:19:20.000Z</time>
      </trkpt>
      <trkpt lat="47.53015" lon="-0.17052">
        <ele>77</ele>
        <time>2013-04-21T09:19:21.000Z</time>
      </trkpt>
      <trkpt lat="47.5301" lon="-0.17053">
        <ele>77</ele>
        <time>2013-04-21T09:19:28.000Z</time>
      </trkpt>
      <trkpt lat="47.5301" lon="-0.17054">
        <ele>77</ele>
        <time>2013-04-21T09:19:29.000Z</time>
      </trkpt>
      <trkpt lat="47.53006" lon="-0.17056">
        <ele>78</ele>
        <time>2013-04-21T09:19:38.000Z</time>
      </trkpt>
      <trkpt lat="47.53005" lon="-0.17056">
        <ele>78</ele>
        <time>2013-04-21T09:19:39.000Z</time>
      </trkpt>
      <trkpt lat="47.53002" lon="-0.17058">
        <ele>78</ele>
        <time>2013-04-21T09:19:41.000Z</time>
      </trkpt>
      <trkpt lat="47.53" lon="-0.1706">
        <ele>78</ele>
        <time>2013-04-21T09:19:42.000Z</time>
      </trkpt>
      <trkpt lat="47.52995" lon="-0.17065">
        <ele>82</ele>
        <time>2013-04-21T09:19:43.000Z</time>
      </trkpt>
      <trkpt lat="47.52994" lon="-0.17066">
        <ele>82</ele>
        <time>2013-04-21T09:19:44.000Z</time>
      </trkpt>
      <trkpt lat="47.52991" lon="-0.17068">
        <ele>82</ele>
        <time>2013-04-21T09:19:45.000Z</time>
      </trkpt>
      <trkpt lat="47.52987" lon="-0.17069">
        <ele>82</ele>
        <time>2013-04-21T09:19:49.000Z</time>
      </trkpt>
      <trkpt lat="47.52986" lon="-0.17069">
        <ele>82</ele>
        <time>2013-04-21T09:19:50.000Z</time>
      </trkpt>
      <trkpt lat="47.52983" lon="-0.17074">
        <ele>82</ele>
        <time>2013-04-21T09:20:00.000Z</time>
      </trkpt>
      <trkpt lat="47.52983" lon="-0.17074">
        <ele>82</ele>
        <time>2013-04-21T09:20:01.000Z</time>
      </trkpt>
      <trkpt lat="47.52979" lon="-0.17078">
        <ele>82</ele>
        <time>2013-04-21T09:20:08.000Z</time>
      </trkpt>
      <trkpt lat="47.52979" lon="-0.17077">
        <ele>82</ele>
        <time>2013-04-21T09:20:09.000Z</time>
      </trkpt>
      <trkpt lat="47.52975" lon="-0.17075">
        <ele>82</ele>
        <time>2013-04-21T09:20:15.000Z</time>
      </trkpt>
      <trkpt lat="47.52973" lon="-0.17075">
        <ele>82</ele>
        <time>2013-04-21T09:20:16.000Z</time>
      </trkpt>
      <trkpt lat="47.52969" lon="-0.17075">
        <ele>82</ele>
        <time>2013-04-21T09:20:20.000Z</time>
      </trkpt>
      <trkpt lat="47.52969" lon="-0.17076">
        <ele>82</ele>
        <time>2013-04-21T09:20:21.000Z</time>
      </trkpt>
      <trkpt lat="47.52965" lon="-0.17074">
        <ele>82</ele>
        <time>2013-04-21T09:20:34.000Z</time>
      </trkpt>
      <trkpt lat="47.52965" lon="-0.17072">
        <ele>82</ele>
        <time>2013-04-21T09:20:35.000Z</time>
      </trkpt>
      <trkpt lat="47.52964" lon="-0.17066">
        <ele>81</ele>
        <time>2013-04-21T09:20:38.000Z</time>
      </trkpt>
      <trkpt lat="47.52964" lon="-0.17064">
        <ele>81</ele>
        <time>2013-04-21T09:20:39.000Z</time>
      </trkpt>
      <trkpt lat="47.52963" lon="-0.17058">
        <ele>81</ele>
        <time>2013-04-21T09:20:43.000Z</time>
      </trkpt>
      <trkpt lat="47.52963" lon="-0.17056">
        <ele>81</ele>
        <time>2013-04-21T09:20:44.000Z</time>
      </trkpt>
      <trkpt lat="47.52961" lon="-0.1705">
        <ele>81</ele>
        <time>2013-04-21T09:20:48.000Z</time>
      </trkpt>
      <trkpt lat="47.52961" lon="-0.17048">
        <ele>81</ele>
        <time>2013-04-21T09:20:49.000Z</time>
      </trkpt>
      <trkpt lat="47.52959" lon="-0.17043">
        <ele>81</ele>
        <time>2013-04-21T09:20:53.000Z</time>
      </trkpt>
      <trkpt lat="47.52959" lon="-0.17041">
        <ele>81</ele>
        <time>2013-04-21T09:20:54.000Z</time>
      </trkpt>
      <trkpt lat="47.52956" lon="-0.17037">
        <ele>81</ele>
        <time>2013-04-21T09:20:56.000Z</time>
      </trkpt>
      <trkpt lat="47.52955" lon="-0.17036">
        <ele>81</ele>
        <time>2013-04-21T09:20:57.000Z</time>
      </trkpt>
      <trkpt lat="47.52953" lon="-0.17032">
        <ele>81</ele>
        <time>2013-04-21T09:21:00.000Z</time>
      </trkpt>
      <trkpt lat="47.52953" lon="-0.1703">
        <ele>81</ele>
        <time>2013-04-21T09:21:01.000Z</time>
      </trkpt>
      <trkpt lat="47.5295" lon="-0.17026">
        <ele>81</ele>
        <time>2013-04-21T09:21:03.000Z</time>
      </trkpt>
      <trkpt lat="47.52947" lon="-0.17023">
        <ele>81</ele>
        <time>2013-04-21T09:21:04.000Z</time>
      </trkpt>
      <trkpt lat="47.52943" lon="-0.17019">
        <ele>81</ele>
        <time>2013-04-21T09:21:08.000Z</time>
      </trkpt>
      <trkpt lat="47.52942" lon="-0.17019">
        <ele>81</ele>
        <time>2013-04-21T09:21:09.000Z</time>
      </trkpt>
      <trkpt lat="47.52938" lon="-0.17019">
        <ele>81</ele>
        <time>2013-04-21T09:21:11.000Z</time>
      </trkpt>
      <trkpt lat="47.52936" lon="-0.1702">
        <ele>81</ele>
        <time>2013-04-21T09:21:12.000Z</time>
      </trkpt>
      <trkpt lat="47.52931" lon="-0.17021">
        <ele>81</ele>
        <time>2013-04-21T09:21:14.000Z</time>
      </trkpt>
      <trkpt lat="47.52929" lon="-0.17022">
        <ele>81</ele>
        <time>2013-04-21T09:21:15.000Z</time>
      </trkpt>
      <trkpt lat="47.52925" lon="-0.17023">
        <ele>81</ele>
        <time>2013-04-21T09:21:18.000Z</time>
      </trkpt>
      <trkpt lat="47.52924" lon="-0.17024">
        <ele>81</ele>
        <time>2013-04-21T09:21:19.000Z</time>
      </trkpt>
      <trkpt lat="47.5292" lon="-0.17023">
        <ele>81</ele>
        <time>2013-04-21T09:21:22.000Z</time>
      </trkpt>
      <trkpt lat="47.52918" lon="-0.17023">
        <ele>81</ele>
        <time>2013-04-21T09:21:23.000Z</time>
      </trkpt>
      <trkpt lat="47.52914" lon="-0.17024">
        <ele>80</ele>
        <time>2013-04-21T09:21:26.000Z</time>
      </trkpt>
      <trkpt lat="47.52912" lon="-0.17025">
        <ele>80</ele>
        <time>2013-04-21T09:21:27.000Z</time>
      </trkpt>
      <trkpt lat="47.52909" lon="-0.17028">
        <ele>80</ele>
        <time>2013-04-21T09:21:30.000Z</time>
      </trkpt>
      <trkpt lat="47.52907" lon="-0.17029">
        <ele>80</ele>
        <time>2013-04-21T09:21:31.000Z</time>
      </trkpt>
      <trkpt lat="47.52904" lon="-0.1703">
        <ele>80</ele>
        <time>2013-04-21T09:21:33.000Z</time>
      </trkpt>
      <trkpt lat="47.52903" lon="-0.17031">
        <ele>80</ele>
        <time>2013-04-21T09:21:34.000Z</time>
      </trkpt>
      <trkpt lat="47.52899" lon="-0.17033">
        <ele>80</ele>
        <time>2013-04-21T09:21:38.000Z</time>
      </trkpt>
      <trkpt lat="47.52897" lon="-0.17033">
        <ele>80</ele>
        <time>2013-04-21T09:21:39.000Z</time>
      </trkpt>
      <trkpt lat="47.52894" lon="-0.17034">
        <ele>80</ele>
        <time>2013-04-21T09:21:41.000Z</time>
      </trkpt>
      <trkpt lat="47.52892" lon="-0.17034">
        <ele>80</ele>
        <time>2013-04-21T09:21:42.000Z</time>
      </trkpt>
      <trkpt lat="47.52888" lon="-0.17036">
        <ele>80</ele>
        <time>2013-04-21T09:21:46.000Z</time>
      </trkpt>
      <trkpt lat="47.52887" lon="-0.17036">
        <ele>80</ele>
        <time>2013-04-21T09:21:47.000Z</time>
      </trkpt>
      <trkpt lat="47.52882" lon="-0.17037">
        <ele>80</ele>
        <time>2013-04-21T09:21:50.000Z</time>
      </trkpt>
      <trkpt lat="47.52881" lon="-0.17037">
        <ele>80</ele>
        <time>2013-04-21T09:21:51.000Z</time>
      </trkpt>
      <trkpt lat="47.52877" lon="-0.17039">
        <ele>80</ele>
        <time>2013-04-21T09:21:53.000Z</time>
      </trkpt>
      <trkpt lat="47.52875" lon="-0.1704">
        <ele>80</ele>
        <time>2013-04-21T09:21:54.000Z</time>
      </trkpt>
      <trkpt lat="47.52871" lon="-0.17041">
        <ele>80</ele>
        <time>2013-04-21T09:21:59.000Z</time>
      </trkpt>
      <trkpt lat="47.52869" lon="-0.17042">
        <ele>80</ele>
        <time>2013-04-21T09:22:00.000Z</time>
      </trkpt>
      <trkpt lat="47.52865" lon="-0.17044">
        <ele>80</ele>
        <time>2013-04-21T09:22:04.000Z</time>
      </trkpt>
      <trkpt lat="47.52864" lon="-0.17044">
        <ele>80</ele>
        <time>2013-04-21T09:22:05.000Z</time>
      </trkpt>
      <trkpt lat="47.5286" lon="-0.17045">
        <ele>80</ele>
        <time>2013-04-21T09:22:08.000Z</time>
      </trkpt>
      <trkpt lat="47.52859" lon="-0.17046">
        <ele>80</ele>
        <time>2013-04-21T09:22:09.000Z</time>
      </trkpt>
      <trkpt lat="47.52855" lon="-0.17047">
        <ele>80</ele>
        <time>2013-04-21T09:22:13.000Z</time>
      </trkpt>
      <trkpt lat="47.52854" lon="-0.17048">
        <ele>80</ele>
        <time>2013-04-21T09:22:14.000Z</time>
      </trkpt>
      <trkpt lat="47.5285" lon="-0.17048">
        <ele>80</ele>
        <time>2013-04-21T09:22:18.000Z</time>
      </trkpt>
      <trkpt lat="47.52848" lon="-0.17048">
        <ele>80</ele>
        <time>2013-04-21T09:22:19.000Z</time>
      </trkpt>
      <trkpt lat="47.52845" lon="-0.17049">
        <ele>80</ele>
        <time>2013-04-21T09:22:22.000Z</time>
      </trkpt>
      <trkpt lat="47.52844" lon="-0.1705">
        <ele>80</ele>
        <time>2013-04-21T09:22:23.000Z</time>
      </trkpt>
      <trkpt lat="47.52841" lon="-0.1705">
        <ele>80</ele>
        <time>2013-04-21T09:22:25.000Z</time>
      </trkpt>
      <trkpt lat="47.52839" lon="-0.17051">
        <ele>80</ele>
        <time>2013-04-21T09:22:26.000Z</time>
      </trkpt>
      <trkpt lat="47.52835" lon="-0.17052">
        <ele>80</ele>
        <time>2013-04-21T09:22:29.000Z</time>
      </trkpt>
      <trkpt lat="47.52834" lon="-0.17053">
        <ele>80</ele>
        <time>2013-04-21T09:22:30.000Z</time>
      </trkpt>
      <trkpt lat="47.52831" lon="-0.17057">
        <ele>77</ele>
        <time>2013-04-21T09:22:54.000Z</time>
      </trkpt>
      <trkpt lat="47.5283" lon="-0.17058">
        <ele>77</ele>
        <time>2013-04-21T09:22:55.000Z</time>
      </trkpt>
      <trkpt lat="47.52827" lon="-0.17059">
        <ele>77</ele>
        <time>2013-04-21T09:22:59.000Z</time>
      </trkpt>
      <trkpt lat="47.52825" lon="-0.1706">
        <ele>77</ele>
        <time>2013-04-21T09:23:00.000Z</time>
      </trkpt>
      <trkpt lat="47.52825" lon="-0.17066">
        <ele>77</ele>
        <time>2013-04-21T09:23:05.000Z</time>
      </trkpt>
      <trkpt lat="47.52825" lon="-0.17067">
        <ele>77</ele>
        <time>2013-04-21T09:23:06.000Z</time>
      </trkpt>
      <trkpt lat="47.52829" lon="-0.1707">
        <ele>77</ele>
        <time>2013-04-21T09:23:41.000Z</time>
      </trkpt>
      <trkpt lat="47.52829" lon="-0.1707">
        <ele>77</ele>
        <time>2013-04-21T09:23:42.000Z</time>
      </trkpt>
      <trkpt lat="47.52832" lon="-0.17066">
        <ele>77</ele>
        <time>2013-04-21T09:24:10.000Z</time>
      </trkpt>
      <trkpt lat="47.52832" lon="-0.17066">
        <ele>77</ele>
        <time>2013-04-21T09:24:11.000Z</time>
      </trkpt>
      <trkpt lat="47.52828" lon="-0.17067">
        <ele>77</ele>
        <time>2013-04-21T09:24:52.000Z</time>
      </trkpt>
      <trkpt lat="47.52828" lon="-0.17067">
        <ele>77</ele>
        <time>2013-04-21T09:24:53.000Z</time>
      </trkpt>
      <trkpt lat="47.52832" lon="-0.17069">
        <ele>77</ele>
        <time>2013-04-21T09:25:42.000Z</time>
      </trkpt>
      <trkpt lat="47.52832" lon="-0.1707">
        <ele>77</ele>
        <time>2013-04-21T09:25:43.000Z</time>
      </trkpt>
      <trkpt lat="47.52836" lon="-0.17073">
        <ele>79</ele>
        <time>2013-04-21T09:26:02.000Z</time>
      </trkpt>
      <trkpt lat="47.52836" lon="-0.17073">
        <ele>79</ele>
        <time>2013-04-21T09:26:03.000Z</time>
      </trkpt>
      <trkpt lat="47.52838" lon="-0.17079">
        <ele>79</ele>
        <time>2013-04-21T09:26:23.000Z</time>
      </trkpt>
      <trkpt lat="47.52838" lon="-0.17079">
        <ele>79</ele>
        <time>2013-04-21T09:26:24.000Z</time>
      </trkpt>
      <trkpt lat="47.52834" lon="-0.17076">
        <ele>79</ele>
        <time>2013-04-21T09:27:06.000Z</time>
      </trkpt>
      <trkpt lat="47.52833" lon="-0.17075">
        <ele>78</ele>
        <time>2013-04-21T09:27:07.000Z</time>
      </trkpt>
      <trkpt lat="47.52833" lon="-0.17068">
        <ele>77</ele>
        <time>2013-04-21T09:27:21.000Z</time>
      </trkpt>
      <trkpt lat="47.52832" lon="-0.17067">
        <ele>77</ele>
        <time>2013-04-21T09:27:22.000Z</time>
      </trkpt>
      <trkpt lat="47.52828" lon="-0.17067">
        <ele>77</ele>
        <time>2013-04-21T09:31:20.000Z</time>
      </trkpt>
      <trkpt lat="47.52828" lon="-0.17067">
        <ele>77</ele>
        <time>2013-04-21T09:31:21.000Z</time>
      </trkpt>
      <trkpt lat="47.52824" lon="-0.17066">
        <ele>77</ele>
        <time>2013-04-21T09:32:01.000Z</time>
      </trkpt>
      <trkpt lat="47.52823" lon="-0.17065">
        <ele>77</ele>
        <time>2013-04-21T09:32:02.000Z</time>
      </trkpt>
      <trkpt lat="47.52821" lon="-0.1706">
        <ele>77</ele>
        <time>2013-04-21T09:32:49.000Z</time>
      </trkpt>
      <trkpt lat="47.5282" lon="-0.1706">
        <ele>77</ele>
        <time>2013-04-21T09:32:50.000Z</time>
      </trkpt>
      <trkpt lat="47.52816" lon="-0.17059">
        <ele>76</ele>
        <time>2013-04-21T09:32:56.000Z</time>
      </trkpt>
      <trkpt lat="47.52814" lon="-0.17059">
        <ele>76</ele>
        <time>2013-04-21T09:32:57.000Z</time>
      </trkpt>
      <trkpt lat="47.52811" lon="-0.17059">
        <ele>76</ele>
        <time>2013-04-21T09:33:00.000Z</time>
      </trkpt>
      <trkpt lat="47.52809" lon="-0.17058">
        <ele>76</ele>
        <time>2013-04-21T09:33:01.000Z</time>
      </trkpt>
      <trkpt lat="47.52805" lon="-0.17058">
        <ele>76</ele>
        <time>2013-04-21T09:33:04.000Z</time>
      </trkpt>
      <trkpt lat="47.52804" lon="-0.17058">
        <ele>76</ele>
        <time>2013-04-21T09:33:05.000Z</time>
      </trkpt>
      <trkpt lat="47.528" lon="-0.17059">
        <ele>76</ele>
        <time>2013-04-21T09:33:13.000Z</time>
      </trkpt>
      <trkpt lat="47.52799" lon="-0.17059">
        <ele>75</ele>
        <time>2013-04-21T09:33:14.000Z</time>
      </trkpt>
      <trkpt lat="47.52796" lon="-0.17059">
        <ele>75</ele>
        <time>2013-04-21T09:33:16.000Z</time>
      </trkpt>
      <trkpt lat="47.52794" lon="-0.1706">
        <ele>75</ele>
        <time>2013-04-21T09:33:17.000Z</time>
      </trkpt>
      <trkpt lat="47.5279" lon="-0.1706">
        <ele>75</ele>
        <time>2013-04-21T09:33:19.000Z</time>
      </trkpt>
      <trkpt lat="47.52789" lon="-0.17061">
        <ele>75</ele>
        <time>2013-04-21T09:33:20.000Z</time>
      </trkpt>
      <trkpt lat="47.52786" lon="-0.17061">
        <ele>75</ele>
        <time>2013-04-21T09:33:22.000Z</time>
      </trkpt>
      <trkpt lat="47.52784" lon="-0.17061">
        <ele>75</ele>
        <time>2013-04-21T09:33:23.000Z</time>
      </trkpt>
      <trkpt lat="47.5278" lon="-0.17063">
        <ele>74</ele>
        <time>2013-04-21T09:33:30.000Z</time>
      </trkpt>
      <trkpt lat="47.52779" lon="-0.17061">
        <ele>74</ele>
        <time>2013-04-21T09:33:31.000Z</time>
      </trkpt>
      <trkpt lat="47.52779" lon="-0.17066">
        <ele>74</ele>
        <time>2013-04-21T09:33:34.000Z</time>
      </trkpt>
      <trkpt lat="47.5278" lon="-0.17072">
        <ele>74</ele>
        <time>2013-04-21T09:33:35.000Z</time>
      </trkpt>
      <trkpt lat="47.5278" lon="-0.17078">
        <ele>74</ele>
        <time>2013-04-21T09:33:37.000Z</time>
      </trkpt>
      <trkpt lat="47.5278" lon="-0.1708">
        <ele>74</ele>
        <time>2013-04-21T09:33:38.000Z</time>
      </trkpt>
      <trkpt lat="47.52778" lon="-0.17086">
        <ele>74</ele>
        <time>2013-04-21T09:33:43.000Z</time>
      </trkpt>
      <trkpt lat="47.52777" lon="-0.17087">
        <ele>74</ele>
        <time>2013-04-21T09:33:44.000Z</time>
      </trkpt>
      <trkpt lat="47.52775" lon="-0.17092">
        <ele>74</ele>
        <time>2013-04-21T09:33:46.000Z</time>
      </trkpt>
      <trkpt lat="47.52774" lon="-0.17094">
        <ele>74</ele>
        <time>2013-04-21T09:33:47.000Z</time>
      </trkpt>
      <trkpt lat="47.52772" lon="-0.17099">
        <ele>74</ele>
        <time>2013-04-21T09:33:51.000Z</time>
      </trkpt>
      <trkpt lat="47.52772" lon="-0.17101">
        <ele>74</ele>
        <time>2013-04-21T09:33:52.000Z</time>
      </trkpt>
      <trkpt lat="47.52772" lon="-0.17106">
        <ele>74</ele>
        <time>2013-04-21T09:33:55.000Z</time>
      </trkpt>
      <trkpt lat="47.52772" lon="-0.17109">
        <ele>74</ele>
        <time>2013-04-21T09:33:56.000Z</time>
      </trkpt>
      <trkpt lat="47.52772" lon="-0.17115">
        <ele>74</ele>
        <time>2013-04-21T09:33:59.000Z</time>
      </trkpt>
      <trkpt lat="47.52773" lon="-0.17116">
        <ele>74</ele>
        <time>2013-04-21T09:34:00.000Z</time>
      </trkpt>
      <trkpt lat="47.52773" lon="-0.17122">
        <ele>74</ele>
        <time>2013-04-21T09:34:04.000Z</time>
      </trkpt>
      <trkpt lat="47.52774" lon="-0.17123">
        <ele>74</ele>
        <time>2013-04-21T09:34:05.000Z</time>
      </trkpt>
      <trkpt lat="47.52775" lon="-0.17128">
        <ele>74</ele>
        <time>2013-04-21T09:34:08.000Z</time>
      </trkpt>
      <trkpt lat="47.52775" lon="-0.1713">
        <ele>74</ele>
        <time>2013-04-21T09:34:09.000Z</time>
      </trkpt>
      <trkpt lat="47.52776" lon="-0.17136">
        <ele>73</ele>
        <time>2013-04-21T09:34:12.000Z</time>
      </trkpt>
      <trkpt lat="47.52776" lon="-0.17138">
        <ele>73</ele>
        <time>2013-04-21T09:34:13.000Z</time>
      </trkpt>
      <trkpt lat="47.52776" lon="-0.17144">
        <ele>73</ele>
        <time>2013-04-21T09:34:16.000Z</time>
      </trkpt>
      <trkpt lat="47.52777" lon="-0.17146">
        <ele>73</ele>
        <time>2013-04-21T09:34:17.000Z</time>
      </trkpt>
      <trkpt lat="47.52778" lon="-0.17151">
        <ele>73</ele>
        <time>2013-04-21T09:34:19.000Z</time>
      </trkpt>
      <trkpt lat="47.52779" lon="-0.17153">
        <ele>73</ele>
        <time>2013-04-21T09:34:20.000Z</time>
      </trkpt>
      <trkpt lat="47.52781" lon="-0.17157">
        <ele>73</ele>
        <time>2013-04-21T09:34:23.000Z</time>
      </trkpt>
      <trkpt lat="47.52782" lon="-0.17159">
        <ele>73</ele>
        <time>2013-04-21T09:34:24.000Z</time>
      </trkpt>
      <trkpt lat="47.52785" lon="-0.17162">
        <ele>73</ele>
        <time>2013-04-21T09:34:28.000Z</time>
      </trkpt>
      <trkpt lat="47.52786" lon="-0.17164">
        <ele>73</ele>
        <time>2013-04-21T09:34:29.000Z</time>
      </trkpt>
      <trkpt lat="47.52788" lon="-0.1717">
        <ele>72</ele>
        <time>2013-04-21T09:34:33.000Z</time>
      </trkpt>
      <trkpt lat="47.52788" lon="-0.17171">
        <ele>72</ele>
        <time>2013-04-21T09:34:34.000Z</time>
      </trkpt>
      <trkpt lat="47.52789" lon="-0.17177">
        <ele>72</ele>
        <time>2013-04-21T09:34:40.000Z</time>
      </trkpt>
      <trkpt lat="47.5279" lon="-0.17178">
        <ele>72</ele>
        <time>2013-04-21T09:34:41.000Z</time>
      </trkpt>
      <trkpt lat="47.52789" lon="-0.17183">
        <ele>71</ele>
        <time>2013-04-21T09:34:45.000Z</time>
      </trkpt>
      <trkpt lat="47.52789" lon="-0.17184">
        <ele>71</ele>
        <time>2013-04-21T09:34:46.000Z</time>
      </trkpt>
      <trkpt lat="47.52786" lon="-0.17188">
        <ele>71</ele>
        <time>2013-04-21T09:34:51.000Z</time>
      </trkpt>
      <trkpt lat="47.52785" lon="-0.17189">
        <ele>71</ele>
        <time>2013-04-21T09:34:52.000Z</time>
      </trkpt>
      <trkpt lat="47.52782" lon="-0.17191">
        <ele>71</ele>
        <time>2013-04-21T09:34:55.000Z</time>
      </trkpt>
      <trkpt lat="47.52781" lon="-0.17191">
        <ele>71</ele>
        <time>2013-04-21T09:34:56.000Z</time>
      </trkpt>
      <trkpt lat="47.52777" lon="-0.17193">
        <ele>71</ele>
        <time>2013-04-21T09:35:01.000Z</time>
      </trkpt>
      <trkpt lat="47.52776" lon="-0.17193">
        <ele>71</ele>
        <time>2013-04-21T09:35:02.000Z</time>
      </trkpt>
      <trkpt lat="47.52772" lon="-0.17195">
        <ele>71</ele>
        <time>2013-04-21T09:35:08.000Z</time>
      </trkpt>
      <trkpt lat="47.52772" lon="-0.17196">
        <ele>71</ele>
        <time>2013-04-21T09:35:09.000Z</time>
      </trkpt>
      <trkpt lat="47.52768" lon="-0.17199">
        <ele>70</ele>
        <time>2013-04-21T09:35:12.000Z</time>
      </trkpt>
      <trkpt lat="47.52767" lon="-0.172">
        <ele>70</ele>
        <time>2013-04-21T09:35:13.000Z</time>
      </trkpt>
      <trkpt lat="47.52763" lon="-0.17201">
        <ele>70</ele>
        <time>2013-04-21T09:35:17.000Z</time>
      </trkpt>
      <trkpt lat="47.52763" lon="-0.17202">
        <ele>70</ele>
        <time>2013-04-21T09:35:18.000Z</time>
      </trkpt>
      <trkpt lat="47.52759" lon="-0.17205">
        <ele>70</ele>
        <time>2013-04-21T09:35:21.000Z</time>
      </trkpt>
      <trkpt lat="47.52758" lon="-0.17206">
        <ele>70</ele>
        <time>2013-04-21T09:35:22.000Z</time>
      </trkpt>
      <trkpt lat="47.52755" lon="-0.17209">
        <ele>70</ele>
        <time>2013-04-21T09:35:24.000Z</time>
      </trkpt>
      <trkpt lat="47.52752" lon="-0.17211">
        <ele>70</ele>
        <time>2013-04-21T09:35:25.000Z</time>
      </trkpt>
      <trkpt lat="47.5275" lon="-0.17212">
        <ele>66</ele>
        <time>2013-04-21T09:35:27.000Z</time>
      </trkpt>
      <trkpt lat="47.52748" lon="-0.17214">
        <ele>66</ele>
        <time>2013-04-21T09:35:28.000Z</time>
      </trkpt>
      <trkpt lat="47.52745" lon="-0.17219">
        <ele>66</ele>
        <time>2013-04-21T09:35:32.000Z</time>
      </trkpt>
      <trkpt lat="47.52744" lon="-0.1722">
        <ele>66</ele>
        <time>2013-04-21T09:35:33.000Z</time>
      </trkpt>
      <trkpt lat="47.52741" lon="-0.17224">
        <ele>65</ele>
        <time>2013-04-21T09:35:38.000Z</time>
      </trkpt>
      <trkpt lat="47.5274" lon="-0.17224">
        <ele>65</ele>
        <time>2013-04-21T09:35:39.000Z</time>
      </trkpt>
      <trkpt lat="47.52737" lon="-0.17228">
        <ele>65</ele>
        <time>2013-04-21T09:35:44.000Z</time>
      </trkpt>
      <trkpt lat="47.52736" lon="-0.17228">
        <ele>65</ele>
        <time>2013-04-21T09:35:45.000Z</time>
      </trkpt>
      <trkpt lat="47.52733" lon="-0.17232">
        <ele>65</ele>
        <time>2013-04-21T09:35:59.000Z</time>
      </trkpt>
      <trkpt lat="47.52732" lon="-0.17232">
        <ele>65</ele>
        <time>2013-04-21T09:36:00.000Z</time>
      </trkpt>
      <trkpt lat="47.52729" lon="-0.17235">
        <ele>65</ele>
        <time>2013-04-21T09:36:05.000Z</time>
      </trkpt>
      <trkpt lat="47.52728" lon="-0.17235">
        <ele>65</ele>
        <time>2013-04-21T09:36:06.000Z</time>
      </trkpt>
      <trkpt lat="47.52724" lon="-0.17236">
        <ele>65</ele>
        <time>2013-04-21T09:36:09.000Z</time>
      </trkpt>
      <trkpt lat="47.52723" lon="-0.17236">
        <ele>65</ele>
        <time>2013-04-21T09:36:10.000Z</time>
      </trkpt>
      <trkpt lat="47.52719" lon="-0.17238">
        <ele>65</ele>
        <time>2013-04-21T09:36:12.000Z</time>
      </trkpt>
      <trkpt lat="47.52719" lon="-0.17238">
        <ele>65</ele>
        <time>2013-04-21T09:36:13.000Z</time>
      </trkpt>
      <trkpt lat="47.52717" lon="-0.17241">
        <ele>65</ele>
        <time>2013-04-21T09:36:34.000Z</time>
      </trkpt>
      <trkpt lat="47.52714" lon="-0.1724">
        <ele>64</ele>
        <time>2013-04-21T09:36:35.000Z</time>
      </trkpt>
      <trkpt lat="47.5271" lon="-0.17241">
        <ele>64</ele>
        <time>2013-04-21T09:36:38.000Z</time>
      </trkpt>
      <trkpt lat="47.5271" lon="-0.17242">
        <ele>64</ele>
        <time>2013-04-21T09:36:39.000Z</time>
      </trkpt>
      <trkpt lat="47.52707" lon="-0.17245">
        <ele>64</ele>
        <time>2013-04-21T09:36:44.000Z</time>
      </trkpt>
      <trkpt lat="47.52705" lon="-0.17246">
        <ele>64</ele>
        <time>2013-04-21T09:36:45.000Z</time>
      </trkpt>
      <trkpt lat="47.52702" lon="-0.17248">
        <ele>64</ele>
        <time>2013-04-21T09:36:48.000Z</time>
      </trkpt>
      <trkpt lat="47.527" lon="-0.17249">
        <ele>64</ele>
        <time>2013-04-21T09:36:49.000Z</time>
      </trkpt>
      <trkpt lat="47.52696" lon="-0.17249">
        <ele>63</ele>
        <time>2013-04-21T09:36:52.000Z</time>
      </trkpt>
      <trkpt lat="47.52696" lon="-0.17249">
        <ele>63</ele>
        <time>2013-04-21T09:36:53.000Z</time>
      </trkpt>
      <trkpt lat="47.52692" lon="-0.17251">
        <ele>61</ele>
        <time>2013-04-21T09:36:56.000Z</time>
      </trkpt>
      <trkpt lat="47.52691" lon="-0.17251">
        <ele>61</ele>
        <time>2013-04-21T09:36:57.000Z</time>
      </trkpt>
      <trkpt lat="47.52686" lon="-0.17253">
        <ele>61</ele>
        <time>2013-04-21T09:37:00.000Z</time>
      </trkpt>
      <trkpt lat="47.52685" lon="-0.17253">
        <ele>61</ele>
        <time>2013-04-21T09:37:01.000Z</time>
      </trkpt>
      <trkpt lat="47.5268" lon="-0.17254">
        <ele>61</ele>
        <time>2013-04-21T09:37:06.000Z</time>
      </trkpt>
      <trkpt lat="47.5268" lon="-0.17254">
        <ele>61</ele>
        <time>2013-04-21T09:37:07.000Z</time>
      </trkpt>
      <trkpt lat="47.52676" lon="-0.17257">
        <ele>61</ele>
        <time>2013-04-21T09:37:11.000Z</time>
      </trkpt>
      <trkpt lat="47.52676" lon="-0.17259">
        <ele>61</ele>
        <time>2013-04-21T09:37:12.000Z</time>
      </trkpt>
      <trkpt lat="47.52672" lon="-0.17262">
        <ele>61</ele>
        <time>2013-04-21T09:37:16.000Z</time>
      </trkpt>
      <trkpt lat="47.52672" lon="-0.17263">
        <ele>61</ele>
        <time>2013-04-21T09:37:17.000Z</time>
      </trkpt>
      <trkpt lat="47.52668" lon="-0.17266">
        <ele>61</ele>
        <time>2013-04-21T09:37:23.000Z</time>
      </trkpt>
      <trkpt lat="47.52667" lon="-0.17266">
        <ele>61</ele>
        <time>2013-04-21T09:37:24.000Z</time>
      </trkpt>
      <trkpt lat="47.52663" lon="-0.17267">
        <ele>58</ele>
        <time>2013-04-21T09:37:28.000Z</time>
      </trkpt>
      <trkpt lat="47.52661" lon="-0.17267">
        <ele>58</ele>
        <time>2013-04-21T09:37:29.000Z</time>
      </trkpt>
      <trkpt lat="47.52658" lon="-0.1727">
        <ele>57</ele>
        <time>2013-04-21T09:37:31.000Z</time>
      </trkpt>
      <trkpt lat="47.52657" lon="-0.17271">
        <ele>57</ele>
        <time>2013-04-21T09:37:32.000Z</time>
      </trkpt>
      <trkpt lat="47.52654" lon="-0.17276">
        <ele>57</ele>
        <time>2013-04-21T09:37:37.000Z</time>
      </trkpt>
      <trkpt lat="47.52653" lon="-0.17276">
        <ele>57</ele>
        <time>2013-04-21T09:37:38.000Z</time>
      </trkpt>
      <trkpt lat="47.52649" lon="-0.17279">
        <ele>57</ele>
        <time>2013-04-21T09:37:41.000Z</time>
      </trkpt>
      <trkpt lat="47.52648" lon="-0.1728">
        <ele>57</ele>
        <time>2013-04-21T09:37:42.000Z</time>
      </trkpt>
      <trkpt lat="47.52646" lon="-0.17284">
        <ele>56</ele>
        <time>2013-04-21T09:37:45.000Z</time>
      </trkpt>
      <trkpt lat="47.52645" lon="-0.17285">
        <ele>56</ele>
        <time>2013-04-21T09:37:46.000Z</time>
      </trkpt>
      <trkpt lat="47.52642" lon="-0.17289">
        <ele>56</ele>
        <time>2013-04-21T09:37:50.000Z</time>
      </trkpt>
      <trkpt lat="47.52641" lon="-0.1729">
        <ele>56</ele>
        <time>2013-04-21T09:37:51.000Z</time>
      </trkpt>
      <trkpt lat="47.52637" lon="-0.17289">
        <ele>56</ele>
        <time>2013-04-21T09:37:55.000Z</time>
      </trkpt>
      <trkpt lat="47.52635" lon="-0.17289">
        <ele>56</ele>
        <time>2013-04-21T09:37:56.000Z</time>
      </trkpt>
      <trkpt lat="47.5263" lon="-0.17289">
        <ele>56</ele>
        <time>2013-04-21T09:38:00.000Z</time>
      </trkpt>
      <trkpt lat="47.5263" lon="-0.17289">
        <ele>56</ele>
        <time>2013-04-21T09:38:01.000Z</time>
      </trkpt>
      <trkpt lat="47.52625" lon="-0.17292">
        <ele>56</ele>
        <time>2013-04-21T09:38:05.000Z</time>
      </trkpt>
      <trkpt lat="47.52624" lon="-0.17292">
        <ele>55</ele>
        <time>2013-04-21T09:38:06.000Z</time>
      </trkpt>
      <trkpt lat="47.5262" lon="-0.17293">
        <ele>55</ele>
        <time>2013-04-21T09:38:10.000Z</time>
      </trkpt>
      <trkpt lat="47.5262" lon="-0.17292">
        <ele>55</ele>
        <time>2013-04-21T09:38:11.000Z</time>
      </trkpt>
      <trkpt lat="47.52615" lon="-0.17293">
        <ele>55</ele>
        <time>2013-04-21T09:38:16.000Z</time>
      </trkpt>
      <trkpt lat="47.52615" lon="-0.17293">
        <ele>55</ele>
        <time>2013-04-21T09:38:17.000Z</time>
      </trkpt>
      <trkpt lat="47.52611" lon="-0.17294">
        <ele>55</ele>
        <time>2013-04-21T09:38:20.000Z</time>
      </trkpt>
      <trkpt lat="47.52609" lon="-0.17294">
        <ele>55</ele>
        <time>2013-04-21T09:38:21.000Z</time>
      </trkpt>
      <trkpt lat="47.52605" lon="-0.17295">
        <ele>55</ele>
        <time>2013-04-21T09:38:24.000Z</time>
      </trkpt>
      <trkpt lat="47.52602" lon="-0.17297">
        <ele>55</ele>
        <time>2013-04-21T09:38:25.000Z</time>
      </trkpt>
      <trkpt lat="47.526" lon="-0.17299">
        <ele>54</ele>
        <time>2013-04-21T09:38:28.000Z</time>
      </trkpt>
      <trkpt lat="47.52598" lon="-0.173">
        <ele>54</ele>
        <time>2013-04-21T09:38:29.000Z</time>
      </trkpt>
      <trkpt lat="47.52594" lon="-0.173">
        <ele>54</ele>
        <time>2013-04-21T09:38:33.000Z</time>
      </trkpt>
      <trkpt lat="47.52593" lon="-0.173">
        <ele>54</ele>
        <time>2013-04-21T09:38:34.000Z</time>
      </trkpt>
      <trkpt lat="47.5259" lon="-0.17301">
        <ele>54</ele>
        <time>2013-04-21T09:38:37.000Z</time>
      </trkpt>
      <trkpt lat="47.52588" lon="-0.17301">
        <ele>54</ele>
        <time>2013-04-21T09:38:38.000Z</time>
      </trkpt>
      <trkpt lat="47.52584" lon="-0.17303">
        <ele>54</ele>
        <time>2013-04-21T09:38:41.000Z</time>
      </trkpt>
      <trkpt lat="47.52583" lon="-0.17303">
        <ele>51</ele>
        <time>2013-04-21T09:38:42.000Z</time>
      </trkpt>
      <trkpt lat="47.52579" lon="-0.17304">
        <ele>51</ele>
        <time>2013-04-21T09:38:47.000Z</time>
      </trkpt>
      <trkpt lat="47.52578" lon="-0.17304">
        <ele>51</ele>
        <time>2013-04-21T09:38:48.000Z</time>
      </trkpt>
      <trkpt lat="47.52575" lon="-0.17305">
        <ele>51</ele>
        <time>2013-04-21T09:38:51.000Z</time>
      </trkpt>
      <trkpt lat="47.52573" lon="-0.17305">
        <ele>51</ele>
        <time>2013-04-21T09:38:52.000Z</time>
      </trkpt>
      <trkpt lat="47.52569" lon="-0.17306">
        <ele>51</ele>
        <time>2013-04-21T09:38:59.000Z</time>
      </trkpt>
      <trkpt lat="47.52568" lon="-0.17307">
        <ele>51</ele>
        <time>2013-04-21T09:39:00.000Z</time>
      </trkpt>
      <trkpt lat="47.52565" lon="-0.17307">
        <ele>51</ele>
        <time>2013-04-21T09:39:03.000Z</time>
      </trkpt>
      <trkpt lat="47.52563" lon="-0.17308">
        <ele>51</ele>
        <time>2013-04-21T09:39:04.000Z</time>
      </trkpt>
      <trkpt lat="47.52559" lon="-0.17307">
        <ele>50</ele>
        <time>2013-04-21T09:39:07.000Z</time>
      </trkpt>
      <trkpt lat="47.52558" lon="-0.17307">
        <ele>50</ele>
        <time>2013-04-21T09:39:08.000Z</time>
      </trkpt>
      <trkpt lat="47.52554" lon="-0.17307">
        <ele>50</ele>
        <time>2013-04-21T09:39:13.000Z</time>
      </trkpt>
      <trkpt lat="47.52552" lon="-0.17307">
        <ele>50</ele>
        <time>2013-04-21T09:39:14.000Z</time>
      </trkpt>
      <trkpt lat="47.52548" lon="-0.17308">
        <ele>50</ele>
        <time>2013-04-21T09:39:19.000Z</time>
      </trkpt>
      <trkpt lat="47.52547" lon="-0.17308">
        <ele>50</ele>
        <time>2013-04-21T09:39:20.001Z</time>
      </trkpt>
      <trkpt lat="47.52544" lon="-0.17309">
        <ele>50</ele>
        <time>2013-04-21T09:39:22.001Z</time>
      </trkpt>
      <trkpt lat="47.52542" lon="-0.17309">
        <ele>50</ele>
        <time>2013-04-21T09:39:23.001Z</time>
      </trkpt>
      <trkpt lat="47.52537" lon="-0.17309">
        <ele>50</ele>
        <time>2013-04-21T09:39:27.001Z</time>
      </trkpt>
      <trkpt lat="47.52536" lon="-0.17309">
        <ele>50</ele>
        <time>2013-04-21T09:39:28.001Z</time>
      </trkpt>
      <trkpt lat="47.52533" lon="-0.17308">
        <ele>50</ele>
        <time>2013-04-21T09:39:30.001Z</time>
      </trkpt>
      <trkpt lat="47.52531" lon="-0.17308">
        <ele>50</ele>
        <time>2013-04-21T09:39:31.001Z</time>
      </trkpt>
      <trkpt lat="47.52528" lon="-0.17305">
        <ele>50</ele>
        <time>2013-04-21T09:39:35.001Z</time>
      </trkpt>
      <trkpt lat="47.52527" lon="-0.17304">
        <ele>50</ele>
        <time>2013-04-21T09:39:36.001Z</time>
      </trkpt>
      <trkpt lat="47.52524" lon="-0.17302">
        <ele>50</ele>
        <time>2013-04-21T09:39:40.001Z</time>
      </trkpt>
      <trkpt lat="47.52523" lon="-0.17301">
        <ele>50</ele>
        <time>2013-04-21T09:39:41.001Z</time>
      </trkpt>
      <trkpt lat="47.5252" lon="-0.17298">
        <ele>50</ele>
        <time>2013-04-21T09:39:44.001Z</time>
      </trkpt>
      <trkpt lat="47.52519" lon="-0.17297">
        <ele>50</ele>
        <time>2013-04-21T09:39:45.001Z</time>
      </trkpt>
      <trkpt lat="47.52515" lon="-0.17295">
        <ele>50</ele>
        <time>2013-04-21T09:39:49.001Z</time>
      </trkpt>
      <trkpt lat="47.52515" lon="-0.17294">
        <ele>50</ele>
        <time>2013-04-21T09:39:50.001Z</time>
      </trkpt>
      <trkpt lat="47.52511" lon="-0.17291">
        <ele>50</ele>
        <time>2013-04-21T09:39:54.001Z</time>
      </trkpt>
      <trkpt lat="47.52511" lon="-0.1729">
        <ele>50</ele>
        <time>2013-04-21T09:39:55.001Z</time>
      </trkpt>
      <trkpt lat="47.52506" lon="-0.1729">
        <ele>50</ele>
        <time>2013-04-21T09:40:02.001Z</time>
      </trkpt>
      <trkpt lat="47.52505" lon="-0.1729">
        <ele>50</ele>
        <time>2013-04-21T09:40:03.001Z</time>
      </trkpt>
      <trkpt lat="47.52502" lon="-0.1729">
        <ele>50</ele>
        <time>2013-04-21T09:40:07.001Z</time>
      </trkpt>
      <trkpt lat="47.525" lon="-0.1729">
        <ele>49</ele>
        <time>2013-04-21T09:40:08.001Z</time>
      </trkpt>
      <trkpt lat="47.52496" lon="-0.17288">
        <ele>49</ele>
        <time>2013-04-21T09:40:11.001Z</time>
      </trkpt>
      <trkpt lat="47.52495" lon="-0.17288">
        <ele>49</ele>
        <time>2013-04-21T09:40:12.001Z</time>
      </trkpt>
      <trkpt lat="47.52491" lon="-0.17286">
        <ele>49</ele>
        <time>2013-04-21T09:40:14.001Z</time>
      </trkpt>
      <trkpt lat="47.52489" lon="-0.17286">
        <ele>49</ele>
        <time>2013-04-21T09:40:15.001Z</time>
      </trkpt>
      <trkpt lat="47.52485" lon="-0.17285">
        <ele>49</ele>
        <time>2013-04-21T09:40:19.001Z</time>
      </trkpt>
      <trkpt lat="47.52484" lon="-0.17285">
        <ele>49</ele>
        <time>2013-04-21T09:40:20.001Z</time>
      </trkpt>
      <trkpt lat="47.5248" lon="-0.17281">
        <ele>49</ele>
        <time>2013-04-21T09:40:28.001Z</time>
      </trkpt>
      <trkpt lat="47.5248" lon="-0.1728">
        <ele>49</ele>
        <time>2013-04-21T09:40:29.001Z</time>
      </trkpt>
      <trkpt lat="47.52481" lon="-0.17273">
        <ele>49</ele>
        <time>2013-04-21T09:40:33.001Z</time>
      </trkpt>
      <trkpt lat="47.52482" lon="-0.17272">
        <ele>49</ele>
        <time>2013-04-21T09:40:34.001Z</time>
      </trkpt>
      <trkpt lat="47.52483" lon="-0.17267">
        <ele>49</ele>
        <time>2013-04-21T09:40:37.001Z</time>
      </trkpt>
      <trkpt lat="47.52482" lon="-0.17265">
        <ele>49</ele>
        <time>2013-04-21T09:40:38.001Z</time>
      </trkpt>
      <trkpt lat="47.52482" lon="-0.17259">
        <ele>49</ele>
        <time>2013-04-21T09:40:41.001Z</time>
      </trkpt>
      <trkpt lat="47.52482" lon="-0.17258">
        <ele>49</ele>
        <time>2013-04-21T09:40:42.001Z</time>
      </trkpt>
      <trkpt lat="47.52483" lon="-0.17251">
        <ele>49</ele>
        <time>2013-04-21T09:40:46.001Z</time>
      </trkpt>
      <trkpt lat="47.52483" lon="-0.1725">
        <ele>49</ele>
        <time>2013-04-21T09:40:47.001Z</time>
      </trkpt>
      <trkpt lat="47.52482" lon="-0.17246">
        <ele>50</ele>
        <time>2013-04-21T09:40:50.001Z</time>
      </trkpt>
      <trkpt lat="47.52482" lon="-0.17243">
        <ele>50</ele>
        <time>2013-04-21T09:40:51.001Z</time>
      </trkpt>
      <trkpt lat="47.52483" lon="-0.17238">
        <ele>50</ele>
        <time>2013-04-21T09:40:53.001Z</time>
      </trkpt>
      <trkpt lat="47.52483" lon="-0.17236">
        <ele>50</ele>
        <time>2013-04-21T09:40:54.001Z</time>
      </trkpt>
      <trkpt lat="47.52484" lon="-0.1723">
        <ele>50</ele>
        <time>2013-04-21T09:40:59.001Z</time>
      </trkpt>
      <trkpt lat="47.52485" lon="-0.17229">
        <ele>50</ele>
        <time>2013-04-21T09:41:00.001Z</time>
      </trkpt>
      <trkpt lat="47.52486" lon="-0.17224">
        <ele>50</ele>
        <time>2013-04-21T09:41:03.001Z</time>
      </trkpt>
      <trkpt lat="47.52486" lon="-0.17221">
        <ele>50</ele>
        <time>2013-04-21T09:41:04.001Z</time>
      </trkpt>
      <trkpt lat="47.52486" lon="-0.17217">
        <ele>50</ele>
        <time>2013-04-21T09:41:06.001Z</time>
      </trkpt>
      <trkpt lat="47.52486" lon="-0.17214">
        <ele>50</ele>
        <time>2013-04-21T09:41:07.001Z</time>
      </trkpt>
      <trkpt lat="47.52486" lon="-0.17209">
        <ele>50</ele>
        <time>2013-04-21T09:41:09.001Z</time>
      </trkpt>
      <trkpt lat="47.52486" lon="-0.17207">
        <ele>50</ele>
        <time>2013-04-21T09:41:10.001Z</time>
      </trkpt>
      <trkpt lat="47.52485" lon="-0.17201">
        <ele>50</ele>
        <time>2013-04-21T09:41:13.001Z</time>
      </trkpt>
      <trkpt lat="47.52485" lon="-0.17199">
        <ele>50</ele>
        <time>2013-04-21T09:41:14.001Z</time>
      </trkpt>
      <trkpt lat="47.52485" lon="-0.17193">
        <ele>50</ele>
        <time>2013-04-21T09:41:18.001Z</time>
      </trkpt>
      <trkpt lat="47.52485" lon="-0.17192">
        <ele>50</ele>
        <time>2013-04-21T09:41:19.001Z</time>
      </trkpt>
      <trkpt lat="47.52486" lon="-0.17186">
        <ele>50</ele>
        <time>2013-04-21T09:41:22.001Z</time>
      </trkpt>
      <trkpt lat="47.52486" lon="-0.17185">
        <ele>50</ele>
        <time>2013-04-21T09:41:23.001Z</time>
      </trkpt>
      <trkpt lat="47.52486" lon="-0.17179">
        <ele>50</ele>
        <time>2013-04-21T09:41:26.001Z</time>
      </trkpt>
      <trkpt lat="47.52486" lon="-0.17177">
        <ele>50</ele>
        <time>2013-04-21T09:41:27.001Z</time>
      </trkpt>
      <trkpt lat="47.52486" lon="-0.17171">
        <ele>49</ele>
        <time>2013-04-21T09:41:31.001Z</time>
      </trkpt>
      <trkpt lat="47.52486" lon="-0.1717">
        <ele>49</ele>
        <time>2013-04-21T09:41:32.001Z</time>
      </trkpt>
      <trkpt lat="47.52488" lon="-0.17164">
        <ele>50</ele>
        <time>2013-04-21T09:41:36.001Z</time>
      </trkpt>
      <trkpt lat="47.52488" lon="-0.17163">
        <ele>50</ele>
        <time>2013-04-21T09:41:37.001Z</time>
      </trkpt>
      <trkpt lat="47.52487" lon="-0.17157">
        <ele>50</ele>
        <time>2013-04-21T09:41:40.001Z</time>
      </trkpt>
      <trkpt lat="47.52487" lon="-0.17156">
        <ele>50</ele>
        <time>2013-04-21T09:41:41.001Z</time>
      </trkpt>
      <trkpt lat="47.52486" lon="-0.1715">
        <ele>50</ele>
        <time>2013-04-21T09:41:45.001Z</time>
      </trkpt>
      <trkpt lat="47.52486" lon="-0.17148">
        <ele>50</ele>
        <time>2013-04-21T09:41:46.001Z</time>
      </trkpt>
      <trkpt lat="47.52486" lon="-0.17143">
        <ele>50</ele>
        <time>2013-04-21T09:41:50.001Z</time>
      </trkpt>
      <trkpt lat="47.52485" lon="-0.17141">
        <ele>50</ele>
        <time>2013-04-21T09:41:51.001Z</time>
      </trkpt>
      <trkpt lat="47.52484" lon="-0.17137">
        <ele>50</ele>
        <time>2013-04-21T09:41:53.001Z</time>
      </trkpt>
      <trkpt lat="47.52484" lon="-0.17134">
        <ele>50</ele>
        <time>2013-04-21T09:41:54.001Z</time>
      </trkpt>
      <trkpt lat="47.52484" lon="-0.17128">
        <ele>50</ele>
        <time>2013-04-21T09:41:57.001Z</time>
      </trkpt>
      <trkpt lat="47.52484" lon="-0.17127">
        <ele>50</ele>
        <time>2013-04-21T09:41:58.001Z</time>
      </trkpt>
      <trkpt lat="47.52483" lon="-0.17121">
        <ele>50</ele>
        <time>2013-04-21T09:42:01.001Z</time>
      </trkpt>
      <trkpt lat="47.52483" lon="-0.17119">
        <ele>50</ele>
        <time>2013-04-21T09:42:02.001Z</time>
      </trkpt>
      <trkpt lat="47.52484" lon="-0.17114">
        <ele>50</ele>
        <time>2013-04-21T09:42:05.001Z</time>
      </trkpt>
      <trkpt lat="47.52483" lon="-0.17112">
        <ele>50</ele>
        <time>2013-04-21T09:42:06.001Z</time>
      </trkpt>
      <trkpt lat="47.52483" lon="-0.17106">
        <ele>50</ele>
        <time>2013-04-21T09:42:09.001Z</time>
      </trkpt>
      <trkpt lat="47.52483" lon="-0.17104">
        <ele>50</ele>
        <time>2013-04-21T09:42:10.001Z</time>
      </trkpt>
      <trkpt lat="47.52483" lon="-0.17098">
        <ele>50</ele>
        <time>2013-04-21T09:42:14.001Z</time>
      </trkpt>
      <trkpt lat="47.52483" lon="-0.17097">
        <ele>50</ele>
        <time>2013-04-21T09:42:15.001Z</time>
      </trkpt>
      <trkpt lat="47.52481" lon="-0.17092">
        <ele>50</ele>
        <time>2013-04-21T09:42:18.001Z</time>
      </trkpt>
      <trkpt lat="47.5248" lon="-0.1709">
        <ele>50</ele>
        <time>2013-04-21T09:42:19.001Z</time>
      </trkpt>
      <trkpt lat="47.52477" lon="-0.17086">
        <ele>50</ele>
        <time>2013-04-21T09:42:21.001Z</time>
      </trkpt>
      <trkpt lat="47.52476" lon="-0.17085">
        <ele>50</ele>
        <time>2013-04-21T09:42:22.001Z</time>
      </trkpt>
      <trkpt lat="47.52472" lon="-0.17084">
        <ele>50</ele>
        <time>2013-04-21T09:42:26.001Z</time>
      </trkpt>
      <trkpt lat="47.52471" lon="-0.17084">
        <ele>50</ele>
        <time>2013-04-21T09:42:27.001Z</time>
      </trkpt>
      <trkpt lat="47.52467" lon="-0.17084">
        <ele>50</ele>
        <time>2013-04-21T09:42:32.001Z</time>
      </trkpt>
      <trkpt lat="47.52466" lon="-0.17084">
        <ele>50</ele>
        <time>2013-04-21T09:42:33.001Z</time>
      </trkpt>
      <trkpt lat="47.52461" lon="-0.17084">
        <ele>50</ele>
        <time>2013-04-21T09:42:37.001Z</time>
      </trkpt>
      <trkpt lat="47.5246" lon="-0.17084">
        <ele>50</ele>
        <time>2013-04-21T09:42:38.001Z</time>
      </trkpt>
      <trkpt lat="47.52456" lon="-0.17085">
        <ele>50</ele>
        <time>2013-04-21T09:42:42.001Z</time>
      </trkpt>
      <trkpt lat="47.52455" lon="-0.17085">
        <ele>50</ele>
        <time>2013-04-21T09:42:43.001Z</time>
      </trkpt>
      <trkpt lat="47.52452" lon="-0.17085">
        <ele>50</ele>
        <time>2013-04-21T09:42:54.001Z</time>
      </trkpt>
      <trkpt lat="47.5245" lon="-0.17086">
        <ele>50</ele>
        <time>2013-04-21T09:42:55.001Z</time>
      </trkpt>
      <trkpt lat="47.52447" lon="-0.17085">
        <ele>50</ele>
        <time>2013-04-21T09:42:58.001Z</time>
      </trkpt>
      <trkpt lat="47.52446" lon="-0.17085">
        <ele>50</ele>
        <time>2013-04-21T09:42:59.001Z</time>
      </trkpt>
      <trkpt lat="47.52443" lon="-0.17087">
        <ele>51</ele>
        <time>2013-04-21T09:43:04.001Z</time>
      </trkpt>
      <trkpt lat="47.52441" lon="-0.17089">
        <ele>51</ele>
        <time>2013-04-21T09:43:05.001Z</time>
      </trkpt>
      <trkpt lat="47.52439" lon="-0.1709">
        <ele>51</ele>
        <time>2013-04-21T09:43:07.001Z</time>
      </trkpt>
      <trkpt lat="47.52437" lon="-0.17091">
        <ele>51</ele>
        <time>2013-04-21T09:43:08.001Z</time>
      </trkpt>
      <trkpt lat="47.52434" lon="-0.17094">
        <ele>51</ele>
        <time>2013-04-21T09:43:11.001Z</time>
      </trkpt>
      <trkpt lat="47.52433" lon="-0.17094">
        <ele>51</ele>
        <time>2013-04-21T09:43:12.001Z</time>
      </trkpt>
      <trkpt lat="47.52429" lon="-0.17095">
        <ele>51</ele>
        <time>2013-04-21T09:43:16.001Z</time>
      </trkpt>
      <trkpt lat="47.52428" lon="-0.17095">
        <ele>51</ele>
        <time>2013-04-21T09:43:17.001Z</time>
      </trkpt>
      <trkpt lat="47.52424" lon="-0.17096">
        <ele>51</ele>
        <time>2013-04-21T09:43:20.001Z</time>
      </trkpt>
      <trkpt lat="47.52423" lon="-0.17096">
        <ele>51</ele>
        <time>2013-04-21T09:43:21.001Z</time>
      </trkpt>
      <trkpt lat="47.52418" lon="-0.17097">
        <ele>51</ele>
        <time>2013-04-21T09:43:24.001Z</time>
      </trkpt>
      <trkpt lat="47.52418" lon="-0.17097">
        <ele>51</ele>
        <time>2013-04-21T09:43:25.001Z</time>
      </trkpt>
      <trkpt lat="47.52413" lon="-0.17097">
        <ele>51</ele>
        <time>2013-04-21T09:43:29.001Z</time>
      </trkpt>
      <trkpt lat="47.52411" lon="-0.17097">
        <ele>51</ele>
        <time>2013-04-21T09:43:30.001Z</time>
      </trkpt>
      <trkpt lat="47.52408" lon="-0.171">
        <ele>52</ele>
        <time>2013-04-21T09:43:36.001Z</time>
      </trkpt>
      <trkpt lat="47.52407" lon="-0.171">
        <ele>52</ele>
        <time>2013-04-21T09:43:37.001Z</time>
      </trkpt>
      <trkpt lat="47.52403" lon="-0.17099">
        <ele>52</ele>
        <time>2013-04-21T09:43:43.001Z</time>
      </trkpt>
      <trkpt lat="47.52401" lon="-0.17098">
        <ele>52</ele>
        <time>2013-04-21T09:43:44.001Z</time>
      </trkpt>
      <trkpt lat="47.52397" lon="-0.17099">
        <ele>52</ele>
        <time>2013-04-21T09:43:51.001Z</time>
      </trkpt>
      <trkpt lat="47.52396" lon="-0.17099">
        <ele>52</ele>
        <time>2013-04-21T09:43:52.001Z</time>
      </trkpt>
      <trkpt lat="47.52392" lon="-0.17101">
        <ele>52</ele>
        <time>2013-04-21T09:44:00.001Z</time>
      </trkpt>
      <trkpt lat="47.52391" lon="-0.17101">
        <ele>52</ele>
        <time>2013-04-21T09:44:01.001Z</time>
      </trkpt>
      <trkpt lat="47.52387" lon="-0.17102">
        <ele>52</ele>
        <time>2013-04-21T09:44:06.001Z</time>
      </trkpt>
      <trkpt lat="47.52386" lon="-0.17102">
        <ele>52</ele>
        <time>2013-04-21T09:44:07.001Z</time>
      </trkpt>
      <trkpt lat="47.52382" lon="-0.17103">
        <ele>52</ele>
        <time>2013-04-21T09:44:13.001Z</time>
      </trkpt>
      <trkpt lat="47.52381" lon="-0.17103">
        <ele>52</ele>
        <time>2013-04-21T09:44:14.001Z</time>
      </trkpt>
      <trkpt lat="47.52377" lon="-0.17102">
        <ele>52</ele>
        <time>2013-04-21T09:44:19.001Z</time>
      </trkpt>
      <trkpt lat="47.52375" lon="-0.17102">
        <ele>52</ele>
        <time>2013-04-21T09:44:20.001Z</time>
      </trkpt>
      <trkpt lat="47.52371" lon="-0.17102">
        <ele>52</ele>
        <time>2013-04-21T09:44:23.001Z</time>
      </trkpt>
      <trkpt lat="47.5237" lon="-0.17101">
        <ele>52</ele>
        <time>2013-04-21T09:44:24.001Z</time>
      </trkpt>
      <trkpt lat="47.52366" lon="-0.17102">
        <ele>52</ele>
        <time>2013-04-21T09:44:28.001Z</time>
      </trkpt>
      <trkpt lat="47.52364" lon="-0.17102">
        <ele>52</ele>
        <time>2013-04-21T09:44:29.001Z</time>
      </trkpt>
      <trkpt lat="47.52361" lon="-0.17106">
        <ele>52</ele>
        <time>2013-04-21T09:44:32.001Z</time>
      </trkpt>
      <trkpt lat="47.52361" lon="-0.17107">
        <ele>52</ele>
        <time>2013-04-21T09:44:33.001Z</time>
      </trkpt>
      <trkpt lat="47.52357" lon="-0.17109">
        <ele>52</ele>
        <time>2013-04-21T09:44:39.001Z</time>
      </trkpt>
      <trkpt lat="47.52355" lon="-0.17109">
        <ele>52</ele>
        <time>2013-04-21T09:44:40.001Z</time>
      </trkpt>
      <trkpt lat="47.52351" lon="-0.17109">
        <ele>53</ele>
        <time>2013-04-21T09:44:43.001Z</time>
      </trkpt>
      <trkpt lat="47.52351" lon="-0.17109">
        <ele>53</ele>
        <time>2013-04-21T09:44:44.001Z</time>
      </trkpt>
      <trkpt lat="47.52346" lon="-0.17111">
        <ele>53</ele>
        <time>2013-04-21T09:44:49.001Z</time>
      </trkpt>
      <trkpt lat="47.52346" lon="-0.17112">
        <ele>53</ele>
        <time>2013-04-21T09:44:50.001Z</time>
      </trkpt>
      <trkpt lat="47.52342" lon="-0.17115">
        <ele>53</ele>
        <time>2013-04-21T09:45:03.001Z</time>
      </trkpt>
      <trkpt lat="47.52341" lon="-0.17115">
        <ele>53</ele>
        <time>2013-04-21T09:45:04.001Z</time>
      </trkpt>
      <trkpt lat="47.52339" lon="-0.17115">
        <ele>53</ele>
        <time>2013-04-21T09:45:13.001Z</time>
      </trkpt>
      <trkpt lat="47.52336" lon="-0.17116">
        <ele>53</ele>
        <time>2013-04-21T09:45:14.001Z</time>
      </trkpt>
      <trkpt lat="47.52332" lon="-0.17114">
        <ele>53</ele>
        <time>2013-04-21T09:45:17.001Z</time>
      </trkpt>
      <trkpt lat="47.52331" lon="-0.17113">
        <ele>53</ele>
        <time>2013-04-21T09:45:18.001Z</time>
      </trkpt>
      <trkpt lat="47.52328" lon="-0.17109">
        <ele>53</ele>
        <time>2013-04-21T09:45:25.001Z</time>
      </trkpt>
      <trkpt lat="47.52328" lon="-0.17107">
        <ele>53</ele>
        <time>2013-04-21T09:45:26.001Z</time>
      </trkpt>
      <trkpt lat="47.52325" lon="-0.17103">
        <ele>53</ele>
        <time>2013-04-21T09:45:30.001Z</time>
      </trkpt>
      <trkpt lat="47.52325" lon="-0.17101">
        <ele>53</ele>
        <time>2013-04-21T09:45:31.001Z</time>
      </trkpt>
      <trkpt lat="47.52324" lon="-0.17095">
        <ele>53</ele>
        <time>2013-04-21T09:45:37.001Z</time>
      </trkpt>
      <trkpt lat="47.52323" lon="-0.17093">
        <ele>53</ele>
        <time>2013-04-21T09:45:38.001Z</time>
      </trkpt>
      <trkpt lat="47.52323" lon="-0.17086">
        <ele>53</ele>
        <time>2013-04-21T09:45:43.001Z</time>
      </trkpt>
      <trkpt lat="47.52323" lon="-0.17085">
        <ele>53</ele>
        <time>2013-04-21T09:45:44.001Z</time>
      </trkpt>
      <trkpt lat="47.52323" lon="-0.17079">
        <ele>54</ele>
        <time>2013-04-21T09:45:47.001Z</time>
      </trkpt>
      <trkpt lat="47.52324" lon="-0.17078">
        <ele>54</ele>
        <time>2013-04-21T09:45:48.001Z</time>
      </trkpt>
      <trkpt lat="47.5232" lon="-0.17075">
        <ele>54</ele>
        <time>2013-04-21T09:46:12.001Z</time>
      </trkpt>
      <trkpt lat="47.5232" lon="-0.17074">
        <ele>54</ele>
        <time>2013-04-21T09:46:13.001Z</time>
      </trkpt>
      <trkpt lat="47.52315" lon="-0.17074">
        <ele>54</ele>
        <time>2013-04-21T09:46:29.001Z</time>
      </trkpt>
      <trkpt lat="47.52315" lon="-0.17074">
        <ele>54</ele>
        <time>2013-04-21T09:46:30.001Z</time>
      </trkpt>
      <trkpt lat="47.52311" lon="-0.17073">
        <ele>54</ele>
        <time>2013-04-21T09:47:28.001Z</time>
      </trkpt>
      <trkpt lat="47.5231" lon="-0.17073">
        <ele>54</ele>
        <time>2013-04-21T09:47:29.001Z</time>
      </trkpt>
      <trkpt lat="47.52306" lon="-0.17072">
        <ele>54</ele>
        <time>2013-04-21T09:47:32.001Z</time>
      </trkpt>
      <trkpt lat="47.52305" lon="-0.17072">
        <ele>54</ele>
        <time>2013-04-21T09:47:33.001Z</time>
      </trkpt>
      <trkpt lat="47.52301" lon="-0.17072">
        <ele>54</ele>
        <time>2013-04-21T09:47:37.001Z</time>
      </trkpt>
      <trkpt lat="47.523" lon="-0.17072">
        <ele>54</ele>
        <time>2013-04-21T09:47:38.001Z</time>
      </trkpt>
      <trkpt lat="47.52296" lon="-0.17073">
        <ele>54</ele>
        <time>2013-04-21T09:47:42.001Z</time>
      </trkpt>
      <trkpt lat="47.52295" lon="-0.17073">
        <ele>54</ele>
        <time>2013-04-21T09:47:43.001Z</time>
      </trkpt>
      <trkpt lat="47.52291" lon="-0.17075">
        <ele>54</ele>
        <time>2013-04-21T09:47:47.001Z</time>
      </trkpt>
      <trkpt lat="47.52291" lon="-0.17075">
        <ele>54</ele>
        <time>2013-04-21T09:47:48.001Z</time>
      </trkpt>
      <trkpt lat="47.52287" lon="-0.17075">
        <ele>54</ele>
        <time>2013-04-21T09:47:53.001Z</time>
      </trkpt>
      <trkpt lat="47.52286" lon="-0.17075">
        <ele>54</ele>
        <time>2013-04-21T09:47:54.001Z</time>
      </trkpt>
      <trkpt lat="47.52283" lon="-0.17079">
        <ele>54</ele>
        <time>2013-04-21T09:48:01.001Z</time>
      </trkpt>
      <trkpt lat="47.52282" lon="-0.17079">
        <ele>54</ele>
        <time>2013-04-21T09:48:02.001Z</time>
      </trkpt>
      <trkpt lat="47.52278" lon="-0.17079">
        <ele>54</ele>
        <time>2013-04-21T09:48:04.001Z</time>
      </trkpt>
      <trkpt lat="47.52276" lon="-0.17079">
        <ele>53</ele>
        <time>2013-04-21T09:48:05.001Z</time>
      </trkpt>
      <trkpt lat="47.52272" lon="-0.17081">
        <ele>53</ele>
        <time>2013-04-21T09:48:08.001Z</time>
      </trkpt>
      <trkpt lat="47.52271" lon="-0.17081">
        <ele>53</ele>
        <time>2013-04-21T09:48:09.001Z</time>
      </trkpt>
      <trkpt lat="47.52266" lon="-0.17082">
        <ele>53</ele>
        <time>2013-04-21T09:48:15.001Z</time>
      </trkpt>
      <trkpt lat="47.52266" lon="-0.17082">
        <ele>53</ele>
        <time>2013-04-21T09:48:16.001Z</time>
      </trkpt>
      <trkpt lat="47.52262" lon="-0.17084">
        <ele>53</ele>
        <time>2013-04-21T09:48:20.001Z</time>
      </trkpt>
      <trkpt lat="47.52261" lon="-0.17084">
        <ele>53</ele>
        <time>2013-04-21T09:48:21.001Z</time>
      </trkpt>
      <trkpt lat="47.52257" lon="-0.17082">
        <ele>53</ele>
        <time>2013-04-21T09:48:24.001Z</time>
      </trkpt>
      <trkpt lat="47.52256" lon="-0.17081">
        <ele>53</ele>
        <time>2013-04-21T09:48:25.001Z</time>
      </trkpt>
      <trkpt lat="47.52254" lon="-0.17081">
        <ele>53</ele>
        <time>2013-04-21T09:48:27.001Z</time>
      </trkpt>
      <trkpt lat="47.52251" lon="-0.17081">
        <ele>53</ele>
        <time>2013-04-21T09:48:28.001Z</time>
      </trkpt>
      <trkpt lat="47.52248" lon="-0.17082">
        <ele>53</ele>
        <time>2013-04-21T09:48:30.001Z</time>
      </trkpt>
      <trkpt lat="47.52246" lon="-0.17082">
        <ele>53</ele>
        <time>2013-04-21T09:48:31.001Z</time>
      </trkpt>
      <trkpt lat="47.52244" lon="-0.17083">
        <ele>53</ele>
        <time>2013-04-21T09:48:32.001Z</time>
      </trkpt>
      <trkpt lat="47.52242" lon="-0.17085">
        <ele>53</ele>
        <time>2013-04-21T09:48:33.001Z</time>
      </trkpt>
      <trkpt lat="47.52238" lon="-0.17085">
        <ele>53</ele>
        <time>2013-04-21T09:48:39.001Z</time>
      </trkpt>
      <trkpt lat="47.52237" lon="-0.17086">
        <ele>53</ele>
        <time>2013-04-21T09:48:40.001Z</time>
      </trkpt>
      <trkpt lat="47.52233" lon="-0.17087">
        <ele>53</ele>
        <time>2013-04-21T09:48:44.001Z</time>
      </trkpt>
      <trkpt lat="47.52231" lon="-0.17089">
        <ele>52</ele>
        <time>2013-04-21T09:48:45.001Z</time>
      </trkpt>
      <trkpt lat="47.52227" lon="-0.17091">
        <ele>52</ele>
        <time>2013-04-21T09:48:49.001Z</time>
      </trkpt>
      <trkpt lat="47.52226" lon="-0.17091">
        <ele>52</ele>
        <time>2013-04-21T09:48:50.001Z</time>
      </trkpt>
      <trkpt lat="47.52222" lon="-0.17092">
        <ele>52</ele>
        <time>2013-04-21T09:48:55.001Z</time>
      </trkpt>
      <trkpt lat="47.52221" lon="-0.17092">
        <ele>52</ele>
        <time>2013-04-21T09:48:56.001Z</time>
      </trkpt>
      <trkpt lat="47.52217" lon="-0.17091">
        <ele>52</ele>
        <time>2013-04-21T09:49:00.001Z</time>
      </trkpt>
      <trkpt lat="47.52216" lon="-0.17091">
        <ele>52</ele>
        <time>2013-04-21T09:49:01.001Z</time>
      </trkpt>
      <trkpt lat="47.52211" lon="-0.17089">
        <ele>52</ele>
        <time>2013-04-21T09:49:11.001Z</time>
      </trkpt>
      <trkpt lat="47.52211" lon="-0.17089">
        <ele>52</ele>
        <time>2013-04-21T09:49:12.001Z</time>
      </trkpt>
      <trkpt lat="47.52209" lon="-0.17084">
        <ele>52</ele>
        <time>2013-04-21T09:49:17.001Z</time>
      </trkpt>
      <trkpt lat="47.52207" lon="-0.17081">
        <ele>53</ele>
        <time>2013-04-21T09:49:18.001Z</time>
      </trkpt>
      <trkpt lat="47.52206" lon="-0.17076">
        <ele>53</ele>
        <time>2013-04-21T09:49:21.001Z</time>
      </trkpt>
      <trkpt lat="47.52206" lon="-0.17075">
        <ele>53</ele>
        <time>2013-04-21T09:49:22.001Z</time>
      </trkpt>
      <trkpt lat="47.52206" lon="-0.17069">
        <ele>53</ele>
        <time>2013-04-21T09:49:25.001Z</time>
      </trkpt>
      <trkpt lat="47.52207" lon="-0.17068">
        <ele>53</ele>
        <time>2013-04-21T09:49:26.001Z</time>
      </trkpt>
      <trkpt lat="47.52206" lon="-0.17062">
        <ele>53</ele>
        <time>2013-04-21T09:49:30.001Z</time>
      </trkpt>
      <trkpt lat="47.52206" lon="-0.1706">
        <ele>53</ele>
        <time>2013-04-21T09:49:31.001Z</time>
      </trkpt>
      <trkpt lat="47.52205" lon="-0.17054">
        <ele>53</ele>
        <time>2013-04-21T09:49:37.001Z</time>
      </trkpt>
      <trkpt lat="47.52205" lon="-0.17052">
        <ele>53</ele>
        <time>2013-04-21T09:49:38.001Z</time>
      </trkpt>
      <trkpt lat="47.52206" lon="-0.17047">
        <ele>53</ele>
        <time>2013-04-21T09:49:43.001Z</time>
      </trkpt>
      <trkpt lat="47.52206" lon="-0.17045">
        <ele>53</ele>
        <time>2013-04-21T09:49:44.001Z</time>
      </trkpt>
      <trkpt lat="47.52206" lon="-0.17039">
        <ele>53</ele>
        <time>2013-04-21T09:49:46.001Z</time>
      </trkpt>
      <trkpt lat="47.52206" lon="-0.17038">
        <ele>53</ele>
        <time>2013-04-21T09:49:47.001Z</time>
      </trkpt>
      <trkpt lat="47.52207" lon="-0.17032">
        <ele>53</ele>
        <time>2013-04-21T09:49:52.001Z</time>
      </trkpt>
      <trkpt lat="47.52207" lon="-0.1703">
        <ele>53</ele>
        <time>2013-04-21T09:49:53.001Z</time>
      </trkpt>
      <trkpt lat="47.52207" lon="-0.17024">
        <ele>53</ele>
        <time>2013-04-21T09:49:58.001Z</time>
      </trkpt>
      <trkpt lat="47.52206" lon="-0.17021">
        <ele>53</ele>
        <time>2013-04-21T09:49:59.001Z</time>
      </trkpt>
      <trkpt lat="47.52206" lon="-0.17016">
        <ele>53</ele>
        <time>2013-04-21T09:50:02.001Z</time>
      </trkpt>
      <trkpt lat="47.52206" lon="-0.17014">
        <ele>53</ele>
        <time>2013-04-21T09:50:03.001Z</time>
      </trkpt>
      <trkpt lat="47.52205" lon="-0.17009">
        <ele>53</ele>
        <time>2013-04-21T09:50:05.001Z</time>
      </trkpt>
      <trkpt lat="47.52204" lon="-0.17006">
        <ele>53</ele>
        <time>2013-04-21T09:50:06.001Z</time>
      </trkpt>
      <trkpt lat="47.52203" lon="-0.17001">
        <ele>53</ele>
        <time>2013-04-21T09:50:08.001Z</time>
      </trkpt>
      <trkpt lat="47.52203" lon="-0.16998">
        <ele>54</ele>
        <time>2013-04-21T09:50:09.001Z</time>
      </trkpt>
      <trkpt lat="47.52202" lon="-0.16992">
        <ele>54</ele>
        <time>2013-04-21T09:50:15.001Z</time>
      </trkpt>
      <trkpt lat="47.52202" lon="-0.1699">
        <ele>54</ele>
        <time>2013-04-21T09:50:16.001Z</time>
      </trkpt>
      <trkpt lat="47.52202" lon="-0.16984">
        <ele>54</ele>
        <time>2013-04-21T09:50:18.001Z</time>
      </trkpt>
      <trkpt lat="47.52203" lon="-0.16981">
        <ele>54</ele>
        <time>2013-04-21T09:50:19.001Z</time>
      </trkpt>
      <trkpt lat="47.52204" lon="-0.16975">
        <ele>54</ele>
        <time>2013-04-21T09:50:24.001Z</time>
      </trkpt>
      <trkpt lat="47.52204" lon="-0.16974">
        <ele>54</ele>
        <time>2013-04-21T09:50:25.001Z</time>
      </trkpt>
      <trkpt lat="47.52203" lon="-0.16967">
        <ele>54</ele>
        <time>2013-04-21T09:50:30.001Z</time>
      </trkpt>
      <trkpt lat="47.52203" lon="-0.16966">
        <ele>54</ele>
        <time>2013-04-21T09:50:31.001Z</time>
      </trkpt>
      <trkpt lat="47.52204" lon="-0.1696">
        <ele>54</ele>
        <time>2013-04-21T09:50:34.001Z</time>
      </trkpt>
      <trkpt lat="47.52204" lon="-0.16959">
        <ele>54</ele>
        <time>2013-04-21T09:50:35.001Z</time>
      </trkpt>
      <trkpt lat="47.52204" lon="-0.16954">
        <ele>54</ele>
        <time>2013-04-21T09:50:39.001Z</time>
      </trkpt>
      <trkpt lat="47.52203" lon="-0.16951">
        <ele>54</ele>
        <time>2013-04-21T09:50:40.001Z</time>
      </trkpt>
      <trkpt lat="47.52202" lon="-0.16946">
        <ele>54</ele>
        <time>2013-04-21T09:50:42.001Z</time>
      </trkpt>
      <trkpt lat="47.52202" lon="-0.16944">
        <ele>54</ele>
        <time>2013-04-21T09:50:43.001Z</time>
      </trkpt>
      <trkpt lat="47.52202" lon="-0.16939">
        <ele>55</ele>
        <time>2013-04-21T09:50:45.001Z</time>
      </trkpt>
      <trkpt lat="47.52202" lon="-0.16937">
        <ele>55</ele>
        <time>2013-04-21T09:50:46.001Z</time>
      </trkpt>
      <trkpt lat="47.52202" lon="-0.16934">
        <ele>55</ele>
        <time>2013-04-21T09:50:47.001Z</time>
      </trkpt>
      <trkpt lat="47.52203" lon="-0.1693">
        <ele>55</ele>
        <time>2013-04-21T09:50:48.001Z</time>
      </trkpt>
      <trkpt lat="47.52204" lon="-0.16924">
        <ele>55</ele>
        <time>2013-04-21T09:50:50.001Z</time>
      </trkpt>
      <trkpt lat="47.52204" lon="-0.16923">
        <ele>55</ele>
        <time>2013-04-21T09:50:51.001Z</time>
      </trkpt>
      <trkpt lat="47.52203" lon="-0.16918">
        <ele>55</ele>
        <time>2013-04-21T09:50:55.001Z</time>
      </trkpt>
      <trkpt lat="47.52202" lon="-0.16916">
        <ele>55</ele>
        <time>2013-04-21T09:50:56.001Z</time>
      </trkpt>
      <trkpt lat="47.52198" lon="-0.16913">
        <ele>55</ele>
        <time>2013-04-21T09:51:00.001Z</time>
      </trkpt>
      <trkpt lat="47.52197" lon="-0.16912">
        <ele>55</ele>
        <time>2013-04-21T09:51:01.001Z</time>
      </trkpt>
      <trkpt lat="47.52193" lon="-0.16911">
        <ele>55</ele>
        <time>2013-04-21T09:51:03.001Z</time>
      </trkpt>
      <trkpt lat="47.52191" lon="-0.16911">
        <ele>55</ele>
        <time>2013-04-21T09:51:04.001Z</time>
      </trkpt>
      <trkpt lat="47.52187" lon="-0.16912">
        <ele>55</ele>
        <time>2013-04-21T09:51:07.001Z</time>
      </trkpt>
      <trkpt lat="47.52186" lon="-0.16912">
        <ele>55</ele>
        <time>2013-04-21T09:51:08.001Z</time>
      </trkpt>
      <trkpt lat="47.52182" lon="-0.16912">
        <ele>55</ele>
        <time>2013-04-21T09:51:11.001Z</time>
      </trkpt>
      <trkpt lat="47.52181" lon="-0.16912">
        <ele>55</ele>
        <time>2013-04-21T09:51:12.001Z</time>
      </trkpt>
      <trkpt lat="47.52177" lon="-0.16913">
        <ele>56</ele>
        <time>2013-04-21T09:51:15.001Z</time>
      </trkpt>
      <trkpt lat="47.52176" lon="-0.16913">
        <ele>56</ele>
        <time>2013-04-21T09:51:16.001Z</time>
      </trkpt>
      <trkpt lat="47.52171" lon="-0.16913">
        <ele>56</ele>
        <time>2013-04-21T09:51:21.001Z</time>
      </trkpt>
      <trkpt lat="47.5217" lon="-0.16913">
        <ele>56</ele>
        <time>2013-04-21T09:51:22.001Z</time>
      </trkpt>
      <trkpt lat="47.52166" lon="-0.16911">
        <ele>56</ele>
        <time>2013-04-21T09:51:26.001Z</time>
      </trkpt>
      <trkpt lat="47.52165" lon="-0.16911">
        <ele>56</ele>
        <time>2013-04-21T09:51:27.001Z</time>
      </trkpt>
      <trkpt lat="47.52162" lon="-0.16911">
        <ele>55</ele>
        <time>2013-04-21T09:51:29.001Z</time>
      </trkpt>
      <trkpt lat="47.52161" lon="-0.16912">
        <ele>55</ele>
        <time>2013-04-21T09:51:30.001Z</time>
      </trkpt>
      <trkpt lat="47.52157" lon="-0.1691">
        <ele>55</ele>
        <time>2013-04-21T09:51:32.001Z</time>
      </trkpt>
      <trkpt lat="47.52156" lon="-0.1691">
        <ele>55</ele>
        <time>2013-04-21T09:51:33.001Z</time>
      </trkpt>
      <trkpt lat="47.52152" lon="-0.16908">
        <ele>55</ele>
        <time>2013-04-21T09:51:37.001Z</time>
      </trkpt>
      <trkpt lat="47.5215" lon="-0.16906">
        <ele>55</ele>
        <time>2013-04-21T09:51:38.001Z</time>
      </trkpt>
      <trkpt lat="47.52147" lon="-0.16905">
        <ele>55</ele>
        <time>2013-04-21T09:51:40.001Z</time>
      </trkpt>
      <trkpt lat="47.52145" lon="-0.16904">
        <ele>54</ele>
        <time>2013-04-21T09:51:41.001Z</time>
      </trkpt>
      <trkpt lat="47.52141" lon="-0.16904">
        <ele>54</ele>
        <time>2013-04-21T09:51:44.001Z</time>
      </trkpt>
      <trkpt lat="47.5214" lon="-0.16904">
        <ele>54</ele>
        <time>2013-04-21T09:51:45.001Z</time>
      </trkpt>
      <trkpt lat="47.52136" lon="-0.16906">
        <ele>54</ele>
        <time>2013-04-21T09:51:49.001Z</time>
      </trkpt>
      <trkpt lat="47.52135" lon="-0.16906">
        <ele>54</ele>
        <time>2013-04-21T09:51:50.001Z</time>
      </trkpt>
      <trkpt lat="47.52131" lon="-0.16906">
        <ele>54</ele>
        <time>2013-04-21T09:51:55.001Z</time>
      </trkpt>
      <trkpt lat="47.5213" lon="-0.16905">
        <ele>54</ele>
        <time>2013-04-21T09:51:56.001Z</time>
      </trkpt>
      <trkpt lat="47.52126" lon="-0.16904">
        <ele>54</ele>
        <time>2013-04-21T09:52:03.001Z</time>
      </trkpt>
      <trkpt lat="47.52126" lon="-0.16903">
        <ele>54</ele>
        <time>2013-04-21T09:52:04.001Z</time>
      </trkpt>
      <trkpt lat="47.52123" lon="-0.16902">
        <ele>54</ele>
        <time>2013-04-21T09:52:06.001Z</time>
      </trkpt>
      <trkpt lat="47.5212" lon="-0.16901">
        <ele>54</ele>
        <time>2013-04-21T09:52:07.001Z</time>
      </trkpt>
      <trkpt lat="47.52116" lon="-0.16901">
        <ele>53</ele>
        <time>2013-04-21T09:52:09.001Z</time>
      </trkpt>
      <trkpt lat="47.52115" lon="-0.16901">
        <ele>53</ele>
        <time>2013-04-21T09:52:10.001Z</time>
      </trkpt>
      <trkpt lat="47.52111" lon="-0.16897">
        <ele>53</ele>
        <time>2013-04-21T09:52:15.001Z</time>
      </trkpt>
      <trkpt lat="47.5211" lon="-0.16897">
        <ele>53</ele>
        <time>2013-04-21T09:52:16.001Z</time>
      </trkpt>
      <trkpt lat="47.52106" lon="-0.16897">
        <ele>53</ele>
        <time>2013-04-21T09:52:21.001Z</time>
      </trkpt>
      <trkpt lat="47.52105" lon="-0.16898">
        <ele>53</ele>
        <time>2013-04-21T09:52:22.001Z</time>
      </trkpt>
      <trkpt lat="47.52103" lon="-0.16899">
        <ele>53</ele>
        <time>2013-04-21T09:52:24.001Z</time>
      </trkpt>
      <trkpt lat="47.521" lon="-0.16899">
        <ele>53</ele>
        <time>2013-04-21T09:52:25.001Z</time>
      </trkpt>
      <trkpt lat="47.52096" lon="-0.169">
        <ele>53</ele>
        <time>2013-04-21T09:52:28.001Z</time>
      </trkpt>
      <trkpt lat="47.52095" lon="-0.16901">
        <ele>53</ele>
        <time>2013-04-21T09:52:29.001Z</time>
      </trkpt>
      <trkpt lat="47.52091" lon="-0.16901">
        <ele>52</ele>
        <time>2013-04-21T09:52:32.001Z</time>
      </trkpt>
      <trkpt lat="47.5209" lon="-0.16901">
        <ele>52</ele>
        <time>2013-04-21T09:52:33.001Z</time>
      </trkpt>
      <trkpt lat="47.52086" lon="-0.169">
        <ele>52</ele>
        <time>2013-04-21T09:52:36.001Z</time>
      </trkpt>
      <trkpt lat="47.52085" lon="-0.169">
        <ele>52</ele>
        <time>2013-04-21T09:52:37.001Z</time>
      </trkpt>
      <trkpt lat="47.52081" lon="-0.16901">
        <ele>50</ele>
        <time>2013-04-21T09:52:40.001Z</time>
      </trkpt>
      <trkpt lat="47.52079" lon="-0.16901">
        <ele>50</ele>
        <time>2013-04-21T09:52:41.001Z</time>
      </trkpt>
      <trkpt lat="47.52076" lon="-0.16901">
        <ele>50</ele>
        <time>2013-04-21T09:52:44.001Z</time>
      </trkpt>
      <trkpt lat="47.52074" lon="-0.16901">
        <ele>50</ele>
        <time>2013-04-21T09:52:45.001Z</time>
      </trkpt>
      <trkpt lat="47.52071" lon="-0.169">
        <ele>50</ele>
        <time>2013-04-21T09:52:48.001Z</time>
      </trkpt>
      <trkpt lat="47.5207" lon="-0.169">
        <ele>50</ele>
        <time>2013-04-21T09:52:49.001Z</time>
      </trkpt>
      <trkpt lat="47.52066" lon="-0.16899">
        <ele>50</ele>
        <time>2013-04-21T09:52:53.001Z</time>
      </trkpt>
      <trkpt lat="47.52065" lon="-0.16899">
        <ele>50</ele>
        <time>2013-04-21T09:52:54.001Z</time>
      </trkpt>
      <trkpt lat="47.52061" lon="-0.16897">
        <ele>50</ele>
        <time>2013-04-21T09:53:00.001Z</time>
      </trkpt>
      <trkpt lat="47.52061" lon="-0.16896">
        <ele>50</ele>
        <time>2013-04-21T09:53:01.001Z</time>
      </trkpt>
      <trkpt lat="47.52056" lon="-0.16894">
        <ele>50</ele>
        <time>2013-04-21T09:53:10.001Z</time>
      </trkpt>
      <trkpt lat="47.52056" lon="-0.16894">
        <ele>50</ele>
        <time>2013-04-21T09:53:11.001Z</time>
      </trkpt>
      <trkpt lat="47.52053" lon="-0.16899">
        <ele>50</ele>
        <time>2013-04-21T09:53:31.001Z</time>
      </trkpt>
      <trkpt lat="47.52053" lon="-0.16899">
        <ele>50</ele>
        <time>2013-04-21T09:53:32.001Z</time>
      </trkpt>
      <trkpt lat="47.5205" lon="-0.16897">
        <ele>50</ele>
        <time>2013-04-21T09:53:41.001Z</time>
      </trkpt>
      <trkpt lat="47.52049" lon="-0.16895">
        <ele>50</ele>
        <time>2013-04-21T09:53:42.001Z</time>
      </trkpt>
      <trkpt lat="47.52046" lon="-0.1689">
        <ele>50</ele>
        <time>2013-04-21T09:53:45.001Z</time>
      </trkpt>
      <trkpt lat="47.52045" lon="-0.16887">
        <ele>50</ele>
        <time>2013-04-21T09:53:46.001Z</time>
      </trkpt>
      <trkpt lat="47.52043" lon="-0.16882">
        <ele>49</ele>
        <time>2013-04-21T09:53:49.001Z</time>
      </trkpt>
      <trkpt lat="47.52042" lon="-0.1688">
        <ele>49</ele>
        <time>2013-04-21T09:53:50.001Z</time>
      </trkpt>
      <trkpt lat="47.52041" lon="-0.16875">
        <ele>49</ele>
        <time>2013-04-21T09:53:57.001Z</time>
      </trkpt>
      <trkpt lat="47.5204" lon="-0.16873">
        <ele>49</ele>
        <time>2013-04-21T09:53:58.001Z</time>
      </trkpt>
      <trkpt lat="47.52037" lon="-0.16869">
        <ele>49</ele>
        <time>2013-04-21T09:54:00.001Z</time>
      </trkpt>
      <trkpt lat="47.52036" lon="-0.16867">
        <ele>49</ele>
        <time>2013-04-21T09:54:01.001Z</time>
      </trkpt>
      <trkpt lat="47.52034" lon="-0.16863">
        <ele>49</ele>
        <time>2013-04-21T09:54:05.001Z</time>
      </trkpt>
      <trkpt lat="47.52033" lon="-0.16861">
        <ele>49</ele>
        <time>2013-04-21T09:54:06.001Z</time>
      </trkpt>
      <trkpt lat="47.52032" lon="-0.16856">
        <ele>49</ele>
        <time>2013-04-21T09:54:09.001Z</time>
      </trkpt>
      <trkpt lat="47.52031" lon="-0.16855">
        <ele>49</ele>
        <time>2013-04-21T09:54:10.001Z</time>
      </trkpt>
      <trkpt lat="47.52029" lon="-0.16851">
        <ele>49</ele>
        <time>2013-04-21T09:54:13.001Z</time>
      </trkpt>
      <trkpt lat="47.52028" lon="-0.16849">
        <ele>49</ele>
        <time>2013-04-21T09:54:14.001Z</time>
      </trkpt>
      <trkpt lat="47.52026" lon="-0.16844">
        <ele>49</ele>
        <time>2013-04-21T09:54:17.001Z</time>
      </trkpt>
      <trkpt lat="47.52026" lon="-0.16843">
        <ele>49</ele>
        <time>2013-04-21T09:54:18.001Z</time>
      </trkpt>
      <trkpt lat="47.52023" lon="-0.1684">
        <ele>49</ele>
        <time>2013-04-21T09:54:20.001Z</time>
      </trkpt>
      <trkpt lat="47.52022" lon="-0.16839">
        <ele>49</ele>
        <time>2013-04-21T09:54:21.001Z</time>
      </trkpt>
      <trkpt lat="47.52019" lon="-0.16835">
        <ele>48</ele>
        <time>2013-04-21T09:54:26.001Z</time>
      </trkpt>
      <trkpt lat="47.52018" lon="-0.16834">
        <ele>48</ele>
        <time>2013-04-21T09:54:27.001Z</time>
      </trkpt>
      <trkpt lat="47.52015" lon="-0.16829">
        <ele>48</ele>
        <time>2013-04-21T09:54:30.001Z</time>
      </trkpt>
      <trkpt lat="47.52014" lon="-0.16827">
        <ele>48</ele>
        <time>2013-04-21T09:54:31.001Z</time>
      </trkpt>
      <trkpt lat="47.52011" lon="-0.16824">
        <ele>48</ele>
        <time>2013-04-21T09:54:33.001Z</time>
      </trkpt>
      <trkpt lat="47.52009" lon="-0.16823">
        <ele>48</ele>
        <time>2013-04-21T09:54:34.001Z</time>
      </trkpt>
      <trkpt lat="47.52008" lon="-0.16817">
        <ele>48</ele>
        <time>2013-04-21T09:54:38.001Z</time>
      </trkpt>
      <trkpt lat="47.52008" lon="-0.16816">
        <ele>48</ele>
        <time>2013-04-21T09:54:39.001Z</time>
      </trkpt>
      <trkpt lat="47.52007" lon="-0.1681">
        <ele>49</ele>
        <time>2013-04-21T09:54:43.001Z</time>
      </trkpt>
      <trkpt lat="47.52006" lon="-0.16809">
        <ele>49</ele>
        <time>2013-04-21T09:54:44.001Z</time>
      </trkpt>
      <trkpt lat="47.52004" lon="-0.16804">
        <ele>49</ele>
        <time>2013-04-21T09:54:48.001Z</time>
      </trkpt>
      <trkpt lat="47.52003" lon="-0.16803">
        <ele>49</ele>
        <time>2013-04-21T09:54:49.001Z</time>
      </trkpt>
      <trkpt lat="47.52001" lon="-0.16798">
        <ele>49</ele>
        <time>2013-04-21T09:54:52.001Z</time>
      </trkpt>
      <trkpt lat="47.52" lon="-0.16796">
        <ele>49</ele>
        <time>2013-04-21T09:54:53.001Z</time>
      </trkpt>
      <trkpt lat="47.51998" lon="-0.16791">
        <ele>46</ele>
        <time>2013-04-21T09:54:57.001Z</time>
      </trkpt>
      <trkpt lat="47.51997" lon="-0.1679">
        <ele>46</ele>
        <time>2013-04-21T09:54:58.001Z</time>
      </trkpt>
      <trkpt lat="47.51994" lon="-0.16786">
        <ele>46</ele>
        <time>2013-04-21T09:55:02.001Z</time>
      </trkpt>
      <trkpt lat="47.51993" lon="-0.16784">
        <ele>46</ele>
        <time>2013-04-21T09:55:03.001Z</time>
      </trkpt>
      <trkpt lat="47.51992" lon="-0.16779">
        <ele>46</ele>
        <time>2013-04-21T09:55:06.001Z</time>
      </trkpt>
      <trkpt lat="47.51991" lon="-0.16778">
        <ele>46</ele>
        <time>2013-04-21T09:55:07.001Z</time>
      </trkpt>
      <trkpt lat="47.51989" lon="-0.16772">
        <ele>46</ele>
        <time>2013-04-21T09:55:11.001Z</time>
      </trkpt>
      <trkpt lat="47.51988" lon="-0.16771">
        <ele>46</ele>
        <time>2013-04-21T09:55:12.001Z</time>
      </trkpt>
      <trkpt lat="47.51985" lon="-0.16767">
        <ele>46</ele>
        <time>2013-04-21T09:55:15.001Z</time>
      </trkpt>
      <trkpt lat="47.51984" lon="-0.16766">
        <ele>46</ele>
        <time>2013-04-21T09:55:16.001Z</time>
      </trkpt>
      <trkpt lat="47.51982" lon="-0.16761">
        <ele>46</ele>
        <time>2013-04-21T09:55:21.001Z</time>
      </trkpt>
      <trkpt lat="47.51982" lon="-0.16759">
        <ele>46</ele>
        <time>2013-04-21T09:55:22.001Z</time>
      </trkpt>
      <trkpt lat="47.51979" lon="-0.16754">
        <ele>46</ele>
        <time>2013-04-21T09:55:26.001Z</time>
      </trkpt>
      <trkpt lat="47.51979" lon="-0.16753">
        <ele>46</ele>
        <time>2013-04-21T09:55:27.001Z</time>
      </trkpt>
      <trkpt lat="47.51977" lon="-0.16747">
        <ele>47</ele>
        <time>2013-04-21T09:55:31.001Z</time>
      </trkpt>
      <trkpt lat="47.51977" lon="-0.16746">
        <ele>47</ele>
        <time>2013-04-21T09:55:32.001Z</time>
      </trkpt>
      <trkpt lat="47.51975" lon="-0.16741">
        <ele>47</ele>
        <time>2013-04-21T09:55:36.001Z</time>
      </trkpt>
      <trkpt lat="47.51974" lon="-0.1674">
        <ele>47</ele>
        <time>2013-04-21T09:55:37.001Z</time>
      </trkpt>
      <trkpt lat="47.51973" lon="-0.16734">
        <ele>47</ele>
        <time>2013-04-21T09:55:41.001Z</time>
      </trkpt>
      <trkpt lat="47.51972" lon="-0.16732">
        <ele>47</ele>
        <time>2013-04-21T09:55:42.001Z</time>
      </trkpt>
      <trkpt lat="47.5197" lon="-0.16726">
        <ele>47</ele>
        <time>2013-04-21T09:55:45.001Z</time>
      </trkpt>
      <trkpt lat="47.51969" lon="-0.16725">
        <ele>47</ele>
        <time>2013-04-21T09:55:46.001Z</time>
      </trkpt>
      <trkpt lat="47.51966" lon="-0.16722">
        <ele>47</ele>
        <time>2013-04-21T09:55:50.001Z</time>
      </trkpt>
      <trkpt lat="47.51965" lon="-0.16721">
        <ele>47</ele>
        <time>2013-04-21T09:55:51.001Z</time>
      </trkpt>
      <trkpt lat="47.51963" lon="-0.16717">
        <ele>47</ele>
        <time>2013-04-21T09:55:53.001Z</time>
      </trkpt>
      <trkpt lat="47.51962" lon="-0.16715">
        <ele>47</ele>
        <time>2013-04-21T09:55:54.001Z</time>
      </trkpt>
      <trkpt lat="47.51959" lon="-0.1671">
        <ele>47</ele>
        <time>2013-04-21T09:55:57.001Z</time>
      </trkpt>
      <trkpt lat="47.51959" lon="-0.16709">
        <ele>47</ele>
        <time>2013-04-21T09:55:58.001Z</time>
      </trkpt>
      <trkpt lat="47.51956" lon="-0.16703">
        <ele>47</ele>
        <time>2013-04-21T09:56:02.001Z</time>
      </trkpt>
      <trkpt lat="47.51956" lon="-0.16702">
        <ele>47</ele>
        <time>2013-04-21T09:56:03.001Z</time>
      </trkpt>
      <trkpt lat="47.51954" lon="-0.16696">
        <ele>47</ele>
        <time>2013-04-21T09:56:08.001Z</time>
      </trkpt>
      <trkpt lat="47.51953" lon="-0.16695">
        <ele>47</ele>
        <time>2013-04-21T09:56:09.001Z</time>
      </trkpt>
      <trkpt lat="47.51952" lon="-0.1669">
        <ele>47</ele>
        <time>2013-04-21T09:56:12.001Z</time>
      </trkpt>
      <trkpt lat="47.51951" lon="-0.16687">
        <ele>47</ele>
        <time>2013-04-21T09:56:13.001Z</time>
      </trkpt>
      <trkpt lat="47.51948" lon="-0.16685">
        <ele>47</ele>
        <time>2013-04-21T09:56:17.001Z</time>
      </trkpt>
      <trkpt lat="47.51947" lon="-0.16684">
        <ele>47</ele>
        <time>2013-04-21T09:56:18.001Z</time>
      </trkpt>
      <trkpt lat="47.51944" lon="-0.16681">
        <ele>47</ele>
        <time>2013-04-21T09:56:20.001Z</time>
      </trkpt>
      <trkpt lat="47.51943" lon="-0.1668">
        <ele>47</ele>
        <time>2013-04-21T09:56:21.001Z</time>
      </trkpt>
      <trkpt lat="47.51941" lon="-0.16676">
        <ele>47</ele>
        <time>2013-04-21T09:56:24.001Z</time>
      </trkpt>
      <trkpt lat="47.5194" lon="-0.16674">
        <ele>47</ele>
        <time>2013-04-21T09:56:25.001Z</time>
      </trkpt>
      <trkpt lat="47.51937" lon="-0.1667">
        <ele>47</ele>
        <time>2013-04-21T09:56:28.001Z</time>
      </trkpt>
      <trkpt lat="47.51936" lon="-0.16669">
        <ele>47</ele>
        <time>2013-04-21T09:56:29.001Z</time>
      </trkpt>
      <trkpt lat="47.51934" lon="-0.16666">
        <ele>48</ele>
        <time>2013-04-21T09:56:33.001Z</time>
      </trkpt>
      <trkpt lat="47.51933" lon="-0.16663">
        <ele>48</ele>
        <time>2013-04-21T09:56:34.001Z</time>
      </trkpt>
      <trkpt lat="47.51931" lon="-0.1666">
        <ele>48</ele>
        <time>2013-04-21T09:56:36.001Z</time>
      </trkpt>
      <trkpt lat="47.5193" lon="-0.16658">
        <ele>48</ele>
        <time>2013-04-21T09:56:37.001Z</time>
      </trkpt>
      <trkpt lat="47.51928" lon="-0.16653">
        <ele>48</ele>
        <time>2013-04-21T09:56:39.001Z</time>
      </trkpt>
      <trkpt lat="47.51926" lon="-0.16651">
        <ele>48</ele>
        <time>2013-04-21T09:56:40.001Z</time>
      </trkpt>
      <trkpt lat="47.51922" lon="-0.16647">
        <ele>48</ele>
        <time>2013-04-21T09:56:45.001Z</time>
      </trkpt>
      <trkpt lat="47.51922" lon="-0.16645">
        <ele>48</ele>
        <time>2013-04-21T09:56:46.001Z</time>
      </trkpt>
      <trkpt lat="47.5192" lon="-0.16641">
        <ele>48</ele>
        <time>2013-04-21T09:56:49.001Z</time>
      </trkpt>
      <trkpt lat="47.51919" lon="-0.1664">
        <ele>48</ele>
        <time>2013-04-21T09:56:50.001Z</time>
      </trkpt>
      <trkpt lat="47.51916" lon="-0.16635">
        <ele>48</ele>
        <time>2013-04-21T09:56:54.001Z</time>
      </trkpt>
      <trkpt lat="47.51914" lon="-0.16634">
        <ele>48</ele>
        <time>2013-04-21T09:56:55.001Z</time>
      </trkpt>
      <trkpt lat="47.51913" lon="-0.1663">
        <ele>48</ele>
        <time>2013-04-21T09:56:59.001Z</time>
      </trkpt>
      <trkpt lat="47.51912" lon="-0.16627">
        <ele>48</ele>
        <time>2013-04-21T09:57:00.001Z</time>
      </trkpt>
      <trkpt lat="47.5191" lon="-0.16623">
        <ele>48</ele>
        <time>2013-04-21T09:57:03.001Z</time>
      </trkpt>
      <trkpt lat="47.5191" lon="-0.16621">
        <ele>48</ele>
        <time>2013-04-21T09:57:04.001Z</time>
      </trkpt>
      <trkpt lat="47.51908" lon="-0.16616">
        <ele>48</ele>
        <time>2013-04-21T09:57:07.001Z</time>
      </trkpt>
      <trkpt lat="47.51907" lon="-0.16614">
        <ele>48</ele>
        <time>2013-04-21T09:57:08.001Z</time>
      </trkpt>
      <trkpt lat="47.51905" lon="-0.1661">
        <ele>48</ele>
        <time>2013-04-21T09:57:11.001Z</time>
      </trkpt>
      <trkpt lat="47.51904" lon="-0.16607">
        <ele>48</ele>
        <time>2013-04-21T09:57:12.001Z</time>
      </trkpt>
      <trkpt lat="47.51902" lon="-0.16602">
        <ele>48</ele>
        <time>2013-04-21T09:57:15.001Z</time>
      </trkpt>
      <trkpt lat="47.51901" lon="-0.16601">
        <ele>48</ele>
        <time>2013-04-21T09:57:16.001Z</time>
      </trkpt>
      <trkpt lat="47.51898" lon="-0.16597">
        <ele>48</ele>
        <time>2013-04-21T09:57:19.001Z</time>
      </trkpt>
      <trkpt lat="47.51897" lon="-0.16596">
        <ele>48</ele>
        <time>2013-04-21T09:57:20.001Z</time>
      </trkpt>
      <trkpt lat="47.51894" lon="-0.16592">
        <ele>48</ele>
        <time>2013-04-21T09:57:24.001Z</time>
      </trkpt>
      <trkpt lat="47.51894" lon="-0.16591">
        <ele>48</ele>
        <time>2013-04-21T09:57:25.001Z</time>
      </trkpt>
      <trkpt lat="47.51891" lon="-0.16587">
        <ele>48</ele>
        <time>2013-04-21T09:57:28.001Z</time>
      </trkpt>
      <trkpt lat="47.5189" lon="-0.16586">
        <ele>48</ele>
        <time>2013-04-21T09:57:29.001Z</time>
      </trkpt>
      <trkpt lat="47.51889" lon="-0.16582">
        <ele>48</ele>
        <time>2013-04-21T09:57:33.001Z</time>
      </trkpt>
      <trkpt lat="47.51888" lon="-0.1658">
        <ele>48</ele>
        <time>2013-04-21T09:57:34.001Z</time>
      </trkpt>
      <trkpt lat="47.51886" lon="-0.16576">
        <ele>48</ele>
        <time>2013-04-21T09:57:38.001Z</time>
      </trkpt>
      <trkpt lat="47.51885" lon="-0.16574">
        <ele>48</ele>
        <time>2013-04-21T09:57:39.001Z</time>
      </trkpt>
      <trkpt lat="47.51883" lon="-0.1657">
        <ele>48</ele>
        <time>2013-04-21T09:57:42.001Z</time>
      </trkpt>
      <trkpt lat="47.51882" lon="-0.16569">
        <ele>48</ele>
        <time>2013-04-21T09:57:43.001Z</time>
      </trkpt>
      <trkpt lat="47.51879" lon="-0.16566">
        <ele>48</ele>
        <time>2013-04-21T09:57:46.001Z</time>
      </trkpt>
      <trkpt lat="47.51878" lon="-0.16565">
        <ele>48</ele>
        <time>2013-04-21T09:57:47.001Z</time>
      </trkpt>
      <trkpt lat="47.51875" lon="-0.16561">
        <ele>48</ele>
        <time>2013-04-21T09:57:51.001Z</time>
      </trkpt>
      <trkpt lat="47.51873" lon="-0.1656">
        <ele>48</ele>
        <time>2013-04-21T09:57:52.001Z</time>
      </trkpt>
      <trkpt lat="47.5187" lon="-0.16556">
        <ele>48</ele>
        <time>2013-04-21T09:57:54.001Z</time>
      </trkpt>
      <trkpt lat="47.51869" lon="-0.16555">
        <ele>48</ele>
        <time>2013-04-21T09:57:55.001Z</time>
      </trkpt>
      <trkpt lat="47.51866" lon="-0.16552">
        <ele>49</ele>
        <time>2013-04-21T09:57:58.001Z</time>
      </trkpt>
      <trkpt lat="47.51864" lon="-0.16551">
        <ele>49</ele>
        <time>2013-04-21T09:57:59.001Z</time>
      </trkpt>
      <trkpt lat="47.51861" lon="-0.16547">
        <ele>49</ele>
        <time>2013-04-21T09:58:03.001Z</time>
      </trkpt>
      <trkpt lat="47.5186" lon="-0.16546">
        <ele>49</ele>
        <time>2013-04-21T09:58:04.001Z</time>
      </trkpt>
      <trkpt lat="47.51858" lon="-0.16543">
        <ele>49</ele>
        <time>2013-04-21T09:58:06.001Z</time>
      </trkpt>
      <trkpt lat="47.51857" lon="-0.16541">
        <ele>49</ele>
        <time>2013-04-21T09:58:07.001Z</time>
      </trkpt>
      <trkpt lat="47.51854" lon="-0.16536">
        <ele>48</ele>
        <time>2013-04-21T09:58:11.001Z</time>
      </trkpt>
      <trkpt lat="47.51853" lon="-0.16535">
        <ele>48</ele>
        <time>2013-04-21T09:58:12.001Z</time>
      </trkpt>
      <trkpt lat="47.51849" lon="-0.16534">
        <ele>48</ele>
        <time>2013-04-21T09:58:16.001Z</time>
      </trkpt>
      <trkpt lat="47.51848" lon="-0.16533">
        <ele>48</ele>
        <time>2013-04-21T09:58:17.001Z</time>
      </trkpt>
      <trkpt lat="47.51845" lon="-0.1653">
        <ele>48</ele>
        <time>2013-04-21T09:58:19.001Z</time>
      </trkpt>
      <trkpt lat="47.51843" lon="-0.16528">
        <ele>48</ele>
        <time>2013-04-21T09:58:20.001Z</time>
      </trkpt>
      <trkpt lat="47.5184" lon="-0.16526">
        <ele>48</ele>
        <time>2013-04-21T09:58:24.001Z</time>
      </trkpt>
      <trkpt lat="47.51838" lon="-0.16526">
        <ele>48</ele>
        <time>2013-04-21T09:58:25.001Z</time>
      </trkpt>
      <trkpt lat="47.51834" lon="-0.16524">
        <ele>48</ele>
        <time>2013-04-21T09:58:28.001Z</time>
      </trkpt>
      <trkpt lat="47.51833" lon="-0.16524">
        <ele>48</ele>
        <time>2013-04-21T09:58:29.001Z</time>
      </trkpt>
      <trkpt lat="47.51831" lon="-0.16519">
        <ele>48</ele>
        <time>2013-04-21T09:58:34.001Z</time>
      </trkpt>
      <trkpt lat="47.51831" lon="-0.16517">
        <ele>48</ele>
        <time>2013-04-21T09:58:35.001Z</time>
      </trkpt>
      <trkpt lat="47.51828" lon="-0.16512">
        <ele>48</ele>
        <time>2013-04-21T09:58:39.001Z</time>
      </trkpt>
      <trkpt lat="47.51827" lon="-0.16511">
        <ele>48</ele>
        <time>2013-04-21T09:58:40.001Z</time>
      </trkpt>
      <trkpt lat="47.51823" lon="-0.16507">
        <ele>48</ele>
        <time>2013-04-21T09:58:43.001Z</time>
      </trkpt>
      <trkpt lat="47.51822" lon="-0.16505">
        <ele>48</ele>
        <time>2013-04-21T09:58:44.001Z</time>
      </trkpt>
      <trkpt lat="47.51819" lon="-0.16501">
        <ele>48</ele>
        <time>2013-04-21T09:58:47.001Z</time>
      </trkpt>
      <trkpt lat="47.51817" lon="-0.165">
        <ele>48</ele>
        <time>2013-04-21T09:58:48.001Z</time>
      </trkpt>
      <trkpt lat="47.51814" lon="-0.16497">
        <ele>46</ele>
        <time>2013-04-21T09:58:50.001Z</time>
      </trkpt>
      <trkpt lat="47.51813" lon="-0.16496">
        <ele>46</ele>
        <time>2013-04-21T09:58:51.001Z</time>
      </trkpt>
      <trkpt lat="47.5181" lon="-0.16495">
        <ele>46</ele>
        <time>2013-04-21T09:58:56.001Z</time>
      </trkpt>
      <trkpt lat="47.51809" lon="-0.16495">
        <ele>46</ele>
        <time>2013-04-21T09:58:57.001Z</time>
      </trkpt>
      <trkpt lat="47.51805" lon="-0.16493">
        <ele>46</ele>
        <time>2013-04-21T09:59:00.001Z</time>
      </trkpt>
      <trkpt lat="47.51804" lon="-0.16492">
        <ele>46</ele>
        <time>2013-04-21T09:59:01.001Z</time>
      </trkpt>
      <trkpt lat="47.51801" lon="-0.16489">
        <ele>46</ele>
        <time>2013-04-21T09:59:05.001Z</time>
      </trkpt>
      <trkpt lat="47.518" lon="-0.16488">
        <ele>46</ele>
        <time>2013-04-21T09:59:06.001Z</time>
      </trkpt>
      <trkpt lat="47.51797" lon="-0.16484">
        <ele>45</ele>
        <time>2013-04-21T09:59:09.001Z</time>
      </trkpt>
      <trkpt lat="47.51796" lon="-0.16483">
        <ele>45</ele>
        <time>2013-04-21T09:59:10.001Z</time>
      </trkpt>
      <trkpt lat="47.51793" lon="-0.16479">
        <ele>45</ele>
        <time>2013-04-21T09:59:13.001Z</time>
      </trkpt>
      <trkpt lat="47.51791" lon="-0.16478">
        <ele>45</ele>
        <time>2013-04-21T09:59:14.001Z</time>
      </trkpt>
      <trkpt lat="47.51789" lon="-0.16476">
        <ele>45</ele>
        <time>2013-04-21T09:59:16.001Z</time>
      </trkpt>
      <trkpt lat="47.51788" lon="-0.16475">
        <ele>45</ele>
        <time>2013-04-21T09:59:17.001Z</time>
      </trkpt>
      <trkpt lat="47.51785" lon="-0.16471">
        <ele>45</ele>
        <time>2013-04-21T09:59:20.001Z</time>
      </trkpt>
      <trkpt lat="47.51784" lon="-0.1647">
        <ele>45</ele>
        <time>2013-04-21T09:59:21.001Z</time>
      </trkpt>
      <trkpt lat="47.51781" lon="-0.16467">
        <ele>45</ele>
        <time>2013-04-21T09:59:24.001Z</time>
      </trkpt>
      <trkpt lat="47.51779" lon="-0.16465">
        <ele>45</ele>
        <time>2013-04-21T09:59:25.001Z</time>
      </trkpt>
      <trkpt lat="47.51776" lon="-0.16462">
        <ele>45</ele>
        <time>2013-04-21T09:59:27.001Z</time>
      </trkpt>
      <trkpt lat="47.51775" lon="-0.16461">
        <ele>45</ele>
        <time>2013-04-21T09:59:28.001Z</time>
      </trkpt>
      <trkpt lat="47.51772" lon="-0.16456">
        <ele>45</ele>
        <time>2013-04-21T09:59:34.001Z</time>
      </trkpt>
      <trkpt lat="47.51771" lon="-0.16455">
        <ele>44</ele>
        <time>2013-04-21T09:59:35.001Z</time>
      </trkpt>
      <trkpt lat="47.51771" lon="-0.16449">
        <ele>44</ele>
        <time>2013-04-21T09:59:39.001Z</time>
      </trkpt>
      <trkpt lat="47.51771" lon="-0.16448">
        <ele>44</ele>
        <time>2013-04-21T09:59:40.001Z</time>
      </trkpt>
      <trkpt lat="47.51768" lon="-0.16443">
        <ele>44</ele>
        <time>2013-04-21T09:59:44.001Z</time>
      </trkpt>
      <trkpt lat="47.51767" lon="-0.16441">
        <ele>44</ele>
        <time>2013-04-21T09:59:45.001Z</time>
      </trkpt>
      <trkpt lat="47.51765" lon="-0.16436">
        <ele>44</ele>
        <time>2013-04-21T09:59:48.001Z</time>
      </trkpt>
      <trkpt lat="47.51765" lon="-0.16435">
        <ele>44</ele>
        <time>2013-04-21T09:59:49.001Z</time>
      </trkpt>
      <trkpt lat="47.51763" lon="-0.1643">
        <ele>44</ele>
        <time>2013-04-21T09:59:52.001Z</time>
      </trkpt>
      <trkpt lat="47.51763" lon="-0.16428">
        <ele>44</ele>
        <time>2013-04-21T09:59:53.001Z</time>
      </trkpt>
      <trkpt lat="47.51761" lon="-0.16423">
        <ele>43</ele>
        <time>2013-04-21T09:59:57.001Z</time>
      </trkpt>
      <trkpt lat="47.5176" lon="-0.16421">
        <ele>43</ele>
        <time>2013-04-21T09:59:58.001Z</time>
      </trkpt>
      <trkpt lat="47.51759" lon="-0.16416">
        <ele>42</ele>
        <time>2013-04-21T10:00:01.001Z</time>
      </trkpt>
      <trkpt lat="47.51758" lon="-0.16414">
        <ele>42</ele>
        <time>2013-04-21T10:00:02.001Z</time>
      </trkpt>
      <trkpt lat="47.51756" lon="-0.16411">
        <ele>42</ele>
        <time>2013-04-21T10:00:05.001Z</time>
      </trkpt>
      <trkpt lat="47.51755" lon="-0.16409">
        <ele>42</ele>
        <time>2013-04-21T10:00:06.001Z</time>
      </trkpt>
      <trkpt lat="47.51753" lon="-0.16404">
        <ele>43</ele>
        <time>2013-04-21T10:00:09.001Z</time>
      </trkpt>
      <trkpt lat="47.51752" lon="-0.16403">
        <ele>43</ele>
        <time>2013-04-21T10:00:10.001Z</time>
      </trkpt>
      <trkpt lat="47.51751" lon="-0.16397">
        <ele>43</ele>
        <time>2013-04-21T10:00:13.001Z</time>
      </trkpt>
      <trkpt lat="47.5175" lon="-0.16395">
        <ele>43</ele>
        <time>2013-04-21T10:00:14.001Z</time>
      </trkpt>
      <trkpt lat="47.51749" lon="-0.16389">
        <ele>41</ele>
        <time>2013-04-21T10:00:17.001Z</time>
      </trkpt>
      <trkpt lat="47.51748" lon="-0.16389">
        <ele>41</ele>
        <time>2013-04-21T10:00:18.001Z</time>
      </trkpt>
      <trkpt lat="47.51746" lon="-0.16383">
        <ele>41</ele>
        <time>2013-04-21T10:00:22.001Z</time>
      </trkpt>
      <trkpt lat="47.51746" lon="-0.16383">
        <ele>41</ele>
        <time>2013-04-21T10:00:23.001Z</time>
      </trkpt>
      <trkpt lat="47.51744" lon="-0.16377">
        <ele>41</ele>
        <time>2013-04-21T10:00:26.001Z</time>
      </trkpt>
      <trkpt lat="47.51743" lon="-0.16376">
        <ele>41</ele>
        <time>2013-04-21T10:00:27.001Z</time>
      </trkpt>
      <trkpt lat="47.51741" lon="-0.1637">
        <ele>41</ele>
        <time>2013-04-21T10:00:30.001Z</time>
      </trkpt>
      <trkpt lat="47.51741" lon="-0.16369">
        <ele>41</ele>
        <time>2013-04-21T10:00:31.001Z</time>
      </trkpt>
      <trkpt lat="47.5174" lon="-0.16363">
        <ele>41</ele>
        <time>2013-04-21T10:00:34.001Z</time>
      </trkpt>
      <trkpt lat="47.5174" lon="-0.16361">
        <ele>41</ele>
        <time>2013-04-21T10:00:35.001Z</time>
      </trkpt>
      <trkpt lat="47.51739" lon="-0.16355">
        <ele>41</ele>
        <time>2013-04-21T10:00:39.001Z</time>
      </trkpt>
      <trkpt lat="47.51739" lon="-0.16353">
        <ele>41</ele>
        <time>2013-04-21T10:00:40.001Z</time>
      </trkpt>
      <trkpt lat="47.51737" lon="-0.16348">
        <ele>41</ele>
        <time>2013-04-21T10:00:43.001Z</time>
      </trkpt>
      <trkpt lat="47.51737" lon="-0.16346">
        <ele>41</ele>
        <time>2013-04-21T10:00:44.001Z</time>
      </trkpt>
      <trkpt lat="47.51735" lon="-0.16341">
        <ele>41</ele>
        <time>2013-04-21T10:00:47.001Z</time>
      </trkpt>
      <trkpt lat="47.51735" lon="-0.16339">
        <ele>41</ele>
        <time>2013-04-21T10:00:48.001Z</time>
      </trkpt>
      <trkpt lat="47.51734" lon="-0.16334">
        <ele>41</ele>
        <time>2013-04-21T10:00:51.001Z</time>
      </trkpt>
      <trkpt lat="47.51734" lon="-0.16332">
        <ele>42</ele>
        <time>2013-04-21T10:00:52.001Z</time>
      </trkpt>
      <trkpt lat="47.51733" lon="-0.16326">
        <ele>42</ele>
        <time>2013-04-21T10:00:58.001Z</time>
      </trkpt>
      <trkpt lat="47.51733" lon="-0.16324">
        <ele>42</ele>
        <time>2013-04-21T10:00:59.001Z</time>
      </trkpt>
      <trkpt lat="47.51733" lon="-0.16318">
        <ele>42</ele>
        <time>2013-04-21T10:01:02.001Z</time>
      </trkpt>
      <trkpt lat="47.51733" lon="-0.16316">
        <ele>42</ele>
        <time>2013-04-21T10:01:03.001Z</time>
      </trkpt>
      <trkpt lat="47.51733" lon="-0.1631">
        <ele>42</ele>
        <time>2013-04-21T10:01:05.001Z</time>
      </trkpt>
      <trkpt lat="47.51732" lon="-0.16309">
        <ele>42</ele>
        <time>2013-04-21T10:01:06.001Z</time>
      </trkpt>
      <trkpt lat="47.51732" lon="-0.16303">
        <ele>42</ele>
        <time>2013-04-21T10:01:09.001Z</time>
      </trkpt>
      <trkpt lat="47.51732" lon="-0.16301">
        <ele>42</ele>
        <time>2013-04-21T10:01:10.001Z</time>
      </trkpt>
      <trkpt lat="47.51731" lon="-0.16295">
        <ele>42</ele>
        <time>2013-04-21T10:01:14.001Z</time>
      </trkpt>
      <trkpt lat="47.51731" lon="-0.16293">
        <ele>42</ele>
        <time>2013-04-21T10:01:15.001Z</time>
      </trkpt>
      <trkpt lat="47.5173" lon="-0.16287">
        <ele>42</ele>
        <time>2013-04-21T10:01:19.001Z</time>
      </trkpt>
      <trkpt lat="47.5173" lon="-0.16286">
        <ele>42</ele>
        <time>2013-04-21T10:01:20.001Z</time>
      </trkpt>
      <trkpt lat="47.5173" lon="-0.1628">
        <ele>42</ele>
        <time>2013-04-21T10:01:23.001Z</time>
      </trkpt>
      <trkpt lat="47.5173" lon="-0.16278">
        <ele>42</ele>
        <time>2013-04-21T10:01:24.001Z</time>
      </trkpt>
      <trkpt lat="47.5173" lon="-0.16272">
        <ele>42</ele>
        <time>2013-04-21T10:01:28.001Z</time>
      </trkpt>
      <trkpt lat="47.51731" lon="-0.1627">
        <ele>43</ele>
        <time>2013-04-21T10:01:29.001Z</time>
      </trkpt>
      <trkpt lat="47.51731" lon="-0.16264">
        <ele>43</ele>
        <time>2013-04-21T10:01:32.001Z</time>
      </trkpt>
      <trkpt lat="47.51731" lon="-0.16262">
        <ele>43</ele>
        <time>2013-04-21T10:01:33.001Z</time>
      </trkpt>
      <trkpt lat="47.51731" lon="-0.16257">
        <ele>43</ele>
        <time>2013-04-21T10:01:36.001Z</time>
      </trkpt>
      <trkpt lat="47.51731" lon="-0.16256">
        <ele>43</ele>
        <time>2013-04-21T10:01:37.001Z</time>
      </trkpt>
      <trkpt lat="47.51729" lon="-0.1625">
        <ele>43</ele>
        <time>2013-04-21T10:01:40.001Z</time>
      </trkpt>
      <trkpt lat="47.51729" lon="-0.16248">
        <ele>44</ele>
        <time>2013-04-21T10:01:41.001Z</time>
      </trkpt>
      <trkpt lat="47.51728" lon="-0.16243">
        <ele>44</ele>
        <time>2013-04-21T10:01:44.001Z</time>
      </trkpt>
      <trkpt lat="47.51728" lon="-0.16241">
        <ele>44</ele>
        <time>2013-04-21T10:01:45.001Z</time>
      </trkpt>
      <trkpt lat="47.51728" lon="-0.16235">
        <ele>44</ele>
        <time>2013-04-21T10:01:48.001Z</time>
      </trkpt>
      <trkpt lat="47.51727" lon="-0.16233">
        <ele>44</ele>
        <time>2013-04-21T10:01:49.001Z</time>
      </trkpt>
      <trkpt lat="47.51727" lon="-0.16227">
        <ele>44</ele>
        <time>2013-04-21T10:01:54.001Z</time>
      </trkpt>
      <trkpt lat="47.51727" lon="-0.16225">
        <ele>44</ele>
        <time>2013-04-21T10:01:55.001Z</time>
      </trkpt>
      <trkpt lat="47.51725" lon="-0.16219">
        <ele>44</ele>
        <time>2013-04-21T10:02:00.001Z</time>
      </trkpt>
      <trkpt lat="47.51725" lon="-0.16217">
        <ele>44</ele>
        <time>2013-04-21T10:02:01.001Z</time>
      </trkpt>
      <trkpt lat="47.51723" lon="-0.16213">
        <ele>44</ele>
        <time>2013-04-21T10:02:04.001Z</time>
      </trkpt>
      <trkpt lat="47.51722" lon="-0.16211">
        <ele>44</ele>
        <time>2013-04-21T10:02:05.001Z</time>
      </trkpt>
      <trkpt lat="47.5172" lon="-0.16205">
        <ele>45</ele>
        <time>2013-04-21T10:02:09.001Z</time>
      </trkpt>
      <trkpt lat="47.51719" lon="-0.16204">
        <ele>45</ele>
        <time>2013-04-21T10:02:10.001Z</time>
      </trkpt>
      <trkpt lat="47.51718" lon="-0.162">
        <ele>45</ele>
        <time>2013-04-21T10:02:12.001Z</time>
      </trkpt>
      <trkpt lat="47.51717" lon="-0.16198">
        <ele>45</ele>
        <time>2013-04-21T10:02:13.001Z</time>
      </trkpt>
      <trkpt lat="47.51714" lon="-0.16193">
        <ele>45</ele>
        <time>2013-04-21T10:02:16.001Z</time>
      </trkpt>
      <trkpt lat="47.51714" lon="-0.16192">
        <ele>45</ele>
        <time>2013-04-21T10:02:17.001Z</time>
      </trkpt>
      <trkpt lat="47.51712" lon="-0.16187">
        <ele>45</ele>
        <time>2013-04-21T10:02:20.001Z</time>
      </trkpt>
      <trkpt lat="47.51711" lon="-0.16185">
        <ele>45</ele>
        <time>2013-04-21T10:02:21.001Z</time>
      </trkpt>
      <trkpt lat="47.51708" lon="-0.16182">
        <ele>45</ele>
        <time>2013-04-21T10:02:23.001Z</time>
      </trkpt>
      <trkpt lat="47.51707" lon="-0.16181">
        <ele>45</ele>
        <time>2013-04-21T10:02:24.001Z</time>
      </trkpt>
      <trkpt lat="47.51705" lon="-0.16175">
        <ele>45</ele>
        <time>2013-04-21T10:02:27.001Z</time>
      </trkpt>
      <trkpt lat="47.51704" lon="-0.16174">
        <ele>45</ele>
        <time>2013-04-21T10:02:28.001Z</time>
      </trkpt>
      <trkpt lat="47.51701" lon="-0.1617">
        <ele>45</ele>
        <time>2013-04-21T10:02:31.001Z</time>
      </trkpt>
      <trkpt lat="47.517" lon="-0.16168">
        <ele>45</ele>
        <time>2013-04-21T10:02:32.001Z</time>
      </trkpt>
      <trkpt lat="47.51697" lon="-0.16165">
        <ele>45</ele>
        <time>2013-04-21T10:02:35.001Z</time>
      </trkpt>
      <trkpt lat="47.51696" lon="-0.16163">
        <ele>45</ele>
        <time>2013-04-21T10:02:36.001Z</time>
      </trkpt>
      <trkpt lat="47.51696" lon="-0.16159">
        <ele>45</ele>
        <time>2013-04-21T10:02:39.001Z</time>
      </trkpt>
      <trkpt lat="47.51695" lon="-0.16157">
        <ele>45</ele>
        <time>2013-04-21T10:02:40.001Z</time>
      </trkpt>
      <trkpt lat="47.51694" lon="-0.16153">
        <ele>45</ele>
        <time>2013-04-21T10:02:43.001Z</time>
      </trkpt>
      <trkpt lat="47.51692" lon="-0.16151">
        <ele>45</ele>
        <time>2013-04-21T10:02:44.001Z</time>
      </trkpt>
      <trkpt lat="47.51689" lon="-0.16147">
        <ele>45</ele>
        <time>2013-04-21T10:02:47.001Z</time>
      </trkpt>
      <trkpt lat="47.51688" lon="-0.16146">
        <ele>45</ele>
        <time>2013-04-21T10:02:48.001Z</time>
      </trkpt>
      <trkpt lat="47.51685" lon="-0.16142">
        <ele>45</ele>
        <time>2013-04-21T10:02:53.001Z</time>
      </trkpt>
      <trkpt lat="47.51684" lon="-0.16141">
        <ele>45</ele>
        <time>2013-04-21T10:02:54.001Z</time>
      </trkpt>
      <trkpt lat="47.51681" lon="-0.16135">
        <ele>45</ele>
        <time>2013-04-21T10:02:58.001Z</time>
      </trkpt>
      <trkpt lat="47.5168" lon="-0.16134">
        <ele>45</ele>
        <time>2013-04-21T10:02:59.001Z</time>
      </trkpt>
      <trkpt lat="47.51677" lon="-0.16129">
        <ele>45</ele>
        <time>2013-04-21T10:03:01.001Z</time>
      </trkpt>
      <trkpt lat="47.51676" lon="-0.16127">
        <ele>45</ele>
        <time>2013-04-21T10:03:02.001Z</time>
      </trkpt>
      <trkpt lat="47.51673" lon="-0.16124">
        <ele>45</ele>
        <time>2013-04-21T10:03:07.001Z</time>
      </trkpt>
      <trkpt lat="47.51672" lon="-0.16123">
        <ele>45</ele>
        <time>2013-04-21T10:03:08.001Z</time>
      </trkpt>
      <trkpt lat="47.51669" lon="-0.16119">
        <ele>45</ele>
        <time>2013-04-21T10:03:10.001Z</time>
      </trkpt>
      <trkpt lat="47.51668" lon="-0.16117">
        <ele>45</ele>
        <time>2013-04-21T10:03:11.001Z</time>
      </trkpt>
      <trkpt lat="47.51666" lon="-0.16112">
        <ele>43</ele>
        <time>2013-04-21T10:03:15.001Z</time>
      </trkpt>
      <trkpt lat="47.51665" lon="-0.16111">
        <ele>43</ele>
        <time>2013-04-21T10:03:16.001Z</time>
      </trkpt>
      <trkpt lat="47.51662" lon="-0.16106">
        <ele>43</ele>
        <time>2013-04-21T10:03:19.001Z</time>
      </trkpt>
      <trkpt lat="47.51661" lon="-0.16105">
        <ele>43</ele>
        <time>2013-04-21T10:03:20.001Z</time>
      </trkpt>
      <trkpt lat="47.51659" lon="-0.16101">
        <ele>43</ele>
        <time>2013-04-21T10:03:23.001Z</time>
      </trkpt>
      <trkpt lat="47.51658" lon="-0.16099">
        <ele>43</ele>
        <time>2013-04-21T10:03:24.001Z</time>
      </trkpt>
      <trkpt lat="47.51655" lon="-0.16094">
        <ele>43</ele>
        <time>2013-04-21T10:03:27.001Z</time>
      </trkpt>
      <trkpt lat="47.51654" lon="-0.16092">
        <ele>43</ele>
        <time>2013-04-21T10:03:28.001Z</time>
      </trkpt>
      <trkpt lat="47.51652" lon="-0.16086">
        <ele>43</ele>
        <time>2013-04-21T10:03:31.001Z</time>
      </trkpt>
      <trkpt lat="47.51652" lon="-0.16085">
        <ele>43</ele>
        <time>2013-04-21T10:03:32.001Z</time>
      </trkpt>
      <trkpt lat="47.51649" lon="-0.1608">
        <ele>43</ele>
        <time>2013-04-21T10:03:36.001Z</time>
      </trkpt>
      <trkpt lat="47.51647" lon="-0.16078">
        <ele>43</ele>
        <time>2013-04-21T10:03:37.001Z</time>
      </trkpt>
      <trkpt lat="47.51645" lon="-0.16073">
        <ele>43</ele>
        <time>2013-04-21T10:03:40.001Z</time>
      </trkpt>
      <trkpt lat="47.51644" lon="-0.16071">
        <ele>43</ele>
        <time>2013-04-21T10:03:41.001Z</time>
      </trkpt>
      <trkpt lat="47.51642" lon="-0.16066">
        <ele>43</ele>
        <time>2013-04-21T10:03:45.001Z</time>
      </trkpt>
      <trkpt lat="47.51641" lon="-0.16064">
        <ele>43</ele>
        <time>2013-04-21T10:03:46.001Z</time>
      </trkpt>
      <trkpt lat="47.51639" lon="-0.1606">
        <ele>43</ele>
        <time>2013-04-21T10:03:50.001Z</time>
      </trkpt>
      <trkpt lat="47.51638" lon="-0.16059">
        <ele>43</ele>
        <time>2013-04-21T10:03:51.001Z</time>
      </trkpt>
      <trkpt lat="47.51636" lon="-0.16055">
        <ele>43</ele>
        <time>2013-04-21T10:03:53.001Z</time>
      </trkpt>
      <trkpt lat="47.51635" lon="-0.16053">
        <ele>43</ele>
        <time>2013-04-21T10:03:54.001Z</time>
      </trkpt>
      <trkpt lat="47.51632" lon="-0.16049">
        <ele>43</ele>
        <time>2013-04-21T10:03:58.001Z</time>
      </trkpt>
      <trkpt lat="47.51632" lon="-0.16048">
        <ele>43</ele>
        <time>2013-04-21T10:03:59.001Z</time>
      </trkpt>
      <trkpt lat="47.51628" lon="-0.16045">
        <ele>43</ele>
        <time>2013-04-21T10:04:02.001Z</time>
      </trkpt>
      <trkpt lat="47.51627" lon="-0.16043">
        <ele>43</ele>
        <time>2013-04-21T10:04:03.001Z</time>
      </trkpt>
      <trkpt lat="47.51624" lon="-0.16038">
        <ele>43</ele>
        <time>2013-04-21T10:04:07.001Z</time>
      </trkpt>
      <trkpt lat="47.51623" lon="-0.16036">
        <ele>43</ele>
        <time>2013-04-21T10:04:08.001Z</time>
      </trkpt>
      <trkpt lat="47.51621" lon="-0.16033">
        <ele>43</ele>
        <time>2013-04-21T10:04:10.001Z</time>
      </trkpt>
      <trkpt lat="47.5162" lon="-0.16032">
        <ele>43</ele>
        <time>2013-04-21T10:04:11.001Z</time>
      </trkpt>
      <trkpt lat="47.51616" lon="-0.16029">
        <ele>43</ele>
        <time>2013-04-21T10:04:14.001Z</time>
      </trkpt>
      <trkpt lat="47.51615" lon="-0.16027">
        <ele>43</ele>
        <time>2013-04-21T10:04:15.001Z</time>
      </trkpt>
      <trkpt lat="47.51611" lon="-0.16023">
        <ele>42</ele>
        <time>2013-04-21T10:04:18.001Z</time>
      </trkpt>
      <trkpt lat="47.51611" lon="-0.16021">
        <ele>42</ele>
        <time>2013-04-21T10:04:19.001Z</time>
      </trkpt>
      <trkpt lat="47.51609" lon="-0.16017">
        <ele>42</ele>
        <time>2013-04-21T10:04:22.001Z</time>
      </trkpt>
      <trkpt lat="47.51609" lon="-0.16015">
        <ele>42</ele>
        <time>2013-04-21T10:04:23.001Z</time>
      </trkpt>
      <trkpt lat="47.51606" lon="-0.16011">
        <ele>42</ele>
        <time>2013-04-21T10:04:27.001Z</time>
      </trkpt>
      <trkpt lat="47.51605" lon="-0.1601">
        <ele>42</ele>
        <time>2013-04-21T10:04:28.001Z</time>
      </trkpt>
      <trkpt lat="47.51604" lon="-0.16005">
        <ele>42</ele>
        <time>2013-04-21T10:04:31.001Z</time>
      </trkpt>
      <trkpt lat="47.51603" lon="-0.16003">
        <ele>42</ele>
        <time>2013-04-21T10:04:32.001Z</time>
      </trkpt>
      <trkpt lat="47.51601" lon="-0.15998">
        <ele>43</ele>
        <time>2013-04-21T10:04:40.001Z</time>
      </trkpt>
      <trkpt lat="47.51601" lon="-0.15997">
        <ele>43</ele>
        <time>2013-04-21T10:04:41.001Z</time>
      </trkpt>
      <trkpt lat="47.51601" lon="-0.15991">
        <ele>43</ele>
        <time>2013-04-21T10:04:45.001Z</time>
      </trkpt>
      <trkpt lat="47.516" lon="-0.15989">
        <ele>43</ele>
        <time>2013-04-21T10:04:46.001Z</time>
      </trkpt>
      <trkpt lat="47.51603" lon="-0.15985">
        <ele>43</ele>
        <time>2013-04-21T10:04:55.001Z</time>
      </trkpt>
      <trkpt lat="47.51603" lon="-0.15984">
        <ele>43</ele>
        <time>2013-04-21T10:04:56.001Z</time>
      </trkpt>
      <trkpt lat="47.51604" lon="-0.15979">
        <ele>43</ele>
        <time>2013-04-21T10:04:59.001Z</time>
      </trkpt>
      <trkpt lat="47.51605" lon="-0.15977">
        <ele>43</ele>
        <time>2013-04-21T10:05:00.001Z</time>
      </trkpt>
      <trkpt lat="47.51607" lon="-0.15972">
        <ele>43</ele>
        <time>2013-04-21T10:05:04.001Z</time>
      </trkpt>
      <trkpt lat="47.51608" lon="-0.15971">
        <ele>43</ele>
        <time>2013-04-21T10:05:05.001Z</time>
      </trkpt>
      <trkpt lat="47.5161" lon="-0.15965">
        <ele>43</ele>
        <time>2013-04-21T10:05:11.001Z</time>
      </trkpt>
      <trkpt lat="47.5161" lon="-0.15965">
        <ele>44</ele>
        <time>2013-04-21T10:05:12.001Z</time>
      </trkpt>
      <trkpt lat="47.51612" lon="-0.1596">
        <ele>44</ele>
        <time>2013-04-21T10:05:17.001Z</time>
      </trkpt>
      <trkpt lat="47.51612" lon="-0.15959">
        <ele>44</ele>
        <time>2013-04-21T10:05:18.001Z</time>
      </trkpt>
      <trkpt lat="47.51613" lon="-0.15953">
        <ele>44</ele>
        <time>2013-04-21T10:05:25.001Z</time>
      </trkpt>
      <trkpt lat="47.51614" lon="-0.15952">
        <ele>44</ele>
        <time>2013-04-21T10:05:26.001Z</time>
      </trkpt>
      <trkpt lat="47.51615" lon="-0.15946">
        <ele>44</ele>
        <time>2013-04-21T10:05:33.001Z</time>
      </trkpt>
      <trkpt lat="47.51616" lon="-0.15945">
        <ele>44</ele>
        <time>2013-04-21T10:05:34.001Z</time>
      </trkpt>
      <trkpt lat="47.51616" lon="-0.15939">
        <ele>44</ele>
        <time>2013-04-21T10:05:36.001Z</time>
      </trkpt>
      <trkpt lat="47.51617" lon="-0.15937">
        <ele>44</ele>
        <time>2013-04-21T10:05:37.001Z</time>
      </trkpt>
      <trkpt lat="47.51618" lon="-0.15931">
        <ele>44</ele>
        <time>2013-04-21T10:05:40.001Z</time>
      </trkpt>
      <trkpt lat="47.51618" lon="-0.1593">
        <ele>44</ele>
        <time>2013-04-21T10:05:41.001Z</time>
      </trkpt>
      <trkpt lat="47.5162" lon="-0.15924">
        <ele>44</ele>
        <time>2013-04-21T10:05:47.001Z</time>
      </trkpt>
      <trkpt lat="47.5162" lon="-0.15923">
        <ele>44</ele>
        <time>2013-04-21T10:05:48.001Z</time>
      </trkpt>
      <trkpt lat="47.51622" lon="-0.15918">
        <ele>44</ele>
        <time>2013-04-21T10:05:52.001Z</time>
      </trkpt>
      <trkpt lat="47.51623" lon="-0.15916">
        <ele>44</ele>
        <time>2013-04-21T10:05:53.001Z</time>
      </trkpt>
      <trkpt lat="47.51624" lon="-0.15911">
        <ele>44</ele>
        <time>2013-04-21T10:05:57.001Z</time>
      </trkpt>
      <trkpt lat="47.51624" lon="-0.15909">
        <ele>44</ele>
        <time>2013-04-21T10:05:58.001Z</time>
      </trkpt>
      <trkpt lat="47.51624" lon="-0.15904">
        <ele>44</ele>
        <time>2013-04-21T10:06:00.001Z</time>
      </trkpt>
      <trkpt lat="47.51625" lon="-0.15903">
        <ele>44</ele>
        <time>2013-04-21T10:06:01.001Z</time>
      </trkpt>
      <trkpt lat="47.51626" lon="-0.15897">
        <ele>45</ele>
        <time>2013-04-21T10:06:05.001Z</time>
      </trkpt>
      <trkpt lat="47.51626" lon="-0.15895">
        <ele>45</ele>
        <time>2013-04-21T10:06:06.001Z</time>
      </trkpt>
      <trkpt lat="47.51627" lon="-0.1589">
        <ele>45</ele>
        <time>2013-04-21T10:06:09.001Z</time>
      </trkpt>
      <trkpt lat="47.51627" lon="-0.15888">
        <ele>45</ele>
        <time>2013-04-21T10:06:10.000Z</time>
      </trkpt>
      <trkpt lat="47.5163" lon="-0.15883">
        <ele>45</ele>
        <time>2013-04-21T10:06:13.000Z</time>
      </trkpt>
      <trkpt lat="47.5163" lon="-0.15882">
        <ele>45</ele>
        <time>2013-04-21T10:06:14.000Z</time>
      </trkpt>
      <trkpt lat="47.51632" lon="-0.15877">
        <ele>45</ele>
        <time>2013-04-21T10:06:19.000Z</time>
      </trkpt>
      <trkpt lat="47.51632" lon="-0.15875">
        <ele>45</ele>
        <time>2013-04-21T10:06:20.000Z</time>
      </trkpt>
      <trkpt lat="47.51634" lon="-0.1587">
        <ele>45</ele>
        <time>2013-04-21T10:06:23.000Z</time>
      </trkpt>
      <trkpt lat="47.51634" lon="-0.15868">
        <ele>45</ele>
        <time>2013-04-21T10:06:24.000Z</time>
      </trkpt>
      <trkpt lat="47.51635" lon="-0.15863">
        <ele>45</ele>
        <time>2013-04-21T10:06:29.000Z</time>
      </trkpt>
      <trkpt lat="47.51636" lon="-0.15862">
        <ele>45</ele>
        <time>2013-04-21T10:06:30.000Z</time>
      </trkpt>
      <trkpt lat="47.51638" lon="-0.15858">
        <ele>45</ele>
        <time>2013-04-21T10:06:40.000Z</time>
      </trkpt>
      <trkpt lat="47.51638" lon="-0.15857">
        <ele>45</ele>
        <time>2013-04-21T10:06:41.000Z</time>
      </trkpt>
      <trkpt lat="47.5164" lon="-0.15851">
        <ele>45</ele>
        <time>2013-04-21T10:07:00.000Z</time>
      </trkpt>
      <trkpt lat="47.5164" lon="-0.1585">
        <ele>45</ele>
        <time>2013-04-21T10:07:01.000Z</time>
      </trkpt>
      <trkpt lat="47.5164" lon="-0.15843">
        <ele>45</ele>
        <time>2013-04-21T10:07:17.000Z</time>
      </trkpt>
      <trkpt lat="47.5164" lon="-0.15841">
        <ele>45</ele>
        <time>2013-04-21T10:07:18.000Z</time>
      </trkpt>
      <trkpt lat="47.51639" lon="-0.15835">
        <ele>45</ele>
        <time>2013-04-21T10:07:23.000Z</time>
      </trkpt>
      <trkpt lat="47.51639" lon="-0.15834">
        <ele>45</ele>
        <time>2013-04-21T10:07:24.000Z</time>
      </trkpt>
      <trkpt lat="47.51639" lon="-0.15827">
        <ele>45</ele>
        <time>2013-04-21T10:07:29.000Z</time>
      </trkpt>
      <trkpt lat="47.51639" lon="-0.15826">
        <ele>45</ele>
        <time>2013-04-21T10:07:30.000Z</time>
      </trkpt>
      <trkpt lat="47.5164" lon="-0.15821">
        <ele>45</ele>
        <time>2013-04-21T10:07:33.000Z</time>
      </trkpt>
      <trkpt lat="47.5164" lon="-0.15819">
        <ele>45</ele>
        <time>2013-04-21T10:07:34.000Z</time>
      </trkpt>
      <trkpt lat="47.51641" lon="-0.15813">
        <ele>45</ele>
        <time>2013-04-21T10:07:38.000Z</time>
      </trkpt>
      <trkpt lat="47.51641" lon="-0.15811">
        <ele>44</ele>
        <time>2013-04-21T10:07:39.000Z</time>
      </trkpt>
      <trkpt lat="47.51643" lon="-0.15806">
        <ele>44</ele>
        <time>2013-04-21T10:07:43.000Z</time>
      </trkpt>
      <trkpt lat="47.51643" lon="-0.15805">
        <ele>44</ele>
        <time>2013-04-21T10:07:44.000Z</time>
      </trkpt>
      <trkpt lat="47.51644" lon="-0.15799">
        <ele>44</ele>
        <time>2013-04-21T10:07:49.000Z</time>
      </trkpt>
      <trkpt lat="47.51644" lon="-0.15798">
        <ele>44</ele>
        <time>2013-04-21T10:07:50.000Z</time>
      </trkpt>
      <trkpt lat="47.51645" lon="-0.15792">
        <ele>44</ele>
        <time>2013-04-21T10:07:55.000Z</time>
      </trkpt>
      <trkpt lat="47.51646" lon="-0.1579">
        <ele>44</ele>
        <time>2013-04-21T10:07:56.000Z</time>
      </trkpt>
      <trkpt lat="47.51648" lon="-0.15785">
        <ele>44</ele>
        <time>2013-04-21T10:08:00.000Z</time>
      </trkpt>
      <trkpt lat="47.51649" lon="-0.15783">
        <ele>44</ele>
        <time>2013-04-21T10:08:01.000Z</time>
      </trkpt>
      <trkpt lat="47.5165" lon="-0.15777">
        <ele>44</ele>
        <time>2013-04-21T10:08:03.000Z</time>
      </trkpt>
      <trkpt lat="47.5165" lon="-0.15776">
        <ele>44</ele>
        <time>2013-04-21T10:08:04.000Z</time>
      </trkpt>
      <trkpt lat="47.51651" lon="-0.15773">
        <ele>44</ele>
        <time>2013-04-21T10:08:06.000Z</time>
      </trkpt>
      <trkpt lat="47.51652" lon="-0.15769">
        <ele>44</ele>
        <time>2013-04-21T10:08:07.000Z</time>
      </trkpt>
      <trkpt lat="47.51653" lon="-0.15765">
        <ele>44</ele>
        <time>2013-04-21T10:08:10.000Z</time>
      </trkpt>
      <trkpt lat="47.51653" lon="-0.15763">
        <ele>44</ele>
        <time>2013-04-21T10:08:11.000Z</time>
      </trkpt>
      <trkpt lat="47.51655" lon="-0.15757">
        <ele>44</ele>
        <time>2013-04-21T10:08:14.000Z</time>
      </trkpt>
      <trkpt lat="47.51655" lon="-0.15756">
        <ele>44</ele>
        <time>2013-04-21T10:08:15.000Z</time>
      </trkpt>
      <trkpt lat="47.51656" lon="-0.1575">
        <ele>45</ele>
        <time>2013-04-21T10:08:18.000Z</time>
      </trkpt>
      <trkpt lat="47.51656" lon="-0.15749">
        <ele>44</ele>
        <time>2013-04-21T10:08:19.000Z</time>
      </trkpt>
      <trkpt lat="47.51657" lon="-0.15744">
        <ele>44</ele>
        <time>2013-04-21T10:08:22.000Z</time>
      </trkpt>
      <trkpt lat="47.51658" lon="-0.15743">
        <ele>44</ele>
        <time>2013-04-21T10:08:23.000Z</time>
      </trkpt>
      <trkpt lat="47.5166" lon="-0.15738">
        <ele>44</ele>
        <time>2013-04-21T10:08:26.000Z</time>
      </trkpt>
      <trkpt lat="47.5166" lon="-0.15736">
        <ele>44</ele>
        <time>2013-04-21T10:08:27.000Z</time>
      </trkpt>
      <trkpt lat="47.51662" lon="-0.15733">
        <ele>44</ele>
        <time>2013-04-21T10:08:29.000Z</time>
      </trkpt>
      <trkpt lat="47.51663" lon="-0.1573">
        <ele>44</ele>
        <time>2013-04-21T10:08:30.000Z</time>
      </trkpt>
      <trkpt lat="47.51665" lon="-0.15725">
        <ele>44</ele>
        <time>2013-04-21T10:08:33.000Z</time>
      </trkpt>
      <trkpt lat="47.51666" lon="-0.15724">
        <ele>44</ele>
        <time>2013-04-21T10:08:34.000Z</time>
      </trkpt>
      <trkpt lat="47.51667" lon="-0.15719">
        <ele>46</ele>
        <time>2013-04-21T10:08:38.000Z</time>
      </trkpt>
      <trkpt lat="47.51668" lon="-0.15716">
        <ele>46</ele>
        <time>2013-04-21T10:08:39.000Z</time>
      </trkpt>
      <trkpt lat="47.5167" lon="-0.15711">
        <ele>46</ele>
        <time>2013-04-21T10:08:42.000Z</time>
      </trkpt>
      <trkpt lat="47.5167" lon="-0.15709">
        <ele>46</ele>
        <time>2013-04-21T10:08:43.000Z</time>
      </trkpt>
      <trkpt lat="47.51673" lon="-0.15705">
        <ele>46</ele>
        <time>2013-04-21T10:08:46.000Z</time>
      </trkpt>
      <trkpt lat="47.51673" lon="-0.15704">
        <ele>46</ele>
        <time>2013-04-21T10:08:47.000Z</time>
      </trkpt>
      <trkpt lat="47.51676" lon="-0.15701">
        <ele>46</ele>
        <time>2013-04-21T10:08:50.000Z</time>
      </trkpt>
      <trkpt lat="47.51677" lon="-0.15699">
        <ele>46</ele>
        <time>2013-04-21T10:08:51.000Z</time>
      </trkpt>
      <trkpt lat="47.51679" lon="-0.15695">
        <ele>46</ele>
        <time>2013-04-21T10:08:54.000Z</time>
      </trkpt>
      <trkpt lat="47.51679" lon="-0.15694">
        <ele>46</ele>
        <time>2013-04-21T10:08:55.000Z</time>
      </trkpt>
      <trkpt lat="47.51681" lon="-0.15688">
        <ele>46</ele>
        <time>2013-04-21T10:08:59.000Z</time>
      </trkpt>
      <trkpt lat="47.51682" lon="-0.15686">
        <ele>46</ele>
        <time>2013-04-21T10:09:00.000Z</time>
      </trkpt>
      <trkpt lat="47.51683" lon="-0.15682">
        <ele>46</ele>
        <time>2013-04-21T10:09:02.000Z</time>
      </trkpt>
      <trkpt lat="47.51684" lon="-0.1568">
        <ele>46</ele>
        <time>2013-04-21T10:09:03.000Z</time>
      </trkpt>
      <trkpt lat="47.51686" lon="-0.15676">
        <ele>46</ele>
        <time>2013-04-21T10:09:05.000Z</time>
      </trkpt>
      <trkpt lat="47.51687" lon="-0.15674">
        <ele>46</ele>
        <time>2013-04-21T10:09:06.000Z</time>
      </trkpt>
      <trkpt lat="47.51689" lon="-0.15669">
        <ele>46</ele>
        <time>2013-04-21T10:09:10.000Z</time>
      </trkpt>
      <trkpt lat="47.5169" lon="-0.15668">
        <ele>46</ele>
        <time>2013-04-21T10:09:11.000Z</time>
      </trkpt>
      <trkpt lat="47.51692" lon="-0.15663">
        <ele>46</ele>
        <time>2013-04-21T10:09:14.000Z</time>
      </trkpt>
      <trkpt lat="47.51692" lon="-0.15663">
        <ele>46</ele>
        <time>2013-04-21T10:09:15.000Z</time>
      </trkpt>
      <trkpt lat="47.51695" lon="-0.15658">
        <ele>46</ele>
        <time>2013-04-21T10:09:18.000Z</time>
      </trkpt>
      <trkpt lat="47.51695" lon="-0.15656">
        <ele>46</ele>
        <time>2013-04-21T10:09:19.000Z</time>
      </trkpt>
      <trkpt lat="47.51696" lon="-0.15651">
        <ele>46</ele>
        <time>2013-04-21T10:09:21.000Z</time>
      </trkpt>
      <trkpt lat="47.51697" lon="-0.15649">
        <ele>46</ele>
        <time>2013-04-21T10:09:22.000Z</time>
      </trkpt>
      <trkpt lat="47.51699" lon="-0.15643">
        <ele>46</ele>
        <time>2013-04-21T10:09:25.000Z</time>
      </trkpt>
      <trkpt lat="47.51699" lon="-0.15641">
        <ele>46</ele>
        <time>2013-04-21T10:09:26.000Z</time>
      </trkpt>
      <trkpt lat="47.51701" lon="-0.15637">
        <ele>46</ele>
        <time>2013-04-21T10:09:31.000Z</time>
      </trkpt>
      <trkpt lat="47.51702" lon="-0.15636">
        <ele>46</ele>
        <time>2013-04-21T10:09:32.000Z</time>
      </trkpt>
      <trkpt lat="47.51704" lon="-0.15632">
        <ele>46</ele>
        <time>2013-04-21T10:09:34.000Z</time>
      </trkpt>
      <trkpt lat="47.51705" lon="-0.1563">
        <ele>46</ele>
        <time>2013-04-21T10:09:35.000Z</time>
      </trkpt>
      <trkpt lat="47.51707" lon="-0.15626">
        <ele>46</ele>
        <time>2013-04-21T10:09:39.000Z</time>
      </trkpt>
      <trkpt lat="47.51707" lon="-0.15625">
        <ele>46</ele>
        <time>2013-04-21T10:09:40.000Z</time>
      </trkpt>
      <trkpt lat="47.5171" lon="-0.15621">
        <ele>46</ele>
        <time>2013-04-21T10:09:43.000Z</time>
      </trkpt>
      <trkpt lat="47.5171" lon="-0.1562">
        <ele>46</ele>
        <time>2013-04-21T10:09:44.000Z</time>
      </trkpt>
      <trkpt lat="47.51713" lon="-0.15615">
        <ele>46</ele>
        <time>2013-04-21T10:09:47.000Z</time>
      </trkpt>
      <trkpt lat="47.51714" lon="-0.15615">
        <ele>46</ele>
        <time>2013-04-21T10:09:48.000Z</time>
      </trkpt>
      <trkpt lat="47.51717" lon="-0.15611">
        <ele>46</ele>
        <time>2013-04-21T10:09:51.000Z</time>
      </trkpt>
      <trkpt lat="47.51718" lon="-0.15609">
        <ele>46</ele>
        <time>2013-04-21T10:09:52.000Z</time>
      </trkpt>
      <trkpt lat="47.5172" lon="-0.15603">
        <ele>46</ele>
        <time>2013-04-21T10:09:55.000Z</time>
      </trkpt>
      <trkpt lat="47.5172" lon="-0.15601">
        <ele>46</ele>
        <time>2013-04-21T10:09:56.000Z</time>
      </trkpt>
      <trkpt lat="47.51723" lon="-0.15598">
        <ele>46</ele>
        <time>2013-04-21T10:09:58.000Z</time>
      </trkpt>
      <trkpt lat="47.51724" lon="-0.15597">
        <ele>46</ele>
        <time>2013-04-21T10:09:59.000Z</time>
      </trkpt>
      <trkpt lat="47.51727" lon="-0.15593">
        <ele>46</ele>
        <time>2013-04-21T10:10:02.000Z</time>
      </trkpt>
      <trkpt lat="47.51728" lon="-0.15592">
        <ele>46</ele>
        <time>2013-04-21T10:10:03.000Z</time>
      </trkpt>
      <trkpt lat="47.51731" lon="-0.15588">
        <ele>46</ele>
        <time>2013-04-21T10:10:06.000Z</time>
      </trkpt>
      <trkpt lat="47.51732" lon="-0.15587">
        <ele>46</ele>
        <time>2013-04-21T10:10:07.000Z</time>
      </trkpt>
      <trkpt lat="47.51734" lon="-0.15584">
        <ele>46</ele>
        <time>2013-04-21T10:10:09.000Z</time>
      </trkpt>
      <trkpt lat="47.51735" lon="-0.15582">
        <ele>46</ele>
        <time>2013-04-21T10:10:10.000Z</time>
      </trkpt>
      <trkpt lat="47.51737" lon="-0.15579">
        <ele>46</ele>
        <time>2013-04-21T10:10:13.000Z</time>
      </trkpt>
      <trkpt lat="47.51738" lon="-0.15577">
        <ele>46</ele>
        <time>2013-04-21T10:10:14.000Z</time>
      </trkpt>
      <trkpt lat="47.5174" lon="-0.15572">
        <ele>46</ele>
        <time>2013-04-21T10:10:19.000Z</time>
      </trkpt>
      <trkpt lat="47.51741" lon="-0.1557">
        <ele>46</ele>
        <time>2013-04-21T10:10:20.000Z</time>
      </trkpt>
      <trkpt lat="47.51743" lon="-0.15566">
        <ele>46</ele>
        <time>2013-04-21T10:10:24.000Z</time>
      </trkpt>
      <trkpt lat="47.51744" lon="-0.15565">
        <ele>46</ele>
        <time>2013-04-21T10:10:25.000Z</time>
      </trkpt>
      <trkpt lat="47.51747" lon="-0.1556">
        <ele>45</ele>
        <time>2013-04-21T10:10:28.000Z</time>
      </trkpt>
      <trkpt lat="47.51748" lon="-0.15558">
        <ele>45</ele>
        <time>2013-04-21T10:10:29.000Z</time>
      </trkpt>
      <trkpt lat="47.51751" lon="-0.15554">
        <ele>47</ele>
        <time>2013-04-21T10:10:32.000Z</time>
      </trkpt>
      <trkpt lat="47.51752" lon="-0.15552">
        <ele>47</ele>
        <time>2013-04-21T10:10:33.000Z</time>
      </trkpt>
      <trkpt lat="47.51754" lon="-0.15548">
        <ele>47</ele>
        <time>2013-04-21T10:10:36.000Z</time>
      </trkpt>
      <trkpt lat="47.51755" lon="-0.15547">
        <ele>47</ele>
        <time>2013-04-21T10:10:37.000Z</time>
      </trkpt>
      <trkpt lat="47.51758" lon="-0.15543">
        <ele>47</ele>
        <time>2013-04-21T10:10:41.000Z</time>
      </trkpt>
      <trkpt lat="47.51759" lon="-0.15543">
        <ele>47</ele>
        <time>2013-04-21T10:10:42.000Z</time>
      </trkpt>
      <trkpt lat="47.51761" lon="-0.15538">
        <ele>47</ele>
        <time>2013-04-21T10:10:45.000Z</time>
      </trkpt>
      <trkpt lat="47.51763" lon="-0.15536">
        <ele>47</ele>
        <time>2013-04-21T10:10:46.000Z</time>
      </trkpt>
      <trkpt lat="47.51766" lon="-0.15533">
        <ele>47</ele>
        <time>2013-04-21T10:10:48.000Z</time>
      </trkpt>
      <trkpt lat="47.51767" lon="-0.15532">
        <ele>47</ele>
        <time>2013-04-21T10:10:49.000Z</time>
      </trkpt>
      <trkpt lat="47.5177" lon="-0.1553">
        <ele>47</ele>
        <time>2013-04-21T10:10:52.000Z</time>
      </trkpt>
      <trkpt lat="47.51771" lon="-0.15529">
        <ele>47</ele>
        <time>2013-04-21T10:10:53.000Z</time>
      </trkpt>
      <trkpt lat="47.51774" lon="-0.15525">
        <ele>47</ele>
        <time>2013-04-21T10:10:56.000Z</time>
      </trkpt>
      <trkpt lat="47.51776" lon="-0.15524">
        <ele>47</ele>
        <time>2013-04-21T10:10:57.000Z</time>
      </trkpt>
      <trkpt lat="47.51778" lon="-0.15519">
        <ele>47</ele>
        <time>2013-04-21T10:11:00.000Z</time>
      </trkpt>
      <trkpt lat="47.51779" lon="-0.15518">
        <ele>47</ele>
        <time>2013-04-21T10:11:01.000Z</time>
      </trkpt>
      <trkpt lat="47.51782" lon="-0.15513">
        <ele>47</ele>
        <time>2013-04-21T10:11:04.000Z</time>
      </trkpt>
      <trkpt lat="47.51783" lon="-0.15511">
        <ele>47</ele>
        <time>2013-04-21T10:11:05.000Z</time>
      </trkpt>
      <trkpt lat="47.51786" lon="-0.15507">
        <ele>47</ele>
        <time>2013-04-21T10:11:08.000Z</time>
      </trkpt>
      <trkpt lat="47.51787" lon="-0.15507">
        <ele>47</ele>
        <time>2013-04-21T10:11:09.000Z</time>
      </trkpt>
      <trkpt lat="47.5179" lon="-0.15502">
        <ele>47</ele>
        <time>2013-04-21T10:11:13.000Z</time>
      </trkpt>
      <trkpt lat="47.51792" lon="-0.155">
        <ele>47</ele>
        <time>2013-04-21T10:11:14.000Z</time>
      </trkpt>
      <trkpt lat="47.51794" lon="-0.15498">
        <ele>47</ele>
        <time>2013-04-21T10:11:16.000Z</time>
      </trkpt>
      <trkpt lat="47.51796" lon="-0.15496">
        <ele>47</ele>
        <time>2013-04-21T10:11:17.000Z</time>
      </trkpt>
      <trkpt lat="47.51798" lon="-0.15492">
        <ele>47</ele>
        <time>2013-04-21T10:11:21.000Z</time>
      </trkpt>
      <trkpt lat="47.51798" lon="-0.15491">
        <ele>47</ele>
        <time>2013-04-21T10:11:22.000Z</time>
      </trkpt>
      <trkpt lat="47.51801" lon="-0.15486">
        <ele>47</ele>
        <time>2013-04-21T10:11:25.000Z</time>
      </trkpt>
      <trkpt lat="47.51801" lon="-0.15485">
        <ele>47</ele>
        <time>2013-04-21T10:11:26.000Z</time>
      </trkpt>
      <trkpt lat="47.51803" lon="-0.15481">
        <ele>47</ele>
        <time>2013-04-21T10:11:30.000Z</time>
      </trkpt>
      <trkpt lat="47.51804" lon="-0.1548">
        <ele>47</ele>
        <time>2013-04-21T10:11:31.000Z</time>
      </trkpt>
      <trkpt lat="47.51806" lon="-0.15475">
        <ele>47</ele>
        <time>2013-04-21T10:11:34.000Z</time>
      </trkpt>
      <trkpt lat="47.51807" lon="-0.15474">
        <ele>47</ele>
        <time>2013-04-21T10:11:35.000Z</time>
      </trkpt>
      <trkpt lat="47.5181" lon="-0.1547">
        <ele>47</ele>
        <time>2013-04-21T10:11:38.000Z</time>
      </trkpt>
      <trkpt lat="47.51811" lon="-0.15468">
        <ele>47</ele>
        <time>2013-04-21T10:11:39.000Z</time>
      </trkpt>
      <trkpt lat="47.51814" lon="-0.15464">
        <ele>47</ele>
        <time>2013-04-21T10:11:43.000Z</time>
      </trkpt>
      <trkpt lat="47.51815" lon="-0.15462">
        <ele>47</ele>
        <time>2013-04-21T10:11:44.000Z</time>
      </trkpt>
      <trkpt lat="47.51818" lon="-0.15458">
        <ele>46</ele>
        <time>2013-04-21T10:11:48.000Z</time>
      </trkpt>
      <trkpt lat="47.51819" lon="-0.15457">
        <ele>46</ele>
        <time>2013-04-21T10:11:49.000Z</time>
      </trkpt>
      <trkpt lat="47.51821" lon="-0.15455">
        <ele>46</ele>
        <time>2013-04-21T10:11:52.000Z</time>
      </trkpt>
      <trkpt lat="47.51822" lon="-0.15453">
        <ele>46</ele>
        <time>2013-04-21T10:11:53.000Z</time>
      </trkpt>
      <trkpt lat="47.51825" lon="-0.1545">
        <ele>46</ele>
        <time>2013-04-21T10:11:55.000Z</time>
      </trkpt>
      <trkpt lat="47.51826" lon="-0.15449">
        <ele>46</ele>
        <time>2013-04-21T10:11:56.000Z</time>
      </trkpt>
      <trkpt lat="47.51829" lon="-0.15445">
        <ele>46</ele>
        <time>2013-04-21T10:12:00.000Z</time>
      </trkpt>
      <trkpt lat="47.51829" lon="-0.15444">
        <ele>46</ele>
        <time>2013-04-21T10:12:01.000Z</time>
      </trkpt>
      <trkpt lat="47.51832" lon="-0.15441">
        <ele>46</ele>
        <time>2013-04-21T10:12:04.000Z</time>
      </trkpt>
      <trkpt lat="47.51832" lon="-0.15439">
        <ele>46</ele>
        <time>2013-04-21T10:12:05.000Z</time>
      </trkpt>
      <trkpt lat="47.51835" lon="-0.15434">
        <ele>47</ele>
        <time>2013-04-21T10:12:09.000Z</time>
      </trkpt>
      <trkpt lat="47.51836" lon="-0.15433">
        <ele>47</ele>
        <time>2013-04-21T10:12:10.000Z</time>
      </trkpt>
      <trkpt lat="47.51839" lon="-0.15429">
        <ele>47</ele>
        <time>2013-04-21T10:12:13.000Z</time>
      </trkpt>
      <trkpt lat="47.5184" lon="-0.15428">
        <ele>47</ele>
        <time>2013-04-21T10:12:14.000Z</time>
      </trkpt>
      <trkpt lat="47.51843" lon="-0.15424">
        <ele>47</ele>
        <time>2013-04-21T10:12:18.000Z</time>
      </trkpt>
      <trkpt lat="47.51843" lon="-0.15423">
        <ele>47</ele>
        <time>2013-04-21T10:12:19.000Z</time>
      </trkpt>
      <trkpt lat="47.51846" lon="-0.1542">
        <ele>47</ele>
        <time>2013-04-21T10:12:22.000Z</time>
      </trkpt>
      <trkpt lat="47.51847" lon="-0.15419">
        <ele>47</ele>
        <time>2013-04-21T10:12:23.000Z</time>
      </trkpt>
      <trkpt lat="47.5185" lon="-0.15415">
        <ele>46</ele>
        <time>2013-04-21T10:12:26.000Z</time>
      </trkpt>
      <trkpt lat="47.51851" lon="-0.15413">
        <ele>46</ele>
        <time>2013-04-21T10:12:27.000Z</time>
      </trkpt>
      <trkpt lat="47.51854" lon="-0.15409">
        <ele>46</ele>
        <time>2013-04-21T10:12:29.000Z</time>
      </trkpt>
      <trkpt lat="47.51855" lon="-0.15408">
        <ele>46</ele>
        <time>2013-04-21T10:12:30.000Z</time>
      </trkpt>
      <trkpt lat="47.51858" lon="-0.15404">
        <ele>46</ele>
        <time>2013-04-21T10:12:34.000Z</time>
      </trkpt>
      <trkpt lat="47.51858" lon="-0.15402">
        <ele>46</ele>
        <time>2013-04-21T10:12:35.000Z</time>
      </trkpt>
      <trkpt lat="47.51861" lon="-0.15399">
        <ele>46</ele>
        <time>2013-04-21T10:12:38.000Z</time>
      </trkpt>
      <trkpt lat="47.51862" lon="-0.15397">
        <ele>46</ele>
        <time>2013-04-21T10:12:39.000Z</time>
      </trkpt>
      <trkpt lat="47.51864" lon="-0.15394">
        <ele>46</ele>
        <time>2013-04-21T10:12:42.000Z</time>
      </trkpt>
      <trkpt lat="47.51866" lon="-0.15392">
        <ele>46</ele>
        <time>2013-04-21T10:12:43.000Z</time>
      </trkpt>
      <trkpt lat="47.51868" lon="-0.15388">
        <ele>46</ele>
        <time>2013-04-21T10:12:46.000Z</time>
      </trkpt>
      <trkpt lat="47.51869" lon="-0.15386">
        <ele>46</ele>
        <time>2013-04-21T10:12:47.000Z</time>
      </trkpt>
      <trkpt lat="47.51871" lon="-0.15382">
        <ele>46</ele>
        <time>2013-04-21T10:12:50.000Z</time>
      </trkpt>
      <trkpt lat="47.51872" lon="-0.1538">
        <ele>46</ele>
        <time>2013-04-21T10:12:51.000Z</time>
      </trkpt>
      <trkpt lat="47.51874" lon="-0.15377">
        <ele>46</ele>
        <time>2013-04-21T10:12:53.000Z</time>
      </trkpt>
      <trkpt lat="47.51876" lon="-0.15375">
        <ele>47</ele>
        <time>2013-04-21T10:12:54.000Z</time>
      </trkpt>
      <trkpt lat="47.51878" lon="-0.15371">
        <ele>47</ele>
        <time>2013-04-21T10:12:56.000Z</time>
      </trkpt>
      <trkpt lat="47.51879" lon="-0.15369">
        <ele>47</ele>
        <time>2013-04-21T10:12:57.000Z</time>
      </trkpt>
      <trkpt lat="47.51881" lon="-0.15364">
        <ele>47</ele>
        <time>2013-04-21T10:13:01.000Z</time>
      </trkpt>
      <trkpt lat="47.51882" lon="-0.15363">
        <ele>47</ele>
        <time>2013-04-21T10:13:02.000Z</time>
      </trkpt>
      <trkpt lat="47.51885" lon="-0.15358">
        <ele>47</ele>
        <time>2013-04-21T10:13:05.000Z</time>
      </trkpt>
      <trkpt lat="47.51886" lon="-0.15357">
        <ele>47</ele>
        <time>2013-04-21T10:13:06.000Z</time>
      </trkpt>
      <trkpt lat="47.51888" lon="-0.15354">
        <ele>47</ele>
        <time>2013-04-21T10:13:08.000Z</time>
      </trkpt>
      <trkpt lat="47.5189" lon="-0.15352">
        <ele>47</ele>
        <time>2013-04-21T10:13:09.000Z</time>
      </trkpt>
      <trkpt lat="47.51892" lon="-0.15348">
        <ele>47</ele>
        <time>2013-04-21T10:13:12.000Z</time>
      </trkpt>
      <trkpt lat="47.51893" lon="-0.15347">
        <ele>47</ele>
        <time>2013-04-21T10:13:13.000Z</time>
      </trkpt>
      <trkpt lat="47.51897" lon="-0.15343">
        <ele>47</ele>
        <time>2013-04-21T10:13:17.000Z</time>
      </trkpt>
      <trkpt lat="47.51897" lon="-0.15342">
        <ele>47</ele>
        <time>2013-04-21T10:13:18.000Z</time>
      </trkpt>
      <trkpt lat="47.51899" lon="-0.15337">
        <ele>47</ele>
        <time>2013-04-21T10:13:23.000Z</time>
      </trkpt>
      <trkpt lat="47.519" lon="-0.15335">
        <ele>47</ele>
        <time>2013-04-21T10:13:24.000Z</time>
      </trkpt>
      <trkpt lat="47.51902" lon="-0.15332">
        <ele>47</ele>
        <time>2013-04-21T10:13:26.000Z</time>
      </trkpt>
      <trkpt lat="47.51903" lon="-0.1533">
        <ele>47</ele>
        <time>2013-04-21T10:13:27.000Z</time>
      </trkpt>
      <trkpt lat="47.51906" lon="-0.15325">
        <ele>47</ele>
        <time>2013-04-21T10:13:30.000Z</time>
      </trkpt>
      <trkpt lat="47.51906" lon="-0.15324">
        <ele>47</ele>
        <time>2013-04-21T10:13:31.000Z</time>
      </trkpt>
      <trkpt lat="47.51909" lon="-0.15319">
        <ele>47</ele>
        <time>2013-04-21T10:13:35.000Z</time>
      </trkpt>
      <trkpt lat="47.5191" lon="-0.15318">
        <ele>47</ele>
        <time>2013-04-21T10:13:36.000Z</time>
      </trkpt>
      <trkpt lat="47.51912" lon="-0.15315">
        <ele>47</ele>
        <time>2013-04-21T10:13:38.000Z</time>
      </trkpt>
      <trkpt lat="47.51913" lon="-0.15313">
        <ele>47</ele>
        <time>2013-04-21T10:13:39.000Z</time>
      </trkpt>
      <trkpt lat="47.51916" lon="-0.15309">
        <ele>47</ele>
        <time>2013-04-21T10:13:42.000Z</time>
      </trkpt>
      <trkpt lat="47.51917" lon="-0.15306">
        <ele>48</ele>
        <time>2013-04-21T10:13:43.000Z</time>
      </trkpt>
      <trkpt lat="47.51919" lon="-0.15301">
        <ele>48</ele>
        <time>2013-04-21T10:13:45.000Z</time>
      </trkpt>
      <trkpt lat="47.51919" lon="-0.15298">
        <ele>48</ele>
        <time>2013-04-21T10:13:46.000Z</time>
      </trkpt>
      <trkpt lat="47.51921" lon="-0.15293">
        <ele>48</ele>
        <time>2013-04-21T10:13:49.000Z</time>
      </trkpt>
      <trkpt lat="47.51922" lon="-0.15291">
        <ele>48</ele>
        <time>2013-04-21T10:13:50.000Z</time>
      </trkpt>
      <trkpt lat="47.51924" lon="-0.15285">
        <ele>48</ele>
        <time>2013-04-21T10:13:53.000Z</time>
      </trkpt>
      <trkpt lat="47.51925" lon="-0.15282">
        <ele>48</ele>
        <time>2013-04-21T10:13:54.000Z</time>
      </trkpt>
      <trkpt lat="47.51927" lon="-0.15278">
        <ele>48</ele>
        <time>2013-04-21T10:13:57.000Z</time>
      </trkpt>
      <trkpt lat="47.51927" lon="-0.15276">
        <ele>48</ele>
        <time>2013-04-21T10:13:58.000Z</time>
      </trkpt>
      <trkpt lat="47.51929" lon="-0.15272">
        <ele>48</ele>
        <time>2013-04-21T10:14:04.000Z</time>
      </trkpt>
      <trkpt lat="47.5193" lon="-0.15269">
        <ele>48</ele>
        <time>2013-04-21T10:14:05.000Z</time>
      </trkpt>
      <trkpt lat="47.51932" lon="-0.15264">
        <ele>48</ele>
        <time>2013-04-21T10:14:08.000Z</time>
      </trkpt>
      <trkpt lat="47.51932" lon="-0.15261">
        <ele>48</ele>
        <time>2013-04-21T10:14:09.000Z</time>
      </trkpt>
      <trkpt lat="47.51935" lon="-0.15257">
        <ele>48</ele>
        <time>2013-04-21T10:14:11.000Z</time>
      </trkpt>
      <trkpt lat="47.51936" lon="-0.15255">
        <ele>48</ele>
        <time>2013-04-21T10:14:12.000Z</time>
      </trkpt>
      <trkpt lat="47.51938" lon="-0.15251">
        <ele>48</ele>
        <time>2013-04-21T10:14:15.000Z</time>
      </trkpt>
      <trkpt lat="47.51939" lon="-0.15249">
        <ele>47</ele>
        <time>2013-04-21T10:14:16.000Z</time>
      </trkpt>
      <trkpt lat="47.51941" lon="-0.15244">
        <ele>47</ele>
        <time>2013-04-21T10:14:20.000Z</time>
      </trkpt>
      <trkpt lat="47.51942" lon="-0.15242">
        <ele>47</ele>
        <time>2013-04-21T10:14:21.000Z</time>
      </trkpt>
      <trkpt lat="47.51943" lon="-0.15238">
        <ele>47</ele>
        <time>2013-04-21T10:14:24.000Z</time>
      </trkpt>
      <trkpt lat="47.51944" lon="-0.15236">
        <ele>47</ele>
        <time>2013-04-21T10:14:25.000Z</time>
      </trkpt>
      <trkpt lat="47.51946" lon="-0.15231">
        <ele>47</ele>
        <time>2013-04-21T10:14:28.000Z</time>
      </trkpt>
      <trkpt lat="47.51947" lon="-0.15229">
        <ele>47</ele>
        <time>2013-04-21T10:14:29.000Z</time>
      </trkpt>
      <trkpt lat="47.51949" lon="-0.15224">
        <ele>47</ele>
        <time>2013-04-21T10:14:32.000Z</time>
      </trkpt>
      <trkpt lat="47.5195" lon="-0.15223">
        <ele>47</ele>
        <time>2013-04-21T10:14:33.000Z</time>
      </trkpt>
      <trkpt lat="47.51951" lon="-0.15218">
        <ele>47</ele>
        <time>2013-04-21T10:14:37.000Z</time>
      </trkpt>
      <trkpt lat="47.51952" lon="-0.15216">
        <ele>47</ele>
        <time>2013-04-21T10:14:38.000Z</time>
      </trkpt>
      <trkpt lat="47.51953" lon="-0.15211">
        <ele>47</ele>
        <time>2013-04-21T10:14:42.000Z</time>
      </trkpt>
      <trkpt lat="47.51953" lon="-0.15209">
        <ele>47</ele>
        <time>2013-04-21T10:14:43.000Z</time>
      </trkpt>
      <trkpt lat="47.51956" lon="-0.15204">
        <ele>47</ele>
        <time>2013-04-21T10:14:45.000Z</time>
      </trkpt>
      <trkpt lat="47.51957" lon="-0.15203">
        <ele>47</ele>
        <time>2013-04-21T10:14:46.000Z</time>
      </trkpt>
      <trkpt lat="47.51959" lon="-0.15197">
        <ele>47</ele>
        <time>2013-04-21T10:14:49.000Z</time>
      </trkpt>
      <trkpt lat="47.5196" lon="-0.15195">
        <ele>47</ele>
        <time>2013-04-21T10:14:50.000Z</time>
      </trkpt>
      <trkpt lat="47.51962" lon="-0.1519">
        <ele>47</ele>
        <time>2013-04-21T10:14:53.000Z</time>
      </trkpt>
      <trkpt lat="47.51963" lon="-0.15188">
        <ele>47</ele>
        <time>2013-04-21T10:14:54.000Z</time>
      </trkpt>
      <trkpt lat="47.51965" lon="-0.15185">
        <ele>47</ele>
        <time>2013-04-21T10:14:57.000Z</time>
      </trkpt>
      <trkpt lat="47.51966" lon="-0.15183">
        <ele>47</ele>
        <time>2013-04-21T10:14:58.000Z</time>
      </trkpt>
      <trkpt lat="47.51967" lon="-0.15178">
        <ele>47</ele>
        <time>2013-04-21T10:15:01.000Z</time>
      </trkpt>
      <trkpt lat="47.51968" lon="-0.15176">
        <ele>47</ele>
        <time>2013-04-21T10:15:02.000Z</time>
      </trkpt>
      <trkpt lat="47.51968" lon="-0.1517">
        <ele>47</ele>
        <time>2013-04-21T10:15:07.000Z</time>
      </trkpt>
      <trkpt lat="47.51969" lon="-0.15168">
        <ele>47</ele>
        <time>2013-04-21T10:15:08.000Z</time>
      </trkpt>
      <trkpt lat="47.51971" lon="-0.15163">
        <ele>46</ele>
        <time>2013-04-21T10:15:12.000Z</time>
      </trkpt>
      <trkpt lat="47.51972" lon="-0.15162">
        <ele>46</ele>
        <time>2013-04-21T10:15:13.000Z</time>
      </trkpt>
      <trkpt lat="47.51973" lon="-0.15156">
        <ele>46</ele>
        <time>2013-04-21T10:15:15.000Z</time>
      </trkpt>
      <trkpt lat="47.51974" lon="-0.15154">
        <ele>46</ele>
        <time>2013-04-21T10:15:16.000Z</time>
      </trkpt>
      <trkpt lat="47.51977" lon="-0.1515">
        <ele>46</ele>
        <time>2013-04-21T10:15:19.000Z</time>
      </trkpt>
      <trkpt lat="47.51977" lon="-0.15148">
        <ele>46</ele>
        <time>2013-04-21T10:15:20.000Z</time>
      </trkpt>
      <trkpt lat="47.51979" lon="-0.15143">
        <ele>46</ele>
        <time>2013-04-21T10:15:23.000Z</time>
      </trkpt>
      <trkpt lat="47.5198" lon="-0.15142">
        <ele>46</ele>
        <time>2013-04-21T10:15:24.000Z</time>
      </trkpt>
      <trkpt lat="47.51982" lon="-0.15138">
        <ele>46</ele>
        <time>2013-04-21T10:15:27.000Z</time>
      </trkpt>
      <trkpt lat="47.51983" lon="-0.15137">
        <ele>46</ele>
        <time>2013-04-21T10:15:28.000Z</time>
      </trkpt>
      <trkpt lat="47.51985" lon="-0.15132">
        <ele>46</ele>
        <time>2013-04-21T10:15:31.000Z</time>
      </trkpt>
      <trkpt lat="47.51986" lon="-0.1513">
        <ele>46</ele>
        <time>2013-04-21T10:15:32.000Z</time>
      </trkpt>
      <trkpt lat="47.51987" lon="-0.15126">
        <ele>46</ele>
        <time>2013-04-21T10:15:35.000Z</time>
      </trkpt>
      <trkpt lat="47.51987" lon="-0.15124">
        <ele>46</ele>
        <time>2013-04-21T10:15:36.000Z</time>
      </trkpt>
      <trkpt lat="47.51989" lon="-0.15119">
        <ele>46</ele>
        <time>2013-04-21T10:15:39.000Z</time>
      </trkpt>
      <trkpt lat="47.51989" lon="-0.15117">
        <ele>46</ele>
        <time>2013-04-21T10:15:40.000Z</time>
      </trkpt>
      <trkpt lat="47.51991" lon="-0.15113">
        <ele>46</ele>
        <time>2013-04-21T10:15:43.000Z</time>
      </trkpt>
      <trkpt lat="47.51992" lon="-0.15111">
        <ele>46</ele>
        <time>2013-04-21T10:15:44.000Z</time>
      </trkpt>
      <trkpt lat="47.51994" lon="-0.15106">
        <ele>46</ele>
        <time>2013-04-21T10:15:46.000Z</time>
      </trkpt>
      <trkpt lat="47.51995" lon="-0.15105">
        <ele>46</ele>
        <time>2013-04-21T10:15:47.000Z</time>
      </trkpt>
      <trkpt lat="47.51996" lon="-0.151">
        <ele>46</ele>
        <time>2013-04-21T10:15:51.000Z</time>
      </trkpt>
      <trkpt lat="47.51997" lon="-0.15099">
        <ele>46</ele>
        <time>2013-04-21T10:15:52.000Z</time>
      </trkpt>
      <trkpt lat="47.51998" lon="-0.15094">
        <ele>46</ele>
        <time>2013-04-21T10:15:54.000Z</time>
      </trkpt>
      <trkpt lat="47.51999" lon="-0.15092">
        <ele>45</ele>
        <time>2013-04-21T10:15:55.000Z</time>
      </trkpt>
      <trkpt lat="47.52" lon="-0.15088">
        <ele>45</ele>
        <time>2013-04-21T10:15:57.000Z</time>
      </trkpt>
      <trkpt lat="47.52001" lon="-0.15087">
        <ele>45</ele>
        <time>2013-04-21T10:15:58.000Z</time>
      </trkpt>
      <trkpt lat="47.52003" lon="-0.15081">
        <ele>45</ele>
        <time>2013-04-21T10:16:01.000Z</time>
      </trkpt>
      <trkpt lat="47.52003" lon="-0.15079">
        <ele>45</ele>
        <time>2013-04-21T10:16:02.000Z</time>
      </trkpt>
      <trkpt lat="47.52005" lon="-0.15075">
        <ele>45</ele>
        <time>2013-04-21T10:16:05.000Z</time>
      </trkpt>
      <trkpt lat="47.52006" lon="-0.15073">
        <ele>45</ele>
        <time>2013-04-21T10:16:06.000Z</time>
      </trkpt>
      <trkpt lat="47.52007" lon="-0.15068">
        <ele>45</ele>
        <time>2013-04-21T10:16:09.000Z</time>
      </trkpt>
      <trkpt lat="47.52007" lon="-0.15066">
        <ele>45</ele>
        <time>2013-04-21T10:16:10.000Z</time>
      </trkpt>
      <trkpt lat="47.52009" lon="-0.1506">
        <ele>45</ele>
        <time>2013-04-21T10:16:13.000Z</time>
      </trkpt>
      <trkpt lat="47.5201" lon="-0.15057">
        <ele>45</ele>
        <time>2013-04-21T10:16:14.000Z</time>
      </trkpt>
      <trkpt lat="47.52012" lon="-0.15052">
        <ele>46</ele>
        <time>2013-04-21T10:16:19.000Z</time>
      </trkpt>
      <trkpt lat="47.52013" lon="-0.15051">
        <ele>46</ele>
        <time>2013-04-21T10:16:20.000Z</time>
      </trkpt>
      <trkpt lat="47.52015" lon="-0.15048">
        <ele>46</ele>
        <time>2013-04-21T10:16:23.000Z</time>
      </trkpt>
      <trkpt lat="47.52016" lon="-0.15046">
        <ele>46</ele>
        <time>2013-04-21T10:16:24.000Z</time>
      </trkpt>
      <trkpt lat="47.52019" lon="-0.1504">
        <ele>46</ele>
        <time>2013-04-21T10:16:27.000Z</time>
      </trkpt>
      <trkpt lat="47.52019" lon="-0.15039">
        <ele>46</ele>
        <time>2013-04-21T10:16:28.000Z</time>
      </trkpt>
      <trkpt lat="47.52022" lon="-0.15034">
        <ele>46</ele>
        <time>2013-04-21T10:16:31.000Z</time>
      </trkpt>
      <trkpt lat="47.52023" lon="-0.15032">
        <ele>46</ele>
        <time>2013-04-21T10:16:32.000Z</time>
      </trkpt>
      <trkpt lat="47.52025" lon="-0.15029">
        <ele>46</ele>
        <time>2013-04-21T10:16:35.000Z</time>
      </trkpt>
      <trkpt lat="47.52026" lon="-0.15028">
        <ele>46</ele>
        <time>2013-04-21T10:16:36.000Z</time>
      </trkpt>
      <trkpt lat="47.52028" lon="-0.15025">
        <ele>46</ele>
        <time>2013-04-21T10:16:38.000Z</time>
      </trkpt>
      <trkpt lat="47.52029" lon="-0.15023">
        <ele>46</ele>
        <time>2013-04-21T10:16:39.000Z</time>
      </trkpt>
      <trkpt lat="47.52032" lon="-0.15019">
        <ele>46</ele>
        <time>2013-04-21T10:16:44.000Z</time>
      </trkpt>
      <trkpt lat="47.52032" lon="-0.15018">
        <ele>46</ele>
        <time>2013-04-21T10:16:45.000Z</time>
      </trkpt>
      <trkpt lat="47.52036" lon="-0.15016">
        <ele>46</ele>
        <time>2013-04-21T10:16:48.000Z</time>
      </trkpt>
      <trkpt lat="47.52037" lon="-0.15015">
        <ele>46</ele>
        <time>2013-04-21T10:16:49.000Z</time>
      </trkpt>
      <trkpt lat="47.52039" lon="-0.15011">
        <ele>46</ele>
        <time>2013-04-21T10:16:52.000Z</time>
      </trkpt>
      <trkpt lat="47.5204" lon="-0.15009">
        <ele>46</ele>
        <time>2013-04-21T10:16:53.000Z</time>
      </trkpt>
      <trkpt lat="47.52042" lon="-0.15005">
        <ele>46</ele>
        <time>2013-04-21T10:16:56.000Z</time>
      </trkpt>
      <trkpt lat="47.52043" lon="-0.15004">
        <ele>46</ele>
        <time>2013-04-21T10:16:57.000Z</time>
      </trkpt>
      <trkpt lat="47.52046" lon="-0.15">
        <ele>46</ele>
        <time>2013-04-21T10:17:00.000Z</time>
      </trkpt>
      <trkpt lat="47.52047" lon="-0.14999">
        <ele>45</ele>
        <time>2013-04-21T10:17:01.000Z</time>
      </trkpt>
      <trkpt lat="47.52049" lon="-0.14994">
        <ele>45</ele>
        <time>2013-04-21T10:17:05.000Z</time>
      </trkpt>
      <trkpt lat="47.5205" lon="-0.14993">
        <ele>45</ele>
        <time>2013-04-21T10:17:06.000Z</time>
      </trkpt>
      <trkpt lat="47.52053" lon="-0.14989">
        <ele>45</ele>
        <time>2013-04-21T10:17:11.000Z</time>
      </trkpt>
      <trkpt lat="47.52053" lon="-0.14988">
        <ele>45</ele>
        <time>2013-04-21T10:17:12.000Z</time>
      </trkpt>
      <trkpt lat="47.52056" lon="-0.14984">
        <ele>45</ele>
        <time>2013-04-21T10:17:15.000Z</time>
      </trkpt>
      <trkpt lat="47.52057" lon="-0.14982">
        <ele>45</ele>
        <time>2013-04-21T10:17:16.000Z</time>
      </trkpt>
      <trkpt lat="47.5206" lon="-0.14978">
        <ele>45</ele>
        <time>2013-04-21T10:17:20.000Z</time>
      </trkpt>
      <trkpt lat="47.52061" lon="-0.14976">
        <ele>45</ele>
        <time>2013-04-21T10:17:21.000Z</time>
      </trkpt>
      <trkpt lat="47.52064" lon="-0.14973">
        <ele>45</ele>
        <time>2013-04-21T10:17:24.000Z</time>
      </trkpt>
      <trkpt lat="47.52065" lon="-0.14971">
        <ele>45</ele>
        <time>2013-04-21T10:17:25.000Z</time>
      </trkpt>
      <trkpt lat="47.52067" lon="-0.14967">
        <ele>45</ele>
        <time>2013-04-21T10:17:30.000Z</time>
      </trkpt>
      <trkpt lat="47.52068" lon="-0.14966">
        <ele>45</ele>
        <time>2013-04-21T10:17:31.000Z</time>
      </trkpt>
      <trkpt lat="47.52071" lon="-0.14963">
        <ele>45</ele>
        <time>2013-04-21T10:17:34.000Z</time>
      </trkpt>
      <trkpt lat="47.52072" lon="-0.14961">
        <ele>45</ele>
        <time>2013-04-21T10:17:35.000Z</time>
      </trkpt>
      <trkpt lat="47.52074" lon="-0.14956">
        <ele>45</ele>
        <time>2013-04-21T10:17:38.000Z</time>
      </trkpt>
      <trkpt lat="47.52075" lon="-0.14955">
        <ele>45</ele>
        <time>2013-04-21T10:17:39.000Z</time>
      </trkpt>
      <trkpt lat="47.52077" lon="-0.14951">
        <ele>45</ele>
        <time>2013-04-21T10:17:41.000Z</time>
      </trkpt>
      <trkpt lat="47.52078" lon="-0.14949">
        <ele>45</ele>
        <time>2013-04-21T10:17:42.000Z</time>
      </trkpt>
      <trkpt lat="47.52082" lon="-0.14946">
        <ele>45</ele>
        <time>2013-04-21T10:17:45.000Z</time>
      </trkpt>
      <trkpt lat="47.52083" lon="-0.14946">
        <ele>45</ele>
        <time>2013-04-21T10:17:46.000Z</time>
      </trkpt>
      <trkpt lat="47.52085" lon="-0.14943">
        <ele>46</ele>
        <time>2013-04-21T10:17:49.000Z</time>
      </trkpt>
      <trkpt lat="47.52086" lon="-0.14941">
        <ele>46</ele>
        <time>2013-04-21T10:17:50.000Z</time>
      </trkpt>
      <trkpt lat="47.52087" lon="-0.14935">
        <ele>46</ele>
        <time>2013-04-21T10:17:53.000Z</time>
      </trkpt>
      <trkpt lat="47.52088" lon="-0.14934">
        <ele>46</ele>
        <time>2013-04-21T10:17:54.000Z</time>
      </trkpt>
      <trkpt lat="47.5209" lon="-0.14929">
        <ele>46</ele>
        <time>2013-04-21T10:17:58.000Z</time>
      </trkpt>
      <trkpt lat="47.52092" lon="-0.14928">
        <ele>46</ele>
        <time>2013-04-21T10:17:59.000Z</time>
      </trkpt>
      <trkpt lat="47.52094" lon="-0.14925">
        <ele>46</ele>
        <time>2013-04-21T10:18:01.000Z</time>
      </trkpt>
      <trkpt lat="47.52095" lon="-0.14923">
        <ele>46</ele>
        <time>2013-04-21T10:18:02.000Z</time>
      </trkpt>
      <trkpt lat="47.52098" lon="-0.14918">
        <ele>46</ele>
        <time>2013-04-21T10:18:05.000Z</time>
      </trkpt>
      <trkpt lat="47.52099" lon="-0.14917">
        <ele>46</ele>
        <time>2013-04-21T10:18:06.000Z</time>
      </trkpt>
      <trkpt lat="47.52101" lon="-0.14912">
        <ele>45</ele>
        <time>2013-04-21T10:18:09.000Z</time>
      </trkpt>
      <trkpt lat="47.52101" lon="-0.14911">
        <ele>45</ele>
        <time>2013-04-21T10:18:10.000Z</time>
      </trkpt>
      <trkpt lat="47.52104" lon="-0.14906">
        <ele>45</ele>
        <time>2013-04-21T10:18:14.000Z</time>
      </trkpt>
      <trkpt lat="47.52104" lon="-0.14904">
        <ele>45</ele>
        <time>2013-04-21T10:18:15.000Z</time>
      </trkpt>
      <trkpt lat="47.52107" lon="-0.14901">
        <ele>45</ele>
        <time>2013-04-21T10:18:18.000Z</time>
      </trkpt>
      <trkpt lat="47.52109" lon="-0.14899">
        <ele>45</ele>
        <time>2013-04-21T10:18:19.000Z</time>
      </trkpt>
      <trkpt lat="47.52111" lon="-0.14896">
        <ele>45</ele>
        <time>2013-04-21T10:18:21.000Z</time>
      </trkpt>
      <trkpt lat="47.52112" lon="-0.14895">
        <ele>45</ele>
        <time>2013-04-21T10:18:22.000Z</time>
      </trkpt>
      <trkpt lat="47.52115" lon="-0.1489">
        <ele>45</ele>
        <time>2013-04-21T10:18:25.000Z</time>
      </trkpt>
      <trkpt lat="47.52115" lon="-0.14888">
        <ele>45</ele>
        <time>2013-04-21T10:18:26.000Z</time>
      </trkpt>
      <trkpt lat="47.52117" lon="-0.14884">
        <ele>45</ele>
        <time>2013-04-21T10:18:29.000Z</time>
      </trkpt>
      <trkpt lat="47.52118" lon="-0.14883">
        <ele>45</ele>
        <time>2013-04-21T10:18:30.000Z</time>
      </trkpt>
      <trkpt lat="47.52121" lon="-0.14879">
        <ele>45</ele>
        <time>2013-04-21T10:18:33.000Z</time>
      </trkpt>
      <trkpt lat="47.52122" lon="-0.14877">
        <ele>45</ele>
        <time>2013-04-21T10:18:34.000Z</time>
      </trkpt>
      <trkpt lat="47.52125" lon="-0.14873">
        <ele>45</ele>
        <time>2013-04-21T10:18:37.000Z</time>
      </trkpt>
      <trkpt lat="47.52125" lon="-0.14872">
        <ele>45</ele>
        <time>2013-04-21T10:18:38.000Z</time>
      </trkpt>
      <trkpt lat="47.52127" lon="-0.14868">
        <ele>45</ele>
        <time>2013-04-21T10:18:41.000Z</time>
      </trkpt>
      <trkpt lat="47.52128" lon="-0.14866">
        <ele>45</ele>
        <time>2013-04-21T10:18:42.000Z</time>
      </trkpt>
      <trkpt lat="47.5213" lon="-0.14862">
        <ele>46</ele>
        <time>2013-04-21T10:18:45.000Z</time>
      </trkpt>
      <trkpt lat="47.52131" lon="-0.14861">
        <ele>46</ele>
        <time>2013-04-21T10:18:46.000Z</time>
      </trkpt>
      <trkpt lat="47.52133" lon="-0.14857">
        <ele>46</ele>
        <time>2013-04-21T10:18:49.000Z</time>
      </trkpt>
      <trkpt lat="47.52134" lon="-0.14856">
        <ele>46</ele>
        <time>2013-04-21T10:18:50.000Z</time>
      </trkpt>
      <trkpt lat="47.52137" lon="-0.14852">
        <ele>46</ele>
        <time>2013-04-21T10:18:54.000Z</time>
      </trkpt>
      <trkpt lat="47.52138" lon="-0.1485">
        <ele>46</ele>
        <time>2013-04-21T10:18:55.000Z</time>
      </trkpt>
      <trkpt lat="47.52141" lon="-0.14846">
        <ele>46</ele>
        <time>2013-04-21T10:18:58.000Z</time>
      </trkpt>
      <trkpt lat="47.52142" lon="-0.14845">
        <ele>46</ele>
        <time>2013-04-21T10:18:59.000Z</time>
      </trkpt>
      <trkpt lat="47.52144" lon="-0.1484">
        <ele>46</ele>
        <time>2013-04-21T10:19:03.000Z</time>
      </trkpt>
      <trkpt lat="47.52145" lon="-0.14839">
        <ele>46</ele>
        <time>2013-04-21T10:19:04.000Z</time>
      </trkpt>
      <trkpt lat="47.52147" lon="-0.14835">
        <ele>46</ele>
        <time>2013-04-21T10:19:07.000Z</time>
      </trkpt>
      <trkpt lat="47.52149" lon="-0.14833">
        <ele>46</ele>
        <time>2013-04-21T10:19:08.000Z</time>
      </trkpt>
      <trkpt lat="47.52152" lon="-0.1483">
        <ele>46</ele>
        <time>2013-04-21T10:19:11.000Z</time>
      </trkpt>
      <trkpt lat="47.52152" lon="-0.14828">
        <ele>46</ele>
        <time>2013-04-21T10:19:12.000Z</time>
      </trkpt>
      <trkpt lat="47.52156" lon="-0.14824">
        <ele>46</ele>
        <time>2013-04-21T10:19:17.000Z</time>
      </trkpt>
      <trkpt lat="47.52157" lon="-0.14824">
        <ele>46</ele>
        <time>2013-04-21T10:19:18.000Z</time>
      </trkpt>
      <trkpt lat="47.52159" lon="-0.14821">
        <ele>46</ele>
        <time>2013-04-21T10:19:20.000Z</time>
      </trkpt>
      <trkpt lat="47.5216" lon="-0.1482">
        <ele>46</ele>
        <time>2013-04-21T10:19:21.000Z</time>
      </trkpt>
      <trkpt lat="47.52163" lon="-0.14817">
        <ele>46</ele>
        <time>2013-04-21T10:19:25.000Z</time>
      </trkpt>
      <trkpt lat="47.52165" lon="-0.14815">
        <ele>46</ele>
        <time>2013-04-21T10:19:26.000Z</time>
      </trkpt>
      <trkpt lat="47.52167" lon="-0.14811">
        <ele>47</ele>
        <time>2013-04-21T10:19:32.000Z</time>
      </trkpt>
      <trkpt lat="47.52168" lon="-0.1481">
        <ele>47</ele>
        <time>2013-04-21T10:19:33.000Z</time>
      </trkpt>
      <trkpt lat="47.52171" lon="-0.14807">
        <ele>47</ele>
        <time>2013-04-21T10:19:37.000Z</time>
      </trkpt>
      <trkpt lat="47.52172" lon="-0.14807">
        <ele>47</ele>
        <time>2013-04-21T10:19:38.000Z</time>
      </trkpt>
      <trkpt lat="47.52176" lon="-0.14808">
        <ele>47</ele>
        <time>2013-04-21T10:19:41.000Z</time>
      </trkpt>
      <trkpt lat="47.52177" lon="-0.14808">
        <ele>47</ele>
        <time>2013-04-21T10:19:42.000Z</time>
      </trkpt>
      <trkpt lat="47.5218" lon="-0.14803">
        <ele>47</ele>
        <time>2013-04-21T10:19:55.000Z</time>
      </trkpt>
      <trkpt lat="47.5218" lon="-0.14802">
        <ele>47</ele>
        <time>2013-04-21T10:19:56.000Z</time>
      </trkpt>
      <trkpt lat="47.52178" lon="-0.14798">
        <ele>47</ele>
        <time>2013-04-21T10:20:22.000Z</time>
      </trkpt>
      <trkpt lat="47.52177" lon="-0.14797">
        <ele>47</ele>
        <time>2013-04-21T10:20:23.000Z</time>
      </trkpt>
      <trkpt lat="47.52173" lon="-0.14796">
        <ele>47</ele>
        <time>2013-04-21T10:20:29.000Z</time>
      </trkpt>
      <trkpt lat="47.52172" lon="-0.14796">
        <ele>47</ele>
        <time>2013-04-21T10:20:30.000Z</time>
      </trkpt>
      <trkpt lat="47.52169" lon="-0.14796">
        <ele>47</ele>
        <time>2013-04-21T10:20:34.000Z</time>
      </trkpt>
      <trkpt lat="47.52168" lon="-0.14797">
        <ele>47</ele>
        <time>2013-04-21T10:20:35.000Z</time>
      </trkpt>
      <trkpt lat="47.52164" lon="-0.14801">
        <ele>46</ele>
        <time>2013-04-21T10:20:39.000Z</time>
      </trkpt>
      <trkpt lat="47.52163" lon="-0.14802">
        <ele>46</ele>
        <time>2013-04-21T10:20:40.000Z</time>
      </trkpt>
      <trkpt lat="47.5216" lon="-0.14806">
        <ele>46</ele>
        <time>2013-04-21T10:20:43.000Z</time>
      </trkpt>
      <trkpt lat="47.5216" lon="-0.14807">
        <ele>46</ele>
        <time>2013-04-21T10:20:44.000Z</time>
      </trkpt>
      <trkpt lat="47.52156" lon="-0.14811">
        <ele>46</ele>
        <time>2013-04-21T10:20:49.000Z</time>
      </trkpt>
      <trkpt lat="47.52156" lon="-0.14811">
        <ele>46</ele>
        <time>2013-04-21T10:20:50.000Z</time>
      </trkpt>
      <trkpt lat="47.52153" lon="-0.14815">
        <ele>46</ele>
        <time>2013-04-21T10:20:55.000Z</time>
      </trkpt>
      <trkpt lat="47.52152" lon="-0.14816">
        <ele>46</ele>
        <time>2013-04-21T10:20:56.000Z</time>
      </trkpt>
      <trkpt lat="47.52156" lon="-0.14818">
        <ele>46</ele>
        <time>2013-04-21T10:21:57.000Z</time>
      </trkpt>
      <trkpt lat="47.52156" lon="-0.14818">
        <ele>46</ele>
        <time>2013-04-21T10:21:58.000Z</time>
      </trkpt>
      <trkpt lat="47.52159" lon="-0.14813">
        <ele>46</ele>
        <time>2013-04-21T10:22:15.000Z</time>
      </trkpt>
      <trkpt lat="47.52159" lon="-0.14812">
        <ele>46</ele>
        <time>2013-04-21T10:22:16.000Z</time>
      </trkpt>
      <trkpt lat="47.52162" lon="-0.1481">
        <ele>46</ele>
        <time>2013-04-21T10:22:21.000Z</time>
      </trkpt>
      <trkpt lat="47.52163" lon="-0.14809">
        <ele>46</ele>
        <time>2013-04-21T10:22:22.000Z</time>
      </trkpt>
      <trkpt lat="47.52167" lon="-0.14806">
        <ele>47</ele>
        <time>2013-04-21T10:22:30.000Z</time>
      </trkpt>
      <trkpt lat="47.52168" lon="-0.14805">
        <ele>47</ele>
        <time>2013-04-21T10:22:31.000Z</time>
      </trkpt>
      <trkpt lat="47.5217" lon="-0.14801">
        <ele>47</ele>
        <time>2013-04-21T10:22:36.000Z</time>
      </trkpt>
      <trkpt lat="47.52171" lon="-0.148">
        <ele>47</ele>
        <time>2013-04-21T10:22:37.000Z</time>
      </trkpt>
      <trkpt lat="47.52173" lon="-0.14795">
        <ele>47</ele>
        <time>2013-04-21T10:22:42.000Z</time>
      </trkpt>
      <trkpt lat="47.52174" lon="-0.14793">
        <ele>47</ele>
        <time>2013-04-21T10:22:43.000Z</time>
      </trkpt>
      <trkpt lat="47.52177" lon="-0.1479">
        <ele>46</ele>
        <time>2013-04-21T10:22:59.000Z</time>
      </trkpt>
      <trkpt lat="47.52179" lon="-0.14788">
        <ele>46</ele>
        <time>2013-04-21T10:23:00.000Z</time>
      </trkpt>
      <trkpt lat="47.52181" lon="-0.14784">
        <ele>46</ele>
        <time>2013-04-21T10:23:02.000Z</time>
      </trkpt>
      <trkpt lat="47.52181" lon="-0.14782">
        <ele>46</ele>
        <time>2013-04-21T10:23:03.000Z</time>
      </trkpt>
      <trkpt lat="47.52184" lon="-0.14777">
        <ele>46</ele>
        <time>2013-04-21T10:23:05.000Z</time>
      </trkpt>
      <trkpt lat="47.52184" lon="-0.14776">
        <ele>46</ele>
        <time>2013-04-21T10:23:06.000Z</time>
      </trkpt>
      <trkpt lat="47.52187" lon="-0.14772">
        <ele>46</ele>
        <time>2013-04-21T10:23:12.000Z</time>
      </trkpt>
      <trkpt lat="47.52188" lon="-0.1477">
        <ele>46</ele>
        <time>2013-04-21T10:23:13.000Z</time>
      </trkpt>
      <trkpt lat="47.5219" lon="-0.14765">
        <ele>46</ele>
        <time>2013-04-21T10:23:16.000Z</time>
      </trkpt>
      <trkpt lat="47.5219" lon="-0.14765">
        <ele>46</ele>
        <time>2013-04-21T10:23:17.000Z</time>
      </trkpt>
      <trkpt lat="47.52192" lon="-0.1476">
        <ele>46</ele>
        <time>2013-04-21T10:23:20.000Z</time>
      </trkpt>
      <trkpt lat="47.52193" lon="-0.14759">
        <ele>46</ele>
        <time>2013-04-21T10:23:21.000Z</time>
      </trkpt>
      <trkpt lat="47.52195" lon="-0.14754">
        <ele>46</ele>
        <time>2013-04-21T10:23:24.000Z</time>
      </trkpt>
      <trkpt lat="47.52195" lon="-0.14753">
        <ele>46</ele>
        <time>2013-04-21T10:23:25.000Z</time>
      </trkpt>
      <trkpt lat="47.52198" lon="-0.14748">
        <ele>45</ele>
        <time>2013-04-21T10:23:28.000Z</time>
      </trkpt>
      <trkpt lat="47.52198" lon="-0.14747">
        <ele>45</ele>
        <time>2013-04-21T10:23:29.000Z</time>
      </trkpt>
      <trkpt lat="47.522" lon="-0.14742">
        <ele>45</ele>
        <time>2013-04-21T10:23:32.000Z</time>
      </trkpt>
      <trkpt lat="47.52201" lon="-0.1474">
        <ele>45</ele>
        <time>2013-04-21T10:23:33.000Z</time>
      </trkpt>
      <trkpt lat="47.52202" lon="-0.14736">
        <ele>45</ele>
        <time>2013-04-21T10:23:36.000Z</time>
      </trkpt>
      <trkpt lat="47.52203" lon="-0.14734">
        <ele>45</ele>
        <time>2013-04-21T10:23:37.000Z</time>
      </trkpt>
      <trkpt lat="47.52206" lon="-0.1473">
        <ele>45</ele>
        <time>2013-04-21T10:23:40.000Z</time>
      </trkpt>
      <trkpt lat="47.52207" lon="-0.14728">
        <ele>45</ele>
        <time>2013-04-21T10:23:41.000Z</time>
      </trkpt>
      <trkpt lat="47.52209" lon="-0.14724">
        <ele>45</ele>
        <time>2013-04-21T10:23:45.000Z</time>
      </trkpt>
      <trkpt lat="47.52211" lon="-0.14722">
        <ele>45</ele>
        <time>2013-04-21T10:23:46.000Z</time>
      </trkpt>
      <trkpt lat="47.52212" lon="-0.14718">
        <ele>45</ele>
        <time>2013-04-21T10:23:48.000Z</time>
      </trkpt>
      <trkpt lat="47.52213" lon="-0.14716">
        <ele>45</ele>
        <time>2013-04-21T10:23:49.000Z</time>
      </trkpt>
      <trkpt lat="47.52215" lon="-0.14711">
        <ele>44</ele>
        <time>2013-04-21T10:23:51.000Z</time>
      </trkpt>
      <trkpt lat="47.52215" lon="-0.1471">
        <ele>44</ele>
        <time>2013-04-21T10:23:52.000Z</time>
      </trkpt>
      <trkpt lat="47.52218" lon="-0.14706">
        <ele>44</ele>
        <time>2013-04-21T10:23:56.000Z</time>
      </trkpt>
      <trkpt lat="47.52218" lon="-0.14705">
        <ele>44</ele>
        <time>2013-04-21T10:23:57.000Z</time>
      </trkpt>
      <trkpt lat="47.5222" lon="-0.14701">
        <ele>44</ele>
        <time>2013-04-21T10:24:00.000Z</time>
      </trkpt>
      <trkpt lat="47.52221" lon="-0.147">
        <ele>44</ele>
        <time>2013-04-21T10:24:01.000Z</time>
      </trkpt>
      <trkpt lat="47.52224" lon="-0.14696">
        <ele>44</ele>
        <time>2013-04-21T10:24:04.000Z</time>
      </trkpt>
      <trkpt lat="47.52225" lon="-0.14695">
        <ele>44</ele>
        <time>2013-04-21T10:24:05.000Z</time>
      </trkpt>
      <trkpt lat="47.52227" lon="-0.14691">
        <ele>44</ele>
        <time>2013-04-21T10:24:08.000Z</time>
      </trkpt>
      <trkpt lat="47.52228" lon="-0.1469">
        <ele>44</ele>
        <time>2013-04-21T10:24:09.000Z</time>
      </trkpt>
      <trkpt lat="47.52231" lon="-0.14686">
        <ele>44</ele>
        <time>2013-04-21T10:24:13.000Z</time>
      </trkpt>
      <trkpt lat="47.52232" lon="-0.14684">
        <ele>44</ele>
        <time>2013-04-21T10:24:14.000Z</time>
      </trkpt>
      <trkpt lat="47.52234" lon="-0.14679">
        <ele>44</ele>
        <time>2013-04-21T10:24:17.000Z</time>
      </trkpt>
      <trkpt lat="47.52235" lon="-0.14679">
        <ele>44</ele>
        <time>2013-04-21T10:24:18.000Z</time>
      </trkpt>
      <trkpt lat="47.52237" lon="-0.14675">
        <ele>44</ele>
        <time>2013-04-21T10:24:20.000Z</time>
      </trkpt>
      <trkpt lat="47.52238" lon="-0.14673">
        <ele>44</ele>
        <time>2013-04-21T10:24:21.000Z</time>
      </trkpt>
      <trkpt lat="47.5224" lon="-0.14668">
        <ele>43</ele>
        <time>2013-04-21T10:24:24.000Z</time>
      </trkpt>
      <trkpt lat="47.52241" lon="-0.14666">
        <ele>43</ele>
        <time>2013-04-21T10:24:25.000Z</time>
      </trkpt>
      <trkpt lat="47.52243" lon="-0.14662">
        <ele>43</ele>
        <time>2013-04-21T10:24:29.000Z</time>
      </trkpt>
      <trkpt lat="47.52243" lon="-0.14661">
        <ele>43</ele>
        <time>2013-04-21T10:24:30.000Z</time>
      </trkpt>
      <trkpt lat="47.52247" lon="-0.14657">
        <ele>43</ele>
        <time>2013-04-21T10:24:36.000Z</time>
      </trkpt>
      <trkpt lat="47.52247" lon="-0.14657">
        <ele>43</ele>
        <time>2013-04-21T10:24:37.000Z</time>
      </trkpt>
      <trkpt lat="47.5225" lon="-0.14652">
        <ele>43</ele>
        <time>2013-04-21T10:24:41.000Z</time>
      </trkpt>
      <trkpt lat="47.5225" lon="-0.1465">
        <ele>43</ele>
        <time>2013-04-21T10:24:42.000Z</time>
      </trkpt>
      <trkpt lat="47.52252" lon="-0.14644">
        <ele>43</ele>
        <time>2013-04-21T10:24:47.000Z</time>
      </trkpt>
      <trkpt lat="47.52253" lon="-0.14643">
        <ele>43</ele>
        <time>2013-04-21T10:24:48.000Z</time>
      </trkpt>
      <trkpt lat="47.52256" lon="-0.14639">
        <ele>43</ele>
        <time>2013-04-21T10:24:50.000Z</time>
      </trkpt>
      <trkpt lat="47.52256" lon="-0.14638">
        <ele>43</ele>
        <time>2013-04-21T10:24:51.000Z</time>
      </trkpt>
      <trkpt lat="47.52259" lon="-0.14633">
        <ele>43</ele>
        <time>2013-04-21T10:24:55.000Z</time>
      </trkpt>
      <trkpt lat="47.5226" lon="-0.14633">
        <ele>43</ele>
        <time>2013-04-21T10:24:56.000Z</time>
      </trkpt>
      <trkpt lat="47.52262" lon="-0.14629">
        <ele>43</ele>
        <time>2013-04-21T10:24:59.000Z</time>
      </trkpt>
      <trkpt lat="47.52262" lon="-0.14627">
        <ele>43</ele>
        <time>2013-04-21T10:25:00.000Z</time>
      </trkpt>
      <trkpt lat="47.52265" lon="-0.14622">
        <ele>43</ele>
        <time>2013-04-21T10:25:03.000Z</time>
      </trkpt>
      <trkpt lat="47.52265" lon="-0.14621">
        <ele>43</ele>
        <time>2013-04-21T10:25:04.000Z</time>
      </trkpt>
      <trkpt lat="47.52268" lon="-0.14617">
        <ele>43</ele>
        <time>2013-04-21T10:25:07.000Z</time>
      </trkpt>
      <trkpt lat="47.52268" lon="-0.14615">
        <ele>43</ele>
        <time>2013-04-21T10:25:08.000Z</time>
      </trkpt>
      <trkpt lat="47.52269" lon="-0.1461">
        <ele>43</ele>
        <time>2013-04-21T10:25:10.000Z</time>
      </trkpt>
      <trkpt lat="47.52269" lon="-0.14608">
        <ele>43</ele>
        <time>2013-04-21T10:25:11.000Z</time>
      </trkpt>
      <trkpt lat="47.52271" lon="-0.14602">
        <ele>43</ele>
        <time>2013-04-21T10:25:14.000Z</time>
      </trkpt>
      <trkpt lat="47.52271" lon="-0.146">
        <ele>43</ele>
        <time>2013-04-21T10:25:15.000Z</time>
      </trkpt>
      <trkpt lat="47.52273" lon="-0.14596">
        <ele>43</ele>
        <time>2013-04-21T10:25:19.000Z</time>
      </trkpt>
      <trkpt lat="47.52275" lon="-0.14593">
        <ele>43</ele>
        <time>2013-04-21T10:25:20.000Z</time>
      </trkpt>
      <trkpt lat="47.52276" lon="-0.14591">
        <ele>43</ele>
        <time>2013-04-21T10:25:21.000Z</time>
      </trkpt>
      <trkpt lat="47.52278" lon="-0.14587">
        <ele>43</ele>
        <time>2013-04-21T10:25:22.000Z</time>
      </trkpt>
      <trkpt lat="47.52281" lon="-0.14582">
        <ele>43</ele>
        <time>2013-04-21T10:25:25.000Z</time>
      </trkpt>
      <trkpt lat="47.52281" lon="-0.1458">
        <ele>43</ele>
        <time>2013-04-21T10:25:26.000Z</time>
      </trkpt>
      <trkpt lat="47.52283" lon="-0.14575">
        <ele>43</ele>
        <time>2013-04-21T10:25:30.000Z</time>
      </trkpt>
      <trkpt lat="47.52283" lon="-0.14573">
        <ele>43</ele>
        <time>2013-04-21T10:25:31.000Z</time>
      </trkpt>
      <trkpt lat="47.52285" lon="-0.14568">
        <ele>43</ele>
        <time>2013-04-21T10:25:35.000Z</time>
      </trkpt>
      <trkpt lat="47.52285" lon="-0.14566">
        <ele>43</ele>
        <time>2013-04-21T10:25:36.000Z</time>
      </trkpt>
      <trkpt lat="47.52286" lon="-0.1456">
        <ele>43</ele>
        <time>2013-04-21T10:25:40.000Z</time>
      </trkpt>
      <trkpt lat="47.52287" lon="-0.14558">
        <ele>43</ele>
        <time>2013-04-21T10:25:41.000Z</time>
      </trkpt>
      <trkpt lat="47.52289" lon="-0.14552">
        <ele>43</ele>
        <time>2013-04-21T10:25:44.000Z</time>
      </trkpt>
      <trkpt lat="47.52289" lon="-0.1455">
        <ele>43</ele>
        <time>2013-04-21T10:25:45.000Z</time>
      </trkpt>
      <trkpt lat="47.52291" lon="-0.14545">
        <ele>43</ele>
        <time>2013-04-21T10:25:47.000Z</time>
      </trkpt>
      <trkpt lat="47.52291" lon="-0.14542">
        <ele>43</ele>
        <time>2013-04-21T10:25:48.000Z</time>
      </trkpt>
      <trkpt lat="47.52293" lon="-0.14537">
        <ele>43</ele>
        <time>2013-04-21T10:25:51.000Z</time>
      </trkpt>
      <trkpt lat="47.52293" lon="-0.14535">
        <ele>43</ele>
        <time>2013-04-21T10:25:52.000Z</time>
      </trkpt>
      <trkpt lat="47.52296" lon="-0.14529">
        <ele>43</ele>
        <time>2013-04-21T10:25:56.000Z</time>
      </trkpt>
      <trkpt lat="47.52297" lon="-0.14527">
        <ele>43</ele>
        <time>2013-04-21T10:25:57.000Z</time>
      </trkpt>
      <trkpt lat="47.52299" lon="-0.14523">
        <ele>43</ele>
        <time>2013-04-21T10:26:00.000Z</time>
      </trkpt>
      <trkpt lat="47.52299" lon="-0.14521">
        <ele>43</ele>
        <time>2013-04-21T10:26:01.000Z</time>
      </trkpt>
      <trkpt lat="47.52301" lon="-0.14516">
        <ele>43</ele>
        <time>2013-04-21T10:26:04.000Z</time>
      </trkpt>
      <trkpt lat="47.52301" lon="-0.14514">
        <ele>43</ele>
        <time>2013-04-21T10:26:05.000Z</time>
      </trkpt>
      <trkpt lat="47.52303" lon="-0.14509">
        <ele>43</ele>
        <time>2013-04-21T10:26:08.000Z</time>
      </trkpt>
      <trkpt lat="47.52303" lon="-0.14507">
        <ele>43</ele>
        <time>2013-04-21T10:26:09.000Z</time>
      </trkpt>
      <trkpt lat="47.52304" lon="-0.14503">
        <ele>43</ele>
        <time>2013-04-21T10:26:11.000Z</time>
      </trkpt>
      <trkpt lat="47.52305" lon="-0.14501">
        <ele>43</ele>
        <time>2013-04-21T10:26:12.000Z</time>
      </trkpt>
      <trkpt lat="47.52306" lon="-0.14495">
        <ele>42</ele>
        <time>2013-04-21T10:26:15.000Z</time>
      </trkpt>
      <trkpt lat="47.52306" lon="-0.14493">
        <ele>42</ele>
        <time>2013-04-21T10:26:16.000Z</time>
      </trkpt>
      <trkpt lat="47.52308" lon="-0.14487">
        <ele>42</ele>
        <time>2013-04-21T10:26:19.000Z</time>
      </trkpt>
      <trkpt lat="47.52308" lon="-0.14485">
        <ele>42</ele>
        <time>2013-04-21T10:26:20.000Z</time>
      </trkpt>
      <trkpt lat="47.52309" lon="-0.1448">
        <ele>42</ele>
        <time>2013-04-21T10:26:25.000Z</time>
      </trkpt>
      <trkpt lat="47.5231" lon="-0.14479">
        <ele>42</ele>
        <time>2013-04-21T10:26:26.000Z</time>
      </trkpt>
      <trkpt lat="47.52312" lon="-0.14473">
        <ele>42</ele>
        <time>2013-04-21T10:26:29.000Z</time>
      </trkpt>
      <trkpt lat="47.52312" lon="-0.14472">
        <ele>42</ele>
        <time>2013-04-21T10:26:30.000Z</time>
      </trkpt>
      <trkpt lat="47.52314" lon="-0.14467">
        <ele>42</ele>
        <time>2013-04-21T10:26:32.000Z</time>
      </trkpt>
      <trkpt lat="47.52314" lon="-0.14465">
        <ele>42</ele>
        <time>2013-04-21T10:26:33.000Z</time>
      </trkpt>
      <trkpt lat="47.52316" lon="-0.14461">
        <ele>42</ele>
        <time>2013-04-21T10:26:36.000Z</time>
      </trkpt>
      <trkpt lat="47.52316" lon="-0.14459">
        <ele>42</ele>
        <time>2013-04-21T10:26:37.000Z</time>
      </trkpt>
      <trkpt lat="47.52317" lon="-0.14453">
        <ele>42</ele>
        <time>2013-04-21T10:26:40.000Z</time>
      </trkpt>
      <trkpt lat="47.52317" lon="-0.14451">
        <ele>42</ele>
        <time>2013-04-21T10:26:41.000Z</time>
      </trkpt>
      <trkpt lat="47.52319" lon="-0.14446">
        <ele>42</ele>
        <time>2013-04-21T10:26:44.000Z</time>
      </trkpt>
      <trkpt lat="47.52319" lon="-0.14444">
        <ele>42</ele>
        <time>2013-04-21T10:26:45.000Z</time>
      </trkpt>
      <trkpt lat="47.52321" lon="-0.14439">
        <ele>42</ele>
        <time>2013-04-21T10:26:49.000Z</time>
      </trkpt>
      <trkpt lat="47.52321" lon="-0.14438">
        <ele>42</ele>
        <time>2013-04-21T10:26:50.000Z</time>
      </trkpt>
      <trkpt lat="47.52325" lon="-0.14433">
        <ele>42</ele>
        <time>2013-04-21T10:26:53.000Z</time>
      </trkpt>
      <trkpt lat="47.52326" lon="-0.14432">
        <ele>42</ele>
        <time>2013-04-21T10:26:54.000Z</time>
      </trkpt>
      <trkpt lat="47.52328" lon="-0.14427">
        <ele>42</ele>
        <time>2013-04-21T10:26:57.000Z</time>
      </trkpt>
      <trkpt lat="47.52328" lon="-0.14426">
        <ele>42</ele>
        <time>2013-04-21T10:26:58.000Z</time>
      </trkpt>
      <trkpt lat="47.5233" lon="-0.14421">
        <ele>42</ele>
        <time>2013-04-21T10:27:01.000Z</time>
      </trkpt>
      <trkpt lat="47.5233" lon="-0.14419">
        <ele>42</ele>
        <time>2013-04-21T10:27:02.000Z</time>
      </trkpt>
      <trkpt lat="47.52331" lon="-0.14414">
        <ele>42</ele>
        <time>2013-04-21T10:27:05.000Z</time>
      </trkpt>
      <trkpt lat="47.52332" lon="-0.14412">
        <ele>42</ele>
        <time>2013-04-21T10:27:06.000Z</time>
      </trkpt>
      <trkpt lat="47.52332" lon="-0.14407">
        <ele>42</ele>
        <time>2013-04-21T10:27:09.000Z</time>
      </trkpt>
      <trkpt lat="47.52333" lon="-0.14405">
        <ele>42</ele>
        <time>2013-04-21T10:27:10.000Z</time>
      </trkpt>
      <trkpt lat="47.52334" lon="-0.14401">
        <ele>43</ele>
        <time>2013-04-21T10:27:12.000Z</time>
      </trkpt>
      <trkpt lat="47.52334" lon="-0.14398">
        <ele>43</ele>
        <time>2013-04-21T10:27:13.000Z</time>
      </trkpt>
      <trkpt lat="47.52337" lon="-0.14393">
        <ele>43</ele>
        <time>2013-04-21T10:27:17.000Z</time>
      </trkpt>
      <trkpt lat="47.52338" lon="-0.14391">
        <ele>43</ele>
        <time>2013-04-21T10:27:18.000Z</time>
      </trkpt>
      <trkpt lat="47.52339" lon="-0.14387">
        <ele>43</ele>
        <time>2013-04-21T10:27:20.000Z</time>
      </trkpt>
      <trkpt lat="47.5234" lon="-0.14385">
        <ele>43</ele>
        <time>2013-04-21T10:27:21.000Z</time>
      </trkpt>
      <trkpt lat="47.52341" lon="-0.1438">
        <ele>43</ele>
        <time>2013-04-21T10:27:25.000Z</time>
      </trkpt>
      <trkpt lat="47.52342" lon="-0.14378">
        <ele>43</ele>
        <time>2013-04-21T10:27:26.000Z</time>
      </trkpt>
      <trkpt lat="47.52344" lon="-0.14373">
        <ele>43</ele>
        <time>2013-04-21T10:27:29.000Z</time>
      </trkpt>
      <trkpt lat="47.52344" lon="-0.14371">
        <ele>43</ele>
        <time>2013-04-21T10:27:30.000Z</time>
      </trkpt>
      <trkpt lat="47.52346" lon="-0.14366">
        <ele>43</ele>
        <time>2013-04-21T10:27:33.000Z</time>
      </trkpt>
      <trkpt lat="47.52347" lon="-0.14365">
        <ele>43</ele>
        <time>2013-04-21T10:27:34.000Z</time>
      </trkpt>
      <trkpt lat="47.52349" lon="-0.14361">
        <ele>43</ele>
        <time>2013-04-21T10:27:38.000Z</time>
      </trkpt>
      <trkpt lat="47.52349" lon="-0.14359">
        <ele>43</ele>
        <time>2013-04-21T10:27:39.000Z</time>
      </trkpt>
      <trkpt lat="47.5235" lon="-0.14353">
        <ele>43</ele>
        <time>2013-04-21T10:27:42.000Z</time>
      </trkpt>
      <trkpt lat="47.52351" lon="-0.14351">
        <ele>43</ele>
        <time>2013-04-21T10:27:43.000Z</time>
      </trkpt>
      <trkpt lat="47.52353" lon="-0.14346">
        <ele>43</ele>
        <time>2013-04-21T10:27:48.000Z</time>
      </trkpt>
      <trkpt lat="47.52353" lon="-0.14344">
        <ele>43</ele>
        <time>2013-04-21T10:27:49.000Z</time>
      </trkpt>
      <trkpt lat="47.52354" lon="-0.14338">
        <ele>43</ele>
        <time>2013-04-21T10:27:53.000Z</time>
      </trkpt>
      <trkpt lat="47.52354" lon="-0.14337">
        <ele>43</ele>
        <time>2013-04-21T10:27:54.000Z</time>
      </trkpt>
      <trkpt lat="47.52356" lon="-0.14332">
        <ele>43</ele>
        <time>2013-04-21T10:27:57.000Z</time>
      </trkpt>
      <trkpt lat="47.52356" lon="-0.1433">
        <ele>43</ele>
        <time>2013-04-21T10:27:58.000Z</time>
      </trkpt>
      <trkpt lat="47.52359" lon="-0.14325">
        <ele>43</ele>
        <time>2013-04-21T10:28:02.000Z</time>
      </trkpt>
      <trkpt lat="47.5236" lon="-0.14324">
        <ele>43</ele>
        <time>2013-04-21T10:28:03.000Z</time>
      </trkpt>
      <trkpt lat="47.52361" lon="-0.1432">
        <ele>43</ele>
        <time>2013-04-21T10:28:06.000Z</time>
      </trkpt>
      <trkpt lat="47.52361" lon="-0.14318">
        <ele>43</ele>
        <time>2013-04-21T10:28:07.000Z</time>
      </trkpt>
      <trkpt lat="47.52363" lon="-0.14312">
        <ele>43</ele>
        <time>2013-04-21T10:28:11.000Z</time>
      </trkpt>
      <trkpt lat="47.52364" lon="-0.14311">
        <ele>43</ele>
        <time>2013-04-21T10:28:12.000Z</time>
      </trkpt>
      <trkpt lat="47.52365" lon="-0.14308">
        <ele>43</ele>
        <time>2013-04-21T10:28:19.000Z</time>
      </trkpt>
      <trkpt lat="47.52365" lon="-0.14304">
        <ele>43</ele>
        <time>2013-04-21T10:28:20.000Z</time>
      </trkpt>
      <trkpt lat="47.52366" lon="-0.14298">
        <ele>43</ele>
        <time>2013-04-21T10:28:23.000Z</time>
      </trkpt>
      <trkpt lat="47.52367" lon="-0.14297">
        <ele>43</ele>
        <time>2013-04-21T10:28:24.000Z</time>
      </trkpt>
      <trkpt lat="47.52369" lon="-0.14292">
        <ele>43</ele>
        <time>2013-04-21T10:28:27.000Z</time>
      </trkpt>
      <trkpt lat="47.52369" lon="-0.1429">
        <ele>43</ele>
        <time>2013-04-21T10:28:28.000Z</time>
      </trkpt>
      <trkpt lat="47.52371" lon="-0.14285">
        <ele>43</ele>
        <time>2013-04-21T10:28:31.000Z</time>
      </trkpt>
      <trkpt lat="47.52372" lon="-0.14283">
        <ele>43</ele>
        <time>2013-04-21T10:28:32.000Z</time>
      </trkpt>
      <trkpt lat="47.52375" lon="-0.14278">
        <ele>43</ele>
        <time>2013-04-21T10:28:35.000Z</time>
      </trkpt>
      <trkpt lat="47.52375" lon="-0.14277">
        <ele>44</ele>
        <time>2013-04-21T10:28:36.000Z</time>
      </trkpt>
      <trkpt lat="47.52378" lon="-0.14271">
        <ele>44</ele>
        <time>2013-04-21T10:28:40.000Z</time>
      </trkpt>
      <trkpt lat="47.52378" lon="-0.1427">
        <ele>44</ele>
        <time>2013-04-21T10:28:41.000Z</time>
      </trkpt>
      <trkpt lat="47.5238" lon="-0.14265">
        <ele>44</ele>
        <time>2013-04-21T10:28:46.000Z</time>
      </trkpt>
      <trkpt lat="47.52381" lon="-0.14264">
        <ele>44</ele>
        <time>2013-04-21T10:28:47.000Z</time>
      </trkpt>
      <trkpt lat="47.52382" lon="-0.14261">
        <ele>44</ele>
        <time>2013-04-21T10:28:48.000Z</time>
      </trkpt>
      <trkpt lat="47.52384" lon="-0.14258">
        <ele>44</ele>
        <time>2013-04-21T10:28:49.000Z</time>
      </trkpt>
      <trkpt lat="47.52386" lon="-0.14253">
        <ele>44</ele>
        <time>2013-04-21T10:28:53.000Z</time>
      </trkpt>
      <trkpt lat="47.52386" lon="-0.14252">
        <ele>44</ele>
        <time>2013-04-21T10:28:54.000Z</time>
      </trkpt>
      <trkpt lat="47.52388" lon="-0.14247">
        <ele>43</ele>
        <time>2013-04-21T10:28:57.000Z</time>
      </trkpt>
      <trkpt lat="47.52389" lon="-0.14246">
        <ele>43</ele>
        <time>2013-04-21T10:28:58.000Z</time>
      </trkpt>
      <trkpt lat="47.52392" lon="-0.14241">
        <ele>43</ele>
        <time>2013-04-21T10:29:03.000Z</time>
      </trkpt>
      <trkpt lat="47.52393" lon="-0.1424">
        <ele>43</ele>
        <time>2013-04-21T10:29:04.000Z</time>
      </trkpt>
      <trkpt lat="47.52394" lon="-0.14235">
        <ele>43</ele>
        <time>2013-04-21T10:29:07.000Z</time>
      </trkpt>
      <trkpt lat="47.52394" lon="-0.14233">
        <ele>43</ele>
        <time>2013-04-21T10:29:08.000Z</time>
      </trkpt>
      <trkpt lat="47.52394" lon="-0.14227">
        <ele>43</ele>
        <time>2013-04-21T10:29:12.000Z</time>
      </trkpt>
      <trkpt lat="47.52395" lon="-0.1422">
        <ele>43</ele>
        <time>2013-04-21T10:29:13.000Z</time>
      </trkpt>
      <trkpt lat="47.52396" lon="-0.14215">
        <ele>43</ele>
        <time>2013-04-21T10:29:15.000Z</time>
      </trkpt>
      <trkpt lat="47.52396" lon="-0.14214">
        <ele>43</ele>
        <time>2013-04-21T10:29:16.000Z</time>
      </trkpt>
      <trkpt lat="47.52398" lon="-0.14208">
        <ele>43</ele>
        <time>2013-04-21T10:29:21.000Z</time>
      </trkpt>
      <trkpt lat="47.52398" lon="-0.14207">
        <ele>43</ele>
        <time>2013-04-21T10:29:22.000Z</time>
      </trkpt>
      <trkpt lat="47.52401" lon="-0.14201">
        <ele>43</ele>
        <time>2013-04-21T10:29:26.000Z</time>
      </trkpt>
      <trkpt lat="47.52401" lon="-0.14199">
        <ele>43</ele>
        <time>2013-04-21T10:29:27.000Z</time>
      </trkpt>
      <trkpt lat="47.52402" lon="-0.14194">
        <ele>43</ele>
        <time>2013-04-21T10:29:30.000Z</time>
      </trkpt>
      <trkpt lat="47.52403" lon="-0.14192">
        <ele>43</ele>
        <time>2013-04-21T10:29:31.000Z</time>
      </trkpt>
      <trkpt lat="47.52404" lon="-0.14189">
        <ele>43</ele>
        <time>2013-04-21T10:29:33.000Z</time>
      </trkpt>
      <trkpt lat="47.52405" lon="-0.14184">
        <ele>42</ele>
        <time>2013-04-21T10:29:34.000Z</time>
      </trkpt>
      <trkpt lat="47.52405" lon="-0.14179">
        <ele>42</ele>
        <time>2013-04-21T10:29:36.000Z</time>
      </trkpt>
      <trkpt lat="47.52406" lon="-0.14177">
        <ele>42</ele>
        <time>2013-04-21T10:29:37.000Z</time>
      </trkpt>
      <trkpt lat="47.52407" lon="-0.14171">
        <ele>42</ele>
        <time>2013-04-21T10:29:41.000Z</time>
      </trkpt>
      <trkpt lat="47.52407" lon="-0.14169">
        <ele>42</ele>
        <time>2013-04-21T10:29:42.000Z</time>
      </trkpt>
      <trkpt lat="47.52409" lon="-0.14164">
        <ele>42</ele>
        <time>2013-04-21T10:29:46.000Z</time>
      </trkpt>
      <trkpt lat="47.52409" lon="-0.14163">
        <ele>42</ele>
        <time>2013-04-21T10:29:47.000Z</time>
      </trkpt>
      <trkpt lat="47.52411" lon="-0.14158">
        <ele>42</ele>
        <time>2013-04-21T10:29:50.000Z</time>
      </trkpt>
      <trkpt lat="47.52412" lon="-0.14156">
        <ele>42</ele>
        <time>2013-04-21T10:29:51.000Z</time>
      </trkpt>
      <trkpt lat="47.52414" lon="-0.14152">
        <ele>42</ele>
        <time>2013-04-21T10:29:55.000Z</time>
      </trkpt>
      <trkpt lat="47.52415" lon="-0.1415">
        <ele>42</ele>
        <time>2013-04-21T10:29:56.000Z</time>
      </trkpt>
      <trkpt lat="47.52416" lon="-0.14145">
        <ele>42</ele>
        <time>2013-04-21T10:29:58.000Z</time>
      </trkpt>
      <trkpt lat="47.52417" lon="-0.14142">
        <ele>43</ele>
        <time>2013-04-21T10:29:59.000Z</time>
      </trkpt>
      <trkpt lat="47.52418" lon="-0.14138">
        <ele>43</ele>
        <time>2013-04-21T10:30:02.000Z</time>
      </trkpt>
      <trkpt lat="47.52419" lon="-0.14133">
        <ele>43</ele>
        <time>2013-04-21T10:30:03.000Z</time>
      </trkpt>
      <trkpt lat="47.52419" lon="-0.14127">
        <ele>43</ele>
        <time>2013-04-21T10:30:06.000Z</time>
      </trkpt>
      <trkpt lat="47.52419" lon="-0.14124">
        <ele>43</ele>
        <time>2013-04-21T10:30:07.000Z</time>
      </trkpt>
      <trkpt lat="47.52419" lon="-0.14118">
        <ele>43</ele>
        <time>2013-04-21T10:30:10.000Z</time>
      </trkpt>
      <trkpt lat="47.52419" lon="-0.14116">
        <ele>43</ele>
        <time>2013-04-21T10:30:11.000Z</time>
      </trkpt>
      <trkpt lat="47.52419" lon="-0.14112">
        <ele>43</ele>
        <time>2013-04-21T10:30:13.000Z</time>
      </trkpt>
      <trkpt lat="47.5242" lon="-0.14109">
        <ele>43</ele>
        <time>2013-04-21T10:30:14.000Z</time>
      </trkpt>
      <trkpt lat="47.52419" lon="-0.14104">
        <ele>43</ele>
        <time>2013-04-21T10:30:17.000Z</time>
      </trkpt>
      <trkpt lat="47.52419" lon="-0.14102">
        <ele>43</ele>
        <time>2013-04-21T10:30:18.000Z</time>
      </trkpt>
      <trkpt lat="47.5242" lon="-0.14098">
        <ele>43</ele>
        <time>2013-04-21T10:30:21.000Z</time>
      </trkpt>
      <trkpt lat="47.52421" lon="-0.14095">
        <ele>43</ele>
        <time>2013-04-21T10:30:22.000Z</time>
      </trkpt>
      <trkpt lat="47.52421" lon="-0.14089">
        <ele>43</ele>
        <time>2013-04-21T10:30:26.000Z</time>
      </trkpt>
      <trkpt lat="47.52422" lon="-0.14087">
        <ele>42</ele>
        <time>2013-04-21T10:30:27.000Z</time>
      </trkpt>
      <trkpt lat="47.52423" lon="-0.14081">
        <ele>42</ele>
        <time>2013-04-21T10:30:31.000Z</time>
      </trkpt>
      <trkpt lat="47.52423" lon="-0.1408">
        <ele>42</ele>
        <time>2013-04-21T10:30:32.000Z</time>
      </trkpt>
      <trkpt lat="47.52425" lon="-0.14074">
        <ele>43</ele>
        <time>2013-04-21T10:30:35.000Z</time>
      </trkpt>
      <trkpt lat="47.52425" lon="-0.14072">
        <ele>43</ele>
        <time>2013-04-21T10:30:36.000Z</time>
      </trkpt>
      <trkpt lat="47.52425" lon="-0.14065">
        <ele>43</ele>
        <time>2013-04-21T10:30:40.000Z</time>
      </trkpt>
      <trkpt lat="47.52426" lon="-0.14064">
        <ele>43</ele>
        <time>2013-04-21T10:30:41.000Z</time>
      </trkpt>
      <trkpt lat="47.52428" lon="-0.14058">
        <ele>43</ele>
        <time>2013-04-21T10:30:45.000Z</time>
      </trkpt>
      <trkpt lat="47.52428" lon="-0.14057">
        <ele>43</ele>
        <time>2013-04-21T10:30:46.000Z</time>
      </trkpt>
      <trkpt lat="47.5243" lon="-0.14051">
        <ele>43</ele>
        <time>2013-04-21T10:30:49.000Z</time>
      </trkpt>
      <trkpt lat="47.5243" lon="-0.1405">
        <ele>43</ele>
        <time>2013-04-21T10:30:50.000Z</time>
      </trkpt>
      <trkpt lat="47.5243" lon="-0.14044">
        <ele>43</ele>
        <time>2013-04-21T10:30:53.000Z</time>
      </trkpt>
      <trkpt lat="47.52431" lon="-0.14042">
        <ele>43</ele>
        <time>2013-04-21T10:30:54.000Z</time>
      </trkpt>
      <trkpt lat="47.52432" lon="-0.14037">
        <ele>43</ele>
        <time>2013-04-21T10:30:58.000Z</time>
      </trkpt>
      <trkpt lat="47.52433" lon="-0.14036">
        <ele>43</ele>
        <time>2013-04-21T10:30:59.000Z</time>
      </trkpt>
      <trkpt lat="47.52434" lon="-0.14032">
        <ele>43</ele>
        <time>2013-04-21T10:31:01.000Z</time>
      </trkpt>
      <trkpt lat="47.52435" lon="-0.1403">
        <ele>43</ele>
        <time>2013-04-21T10:31:02.000Z</time>
      </trkpt>
      <trkpt lat="47.52435" lon="-0.14023">
        <ele>43</ele>
        <time>2013-04-21T10:31:05.000Z</time>
      </trkpt>
      <trkpt lat="47.52436" lon="-0.14021">
        <ele>43</ele>
        <time>2013-04-21T10:31:06.000Z</time>
      </trkpt>
      <trkpt lat="47.52437" lon="-0.14015">
        <ele>43</ele>
        <time>2013-04-21T10:31:09.000Z</time>
      </trkpt>
      <trkpt lat="47.52437" lon="-0.14012">
        <ele>43</ele>
        <time>2013-04-21T10:31:10.000Z</time>
      </trkpt>
      <trkpt lat="47.52439" lon="-0.14006">
        <ele>43</ele>
        <time>2013-04-21T10:31:13.000Z</time>
      </trkpt>
      <trkpt lat="47.52439" lon="-0.14005">
        <ele>43</ele>
        <time>2013-04-21T10:31:14.000Z</time>
      </trkpt>
      <trkpt lat="47.5244" lon="-0.13999">
        <ele>43</ele>
        <time>2013-04-21T10:31:18.000Z</time>
      </trkpt>
      <trkpt lat="47.5244" lon="-0.13996">
        <ele>43</ele>
        <time>2013-04-21T10:31:19.000Z</time>
      </trkpt>
      <trkpt lat="47.52441" lon="-0.13991">
        <ele>43</ele>
        <time>2013-04-21T10:31:22.000Z</time>
      </trkpt>
      <trkpt lat="47.5244" lon="-0.13989">
        <ele>43</ele>
        <time>2013-04-21T10:31:23.000Z</time>
      </trkpt>
      <trkpt lat="47.52441" lon="-0.13984">
        <ele>43</ele>
        <time>2013-04-21T10:31:26.000Z</time>
      </trkpt>
      <trkpt lat="47.52441" lon="-0.13982">
        <ele>43</ele>
        <time>2013-04-21T10:31:27.000Z</time>
      </trkpt>
      <trkpt lat="47.52442" lon="-0.13976">
        <ele>43</ele>
        <time>2013-04-21T10:31:31.000Z</time>
      </trkpt>
      <trkpt lat="47.52442" lon="-0.13974">
        <ele>43</ele>
        <time>2013-04-21T10:31:32.000Z</time>
      </trkpt>
      <trkpt lat="47.52445" lon="-0.13969">
        <ele>43</ele>
        <time>2013-04-21T10:31:35.000Z</time>
      </trkpt>
      <trkpt lat="47.52445" lon="-0.13966">
        <ele>43</ele>
        <time>2013-04-21T10:31:36.000Z</time>
      </trkpt>
      <trkpt lat="47.52445" lon="-0.13961">
        <ele>43</ele>
        <time>2013-04-21T10:31:39.001Z</time>
      </trkpt>
      <trkpt lat="47.52446" lon="-0.13959">
        <ele>43</ele>
        <time>2013-04-21T10:31:40.001Z</time>
      </trkpt>
      <trkpt lat="47.52447" lon="-0.13954">
        <ele>43</ele>
        <time>2013-04-21T10:31:43.001Z</time>
      </trkpt>
      <trkpt lat="47.52448" lon="-0.13952">
        <ele>43</ele>
        <time>2013-04-21T10:31:44.001Z</time>
      </trkpt>
      <trkpt lat="47.52449" lon="-0.13948">
        <ele>43</ele>
        <time>2013-04-21T10:31:47.001Z</time>
      </trkpt>
      <trkpt lat="47.52449" lon="-0.13946">
        <ele>43</ele>
        <time>2013-04-21T10:31:48.001Z</time>
      </trkpt>
      <trkpt lat="47.52449" lon="-0.1394">
        <ele>43</ele>
        <time>2013-04-21T10:31:52.001Z</time>
      </trkpt>
      <trkpt lat="47.5245" lon="-0.13938">
        <ele>43</ele>
        <time>2013-04-21T10:31:53.001Z</time>
      </trkpt>
      <trkpt lat="47.52452" lon="-0.13932">
        <ele>43</ele>
        <time>2013-04-21T10:31:56.001Z</time>
      </trkpt>
      <trkpt lat="47.52452" lon="-0.13931">
        <ele>43</ele>
        <time>2013-04-21T10:31:57.001Z</time>
      </trkpt>
      <trkpt lat="47.52453" lon="-0.13926">
        <ele>43</ele>
        <time>2013-04-21T10:31:59.001Z</time>
      </trkpt>
      <trkpt lat="47.52453" lon="-0.13924">
        <ele>43</ele>
        <time>2013-04-21T10:32:00.001Z</time>
      </trkpt>
      <trkpt lat="47.52455" lon="-0.13918">
        <ele>43</ele>
        <time>2013-04-21T10:32:03.001Z</time>
      </trkpt>
      <trkpt lat="47.52455" lon="-0.13917">
        <ele>43</ele>
        <time>2013-04-21T10:32:04.001Z</time>
      </trkpt>
      <trkpt lat="47.52457" lon="-0.13913">
        <ele>43</ele>
        <time>2013-04-21T10:32:06.001Z</time>
      </trkpt>
      <trkpt lat="47.52457" lon="-0.13911">
        <ele>43</ele>
        <time>2013-04-21T10:32:07.001Z</time>
      </trkpt>
      <trkpt lat="47.52459" lon="-0.13905">
        <ele>43</ele>
        <time>2013-04-21T10:32:10.001Z</time>
      </trkpt>
      <trkpt lat="47.52459" lon="-0.13904">
        <ele>43</ele>
        <time>2013-04-21T10:32:11.001Z</time>
      </trkpt>
      <trkpt lat="47.5246" lon="-0.13898">
        <ele>43</ele>
        <time>2013-04-21T10:32:15.001Z</time>
      </trkpt>
      <trkpt lat="47.52461" lon="-0.13896">
        <ele>43</ele>
        <time>2013-04-21T10:32:16.001Z</time>
      </trkpt>
      <trkpt lat="47.52461" lon="-0.13889">
        <ele>43</ele>
        <time>2013-04-21T10:32:27.001Z</time>
      </trkpt>
      <trkpt lat="47.52461" lon="-0.13889">
        <ele>43</ele>
        <time>2013-04-21T10:32:28.001Z</time>
      </trkpt>
      <trkpt lat="47.52462" lon="-0.13883">
        <ele>43</ele>
        <time>2013-04-21T10:32:43.001Z</time>
      </trkpt>
      <trkpt lat="47.52463" lon="-0.13883">
        <ele>43</ele>
        <time>2013-04-21T10:32:44.001Z</time>
      </trkpt>
      <trkpt lat="47.52463" lon="-0.13877">
        <ele>43</ele>
        <time>2013-04-21T10:32:52.001Z</time>
      </trkpt>
      <trkpt lat="47.52463" lon="-0.13876">
        <ele>43</ele>
        <time>2013-04-21T10:32:53.001Z</time>
      </trkpt>
      <trkpt lat="47.52464" lon="-0.13872">
        <ele>43</ele>
        <time>2013-04-21T10:32:55.001Z</time>
      </trkpt>
      <trkpt lat="47.52465" lon="-0.1387">
        <ele>43</ele>
        <time>2013-04-21T10:32:56.001Z</time>
      </trkpt>
      <trkpt lat="47.52467" lon="-0.13864">
        <ele>43</ele>
        <time>2013-04-21T10:32:59.001Z</time>
      </trkpt>
      <trkpt lat="47.52467" lon="-0.13863">
        <ele>43</ele>
        <time>2013-04-21T10:33:00.001Z</time>
      </trkpt>
      <trkpt lat="47.5247" lon="-0.13857">
        <ele>43</ele>
        <time>2013-04-21T10:33:04.001Z</time>
      </trkpt>
      <trkpt lat="47.5247" lon="-0.13856">
        <ele>43</ele>
        <time>2013-04-21T10:33:05.001Z</time>
      </trkpt>
      <trkpt lat="47.52472" lon="-0.13852">
        <ele>43</ele>
        <time>2013-04-21T10:33:08.001Z</time>
      </trkpt>
      <trkpt lat="47.52473" lon="-0.1385">
        <ele>43</ele>
        <time>2013-04-21T10:33:09.001Z</time>
      </trkpt>
      <trkpt lat="47.52475" lon="-0.13846">
        <ele>43</ele>
        <time>2013-04-21T10:33:12.001Z</time>
      </trkpt>
      <trkpt lat="47.52476" lon="-0.13845">
        <ele>43</ele>
        <time>2013-04-21T10:33:13.001Z</time>
      </trkpt>
      <trkpt lat="47.52478" lon="-0.1384">
        <ele>43</ele>
        <time>2013-04-21T10:33:17.001Z</time>
      </trkpt>
      <trkpt lat="47.52478" lon="-0.13839">
        <ele>43</ele>
        <time>2013-04-21T10:33:18.001Z</time>
      </trkpt>
      <trkpt lat="47.5248" lon="-0.13835">
        <ele>43</ele>
        <time>2013-04-21T10:33:21.001Z</time>
      </trkpt>
      <trkpt lat="47.52481" lon="-0.13833">
        <ele>43</ele>
        <time>2013-04-21T10:33:22.001Z</time>
      </trkpt>
      <trkpt lat="47.52483" lon="-0.13829">
        <ele>43</ele>
        <time>2013-04-21T10:33:24.001Z</time>
      </trkpt>
      <trkpt lat="47.52484" lon="-0.13828">
        <ele>43</ele>
        <time>2013-04-21T10:33:25.001Z</time>
      </trkpt>
      <trkpt lat="47.52487" lon="-0.13824">
        <ele>44</ele>
        <time>2013-04-21T10:33:28.001Z</time>
      </trkpt>
      <trkpt lat="47.52488" lon="-0.13822">
        <ele>44</ele>
        <time>2013-04-21T10:33:29.001Z</time>
      </trkpt>
      <trkpt lat="47.52491" lon="-0.13817">
        <ele>43</ele>
        <time>2013-04-21T10:33:33.001Z</time>
      </trkpt>
      <trkpt lat="47.52491" lon="-0.13816">
        <ele>43</ele>
        <time>2013-04-21T10:33:34.001Z</time>
      </trkpt>
      <trkpt lat="47.52493" lon="-0.13812">
        <ele>43</ele>
        <time>2013-04-21T10:33:37.001Z</time>
      </trkpt>
      <trkpt lat="47.52494" lon="-0.13811">
        <ele>43</ele>
        <time>2013-04-21T10:33:38.001Z</time>
      </trkpt>
      <trkpt lat="47.52496" lon="-0.13806">
        <ele>43</ele>
        <time>2013-04-21T10:33:42.001Z</time>
      </trkpt>
      <trkpt lat="47.52497" lon="-0.13804">
        <ele>43</ele>
        <time>2013-04-21T10:33:43.001Z</time>
      </trkpt>
      <trkpt lat="47.52498" lon="-0.13798">
        <ele>43</ele>
        <time>2013-04-21T10:33:48.001Z</time>
      </trkpt>
      <trkpt lat="47.52499" lon="-0.13797">
        <ele>43</ele>
        <time>2013-04-21T10:33:49.001Z</time>
      </trkpt>
      <trkpt lat="47.52501" lon="-0.13792">
        <ele>44</ele>
        <time>2013-04-21T10:33:53.001Z</time>
      </trkpt>
      <trkpt lat="47.52502" lon="-0.1379">
        <ele>44</ele>
        <time>2013-04-21T10:33:54.001Z</time>
      </trkpt>
      <trkpt lat="47.52504" lon="-0.13786">
        <ele>44</ele>
        <time>2013-04-21T10:33:57.001Z</time>
      </trkpt>
      <trkpt lat="47.52505" lon="-0.13785">
        <ele>44</ele>
        <time>2013-04-21T10:33:58.001Z</time>
      </trkpt>
      <trkpt lat="47.52508" lon="-0.13781">
        <ele>44</ele>
        <time>2013-04-21T10:34:01.001Z</time>
      </trkpt>
      <trkpt lat="47.52509" lon="-0.13779">
        <ele>44</ele>
        <time>2013-04-21T10:34:02.001Z</time>
      </trkpt>
      <trkpt lat="47.5251" lon="-0.13774">
        <ele>44</ele>
        <time>2013-04-21T10:34:05.001Z</time>
      </trkpt>
      <trkpt lat="47.52511" lon="-0.13772">
        <ele>44</ele>
        <time>2013-04-21T10:34:06.001Z</time>
      </trkpt>
      <trkpt lat="47.52512" lon="-0.13768">
        <ele>44</ele>
        <time>2013-04-21T10:34:09.001Z</time>
      </trkpt>
      <trkpt lat="47.52513" lon="-0.13766">
        <ele>44</ele>
        <time>2013-04-21T10:34:10.001Z</time>
      </trkpt>
      <trkpt lat="47.52515" lon="-0.1376">
        <ele>44</ele>
        <time>2013-04-21T10:34:14.001Z</time>
      </trkpt>
      <trkpt lat="47.52515" lon="-0.13758">
        <ele>44</ele>
        <time>2013-04-21T10:34:15.001Z</time>
      </trkpt>
      <trkpt lat="47.52517" lon="-0.13754">
        <ele>44</ele>
        <time>2013-04-21T10:34:18.001Z</time>
      </trkpt>
      <trkpt lat="47.52517" lon="-0.13752">
        <ele>44</ele>
        <time>2013-04-21T10:34:19.001Z</time>
      </trkpt>
      <trkpt lat="47.5252" lon="-0.13747">
        <ele>44</ele>
        <time>2013-04-21T10:34:22.001Z</time>
      </trkpt>
      <trkpt lat="47.52521" lon="-0.13745">
        <ele>44</ele>
        <time>2013-04-21T10:34:23.001Z</time>
      </trkpt>
      <trkpt lat="47.52523" lon="-0.13741">
        <ele>44</ele>
        <time>2013-04-21T10:34:27.001Z</time>
      </trkpt>
      <trkpt lat="47.52523" lon="-0.1374">
        <ele>44</ele>
        <time>2013-04-21T10:34:28.001Z</time>
      </trkpt>
      <trkpt lat="47.52525" lon="-0.13735">
        <ele>44</ele>
        <time>2013-04-21T10:34:31.001Z</time>
      </trkpt>
      <trkpt lat="47.52526" lon="-0.13734">
        <ele>44</ele>
        <time>2013-04-21T10:34:32.001Z</time>
      </trkpt>
      <trkpt lat="47.52527" lon="-0.13729">
        <ele>44</ele>
        <time>2013-04-21T10:34:37.001Z</time>
      </trkpt>
      <trkpt lat="47.52528" lon="-0.13728">
        <ele>44</ele>
        <time>2013-04-21T10:34:38.001Z</time>
      </trkpt>
      <trkpt lat="47.5253" lon="-0.13724">
        <ele>44</ele>
        <time>2013-04-21T10:34:40.001Z</time>
      </trkpt>
      <trkpt lat="47.52531" lon="-0.13723">
        <ele>44</ele>
        <time>2013-04-21T10:34:41.001Z</time>
      </trkpt>
      <trkpt lat="47.52535" lon="-0.13719">
        <ele>44</ele>
        <time>2013-04-21T10:34:44.001Z</time>
      </trkpt>
      <trkpt lat="47.52535" lon="-0.13718">
        <ele>44</ele>
        <time>2013-04-21T10:34:45.001Z</time>
      </trkpt>
      <trkpt lat="47.52537" lon="-0.13713">
        <ele>44</ele>
        <time>2013-04-21T10:34:48.001Z</time>
      </trkpt>
      <trkpt lat="47.52538" lon="-0.13711">
        <ele>44</ele>
        <time>2013-04-21T10:34:49.001Z</time>
      </trkpt>
      <trkpt lat="47.5254" lon="-0.13707">
        <ele>44</ele>
        <time>2013-04-21T10:34:52.001Z</time>
      </trkpt>
      <trkpt lat="47.52541" lon="-0.13706">
        <ele>44</ele>
        <time>2013-04-21T10:34:53.001Z</time>
      </trkpt>
      <trkpt lat="47.52543" lon="-0.13701">
        <ele>44</ele>
        <time>2013-04-21T10:34:56.001Z</time>
      </trkpt>
      <trkpt lat="47.52543" lon="-0.137">
        <ele>44</ele>
        <time>2013-04-21T10:34:57.001Z</time>
      </trkpt>
      <trkpt lat="47.52546" lon="-0.13695">
        <ele>44</ele>
        <time>2013-04-21T10:35:00.001Z</time>
      </trkpt>
      <trkpt lat="47.52546" lon="-0.13693">
        <ele>44</ele>
        <time>2013-04-21T10:35:01.001Z</time>
      </trkpt>
      <trkpt lat="47.52548" lon="-0.13688">
        <ele>44</ele>
        <time>2013-04-21T10:35:04.001Z</time>
      </trkpt>
      <trkpt lat="47.52549" lon="-0.13687">
        <ele>44</ele>
        <time>2013-04-21T10:35:05.001Z</time>
      </trkpt>
      <trkpt lat="47.52551" lon="-0.13683">
        <ele>44</ele>
        <time>2013-04-21T10:35:08.001Z</time>
      </trkpt>
      <trkpt lat="47.52552" lon="-0.13682">
        <ele>44</ele>
        <time>2013-04-21T10:35:09.001Z</time>
      </trkpt>
      <trkpt lat="47.52554" lon="-0.13676">
        <ele>44</ele>
        <time>2013-04-21T10:35:13.001Z</time>
      </trkpt>
      <trkpt lat="47.52554" lon="-0.13676">
        <ele>44</ele>
        <time>2013-04-21T10:35:14.001Z</time>
      </trkpt>
      <trkpt lat="47.52556" lon="-0.1367">
        <ele>44</ele>
        <time>2013-04-21T10:35:17.001Z</time>
      </trkpt>
      <trkpt lat="47.52557" lon="-0.13668">
        <ele>44</ele>
        <time>2013-04-21T10:35:18.001Z</time>
      </trkpt>
      <trkpt lat="47.5256" lon="-0.13664">
        <ele>44</ele>
        <time>2013-04-21T10:35:21.001Z</time>
      </trkpt>
      <trkpt lat="47.5256" lon="-0.13662">
        <ele>44</ele>
        <time>2013-04-21T10:35:22.001Z</time>
      </trkpt>
      <trkpt lat="47.52562" lon="-0.13657">
        <ele>44</ele>
        <time>2013-04-21T10:35:25.001Z</time>
      </trkpt>
      <trkpt lat="47.52563" lon="-0.13656">
        <ele>44</ele>
        <time>2013-04-21T10:35:26.001Z</time>
      </trkpt>
      <trkpt lat="47.52564" lon="-0.13651">
        <ele>44</ele>
        <time>2013-04-21T10:35:29.001Z</time>
      </trkpt>
      <trkpt lat="47.52565" lon="-0.13649">
        <ele>44</ele>
        <time>2013-04-21T10:35:30.001Z</time>
      </trkpt>
      <trkpt lat="47.52568" lon="-0.13644">
        <ele>44</ele>
        <time>2013-04-21T10:35:34.001Z</time>
      </trkpt>
      <trkpt lat="47.52569" lon="-0.13642">
        <ele>44</ele>
        <time>2013-04-21T10:35:35.001Z</time>
      </trkpt>
      <trkpt lat="47.5257" lon="-0.13638">
        <ele>44</ele>
        <time>2013-04-21T10:35:40.001Z</time>
      </trkpt>
      <trkpt lat="47.52571" lon="-0.13636">
        <ele>44</ele>
        <time>2013-04-21T10:35:41.001Z</time>
      </trkpt>
      <trkpt lat="47.52574" lon="-0.13633">
        <ele>44</ele>
        <time>2013-04-21T10:35:43.001Z</time>
      </trkpt>
      <trkpt lat="47.52575" lon="-0.13631">
        <ele>44</ele>
        <time>2013-04-21T10:35:44.001Z</time>
      </trkpt>
      <trkpt lat="47.52577" lon="-0.13627">
        <ele>44</ele>
        <time>2013-04-21T10:35:46.001Z</time>
      </trkpt>
      <trkpt lat="47.52578" lon="-0.13626">
        <ele>44</ele>
        <time>2013-04-21T10:35:47.001Z</time>
      </trkpt>
      <trkpt lat="47.5258" lon="-0.13622">
        <ele>44</ele>
        <time>2013-04-21T10:35:50.001Z</time>
      </trkpt>
      <trkpt lat="47.52581" lon="-0.1362">
        <ele>44</ele>
        <time>2013-04-21T10:35:51.001Z</time>
      </trkpt>
      <trkpt lat="47.52584" lon="-0.13616">
        <ele>44</ele>
        <time>2013-04-21T10:35:54.001Z</time>
      </trkpt>
      <trkpt lat="47.52585" lon="-0.13615">
        <ele>44</ele>
        <time>2013-04-21T10:35:55.001Z</time>
      </trkpt>
      <trkpt lat="47.52588" lon="-0.13611">
        <ele>44</ele>
        <time>2013-04-21T10:35:58.001Z</time>
      </trkpt>
      <trkpt lat="47.52589" lon="-0.1361">
        <ele>44</ele>
        <time>2013-04-21T10:35:59.001Z</time>
      </trkpt>
      <trkpt lat="47.52591" lon="-0.13605">
        <ele>44</ele>
        <time>2013-04-21T10:36:03.001Z</time>
      </trkpt>
      <trkpt lat="47.52592" lon="-0.13604">
        <ele>44</ele>
        <time>2013-04-21T10:36:04.001Z</time>
      </trkpt>
      <trkpt lat="47.52593" lon="-0.136">
        <ele>44</ele>
        <time>2013-04-21T10:36:07.001Z</time>
      </trkpt>
      <trkpt lat="47.52594" lon="-0.13598">
        <ele>44</ele>
        <time>2013-04-21T10:36:08.001Z</time>
      </trkpt>
      <trkpt lat="47.52597" lon="-0.13595">
        <ele>44</ele>
        <time>2013-04-21T10:36:10.001Z</time>
      </trkpt>
      <trkpt lat="47.52598" lon="-0.13594">
        <ele>44</ele>
        <time>2013-04-21T10:36:11.001Z</time>
      </trkpt>
      <trkpt lat="47.526" lon="-0.13589">
        <ele>44</ele>
        <time>2013-04-21T10:36:14.001Z</time>
      </trkpt>
      <trkpt lat="47.52601" lon="-0.13588">
        <ele>44</ele>
        <time>2013-04-21T10:36:15.001Z</time>
      </trkpt>
      <trkpt lat="47.52603" lon="-0.13585">
        <ele>44</ele>
        <time>2013-04-21T10:36:17.001Z</time>
      </trkpt>
      <trkpt lat="47.52605" lon="-0.13583">
        <ele>45</ele>
        <time>2013-04-21T10:36:18.001Z</time>
      </trkpt>
      <trkpt lat="47.52607" lon="-0.13579">
        <ele>45</ele>
        <time>2013-04-21T10:36:20.001Z</time>
      </trkpt>
      <trkpt lat="47.52608" lon="-0.13578">
        <ele>45</ele>
        <time>2013-04-21T10:36:21.001Z</time>
      </trkpt>
      <trkpt lat="47.5261" lon="-0.13574">
        <ele>45</ele>
        <time>2013-04-21T10:36:24.001Z</time>
      </trkpt>
      <trkpt lat="47.52611" lon="-0.13573">
        <ele>45</ele>
        <time>2013-04-21T10:36:25.001Z</time>
      </trkpt>
      <trkpt lat="47.52613" lon="-0.13569">
        <ele>45</ele>
        <time>2013-04-21T10:36:29.001Z</time>
      </trkpt>
      <trkpt lat="47.52614" lon="-0.13567">
        <ele>45</ele>
        <time>2013-04-21T10:36:30.001Z</time>
      </trkpt>
      <trkpt lat="47.52617" lon="-0.13563">
        <ele>45</ele>
        <time>2013-04-21T10:36:33.001Z</time>
      </trkpt>
      <trkpt lat="47.52617" lon="-0.13562">
        <ele>45</ele>
        <time>2013-04-21T10:36:34.001Z</time>
      </trkpt>
      <trkpt lat="47.5262" lon="-0.1356">
        <ele>45</ele>
        <time>2013-04-21T10:36:36.001Z</time>
      </trkpt>
      <trkpt lat="47.52621" lon="-0.13559">
        <ele>45</ele>
        <time>2013-04-21T10:36:37.001Z</time>
      </trkpt>
      <trkpt lat="47.52623" lon="-0.13554">
        <ele>45</ele>
        <time>2013-04-21T10:36:41.001Z</time>
      </trkpt>
      <trkpt lat="47.52624" lon="-0.13552">
        <ele>45</ele>
        <time>2013-04-21T10:36:42.001Z</time>
      </trkpt>
      <trkpt lat="47.52626" lon="-0.13547">
        <ele>45</ele>
        <time>2013-04-21T10:36:45.001Z</time>
      </trkpt>
      <trkpt lat="47.52627" lon="-0.13546">
        <ele>45</ele>
        <time>2013-04-21T10:36:46.001Z</time>
      </trkpt>
      <trkpt lat="47.52631" lon="-0.13542">
        <ele>45</ele>
        <time>2013-04-21T10:36:50.001Z</time>
      </trkpt>
      <trkpt lat="47.52631" lon="-0.1354">
        <ele>45</ele>
        <time>2013-04-21T10:36:51.001Z</time>
      </trkpt>
      <trkpt lat="47.52634" lon="-0.13535">
        <ele>45</ele>
        <time>2013-04-21T10:36:55.001Z</time>
      </trkpt>
      <trkpt lat="47.52635" lon="-0.13533">
        <ele>45</ele>
        <time>2013-04-21T10:36:56.001Z</time>
      </trkpt>
      <trkpt lat="47.52637" lon="-0.13529">
        <ele>45</ele>
        <time>2013-04-21T10:36:59.001Z</time>
      </trkpt>
      <trkpt lat="47.52638" lon="-0.13528">
        <ele>45</ele>
        <time>2013-04-21T10:37:00.001Z</time>
      </trkpt>
      <trkpt lat="47.52641" lon="-0.13523">
        <ele>45</ele>
        <time>2013-04-21T10:37:02.001Z</time>
      </trkpt>
      <trkpt lat="47.52641" lon="-0.13522">
        <ele>45</ele>
        <time>2013-04-21T10:37:03.001Z</time>
      </trkpt>
      <trkpt lat="47.52643" lon="-0.13516">
        <ele>46</ele>
        <time>2013-04-21T10:37:06.001Z</time>
      </trkpt>
      <trkpt lat="47.52644" lon="-0.13514">
        <ele>46</ele>
        <time>2013-04-21T10:37:07.001Z</time>
      </trkpt>
      <trkpt lat="47.52645" lon="-0.13509">
        <ele>46</ele>
        <time>2013-04-21T10:37:12.001Z</time>
      </trkpt>
      <trkpt lat="47.52646" lon="-0.13508">
        <ele>46</ele>
        <time>2013-04-21T10:37:13.001Z</time>
      </trkpt>
      <trkpt lat="47.52648" lon="-0.13503">
        <ele>46</ele>
        <time>2013-04-21T10:37:17.001Z</time>
      </trkpt>
      <trkpt lat="47.52648" lon="-0.13501">
        <ele>46</ele>
        <time>2013-04-21T10:37:18.001Z</time>
      </trkpt>
      <trkpt lat="47.5265" lon="-0.13497">
        <ele>46</ele>
        <time>2013-04-21T10:37:21.001Z</time>
      </trkpt>
      <trkpt lat="47.52651" lon="-0.13495">
        <ele>46</ele>
        <time>2013-04-21T10:37:22.001Z</time>
      </trkpt>
      <trkpt lat="47.52654" lon="-0.1349">
        <ele>46</ele>
        <time>2013-04-21T10:37:25.001Z</time>
      </trkpt>
      <trkpt lat="47.52654" lon="-0.13488">
        <ele>46</ele>
        <time>2013-04-21T10:37:26.001Z</time>
      </trkpt>
      <trkpt lat="47.52656" lon="-0.13482">
        <ele>46</ele>
        <time>2013-04-21T10:37:30.001Z</time>
      </trkpt>
      <trkpt lat="47.52657" lon="-0.13481">
        <ele>46</ele>
        <time>2013-04-21T10:37:31.001Z</time>
      </trkpt>
      <trkpt lat="47.52659" lon="-0.13475">
        <ele>46</ele>
        <time>2013-04-21T10:37:35.001Z</time>
      </trkpt>
      <trkpt lat="47.52659" lon="-0.13474">
        <ele>46</ele>
        <time>2013-04-21T10:37:36.001Z</time>
      </trkpt>
      <trkpt lat="47.52661" lon="-0.13469">
        <ele>46</ele>
        <time>2013-04-21T10:37:39.001Z</time>
      </trkpt>
      <trkpt lat="47.52662" lon="-0.13467">
        <ele>46</ele>
        <time>2013-04-21T10:37:40.001Z</time>
      </trkpt>
      <trkpt lat="47.52663" lon="-0.13463">
        <ele>46</ele>
        <time>2013-04-21T10:37:42.001Z</time>
      </trkpt>
      <trkpt lat="47.52664" lon="-0.1346">
        <ele>46</ele>
        <time>2013-04-21T10:37:43.001Z</time>
      </trkpt>
      <trkpt lat="47.52665" lon="-0.13456">
        <ele>47</ele>
        <time>2013-04-21T10:37:44.001Z</time>
      </trkpt>
      <trkpt lat="47.52666" lon="-0.13453">
        <ele>47</ele>
        <time>2013-04-21T10:37:45.001Z</time>
      </trkpt>
      <trkpt lat="47.52668" lon="-0.13448">
        <ele>47</ele>
        <time>2013-04-21T10:37:48.001Z</time>
      </trkpt>
      <trkpt lat="47.52669" lon="-0.13446">
        <ele>47</ele>
        <time>2013-04-21T10:37:49.001Z</time>
      </trkpt>
      <trkpt lat="47.52671" lon="-0.13441">
        <ele>47</ele>
        <time>2013-04-21T10:37:52.001Z</time>
      </trkpt>
      <trkpt lat="47.52672" lon="-0.1344">
        <ele>47</ele>
        <time>2013-04-21T10:37:53.001Z</time>
      </trkpt>
      <trkpt lat="47.52673" lon="-0.13434">
        <ele>47</ele>
        <time>2013-04-21T10:37:57.001Z</time>
      </trkpt>
      <trkpt lat="47.52674" lon="-0.13433">
        <ele>47</ele>
        <time>2013-04-21T10:37:58.001Z</time>
      </trkpt>
      <trkpt lat="47.52675" lon="-0.13428">
        <ele>47</ele>
        <time>2013-04-21T10:38:01.001Z</time>
      </trkpt>
      <trkpt lat="47.52676" lon="-0.13427">
        <ele>47</ele>
        <time>2013-04-21T10:38:02.001Z</time>
      </trkpt>
      <trkpt lat="47.52678" lon="-0.13422">
        <ele>47</ele>
        <time>2013-04-21T10:38:05.001Z</time>
      </trkpt>
      <trkpt lat="47.5268" lon="-0.13419">
        <ele>47</ele>
        <time>2013-04-21T10:38:06.001Z</time>
      </trkpt>
      <trkpt lat="47.52681" lon="-0.13413">
        <ele>47</ele>
        <time>2013-04-21T10:38:09.001Z</time>
      </trkpt>
      <trkpt lat="47.52682" lon="-0.13412">
        <ele>47</ele>
        <time>2013-04-21T10:38:10.001Z</time>
      </trkpt>
      <trkpt lat="47.52683" lon="-0.13406">
        <ele>47</ele>
        <time>2013-04-21T10:38:13.001Z</time>
      </trkpt>
      <trkpt lat="47.52683" lon="-0.13405">
        <ele>47</ele>
        <time>2013-04-21T10:38:14.001Z</time>
      </trkpt>
      <trkpt lat="47.52684" lon="-0.134">
        <ele>48</ele>
        <time>2013-04-21T10:38:18.001Z</time>
      </trkpt>
      <trkpt lat="47.52685" lon="-0.13398">
        <ele>48</ele>
        <time>2013-04-21T10:38:19.001Z</time>
      </trkpt>
      <trkpt lat="47.52686" lon="-0.13394">
        <ele>48</ele>
        <time>2013-04-21T10:38:21.001Z</time>
      </trkpt>
      <trkpt lat="47.52687" lon="-0.13392">
        <ele>48</ele>
        <time>2013-04-21T10:38:22.001Z</time>
      </trkpt>
      <trkpt lat="47.5269" lon="-0.13387">
        <ele>48</ele>
        <time>2013-04-21T10:38:26.001Z</time>
      </trkpt>
      <trkpt lat="47.5269" lon="-0.13386">
        <ele>48</ele>
        <time>2013-04-21T10:38:27.001Z</time>
      </trkpt>
      <trkpt lat="47.52694" lon="-0.13383">
        <ele>48</ele>
        <time>2013-04-21T10:38:31.001Z</time>
      </trkpt>
      <trkpt lat="47.52695" lon="-0.13383">
        <ele>48</ele>
        <time>2013-04-21T10:38:32.001Z</time>
      </trkpt>
      <trkpt lat="47.52698" lon="-0.13381">
        <ele>48</ele>
        <time>2013-04-21T10:38:36.001Z</time>
      </trkpt>
      <trkpt lat="47.52699" lon="-0.13379">
        <ele>48</ele>
        <time>2013-04-21T10:38:37.001Z</time>
      </trkpt>
      <trkpt lat="47.52701" lon="-0.13374">
        <ele>48</ele>
        <time>2013-04-21T10:38:40.001Z</time>
      </trkpt>
      <trkpt lat="47.52702" lon="-0.13372">
        <ele>48</ele>
        <time>2013-04-21T10:38:41.001Z</time>
      </trkpt>
      <trkpt lat="47.52704" lon="-0.13368">
        <ele>48</ele>
        <time>2013-04-21T10:38:44.001Z</time>
      </trkpt>
      <trkpt lat="47.52705" lon="-0.13367">
        <ele>48</ele>
        <time>2013-04-21T10:38:45.001Z</time>
      </trkpt>
      <trkpt lat="47.52707" lon="-0.13363">
        <ele>48</ele>
        <time>2013-04-21T10:38:47.001Z</time>
      </trkpt>
      <trkpt lat="47.52708" lon="-0.1336">
        <ele>48</ele>
        <time>2013-04-21T10:38:48.001Z</time>
      </trkpt>
      <trkpt lat="47.52711" lon="-0.13357">
        <ele>48</ele>
        <time>2013-04-21T10:38:52.001Z</time>
      </trkpt>
      <trkpt lat="47.52712" lon="-0.13355">
        <ele>48</ele>
        <time>2013-04-21T10:38:53.001Z</time>
      </trkpt>
      <trkpt lat="47.52714" lon="-0.13349">
        <ele>48</ele>
        <time>2013-04-21T10:38:58.001Z</time>
      </trkpt>
      <trkpt lat="47.52714" lon="-0.13348">
        <ele>48</ele>
        <time>2013-04-21T10:38:59.001Z</time>
      </trkpt>
      <trkpt lat="47.52717" lon="-0.13344">
        <ele>48</ele>
        <time>2013-04-21T10:39:02.001Z</time>
      </trkpt>
      <trkpt lat="47.52718" lon="-0.13342">
        <ele>48</ele>
        <time>2013-04-21T10:39:03.001Z</time>
      </trkpt>
      <trkpt lat="47.52719" lon="-0.13336">
        <ele>48</ele>
        <time>2013-04-21T10:39:07.001Z</time>
      </trkpt>
      <trkpt lat="47.52719" lon="-0.13332">
        <ele>49</ele>
        <time>2013-04-21T10:39:08.001Z</time>
      </trkpt>
      <trkpt lat="47.52718" lon="-0.13327">
        <ele>49</ele>
        <time>2013-04-21T10:39:10.001Z</time>
      </trkpt>
      <trkpt lat="47.52718" lon="-0.13326">
        <ele>49</ele>
        <time>2013-04-21T10:39:11.001Z</time>
      </trkpt>
      <trkpt lat="47.52719" lon="-0.1332">
        <ele>49</ele>
        <time>2013-04-21T10:39:15.001Z</time>
      </trkpt>
      <trkpt lat="47.52719" lon="-0.13319">
        <ele>49</ele>
        <time>2013-04-21T10:39:16.001Z</time>
      </trkpt>
      <trkpt lat="47.52722" lon="-0.13315">
        <ele>49</ele>
        <time>2013-04-21T10:39:19.001Z</time>
      </trkpt>
      <trkpt lat="47.52723" lon="-0.13312">
        <ele>49</ele>
        <time>2013-04-21T10:39:20.001Z</time>
      </trkpt>
      <trkpt lat="47.52726" lon="-0.13308">
        <ele>49</ele>
        <time>2013-04-21T10:39:23.001Z</time>
      </trkpt>
      <trkpt lat="47.52726" lon="-0.13307">
        <ele>49</ele>
        <time>2013-04-21T10:39:24.001Z</time>
      </trkpt>
      <trkpt lat="47.52728" lon="-0.133">
        <ele>49</ele>
        <time>2013-04-21T10:39:28.001Z</time>
      </trkpt>
      <trkpt lat="47.52729" lon="-0.13298">
        <ele>49</ele>
        <time>2013-04-21T10:39:29.001Z</time>
      </trkpt>
      <trkpt lat="47.52731" lon="-0.13294">
        <ele>49</ele>
        <time>2013-04-21T10:39:32.001Z</time>
      </trkpt>
      <trkpt lat="47.52732" lon="-0.13292">
        <ele>49</ele>
        <time>2013-04-21T10:39:33.001Z</time>
      </trkpt>
      <trkpt lat="47.52734" lon="-0.13287">
        <ele>49</ele>
        <time>2013-04-21T10:39:37.001Z</time>
      </trkpt>
      <trkpt lat="47.52734" lon="-0.13286">
        <ele>50</ele>
        <time>2013-04-21T10:39:38.001Z</time>
      </trkpt>
      <trkpt lat="47.52736" lon="-0.13282">
        <ele>50</ele>
        <time>2013-04-21T10:39:41.001Z</time>
      </trkpt>
      <trkpt lat="47.52737" lon="-0.1328">
        <ele>50</ele>
        <time>2013-04-21T10:39:42.001Z</time>
      </trkpt>
      <trkpt lat="47.52738" lon="-0.13276">
        <ele>49</ele>
        <time>2013-04-21T10:39:45.001Z</time>
      </trkpt>
      <trkpt lat="47.52739" lon="-0.13274">
        <ele>49</ele>
        <time>2013-04-21T10:39:46.001Z</time>
      </trkpt>
      <trkpt lat="47.52741" lon="-0.13269">
        <ele>49</ele>
        <time>2013-04-21T10:39:49.001Z</time>
      </trkpt>
      <trkpt lat="47.52742" lon="-0.13267">
        <ele>49</ele>
        <time>2013-04-21T10:39:50.001Z</time>
      </trkpt>
      <trkpt lat="47.52745" lon="-0.13262">
        <ele>49</ele>
        <time>2013-04-21T10:39:54.001Z</time>
      </trkpt>
      <trkpt lat="47.52745" lon="-0.13261">
        <ele>49</ele>
        <time>2013-04-21T10:39:55.001Z</time>
      </trkpt>
      <trkpt lat="47.52747" lon="-0.13256">
        <ele>49</ele>
        <time>2013-04-21T10:39:58.001Z</time>
      </trkpt>
      <trkpt lat="47.52747" lon="-0.13254">
        <ele>49</ele>
        <time>2013-04-21T10:39:59.001Z</time>
      </trkpt>
      <trkpt lat="47.5275" lon="-0.1325">
        <ele>49</ele>
        <time>2013-04-21T10:40:06.001Z</time>
      </trkpt>
      <trkpt lat="47.52752" lon="-0.13248">
        <ele>49</ele>
        <time>2013-04-21T10:40:07.001Z</time>
      </trkpt>
      <trkpt lat="47.52755" lon="-0.13244">
        <ele>49</ele>
        <time>2013-04-21T10:40:10.001Z</time>
      </trkpt>
      <trkpt lat="47.52756" lon="-0.13242">
        <ele>49</ele>
        <time>2013-04-21T10:40:11.001Z</time>
      </trkpt>
      <trkpt lat="47.52757" lon="-0.13237">
        <ele>48</ele>
        <time>2013-04-21T10:40:14.001Z</time>
      </trkpt>
      <trkpt lat="47.52758" lon="-0.13236">
        <ele>48</ele>
        <time>2013-04-21T10:40:15.001Z</time>
      </trkpt>
      <trkpt lat="47.5276" lon="-0.13231">
        <ele>48</ele>
        <time>2013-04-21T10:40:18.001Z</time>
      </trkpt>
      <trkpt lat="47.5276" lon="-0.13229">
        <ele>48</ele>
        <time>2013-04-21T10:40:19.001Z</time>
      </trkpt>
      <trkpt lat="47.52761" lon="-0.13223">
        <ele>48</ele>
        <time>2013-04-21T10:40:23.001Z</time>
      </trkpt>
      <trkpt lat="47.52762" lon="-0.13222">
        <ele>48</ele>
        <time>2013-04-21T10:40:24.001Z</time>
      </trkpt>
      <trkpt lat="47.52764" lon="-0.13218">
        <ele>48</ele>
        <time>2013-04-21T10:40:27.001Z</time>
      </trkpt>
      <trkpt lat="47.52765" lon="-0.13216">
        <ele>48</ele>
        <time>2013-04-21T10:40:28.001Z</time>
      </trkpt>
      <trkpt lat="47.52767" lon="-0.13211">
        <ele>48</ele>
        <time>2013-04-21T10:40:32.001Z</time>
      </trkpt>
      <trkpt lat="47.52767" lon="-0.1321">
        <ele>48</ele>
        <time>2013-04-21T10:40:33.001Z</time>
      </trkpt>
      <trkpt lat="47.52769" lon="-0.13206">
        <ele>48</ele>
        <time>2013-04-21T10:40:36.001Z</time>
      </trkpt>
      <trkpt lat="47.52769" lon="-0.13204">
        <ele>48</ele>
        <time>2013-04-21T10:40:37.001Z</time>
      </trkpt>
      <trkpt lat="47.52772" lon="-0.13199">
        <ele>47</ele>
        <time>2013-04-21T10:40:41.001Z</time>
      </trkpt>
      <trkpt lat="47.52773" lon="-0.13199">
        <ele>47</ele>
        <time>2013-04-21T10:40:42.001Z</time>
      </trkpt>
      <trkpt lat="47.52776" lon="-0.13195">
        <ele>47</ele>
        <time>2013-04-21T10:40:46.001Z</time>
      </trkpt>
      <trkpt lat="47.52777" lon="-0.13194">
        <ele>47</ele>
        <time>2013-04-21T10:40:47.001Z</time>
      </trkpt>
      <trkpt lat="47.52778" lon="-0.13188">
        <ele>47</ele>
        <time>2013-04-21T10:40:51.001Z</time>
      </trkpt>
      <trkpt lat="47.52779" lon="-0.13187">
        <ele>47</ele>
        <time>2013-04-21T10:40:52.001Z</time>
      </trkpt>
      <trkpt lat="47.5278" lon="-0.13184">
        <ele>47</ele>
        <time>2013-04-21T10:40:54.001Z</time>
      </trkpt>
      <trkpt lat="47.52781" lon="-0.13182">
        <ele>47</ele>
        <time>2013-04-21T10:40:55.001Z</time>
      </trkpt>
      <trkpt lat="47.52783" lon="-0.13177">
        <ele>47</ele>
        <time>2013-04-21T10:40:58.001Z</time>
      </trkpt>
      <trkpt lat="47.52783" lon="-0.13175">
        <ele>47</ele>
        <time>2013-04-21T10:40:59.001Z</time>
      </trkpt>
      <trkpt lat="47.52785" lon="-0.13169">
        <ele>47</ele>
        <time>2013-04-21T10:41:05.001Z</time>
      </trkpt>
      <trkpt lat="47.52785" lon="-0.13167">
        <ele>47</ele>
        <time>2013-04-21T10:41:06.001Z</time>
      </trkpt>
      <trkpt lat="47.52787" lon="-0.13163">
        <ele>46</ele>
        <time>2013-04-21T10:41:12.001Z</time>
      </trkpt>
      <trkpt lat="47.52788" lon="-0.13161">
        <ele>46</ele>
        <time>2013-04-21T10:41:13.001Z</time>
      </trkpt>
      <trkpt lat="47.52789" lon="-0.13158">
        <ele>46</ele>
        <time>2013-04-21T10:41:16.001Z</time>
      </trkpt>
      <trkpt lat="47.5279" lon="-0.13155">
        <ele>46</ele>
        <time>2013-04-21T10:41:17.001Z</time>
      </trkpt>
      <trkpt lat="47.52793" lon="-0.13151">
        <ele>46</ele>
        <time>2013-04-21T10:41:22.001Z</time>
      </trkpt>
      <trkpt lat="47.52794" lon="-0.1315">
        <ele>46</ele>
        <time>2013-04-21T10:41:23.001Z</time>
      </trkpt>
      <trkpt lat="47.52797" lon="-0.13147">
        <ele>46</ele>
        <time>2013-04-21T10:41:26.001Z</time>
      </trkpt>
      <trkpt lat="47.52799" lon="-0.13146">
        <ele>46</ele>
        <time>2013-04-21T10:41:27.001Z</time>
      </trkpt>
      <trkpt lat="47.52802" lon="-0.13141">
        <ele>46</ele>
        <time>2013-04-21T10:41:30.001Z</time>
      </trkpt>
      <trkpt lat="47.52802" lon="-0.1314">
        <ele>46</ele>
        <time>2013-04-21T10:41:31.001Z</time>
      </trkpt>
      <trkpt lat="47.52805" lon="-0.13135">
        <ele>46</ele>
        <time>2013-04-21T10:41:36.001Z</time>
      </trkpt>
      <trkpt lat="47.52806" lon="-0.13135">
        <ele>46</ele>
        <time>2013-04-21T10:41:37.001Z</time>
      </trkpt>
      <trkpt lat="47.52809" lon="-0.13132">
        <ele>46</ele>
        <time>2013-04-21T10:41:39.001Z</time>
      </trkpt>
      <trkpt lat="47.52809" lon="-0.1313">
        <ele>46</ele>
        <time>2013-04-21T10:41:40.001Z</time>
      </trkpt>
      <trkpt lat="47.52813" lon="-0.13126">
        <ele>46</ele>
        <time>2013-04-21T10:41:44.001Z</time>
      </trkpt>
      <trkpt lat="47.52814" lon="-0.13124">
        <ele>45</ele>
        <time>2013-04-21T10:41:45.001Z</time>
      </trkpt>
      <trkpt lat="47.52817" lon="-0.13121">
        <ele>45</ele>
        <time>2013-04-21T10:41:49.001Z</time>
      </trkpt>
      <trkpt lat="47.52818" lon="-0.13119">
        <ele>45</ele>
        <time>2013-04-21T10:41:50.001Z</time>
      </trkpt>
      <trkpt lat="47.52821" lon="-0.13115">
        <ele>45</ele>
        <time>2013-04-21T10:41:55.001Z</time>
      </trkpt>
      <trkpt lat="47.52822" lon="-0.13114">
        <ele>45</ele>
        <time>2013-04-21T10:41:56.001Z</time>
      </trkpt>
      <trkpt lat="47.52825" lon="-0.1311">
        <ele>45</ele>
        <time>2013-04-21T10:41:59.001Z</time>
      </trkpt>
      <trkpt lat="47.52826" lon="-0.13109">
        <ele>45</ele>
        <time>2013-04-21T10:42:00.001Z</time>
      </trkpt>
      <trkpt lat="47.52828" lon="-0.13104">
        <ele>45</ele>
        <time>2013-04-21T10:42:03.001Z</time>
      </trkpt>
      <trkpt lat="47.52828" lon="-0.13103">
        <ele>45</ele>
        <time>2013-04-21T10:42:04.001Z</time>
      </trkpt>
      <trkpt lat="47.5283" lon="-0.13098">
        <ele>45</ele>
        <time>2013-04-21T10:42:06.001Z</time>
      </trkpt>
      <trkpt lat="47.5283" lon="-0.13097">
        <ele>45</ele>
        <time>2013-04-21T10:42:07.001Z</time>
      </trkpt>
      <trkpt lat="47.52832" lon="-0.13092">
        <ele>45</ele>
        <time>2013-04-21T10:42:10.001Z</time>
      </trkpt>
      <trkpt lat="47.52833" lon="-0.1309">
        <ele>45</ele>
        <time>2013-04-21T10:42:11.001Z</time>
      </trkpt>
      <trkpt lat="47.52834" lon="-0.13085">
        <ele>45</ele>
        <time>2013-04-21T10:42:14.001Z</time>
      </trkpt>
      <trkpt lat="47.52835" lon="-0.13083">
        <ele>45</ele>
        <time>2013-04-21T10:42:15.001Z</time>
      </trkpt>
      <trkpt lat="47.52837" lon="-0.13078">
        <ele>45</ele>
        <time>2013-04-21T10:42:19.001Z</time>
      </trkpt>
      <trkpt lat="47.52838" lon="-0.13077">
        <ele>45</ele>
        <time>2013-04-21T10:42:20.001Z</time>
      </trkpt>
      <trkpt lat="47.52839" lon="-0.13072">
        <ele>46</ele>
        <time>2013-04-21T10:42:22.001Z</time>
      </trkpt>
      <trkpt lat="47.52839" lon="-0.13069">
        <ele>46</ele>
        <time>2013-04-21T10:42:23.001Z</time>
      </trkpt>
      <trkpt lat="47.5284" lon="-0.13064">
        <ele>46</ele>
        <time>2013-04-21T10:42:26.001Z</time>
      </trkpt>
      <trkpt lat="47.52841" lon="-0.13062">
        <ele>46</ele>
        <time>2013-04-21T10:42:27.001Z</time>
      </trkpt>
      <trkpt lat="47.52842" lon="-0.13058">
        <ele>46</ele>
        <time>2013-04-21T10:42:30.001Z</time>
      </trkpt>
      <trkpt lat="47.52843" lon="-0.13056">
        <ele>46</ele>
        <time>2013-04-21T10:42:31.001Z</time>
      </trkpt>
      <trkpt lat="47.52845" lon="-0.13051">
        <ele>46</ele>
        <time>2013-04-21T10:42:35.001Z</time>
      </trkpt>
      <trkpt lat="47.52845" lon="-0.13049">
        <ele>46</ele>
        <time>2013-04-21T10:42:36.001Z</time>
      </trkpt>
      <trkpt lat="47.52846" lon="-0.13044">
        <ele>46</ele>
        <time>2013-04-21T10:42:39.001Z</time>
      </trkpt>
      <trkpt lat="47.52846" lon="-0.13042">
        <ele>46</ele>
        <time>2013-04-21T10:42:40.001Z</time>
      </trkpt>
      <trkpt lat="47.52847" lon="-0.13036">
        <ele>46</ele>
        <time>2013-04-21T10:42:43.001Z</time>
      </trkpt>
      <trkpt lat="47.52847" lon="-0.13034">
        <ele>46</ele>
        <time>2013-04-21T10:42:44.001Z</time>
      </trkpt>
      <trkpt lat="47.52848" lon="-0.1303">
        <ele>46</ele>
        <time>2013-04-21T10:42:47.001Z</time>
      </trkpt>
      <trkpt lat="47.52848" lon="-0.13026">
        <ele>46</ele>
        <time>2013-04-21T10:42:48.001Z</time>
      </trkpt>
      <trkpt lat="47.5285" lon="-0.13021">
        <ele>46</ele>
        <time>2013-04-21T10:42:51.001Z</time>
      </trkpt>
      <trkpt lat="47.5285" lon="-0.13019">
        <ele>46</ele>
        <time>2013-04-21T10:42:52.001Z</time>
      </trkpt>
      <trkpt lat="47.52852" lon="-0.13014">
        <ele>46</ele>
        <time>2013-04-21T10:42:55.001Z</time>
      </trkpt>
      <trkpt lat="47.52852" lon="-0.13013">
        <ele>46</ele>
        <time>2013-04-21T10:42:56.001Z</time>
      </trkpt>
      <trkpt lat="47.52854" lon="-0.13007">
        <ele>46</ele>
        <time>2013-04-21T10:43:00.001Z</time>
      </trkpt>
      <trkpt lat="47.52854" lon="-0.13005">
        <ele>46</ele>
        <time>2013-04-21T10:43:01.001Z</time>
      </trkpt>
      <trkpt lat="47.52856" lon="-0.12999">
        <ele>46</ele>
        <time>2013-04-21T10:43:05.001Z</time>
      </trkpt>
      <trkpt lat="47.52856" lon="-0.12998">
        <ele>46</ele>
        <time>2013-04-21T10:43:06.001Z</time>
      </trkpt>
      <trkpt lat="47.52858" lon="-0.12992">
        <ele>46</ele>
        <time>2013-04-21T10:43:08.001Z</time>
      </trkpt>
      <trkpt lat="47.52858" lon="-0.12991">
        <ele>46</ele>
        <time>2013-04-21T10:43:09.001Z</time>
      </trkpt>
      <trkpt lat="47.52859" lon="-0.12985">
        <ele>46</ele>
        <time>2013-04-21T10:43:13.001Z</time>
      </trkpt>
      <trkpt lat="47.52859" lon="-0.12984">
        <ele>46</ele>
        <time>2013-04-21T10:43:14.001Z</time>
      </trkpt>
      <trkpt lat="47.52861" lon="-0.12979">
        <ele>46</ele>
        <time>2013-04-21T10:43:17.001Z</time>
      </trkpt>
      <trkpt lat="47.52861" lon="-0.12978">
        <ele>46</ele>
        <time>2013-04-21T10:43:18.001Z</time>
      </trkpt>
      <trkpt lat="47.52863" lon="-0.12973">
        <ele>46</ele>
        <time>2013-04-21T10:43:21.001Z</time>
      </trkpt>
      <trkpt lat="47.52863" lon="-0.12971">
        <ele>46</ele>
        <time>2013-04-21T10:43:22.001Z</time>
      </trkpt>
      <trkpt lat="47.52865" lon="-0.12966">
        <ele>46</ele>
        <time>2013-04-21T10:43:24.001Z</time>
      </trkpt>
      <trkpt lat="47.52865" lon="-0.12964">
        <ele>46</ele>
        <time>2013-04-21T10:43:25.001Z</time>
      </trkpt>
      <trkpt lat="47.52866" lon="-0.1296">
        <ele>46</ele>
        <time>2013-04-21T10:43:28.001Z</time>
      </trkpt>
      <trkpt lat="47.52867" lon="-0.12959">
        <ele>46</ele>
        <time>2013-04-21T10:43:29.001Z</time>
      </trkpt>
      <trkpt lat="47.5287" lon="-0.12953">
        <ele>46</ele>
        <time>2013-04-21T10:43:34.001Z</time>
      </trkpt>
      <trkpt lat="47.52871" lon="-0.12951">
        <ele>46</ele>
        <time>2013-04-21T10:43:35.001Z</time>
      </trkpt>
      <trkpt lat="47.52873" lon="-0.12947">
        <ele>46</ele>
        <time>2013-04-21T10:43:38.001Z</time>
      </trkpt>
      <trkpt lat="47.52874" lon="-0.12946">
        <ele>46</ele>
        <time>2013-04-21T10:43:39.001Z</time>
      </trkpt>
      <trkpt lat="47.52876" lon="-0.12942">
        <ele>46</ele>
        <time>2013-04-21T10:43:41.001Z</time>
      </trkpt>
      <trkpt lat="47.52877" lon="-0.12941">
        <ele>46</ele>
        <time>2013-04-21T10:43:42.001Z</time>
      </trkpt>
      <trkpt lat="47.52879" lon="-0.12936">
        <ele>46</ele>
        <time>2013-04-21T10:43:45.001Z</time>
      </trkpt>
      <trkpt lat="47.5288" lon="-0.12934">
        <ele>46</ele>
        <time>2013-04-21T10:43:46.001Z</time>
      </trkpt>
      <trkpt lat="47.52883" lon="-0.1293">
        <ele>46</ele>
        <time>2013-04-21T10:43:50.001Z</time>
      </trkpt>
      <trkpt lat="47.52883" lon="-0.12929">
        <ele>46</ele>
        <time>2013-04-21T10:43:51.001Z</time>
      </trkpt>
      <trkpt lat="47.52887" lon="-0.12924">
        <ele>46</ele>
        <time>2013-04-21T10:43:55.001Z</time>
      </trkpt>
      <trkpt lat="47.52887" lon="-0.12924">
        <ele>46</ele>
        <time>2013-04-21T10:43:56.001Z</time>
      </trkpt>
      <trkpt lat="47.5289" lon="-0.12919">
        <ele>46</ele>
        <time>2013-04-21T10:44:00.001Z</time>
      </trkpt>
      <trkpt lat="47.52891" lon="-0.12918">
        <ele>46</ele>
        <time>2013-04-21T10:44:01.001Z</time>
      </trkpt>
      <trkpt lat="47.52894" lon="-0.12915">
        <ele>46</ele>
        <time>2013-04-21T10:44:05.001Z</time>
      </trkpt>
      <trkpt lat="47.52895" lon="-0.12914">
        <ele>46</ele>
        <time>2013-04-21T10:44:06.001Z</time>
      </trkpt>
      <trkpt lat="47.52899" lon="-0.12911">
        <ele>46</ele>
        <time>2013-04-21T10:44:10.001Z</time>
      </trkpt>
      <trkpt lat="47.52899" lon="-0.12911">
        <ele>46</ele>
        <time>2013-04-21T10:44:11.001Z</time>
      </trkpt>
      <trkpt lat="47.52903" lon="-0.12909">
        <ele>47</ele>
        <time>2013-04-21T10:44:14.001Z</time>
      </trkpt>
      <trkpt lat="47.52904" lon="-0.12907">
        <ele>47</ele>
        <time>2013-04-21T10:44:15.001Z</time>
      </trkpt>
      <trkpt lat="47.52908" lon="-0.12903">
        <ele>47</ele>
        <time>2013-04-21T10:44:19.001Z</time>
      </trkpt>
      <trkpt lat="47.52909" lon="-0.12903">
        <ele>47</ele>
        <time>2013-04-21T10:44:20.001Z</time>
      </trkpt>
      <trkpt lat="47.52912" lon="-0.12899">
        <ele>47</ele>
        <time>2013-04-21T10:44:24.001Z</time>
      </trkpt>
      <trkpt lat="47.52914" lon="-0.12898">
        <ele>47</ele>
        <time>2013-04-21T10:44:25.001Z</time>
      </trkpt>
      <trkpt lat="47.52917" lon="-0.12895">
        <ele>48</ele>
        <time>2013-04-21T10:44:27.001Z</time>
      </trkpt>
      <trkpt lat="47.52918" lon="-0.12894">
        <ele>48</ele>
        <time>2013-04-21T10:44:28.001Z</time>
      </trkpt>
      <trkpt lat="47.52922" lon="-0.12892">
        <ele>48</ele>
        <time>2013-04-21T10:44:32.001Z</time>
      </trkpt>
      <trkpt lat="47.52923" lon="-0.12891">
        <ele>48</ele>
        <time>2013-04-21T10:44:33.001Z</time>
      </trkpt>
      <trkpt lat="47.52926" lon="-0.12889">
        <ele>48</ele>
        <time>2013-04-21T10:44:36.001Z</time>
      </trkpt>
      <trkpt lat="47.52927" lon="-0.12888">
        <ele>48</ele>
        <time>2013-04-21T10:44:37.001Z</time>
      </trkpt>
      <trkpt lat="47.52931" lon="-0.12886">
        <ele>48</ele>
        <time>2013-04-21T10:44:40.001Z</time>
      </trkpt>
      <trkpt lat="47.52932" lon="-0.12886">
        <ele>48</ele>
        <time>2013-04-21T10:44:41.001Z</time>
      </trkpt>
      <trkpt lat="47.52936" lon="-0.12884">
        <ele>48</ele>
        <time>2013-04-21T10:44:46.001Z</time>
      </trkpt>
      <trkpt lat="47.52937" lon="-0.12884">
        <ele>48</ele>
        <time>2013-04-21T10:44:47.001Z</time>
      </trkpt>
      <trkpt lat="47.52941" lon="-0.12883">
        <ele>48</ele>
        <time>2013-04-21T10:44:50.001Z</time>
      </trkpt>
      <trkpt lat="47.52942" lon="-0.12883">
        <ele>48</ele>
        <time>2013-04-21T10:44:51.001Z</time>
      </trkpt>
      <trkpt lat="47.52946" lon="-0.1288">
        <ele>48</ele>
        <time>2013-04-21T10:44:54.001Z</time>
      </trkpt>
      <trkpt lat="47.52947" lon="-0.1288">
        <ele>48</ele>
        <time>2013-04-21T10:44:55.001Z</time>
      </trkpt>
      <trkpt lat="47.52951" lon="-0.12879">
        <ele>48</ele>
        <time>2013-04-21T10:44:58.001Z</time>
      </trkpt>
      <trkpt lat="47.52952" lon="-0.12878">
        <ele>48</ele>
        <time>2013-04-21T10:44:59.001Z</time>
      </trkpt>
      <trkpt lat="47.52956" lon="-0.12877">
        <ele>48</ele>
        <time>2013-04-21T10:45:03.001Z</time>
      </trkpt>
      <trkpt lat="47.52957" lon="-0.12876">
        <ele>48</ele>
        <time>2013-04-21T10:45:04.001Z</time>
      </trkpt>
      <trkpt lat="47.52961" lon="-0.12874">
        <ele>49</ele>
        <time>2013-04-21T10:45:07.001Z</time>
      </trkpt>
      <trkpt lat="47.52962" lon="-0.12873">
        <ele>49</ele>
        <time>2013-04-21T10:45:08.001Z</time>
      </trkpt>
      <trkpt lat="47.52965" lon="-0.12873">
        <ele>49</ele>
        <time>2013-04-21T10:45:10.001Z</time>
      </trkpt>
      <trkpt lat="47.52966" lon="-0.12874">
        <ele>49</ele>
        <time>2013-04-21T10:45:11.001Z</time>
      </trkpt>
      <trkpt lat="47.52971" lon="-0.12874">
        <ele>49</ele>
        <time>2013-04-21T10:45:15.001Z</time>
      </trkpt>
      <trkpt lat="47.52972" lon="-0.12874">
        <ele>49</ele>
        <time>2013-04-21T10:45:16.001Z</time>
      </trkpt>
      <trkpt lat="47.52976" lon="-0.12875">
        <ele>49</ele>
        <time>2013-04-21T10:45:22.001Z</time>
      </trkpt>
      <trkpt lat="47.52977" lon="-0.12875">
        <ele>49</ele>
        <time>2013-04-21T10:45:23.001Z</time>
      </trkpt>
      <trkpt lat="47.5298" lon="-0.12875">
        <ele>49</ele>
        <time>2013-04-21T10:45:26.001Z</time>
      </trkpt>
      <trkpt lat="47.52981" lon="-0.12874">
        <ele>49</ele>
        <time>2013-04-21T10:45:27.001Z</time>
      </trkpt>
      <trkpt lat="47.52985" lon="-0.12873">
        <ele>49</ele>
        <time>2013-04-21T10:45:30.001Z</time>
      </trkpt>
      <trkpt lat="47.52986" lon="-0.12873">
        <ele>49</ele>
        <time>2013-04-21T10:45:31.001Z</time>
      </trkpt>
      <trkpt lat="47.52991" lon="-0.12873">
        <ele>49</ele>
        <time>2013-04-21T10:45:35.001Z</time>
      </trkpt>
      <trkpt lat="47.52991" lon="-0.12874">
        <ele>49</ele>
        <time>2013-04-21T10:45:36.001Z</time>
      </trkpt>
      <trkpt lat="47.52995" lon="-0.12877">
        <ele>49</ele>
        <time>2013-04-21T10:45:39.001Z</time>
      </trkpt>
      <trkpt lat="47.52997" lon="-0.12878">
        <ele>49</ele>
        <time>2013-04-21T10:45:40.001Z</time>
      </trkpt>
      <trkpt lat="47.53001" lon="-0.12879">
        <ele>51</ele>
        <time>2013-04-21T10:45:43.001Z</time>
      </trkpt>
      <trkpt lat="47.53002" lon="-0.12879">
        <ele>51</ele>
        <time>2013-04-21T10:45:44.001Z</time>
      </trkpt>
      <trkpt lat="47.53005" lon="-0.1288">
        <ele>51</ele>
        <time>2013-04-21T10:45:47.001Z</time>
      </trkpt>
      <trkpt lat="47.53007" lon="-0.1288">
        <ele>51</ele>
        <time>2013-04-21T10:45:48.001Z</time>
      </trkpt>
      <trkpt lat="47.53011" lon="-0.1288">
        <ele>51</ele>
        <time>2013-04-21T10:45:51.001Z</time>
      </trkpt>
      <trkpt lat="47.53013" lon="-0.1288">
        <ele>51</ele>
        <time>2013-04-21T10:45:52.001Z</time>
      </trkpt>
      <trkpt lat="47.53016" lon="-0.1288">
        <ele>51</ele>
        <time>2013-04-21T10:45:54.001Z</time>
      </trkpt>
      <trkpt lat="47.53017" lon="-0.1288">
        <ele>51</ele>
        <time>2013-04-21T10:45:55.001Z</time>
      </trkpt>
      <trkpt lat="47.53021" lon="-0.12881">
        <ele>51</ele>
        <time>2013-04-21T10:45:58.001Z</time>
      </trkpt>
      <trkpt lat="47.53022" lon="-0.12882">
        <ele>51</ele>
        <time>2013-04-21T10:45:59.001Z</time>
      </trkpt>
      <trkpt lat="47.53027" lon="-0.12882">
        <ele>51</ele>
        <time>2013-04-21T10:46:03.001Z</time>
      </trkpt>
      <trkpt lat="47.53027" lon="-0.12882">
        <ele>51</ele>
        <time>2013-04-21T10:46:04.001Z</time>
      </trkpt>
      <trkpt lat="47.53031" lon="-0.12883">
        <ele>51</ele>
        <time>2013-04-21T10:46:09.001Z</time>
      </trkpt>
      <trkpt lat="47.53033" lon="-0.12883">
        <ele>51</ele>
        <time>2013-04-21T10:46:10.001Z</time>
      </trkpt>
      <trkpt lat="47.53036" lon="-0.12884">
        <ele>51</ele>
        <time>2013-04-21T10:46:13.001Z</time>
      </trkpt>
      <trkpt lat="47.53037" lon="-0.12884">
        <ele>51</ele>
        <time>2013-04-21T10:46:14.001Z</time>
      </trkpt>
      <trkpt lat="47.53041" lon="-0.12885">
        <ele>51</ele>
        <time>2013-04-21T10:46:18.001Z</time>
      </trkpt>
      <trkpt lat="47.53042" lon="-0.12885">
        <ele>51</ele>
        <time>2013-04-21T10:46:19.001Z</time>
      </trkpt>
      <trkpt lat="47.53045" lon="-0.12885">
        <ele>51</ele>
        <time>2013-04-21T10:46:22.001Z</time>
      </trkpt>
      <trkpt lat="47.53047" lon="-0.12885">
        <ele>51</ele>
        <time>2013-04-21T10:46:23.001Z</time>
      </trkpt>
      <trkpt lat="47.53049" lon="-0.12883">
        <ele>51</ele>
        <time>2013-04-21T10:46:28.001Z</time>
      </trkpt>
      <trkpt lat="47.5305" lon="-0.1288">
        <ele>51</ele>
        <time>2013-04-21T10:46:29.001Z</time>
      </trkpt>
      <trkpt lat="47.53053" lon="-0.12876">
        <ele>51</ele>
        <time>2013-04-21T10:46:31.001Z</time>
      </trkpt>
      <trkpt lat="47.53053" lon="-0.12874">
        <ele>51</ele>
        <time>2013-04-21T10:46:32.001Z</time>
      </trkpt>
      <trkpt lat="47.53055" lon="-0.12869">
        <ele>51</ele>
        <time>2013-04-21T10:46:35.001Z</time>
      </trkpt>
      <trkpt lat="47.53055" lon="-0.12867">
        <ele>51</ele>
        <time>2013-04-21T10:46:36.001Z</time>
      </trkpt>
      <trkpt lat="47.53057" lon="-0.12861">
        <ele>51</ele>
        <time>2013-04-21T10:46:39.001Z</time>
      </trkpt>
      <trkpt lat="47.53057" lon="-0.12859">
        <ele>51</ele>
        <time>2013-04-21T10:46:40.001Z</time>
      </trkpt>
      <trkpt lat="47.53057" lon="-0.12854">
        <ele>51</ele>
        <time>2013-04-21T10:46:43.001Z</time>
      </trkpt>
      <trkpt lat="47.53057" lon="-0.12852">
        <ele>52</ele>
        <time>2013-04-21T10:46:44.001Z</time>
      </trkpt>
      <trkpt lat="47.53058" lon="-0.12846">
        <ele>52</ele>
        <time>2013-04-21T10:46:48.001Z</time>
      </trkpt>
      <trkpt lat="47.53058" lon="-0.12844">
        <ele>52</ele>
        <time>2013-04-21T10:46:49.001Z</time>
      </trkpt>
      <trkpt lat="47.53059" lon="-0.12838">
        <ele>52</ele>
        <time>2013-04-21T10:46:53.001Z</time>
      </trkpt>
      <trkpt lat="47.53059" lon="-0.12837">
        <ele>52</ele>
        <time>2013-04-21T10:46:54.001Z</time>
      </trkpt>
      <trkpt lat="47.5306" lon="-0.12832">
        <ele>52</ele>
        <time>2013-04-21T10:46:56.001Z</time>
      </trkpt>
      <trkpt lat="47.5306" lon="-0.12829">
        <ele>52</ele>
        <time>2013-04-21T10:46:57.001Z</time>
      </trkpt>
      <trkpt lat="47.53061" lon="-0.12824">
        <ele>52</ele>
        <time>2013-04-21T10:47:00.001Z</time>
      </trkpt>
      <trkpt lat="47.53061" lon="-0.12822">
        <ele>52</ele>
        <time>2013-04-21T10:47:01.001Z</time>
      </trkpt>
      <trkpt lat="47.53062" lon="-0.12816">
        <ele>52</ele>
        <time>2013-04-21T10:47:05.001Z</time>
      </trkpt>
      <trkpt lat="47.53061" lon="-0.12815">
        <ele>52</ele>
        <time>2013-04-21T10:47:06.001Z</time>
      </trkpt>
      <trkpt lat="47.53061" lon="-0.12809">
        <ele>52</ele>
        <time>2013-04-21T10:47:09.001Z</time>
      </trkpt>
      <trkpt lat="47.53061" lon="-0.12808">
        <ele>52</ele>
        <time>2013-04-21T10:47:10.001Z</time>
      </trkpt>
      <trkpt lat="47.53062" lon="-0.12802">
        <ele>52</ele>
        <time>2013-04-21T10:47:13.001Z</time>
      </trkpt>
      <trkpt lat="47.53062" lon="-0.128">
        <ele>52</ele>
        <time>2013-04-21T10:47:14.001Z</time>
      </trkpt>
      <trkpt lat="47.53062" lon="-0.12794">
        <ele>52</ele>
        <time>2013-04-21T10:47:17.001Z</time>
      </trkpt>
      <trkpt lat="47.53062" lon="-0.12792">
        <ele>52</ele>
        <time>2013-04-21T10:47:18.001Z</time>
      </trkpt>
      <trkpt lat="47.53062" lon="-0.12786">
        <ele>52</ele>
        <time>2013-04-21T10:47:22.001Z</time>
      </trkpt>
      <trkpt lat="47.53062" lon="-0.12784">
        <ele>52</ele>
        <time>2013-04-21T10:47:23.001Z</time>
      </trkpt>
      <trkpt lat="47.53062" lon="-0.12778">
        <ele>52</ele>
        <time>2013-04-21T10:47:27.001Z</time>
      </trkpt>
      <trkpt lat="47.53062" lon="-0.12776">
        <ele>52</ele>
        <time>2013-04-21T10:47:28.001Z</time>
      </trkpt>
      <trkpt lat="47.53064" lon="-0.12771">
        <ele>52</ele>
        <time>2013-04-21T10:47:31.001Z</time>
      </trkpt>
      <trkpt lat="47.53065" lon="-0.1277">
        <ele>52</ele>
        <time>2013-04-21T10:47:32.001Z</time>
      </trkpt>
      <trkpt lat="47.53066" lon="-0.12764">
        <ele>52</ele>
        <time>2013-04-21T10:47:35.001Z</time>
      </trkpt>
      <trkpt lat="47.53066" lon="-0.12762">
        <ele>52</ele>
        <time>2013-04-21T10:47:36.001Z</time>
      </trkpt>
      <trkpt lat="47.53066" lon="-0.12756">
        <ele>52</ele>
        <time>2013-04-21T10:47:39.001Z</time>
      </trkpt>
      <trkpt lat="47.53066" lon="-0.12754">
        <ele>52</ele>
        <time>2013-04-21T10:47:40.001Z</time>
      </trkpt>
      <trkpt lat="47.53067" lon="-0.12747">
        <ele>52</ele>
        <time>2013-04-21T10:47:44.001Z</time>
      </trkpt>
      <trkpt lat="47.53067" lon="-0.12745">
        <ele>52</ele>
        <time>2013-04-21T10:47:45.001Z</time>
      </trkpt>
      <trkpt lat="47.53067" lon="-0.1274">
        <ele>52</ele>
        <time>2013-04-21T10:47:48.001Z</time>
      </trkpt>
      <trkpt lat="47.53068" lon="-0.12738">
        <ele>52</ele>
        <time>2013-04-21T10:47:49.001Z</time>
      </trkpt>
      <trkpt lat="47.53067" lon="-0.12732">
        <ele>51</ele>
        <time>2013-04-21T10:47:52.001Z</time>
      </trkpt>
      <trkpt lat="47.53067" lon="-0.1273">
        <ele>51</ele>
        <time>2013-04-21T10:47:53.001Z</time>
      </trkpt>
      <trkpt lat="47.53067" lon="-0.12725">
        <ele>51</ele>
        <time>2013-04-21T10:47:56.001Z</time>
      </trkpt>
      <trkpt lat="47.53067" lon="-0.12723">
        <ele>51</ele>
        <time>2013-04-21T10:47:57.001Z</time>
      </trkpt>
      <trkpt lat="47.53068" lon="-0.12717">
        <ele>51</ele>
        <time>2013-04-21T10:48:00.001Z</time>
      </trkpt>
      <trkpt lat="47.53068" lon="-0.12715">
        <ele>51</ele>
        <time>2013-04-21T10:48:01.001Z</time>
      </trkpt>
      <trkpt lat="47.53069" lon="-0.12709">
        <ele>51</ele>
        <time>2013-04-21T10:48:05.001Z</time>
      </trkpt>
      <trkpt lat="47.53069" lon="-0.12707">
        <ele>51</ele>
        <time>2013-04-21T10:48:06.001Z</time>
      </trkpt>
      <trkpt lat="47.53071" lon="-0.12702">
        <ele>51</ele>
        <time>2013-04-21T10:48:08.001Z</time>
      </trkpt>
      <trkpt lat="47.53071" lon="-0.127">
        <ele>52</ele>
        <time>2013-04-21T10:48:09.001Z</time>
      </trkpt>
      <trkpt lat="47.53072" lon="-0.12695">
        <ele>52</ele>
        <time>2013-04-21T10:48:12.001Z</time>
      </trkpt>
      <trkpt lat="47.53073" lon="-0.12694">
        <ele>52</ele>
        <time>2013-04-21T10:48:13.001Z</time>
      </trkpt>
      <trkpt lat="47.53073" lon="-0.12688">
        <ele>52</ele>
        <time>2013-04-21T10:48:16.001Z</time>
      </trkpt>
      <trkpt lat="47.53072" lon="-0.12687">
        <ele>52</ele>
        <time>2013-04-21T10:48:17.001Z</time>
      </trkpt>
      <trkpt lat="47.53073" lon="-0.12681">
        <ele>52</ele>
        <time>2013-04-21T10:48:20.001Z</time>
      </trkpt>
      <trkpt lat="47.53073" lon="-0.1268">
        <ele>52</ele>
        <time>2013-04-21T10:48:21.001Z</time>
      </trkpt>
      <trkpt lat="47.53073" lon="-0.12675">
        <ele>52</ele>
        <time>2013-04-21T10:48:23.001Z</time>
      </trkpt>
      <trkpt lat="47.53073" lon="-0.12673">
        <ele>52</ele>
        <time>2013-04-21T10:48:24.001Z</time>
      </trkpt>
      <trkpt lat="47.53073" lon="-0.12667">
        <ele>52</ele>
        <time>2013-04-21T10:48:27.001Z</time>
      </trkpt>
      <trkpt lat="47.53073" lon="-0.12666">
        <ele>52</ele>
        <time>2013-04-21T10:48:28.001Z</time>
      </trkpt>
      <trkpt lat="47.53074" lon="-0.12659">
        <ele>52</ele>
        <time>2013-04-21T10:48:31.001Z</time>
      </trkpt>
      <trkpt lat="47.53074" lon="-0.12657">
        <ele>52</ele>
        <time>2013-04-21T10:48:32.001Z</time>
      </trkpt>
      <trkpt lat="47.53076" lon="-0.12651">
        <ele>52</ele>
        <time>2013-04-21T10:48:36.001Z</time>
      </trkpt>
      <trkpt lat="47.53076" lon="-0.12649">
        <ele>52</ele>
        <time>2013-04-21T10:48:37.001Z</time>
      </trkpt>
      <trkpt lat="47.53076" lon="-0.12642">
        <ele>51</ele>
        <time>2013-04-21T10:48:40.001Z</time>
      </trkpt>
      <trkpt lat="47.53076" lon="-0.1264">
        <ele>51</ele>
        <time>2013-04-21T10:48:41.001Z</time>
      </trkpt>
      <trkpt lat="47.53076" lon="-0.12635">
        <ele>51</ele>
        <time>2013-04-21T10:48:43.001Z</time>
      </trkpt>
      <trkpt lat="47.53077" lon="-0.12632">
        <ele>51</ele>
        <time>2013-04-21T10:48:44.001Z</time>
      </trkpt>
      <trkpt lat="47.53077" lon="-0.12627">
        <ele>51</ele>
        <time>2013-04-21T10:48:47.001Z</time>
      </trkpt>
      <trkpt lat="47.53077" lon="-0.12626">
        <ele>51</ele>
        <time>2013-04-21T10:48:48.001Z</time>
      </trkpt>
      <trkpt lat="47.53077" lon="-0.1262">
        <ele>51</ele>
        <time>2013-04-21T10:48:52.001Z</time>
      </trkpt>
      <trkpt lat="47.53077" lon="-0.12618">
        <ele>51</ele>
        <time>2013-04-21T10:48:53.001Z</time>
      </trkpt>
      <trkpt lat="47.53077" lon="-0.12613">
        <ele>51</ele>
        <time>2013-04-21T10:48:55.001Z</time>
      </trkpt>
      <trkpt lat="47.53078" lon="-0.1261">
        <ele>51</ele>
        <time>2013-04-21T10:48:56.001Z</time>
      </trkpt>
      <trkpt lat="47.53078" lon="-0.12605">
        <ele>51</ele>
        <time>2013-04-21T10:48:59.001Z</time>
      </trkpt>
      <trkpt lat="47.53078" lon="-0.12603">
        <ele>51</ele>
        <time>2013-04-21T10:49:00.001Z</time>
      </trkpt>
      <trkpt lat="47.53079" lon="-0.12597">
        <ele>51</ele>
        <time>2013-04-21T10:49:04.001Z</time>
      </trkpt>
      <trkpt lat="47.53079" lon="-0.12595">
        <ele>51</ele>
        <time>2013-04-21T10:49:05.001Z</time>
      </trkpt>
      <trkpt lat="47.53079" lon="-0.12589">
        <ele>52</ele>
        <time>2013-04-21T10:49:08.001Z</time>
      </trkpt>
      <trkpt lat="47.5308" lon="-0.12587">
        <ele>52</ele>
        <time>2013-04-21T10:49:09.001Z</time>
      </trkpt>
      <trkpt lat="47.53081" lon="-0.12582">
        <ele>52</ele>
        <time>2013-04-21T10:49:12.001Z</time>
      </trkpt>
      <trkpt lat="47.53081" lon="-0.1258">
        <ele>52</ele>
        <time>2013-04-21T10:49:13.001Z</time>
      </trkpt>
      <trkpt lat="47.53082" lon="-0.12575">
        <ele>52</ele>
        <time>2013-04-21T10:49:16.001Z</time>
      </trkpt>
      <trkpt lat="47.53082" lon="-0.12572">
        <ele>52</ele>
        <time>2013-04-21T10:49:17.001Z</time>
      </trkpt>
      <trkpt lat="47.53081" lon="-0.12567">
        <ele>52</ele>
        <time>2013-04-21T10:49:20.001Z</time>
      </trkpt>
      <trkpt lat="47.53081" lon="-0.12565">
        <ele>52</ele>
        <time>2013-04-21T10:49:21.001Z</time>
      </trkpt>
      <trkpt lat="47.53081" lon="-0.12558">
        <ele>52</ele>
        <time>2013-04-21T10:49:25.001Z</time>
      </trkpt>
      <trkpt lat="47.53081" lon="-0.12556">
        <ele>52</ele>
        <time>2013-04-21T10:49:26.001Z</time>
      </trkpt>
      <trkpt lat="47.53081" lon="-0.1255">
        <ele>52</ele>
        <time>2013-04-21T10:49:30.001Z</time>
      </trkpt>
      <trkpt lat="47.53081" lon="-0.12548">
        <ele>52</ele>
        <time>2013-04-21T10:49:31.001Z</time>
      </trkpt>
      <trkpt lat="47.53082" lon="-0.12544">
        <ele>52</ele>
        <time>2013-04-21T10:49:34.001Z</time>
      </trkpt>
      <trkpt lat="47.53082" lon="-0.12541">
        <ele>52</ele>
        <time>2013-04-21T10:49:35.001Z</time>
      </trkpt>
      <trkpt lat="47.53082" lon="-0.12536">
        <ele>52</ele>
        <time>2013-04-21T10:49:38.001Z</time>
      </trkpt>
      <trkpt lat="47.53082" lon="-0.12534">
        <ele>52</ele>
        <time>2013-04-21T10:49:39.001Z</time>
      </trkpt>
      <trkpt lat="47.53082" lon="-0.12529">
        <ele>52</ele>
        <time>2013-04-21T10:49:42.001Z</time>
      </trkpt>
      <trkpt lat="47.53082" lon="-0.12527">
        <ele>52</ele>
        <time>2013-04-21T10:49:43.001Z</time>
      </trkpt>
      <trkpt lat="47.53082" lon="-0.12522">
        <ele>52</ele>
        <time>2013-04-21T10:49:46.001Z</time>
      </trkpt>
      <trkpt lat="47.53081" lon="-0.1252">
        <ele>52</ele>
        <time>2013-04-21T10:49:47.001Z</time>
      </trkpt>
      <trkpt lat="47.53081" lon="-0.12513">
        <ele>52</ele>
        <time>2013-04-21T10:49:50.001Z</time>
      </trkpt>
      <trkpt lat="47.5308" lon="-0.12511">
        <ele>52</ele>
        <time>2013-04-21T10:49:51.001Z</time>
      </trkpt>
      <trkpt lat="47.5308" lon="-0.12505">
        <ele>53</ele>
        <time>2013-04-21T10:49:56.001Z</time>
      </trkpt>
      <trkpt lat="47.53081" lon="-0.12504">
        <ele>53</ele>
        <time>2013-04-21T10:49:57.001Z</time>
      </trkpt>
      <trkpt lat="47.53082" lon="-0.12498">
        <ele>53</ele>
        <time>2013-04-21T10:50:00.001Z</time>
      </trkpt>
      <trkpt lat="47.53083" lon="-0.12496">
        <ele>53</ele>
        <time>2013-04-21T10:50:01.001Z</time>
      </trkpt>
      <trkpt lat="47.53084" lon="-0.12491">
        <ele>52</ele>
        <time>2013-04-21T10:50:04.001Z</time>
      </trkpt>
      <trkpt lat="47.53084" lon="-0.12489">
        <ele>52</ele>
        <time>2013-04-21T10:50:05.001Z</time>
      </trkpt>
      <trkpt lat="47.53084" lon="-0.12483">
        <ele>52</ele>
        <time>2013-04-21T10:50:09.001Z</time>
      </trkpt>
      <trkpt lat="47.53084" lon="-0.12481">
        <ele>52</ele>
        <time>2013-04-21T10:50:10.001Z</time>
      </trkpt>
      <trkpt lat="47.53083" lon="-0.12475">
        <ele>52</ele>
        <time>2013-04-21T10:50:14.001Z</time>
      </trkpt>
      <trkpt lat="47.53083" lon="-0.12473">
        <ele>52</ele>
        <time>2013-04-21T10:50:15.001Z</time>
      </trkpt>
      <trkpt lat="47.53083" lon="-0.12467">
        <ele>52</ele>
        <time>2013-04-21T10:50:18.001Z</time>
      </trkpt>
      <trkpt lat="47.53083" lon="-0.12465">
        <ele>52</ele>
        <time>2013-04-21T10:50:19.001Z</time>
      </trkpt>
      <trkpt lat="47.53083" lon="-0.12458">
        <ele>52</ele>
        <time>2013-04-21T10:50:23.001Z</time>
      </trkpt>
      <trkpt lat="47.53082" lon="-0.12457">
        <ele>52</ele>
        <time>2013-04-21T10:50:24.001Z</time>
      </trkpt>
      <trkpt lat="47.53083" lon="-0.12451">
        <ele>51</ele>
        <time>2013-04-21T10:50:27.001Z</time>
      </trkpt>
      <trkpt lat="47.53083" lon="-0.1245">
        <ele>51</ele>
        <time>2013-04-21T10:50:28.001Z</time>
      </trkpt>
      <trkpt lat="47.53083" lon="-0.12443">
        <ele>51</ele>
        <time>2013-04-21T10:50:32.001Z</time>
      </trkpt>
      <trkpt lat="47.53083" lon="-0.12441">
        <ele>51</ele>
        <time>2013-04-21T10:50:33.001Z</time>
      </trkpt>
      <trkpt lat="47.53083" lon="-0.12436">
        <ele>51</ele>
        <time>2013-04-21T10:50:36.001Z</time>
      </trkpt>
      <trkpt lat="47.53084" lon="-0.12434">
        <ele>51</ele>
        <time>2013-04-21T10:50:37.001Z</time>
      </trkpt>
      <trkpt lat="47.53083" lon="-0.12428">
        <ele>51</ele>
        <time>2013-04-21T10:50:40.001Z</time>
      </trkpt>
      <trkpt lat="47.53083" lon="-0.12426">
        <ele>51</ele>
        <time>2013-04-21T10:50:41.001Z</time>
      </trkpt>
      <trkpt lat="47.53083" lon="-0.1242">
        <ele>51</ele>
        <time>2013-04-21T10:50:44.001Z</time>
      </trkpt>
      <trkpt lat="47.53083" lon="-0.12418">
        <ele>51</ele>
        <time>2013-04-21T10:50:45.001Z</time>
      </trkpt>
      <trkpt lat="47.53082" lon="-0.12413">
        <ele>51</ele>
        <time>2013-04-21T10:50:49.001Z</time>
      </trkpt>
      <trkpt lat="47.53082" lon="-0.12412">
        <ele>51</ele>
        <time>2013-04-21T10:50:50.001Z</time>
      </trkpt>
      <trkpt lat="47.53082" lon="-0.12406">
        <ele>51</ele>
        <time>2013-04-21T10:50:52.001Z</time>
      </trkpt>
      <trkpt lat="47.53081" lon="-0.12404">
        <ele>51</ele>
        <time>2013-04-21T10:50:53.001Z</time>
      </trkpt>
      <trkpt lat="47.53081" lon="-0.12398">
        <ele>51</ele>
        <time>2013-04-21T10:50:57.001Z</time>
      </trkpt>
      <trkpt lat="47.53081" lon="-0.12397">
        <ele>51</ele>
        <time>2013-04-21T10:50:58.001Z</time>
      </trkpt>
      <trkpt lat="47.53081" lon="-0.1239">
        <ele>51</ele>
        <time>2013-04-21T10:51:01.001Z</time>
      </trkpt>
      <trkpt lat="47.53081" lon="-0.12389">
        <ele>51</ele>
        <time>2013-04-21T10:51:02.001Z</time>
      </trkpt>
      <trkpt lat="47.53082" lon="-0.12383">
        <ele>51</ele>
        <time>2013-04-21T10:51:05.001Z</time>
      </trkpt>
      <trkpt lat="47.53082" lon="-0.1238">
        <ele>51</ele>
        <time>2013-04-21T10:51:06.001Z</time>
      </trkpt>
      <trkpt lat="47.53082" lon="-0.12375">
        <ele>51</ele>
        <time>2013-04-21T10:51:09.001Z</time>
      </trkpt>
      <trkpt lat="47.53082" lon="-0.12373">
        <ele>51</ele>
        <time>2013-04-21T10:51:10.001Z</time>
      </trkpt>
      <trkpt lat="47.53082" lon="-0.12369">
        <ele>51</ele>
        <time>2013-04-21T10:51:12.001Z</time>
      </trkpt>
      <trkpt lat="47.53082" lon="-0.12366">
        <ele>51</ele>
        <time>2013-04-21T10:51:13.001Z</time>
      </trkpt>
      <trkpt lat="47.53081" lon="-0.12361">
        <ele>51</ele>
        <time>2013-04-21T10:51:16.001Z</time>
      </trkpt>
      <trkpt lat="47.53081" lon="-0.1236">
        <ele>51</ele>
        <time>2013-04-21T10:51:17.001Z</time>
      </trkpt>
      <trkpt lat="47.53081" lon="-0.12353">
        <ele>51</ele>
        <time>2013-04-21T10:51:21.001Z</time>
      </trkpt>
      <trkpt lat="47.53081" lon="-0.12351">
        <ele>51</ele>
        <time>2013-04-21T10:51:22.001Z</time>
      </trkpt>
      <trkpt lat="47.53082" lon="-0.12345">
        <ele>51</ele>
        <time>2013-04-21T10:51:26.001Z</time>
      </trkpt>
      <trkpt lat="47.53082" lon="-0.12343">
        <ele>51</ele>
        <time>2013-04-21T10:51:27.001Z</time>
      </trkpt>
      <trkpt lat="47.53083" lon="-0.12337">
        <ele>51</ele>
        <time>2013-04-21T10:51:30.001Z</time>
      </trkpt>
      <trkpt lat="47.53083" lon="-0.12336">
        <ele>51</ele>
        <time>2013-04-21T10:51:31.001Z</time>
      </trkpt>
      <trkpt lat="47.53084" lon="-0.12329">
        <ele>51</ele>
        <time>2013-04-21T10:51:35.001Z</time>
      </trkpt>
      <trkpt lat="47.53084" lon="-0.12327">
        <ele>51</ele>
        <time>2013-04-21T10:51:36.001Z</time>
      </trkpt>
      <trkpt lat="47.53086" lon="-0.12322">
        <ele>50</ele>
        <time>2013-04-21T10:51:40.001Z</time>
      </trkpt>
      <trkpt lat="47.53086" lon="-0.1232">
        <ele>50</ele>
        <time>2013-04-21T10:51:41.001Z</time>
      </trkpt>
      <trkpt lat="47.53087" lon="-0.12314">
        <ele>50</ele>
        <time>2013-04-21T10:51:46.001Z</time>
      </trkpt>
      <trkpt lat="47.53087" lon="-0.12312">
        <ele>50</ele>
        <time>2013-04-21T10:51:47.001Z</time>
      </trkpt>
      <trkpt lat="47.53088" lon="-0.12307">
        <ele>50</ele>
        <time>2013-04-21T10:51:51.001Z</time>
      </trkpt>
      <trkpt lat="47.53089" lon="-0.12305">
        <ele>50</ele>
        <time>2013-04-21T10:51:52.001Z</time>
      </trkpt>
      <trkpt lat="47.53089" lon="-0.12298">
        <ele>49</ele>
        <time>2013-04-21T10:51:55.001Z</time>
      </trkpt>
      <trkpt lat="47.53089" lon="-0.12297">
        <ele>49</ele>
        <time>2013-04-21T10:51:56.001Z</time>
      </trkpt>
      <trkpt lat="47.5309" lon="-0.12291">
        <ele>49</ele>
        <time>2013-04-21T10:51:59.001Z</time>
      </trkpt>
      <trkpt lat="47.5309" lon="-0.1229">
        <ele>49</ele>
        <time>2013-04-21T10:52:00.001Z</time>
      </trkpt>
      <trkpt lat="47.53091" lon="-0.12283">
        <ele>49</ele>
        <time>2013-04-21T10:52:03.001Z</time>
      </trkpt>
      <trkpt lat="47.53091" lon="-0.12282">
        <ele>49</ele>
        <time>2013-04-21T10:52:04.001Z</time>
      </trkpt>
      <trkpt lat="47.53092" lon="-0.12277">
        <ele>49</ele>
        <time>2013-04-21T10:52:07.001Z</time>
      </trkpt>
      <trkpt lat="47.53092" lon="-0.12275">
        <ele>49</ele>
        <time>2013-04-21T10:52:08.001Z</time>
      </trkpt>
      <trkpt lat="47.53094" lon="-0.12271">
        <ele>49</ele>
        <time>2013-04-21T10:52:12.001Z</time>
      </trkpt>
      <trkpt lat="47.53094" lon="-0.12269">
        <ele>49</ele>
        <time>2013-04-21T10:52:13.001Z</time>
      </trkpt>
      <trkpt lat="47.53095" lon="-0.12263">
        <ele>49</ele>
        <time>2013-04-21T10:52:16.001Z</time>
      </trkpt>
      <trkpt lat="47.53095" lon="-0.12261">
        <ele>49</ele>
        <time>2013-04-21T10:52:17.001Z</time>
      </trkpt>
      <trkpt lat="47.53097" lon="-0.12257">
        <ele>48</ele>
        <time>2013-04-21T10:52:20.001Z</time>
      </trkpt>
      <trkpt lat="47.53098" lon="-0.12255">
        <ele>48</ele>
        <time>2013-04-21T10:52:21.001Z</time>
      </trkpt>
      <trkpt lat="47.53099" lon="-0.1225">
        <ele>48</ele>
        <time>2013-04-21T10:52:24.001Z</time>
      </trkpt>
      <trkpt lat="47.53099" lon="-0.12247">
        <ele>48</ele>
        <time>2013-04-21T10:52:25.001Z</time>
      </trkpt>
      <trkpt lat="47.53099" lon="-0.12241">
        <ele>48</ele>
        <time>2013-04-21T10:52:28.001Z</time>
      </trkpt>
      <trkpt lat="47.53099" lon="-0.1224">
        <ele>48</ele>
        <time>2013-04-21T10:52:29.001Z</time>
      </trkpt>
      <trkpt lat="47.531" lon="-0.12235">
        <ele>48</ele>
        <time>2013-04-21T10:52:33.001Z</time>
      </trkpt>
      <trkpt lat="47.531" lon="-0.12233">
        <ele>48</ele>
        <time>2013-04-21T10:52:34.001Z</time>
      </trkpt>
      <trkpt lat="47.53102" lon="-0.12228">
        <ele>48</ele>
        <time>2013-04-21T10:52:37.001Z</time>
      </trkpt>
      <trkpt lat="47.53102" lon="-0.12227">
        <ele>48</ele>
        <time>2013-04-21T10:52:38.001Z</time>
      </trkpt>
      <trkpt lat="47.53104" lon="-0.12222">
        <ele>48</ele>
        <time>2013-04-21T10:52:42.001Z</time>
      </trkpt>
      <trkpt lat="47.53104" lon="-0.1222">
        <ele>49</ele>
        <time>2013-04-21T10:52:43.001Z</time>
      </trkpt>
      <trkpt lat="47.53105" lon="-0.12215">
        <ele>49</ele>
        <time>2013-04-21T10:52:45.001Z</time>
      </trkpt>
      <trkpt lat="47.53106" lon="-0.12214">
        <ele>49</ele>
        <time>2013-04-21T10:52:46.001Z</time>
      </trkpt>
      <trkpt lat="47.53107" lon="-0.12209">
        <ele>49</ele>
        <time>2013-04-21T10:52:48.001Z</time>
      </trkpt>
      <trkpt lat="47.53108" lon="-0.12206">
        <ele>49</ele>
        <time>2013-04-21T10:52:49.001Z</time>
      </trkpt>
      <trkpt lat="47.5311" lon="-0.12201">
        <ele>49</ele>
        <time>2013-04-21T10:52:53.001Z</time>
      </trkpt>
      <trkpt lat="47.5311" lon="-0.12199">
        <ele>49</ele>
        <time>2013-04-21T10:52:54.001Z</time>
      </trkpt>
      <trkpt lat="47.53112" lon="-0.12195">
        <ele>49</ele>
        <time>2013-04-21T10:52:57.001Z</time>
      </trkpt>
      <trkpt lat="47.53113" lon="-0.12194">
        <ele>49</ele>
        <time>2013-04-21T10:52:58.001Z</time>
      </trkpt>
      <trkpt lat="47.53116" lon="-0.12189">
        <ele>49</ele>
        <time>2013-04-21T10:53:03.001Z</time>
      </trkpt>
      <trkpt lat="47.53116" lon="-0.12188">
        <ele>49</ele>
        <time>2013-04-21T10:53:04.001Z</time>
      </trkpt>
      <trkpt lat="47.53118" lon="-0.12183">
        <ele>49</ele>
        <time>2013-04-21T10:53:07.001Z</time>
      </trkpt>
      <trkpt lat="47.53118" lon="-0.12181">
        <ele>49</ele>
        <time>2013-04-21T10:53:08.001Z</time>
      </trkpt>
      <trkpt lat="47.5312" lon="-0.12177">
        <ele>49</ele>
        <time>2013-04-21T10:53:12.001Z</time>
      </trkpt>
      <trkpt lat="47.5312" lon="-0.12175">
        <ele>49</ele>
        <time>2013-04-21T10:53:13.001Z</time>
      </trkpt>
      <trkpt lat="47.53122" lon="-0.12171">
        <ele>49</ele>
        <time>2013-04-21T10:53:16.001Z</time>
      </trkpt>
      <trkpt lat="47.53123" lon="-0.12169">
        <ele>49</ele>
        <time>2013-04-21T10:53:17.001Z</time>
      </trkpt>
      <trkpt lat="47.53125" lon="-0.12164">
        <ele>50</ele>
        <time>2013-04-21T10:53:20.001Z</time>
      </trkpt>
      <trkpt lat="47.53125" lon="-0.12163">
        <ele>50</ele>
        <time>2013-04-21T10:53:21.001Z</time>
      </trkpt>
      <trkpt lat="47.53128" lon="-0.12159">
        <ele>50</ele>
        <time>2013-04-21T10:53:24.001Z</time>
      </trkpt>
      <trkpt lat="47.5313" lon="-0.12157">
        <ele>50</ele>
        <time>2013-04-21T10:53:25.001Z</time>
      </trkpt>
      <trkpt lat="47.53133" lon="-0.12154">
        <ele>50</ele>
        <time>2013-04-21T10:53:29.001Z</time>
      </trkpt>
      <trkpt lat="47.53134" lon="-0.12153">
        <ele>50</ele>
        <time>2013-04-21T10:53:30.001Z</time>
      </trkpt>
      <trkpt lat="47.53137" lon="-0.1215">
        <ele>50</ele>
        <time>2013-04-21T10:53:34.001Z</time>
      </trkpt>
      <trkpt lat="47.53139" lon="-0.12148">
        <ele>50</ele>
        <time>2013-04-21T10:53:35.001Z</time>
      </trkpt>
      <trkpt lat="47.53142" lon="-0.12146">
        <ele>50</ele>
        <time>2013-04-21T10:53:37.001Z</time>
      </trkpt>
      <trkpt lat="47.53143" lon="-0.12146">
        <ele>50</ele>
        <time>2013-04-21T10:53:38.001Z</time>
      </trkpt>
      <trkpt lat="47.53145" lon="-0.1214">
        <ele>50</ele>
        <time>2013-04-21T10:53:43.001Z</time>
      </trkpt>
      <trkpt lat="47.53145" lon="-0.12138">
        <ele>50</ele>
        <time>2013-04-21T10:53:44.001Z</time>
      </trkpt>
      <trkpt lat="47.53148" lon="-0.12134">
        <ele>50</ele>
        <time>2013-04-21T10:53:47.001Z</time>
      </trkpt>
      <trkpt lat="47.53148" lon="-0.12132">
        <ele>50</ele>
        <time>2013-04-21T10:53:48.001Z</time>
      </trkpt>
      <trkpt lat="47.5315" lon="-0.12127">
        <ele>50</ele>
        <time>2013-04-21T10:53:51.001Z</time>
      </trkpt>
      <trkpt lat="47.5315" lon="-0.12125">
        <ele>50</ele>
        <time>2013-04-21T10:53:52.001Z</time>
      </trkpt>
      <trkpt lat="47.53153" lon="-0.12122">
        <ele>50</ele>
        <time>2013-04-21T10:53:55.001Z</time>
      </trkpt>
      <trkpt lat="47.53153" lon="-0.12119">
        <ele>51</ele>
        <time>2013-04-21T10:53:56.001Z</time>
      </trkpt>
      <trkpt lat="47.53156" lon="-0.12116">
        <ele>51</ele>
        <time>2013-04-21T10:53:59.001Z</time>
      </trkpt>
      <trkpt lat="47.53157" lon="-0.12114">
        <ele>51</ele>
        <time>2013-04-21T10:54:00.001Z</time>
      </trkpt>
      <trkpt lat="47.53158" lon="-0.12111">
        <ele>51</ele>
        <time>2013-04-21T10:54:03.001Z</time>
      </trkpt>
      <trkpt lat="47.53159" lon="-0.12109">
        <ele>51</ele>
        <time>2013-04-21T10:54:04.001Z</time>
      </trkpt>
      <trkpt lat="47.53161" lon="-0.12104">
        <ele>51</ele>
        <time>2013-04-21T10:54:07.001Z</time>
      </trkpt>
      <trkpt lat="47.53162" lon="-0.12101">
        <ele>51</ele>
        <time>2013-04-21T10:54:08.001Z</time>
      </trkpt>
      <trkpt lat="47.53158" lon="-0.12098">
        <ele>51</ele>
        <time>2013-04-21T10:54:22.001Z</time>
      </trkpt>
      <trkpt lat="47.53157" lon="-0.12095">
        <ele>51</ele>
        <time>2013-04-21T10:54:23.001Z</time>
      </trkpt>
      <trkpt lat="47.53156" lon="-0.1209">
        <ele>51</ele>
        <time>2013-04-21T10:54:26.001Z</time>
      </trkpt>
      <trkpt lat="47.53155" lon="-0.12088">
        <ele>51</ele>
        <time>2013-04-21T10:54:27.001Z</time>
      </trkpt>
      <trkpt lat="47.53155" lon="-0.12082">
        <ele>52</ele>
        <time>2013-04-21T10:54:31.001Z</time>
      </trkpt>
      <trkpt lat="47.53155" lon="-0.12081">
        <ele>52</ele>
        <time>2013-04-21T10:54:32.001Z</time>
      </trkpt>
      <trkpt lat="47.53154" lon="-0.12074">
        <ele>52</ele>
        <time>2013-04-21T10:54:36.001Z</time>
      </trkpt>
      <trkpt lat="47.53155" lon="-0.12072">
        <ele>52</ele>
        <time>2013-04-21T10:54:37.001Z</time>
      </trkpt>
      <trkpt lat="47.53154" lon="-0.12066">
        <ele>52</ele>
        <time>2013-04-21T10:54:41.001Z</time>
      </trkpt>
      <trkpt lat="47.53154" lon="-0.12064">
        <ele>52</ele>
        <time>2013-04-21T10:54:42.001Z</time>
      </trkpt>
      <trkpt lat="47.53153" lon="-0.1206">
        <ele>52</ele>
        <time>2013-04-21T10:54:44.001Z</time>
      </trkpt>
      <trkpt lat="47.53152" lon="-0.12058">
        <ele>52</ele>
        <time>2013-04-21T10:54:45.001Z</time>
      </trkpt>
      <trkpt lat="47.53151" lon="-0.12052">
        <ele>52</ele>
        <time>2013-04-21T10:54:50.001Z</time>
      </trkpt>
      <trkpt lat="47.53151" lon="-0.1205">
        <ele>52</ele>
        <time>2013-04-21T10:54:51.001Z</time>
      </trkpt>
      <trkpt lat="47.53149" lon="-0.12046">
        <ele>52</ele>
        <time>2013-04-21T10:54:54.001Z</time>
      </trkpt>
      <trkpt lat="47.53149" lon="-0.12044">
        <ele>52</ele>
        <time>2013-04-21T10:54:55.001Z</time>
      </trkpt>
      <trkpt lat="47.53146" lon="-0.12039">
        <ele>52</ele>
        <time>2013-04-21T10:54:58.001Z</time>
      </trkpt>
      <trkpt lat="47.53146" lon="-0.12037">
        <ele>52</ele>
        <time>2013-04-21T10:54:59.001Z</time>
      </trkpt>
      <trkpt lat="47.53145" lon="-0.12032">
        <ele>52</ele>
        <time>2013-04-21T10:55:02.001Z</time>
      </trkpt>
      <trkpt lat="47.53145" lon="-0.1203">
        <ele>52</ele>
        <time>2013-04-21T10:55:03.001Z</time>
      </trkpt>
      <trkpt lat="47.53143" lon="-0.12025">
        <ele>52</ele>
        <time>2013-04-21T10:55:07.001Z</time>
      </trkpt>
      <trkpt lat="47.53142" lon="-0.12023">
        <ele>52</ele>
        <time>2013-04-21T10:55:08.001Z</time>
      </trkpt>
      <trkpt lat="47.53141" lon="-0.12017">
        <ele>52</ele>
        <time>2013-04-21T10:55:12.001Z</time>
      </trkpt>
      <trkpt lat="47.53141" lon="-0.12016">
        <ele>52</ele>
        <time>2013-04-21T10:55:13.001Z</time>
      </trkpt>
      <trkpt lat="47.5314" lon="-0.1201">
        <ele>53</ele>
        <time>2013-04-21T10:55:15.001Z</time>
      </trkpt>
      <trkpt lat="47.53141" lon="-0.12007">
        <ele>53</ele>
        <time>2013-04-21T10:55:16.001Z</time>
      </trkpt>
      <trkpt lat="47.53143" lon="-0.12002">
        <ele>53</ele>
        <time>2013-04-21T10:55:19.001Z</time>
      </trkpt>
      <trkpt lat="47.53144" lon="-0.12001">
        <ele>53</ele>
        <time>2013-04-21T10:55:20.001Z</time>
      </trkpt>
      <trkpt lat="47.53146" lon="-0.11996">
        <ele>53</ele>
        <time>2013-04-21T10:55:23.001Z</time>
      </trkpt>
      <trkpt lat="47.53146" lon="-0.11994">
        <ele>53</ele>
        <time>2013-04-21T10:55:24.001Z</time>
      </trkpt>
      <trkpt lat="47.53147" lon="-0.11988">
        <ele>53</ele>
        <time>2013-04-21T10:55:28.001Z</time>
      </trkpt>
      <trkpt lat="47.53147" lon="-0.11987">
        <ele>53</ele>
        <time>2013-04-21T10:55:29.001Z</time>
      </trkpt>
      <trkpt lat="47.53149" lon="-0.11982">
        <ele>53</ele>
        <time>2013-04-21T10:55:32.001Z</time>
      </trkpt>
      <trkpt lat="47.5315" lon="-0.1198">
        <ele>53</ele>
        <time>2013-04-21T10:55:33.001Z</time>
      </trkpt>
      <trkpt lat="47.53151" lon="-0.11974">
        <ele>53</ele>
        <time>2013-04-21T10:55:36.001Z</time>
      </trkpt>
      <trkpt lat="47.53152" lon="-0.11973">
        <ele>53</ele>
        <time>2013-04-21T10:55:37.001Z</time>
      </trkpt>
      <trkpt lat="47.53154" lon="-0.11967">
        <ele>53</ele>
        <time>2013-04-21T10:55:41.001Z</time>
      </trkpt>
      <trkpt lat="47.53154" lon="-0.11965">
        <ele>53</ele>
        <time>2013-04-21T10:55:42.001Z</time>
      </trkpt>
      <trkpt lat="47.53152" lon="-0.11961">
        <ele>53</ele>
        <time>2013-04-21T10:55:44.001Z</time>
      </trkpt>
      <trkpt lat="47.53151" lon="-0.11959">
        <ele>53</ele>
        <time>2013-04-21T10:55:45.001Z</time>
      </trkpt>
      <trkpt lat="47.5315" lon="-0.11953">
        <ele>53</ele>
        <time>2013-04-21T10:55:48.001Z</time>
      </trkpt>
      <trkpt lat="47.53149" lon="-0.11952">
        <ele>53</ele>
        <time>2013-04-21T10:55:49.001Z</time>
      </trkpt>
      <trkpt lat="47.53147" lon="-0.11947">
        <ele>53</ele>
        <time>2013-04-21T10:55:53.001Z</time>
      </trkpt>
      <trkpt lat="47.53145" lon="-0.11946">
        <ele>53</ele>
        <time>2013-04-21T10:55:54.001Z</time>
      </trkpt>
      <trkpt lat="47.53144" lon="-0.11943">
        <ele>53</ele>
        <time>2013-04-21T10:55:55.001Z</time>
      </trkpt>
      <trkpt lat="47.53142" lon="-0.11939">
        <ele>53</ele>
        <time>2013-04-21T10:55:56.001Z</time>
      </trkpt>
      <trkpt lat="47.5314" lon="-0.11935">
        <ele>53</ele>
        <time>2013-04-21T10:55:59.001Z</time>
      </trkpt>
      <trkpt lat="47.53139" lon="-0.11933">
        <ele>53</ele>
        <time>2013-04-21T10:56:00.001Z</time>
      </trkpt>
      <trkpt lat="47.53137" lon="-0.11931">
        <ele>53</ele>
        <time>2013-04-21T10:56:01.001Z</time>
      </trkpt>
      <trkpt lat="47.53136" lon="-0.11929">
        <ele>53</ele>
        <time>2013-04-21T10:56:02.001Z</time>
      </trkpt>
      <trkpt lat="47.53133" lon="-0.11927">
        <ele>53</ele>
        <time>2013-04-21T10:56:04.001Z</time>
      </trkpt>
      <trkpt lat="47.53132" lon="-0.11925">
        <ele>53</ele>
        <time>2013-04-21T10:56:05.001Z</time>
      </trkpt>
      <trkpt lat="47.53129" lon="-0.11922">
        <ele>52</ele>
        <time>2013-04-21T10:56:07.001Z</time>
      </trkpt>
      <trkpt lat="47.53127" lon="-0.11921">
        <ele>52</ele>
        <time>2013-04-21T10:56:08.001Z</time>
      </trkpt>
      <trkpt lat="47.53124" lon="-0.11918">
        <ele>52</ele>
        <time>2013-04-21T10:56:11.001Z</time>
      </trkpt>
      <trkpt lat="47.53124" lon="-0.11916">
        <ele>51</ele>
        <time>2013-04-21T10:56:12.001Z</time>
      </trkpt>
      <trkpt lat="47.53122" lon="-0.11912">
        <ele>50</ele>
        <time>2013-04-21T10:56:17.001Z</time>
      </trkpt>
      <trkpt lat="47.53121" lon="-0.11911">
        <ele>50</ele>
        <time>2013-04-21T10:56:18.001Z</time>
      </trkpt>
      <trkpt lat="47.53118" lon="-0.11907">
        <ele>50</ele>
        <time>2013-04-21T10:56:20.001Z</time>
      </trkpt>
      <trkpt lat="47.53117" lon="-0.11905">
        <ele>50</ele>
        <time>2013-04-21T10:56:21.001Z</time>
      </trkpt>
      <trkpt lat="47.53114" lon="-0.11901">
        <ele>50</ele>
        <time>2013-04-21T10:56:24.001Z</time>
      </trkpt>
      <trkpt lat="47.53113" lon="-0.11899">
        <ele>50</ele>
        <time>2013-04-21T10:56:25.001Z</time>
      </trkpt>
      <trkpt lat="47.53111" lon="-0.11894">
        <ele>50</ele>
        <time>2013-04-21T10:56:28.001Z</time>
      </trkpt>
      <trkpt lat="47.53109" lon="-0.11893">
        <ele>49</ele>
        <time>2013-04-21T10:56:29.001Z</time>
      </trkpt>
      <trkpt lat="47.53107" lon="-0.1189">
        <ele>49</ele>
        <time>2013-04-21T10:56:31.001Z</time>
      </trkpt>
      <trkpt lat="47.53105" lon="-0.11889">
        <ele>49</ele>
        <time>2013-04-21T10:56:32.001Z</time>
      </trkpt>
      <trkpt lat="47.53102" lon="-0.11885">
        <ele>49</ele>
        <time>2013-04-21T10:56:37.001Z</time>
      </trkpt>
      <trkpt lat="47.53101" lon="-0.11883">
        <ele>49</ele>
        <time>2013-04-21T10:56:38.000Z</time>
      </trkpt>
      <trkpt lat="47.53099" lon="-0.11879">
        <ele>49</ele>
        <time>2013-04-21T10:56:40.000Z</time>
      </trkpt>
      <trkpt lat="47.53098" lon="-0.11877">
        <ele>49</ele>
        <time>2013-04-21T10:56:41.000Z</time>
      </trkpt>
      <trkpt lat="47.53096" lon="-0.11872">
        <ele>48</ele>
        <time>2013-04-21T10:56:46.000Z</time>
      </trkpt>
      <trkpt lat="47.53095" lon="-0.1187">
        <ele>48</ele>
        <time>2013-04-21T10:56:47.000Z</time>
      </trkpt>
      <trkpt lat="47.53093" lon="-0.11865">
        <ele>48</ele>
        <time>2013-04-21T10:56:51.000Z</time>
      </trkpt>
      <trkpt lat="47.53092" lon="-0.11864">
        <ele>48</ele>
        <time>2013-04-21T10:56:52.000Z</time>
      </trkpt>
      <trkpt lat="47.53091" lon="-0.1186">
        <ele>48</ele>
        <time>2013-04-21T10:56:54.000Z</time>
      </trkpt>
      <trkpt lat="47.53091" lon="-0.11857">
        <ele>47</ele>
        <time>2013-04-21T10:56:55.000Z</time>
      </trkpt>
      <trkpt lat="47.53089" lon="-0.11851">
        <ele>47</ele>
        <time>2013-04-21T10:57:02.000Z</time>
      </trkpt>
      <trkpt lat="47.53088" lon="-0.1185">
        <ele>47</ele>
        <time>2013-04-21T10:57:03.000Z</time>
      </trkpt>
      <trkpt lat="47.53086" lon="-0.11845">
        <ele>46</ele>
        <time>2013-04-21T10:57:06.000Z</time>
      </trkpt>
      <trkpt lat="47.53085" lon="-0.11843">
        <ele>46</ele>
        <time>2013-04-21T10:57:07.000Z</time>
      </trkpt>
      <trkpt lat="47.53083" lon="-0.11839">
        <ele>44</ele>
        <time>2013-04-21T10:57:09.000Z</time>
      </trkpt>
      <trkpt lat="47.53082" lon="-0.11837">
        <ele>44</ele>
        <time>2013-04-21T10:57:10.000Z</time>
      </trkpt>
      <trkpt lat="47.5308" lon="-0.11833">
        <ele>44</ele>
        <time>2013-04-21T10:57:14.000Z</time>
      </trkpt>
      <trkpt lat="47.53079" lon="-0.11831">
        <ele>44</ele>
        <time>2013-04-21T10:57:15.000Z</time>
      </trkpt>
      <trkpt lat="47.53076" lon="-0.11828">
        <ele>44</ele>
        <time>2013-04-21T10:57:18.000Z</time>
      </trkpt>
      <trkpt lat="47.53076" lon="-0.11827">
        <ele>44</ele>
        <time>2013-04-21T10:57:19.000Z</time>
      </trkpt>
      <trkpt lat="47.53074" lon="-0.11821">
        <ele>43</ele>
        <time>2013-04-21T10:57:22.000Z</time>
      </trkpt>
      <trkpt lat="47.53074" lon="-0.1182">
        <ele>43</ele>
        <time>2013-04-21T10:57:23.000Z</time>
      </trkpt>
      <trkpt lat="47.53071" lon="-0.11816">
        <ele>43</ele>
        <time>2013-04-21T10:57:26.000Z</time>
      </trkpt>
      <trkpt lat="47.5307" lon="-0.11814">
        <ele>43</ele>
        <time>2013-04-21T10:57:27.000Z</time>
      </trkpt>
      <trkpt lat="47.53068" lon="-0.1181">
        <ele>43</ele>
        <time>2013-04-21T10:57:29.000Z</time>
      </trkpt>
      <trkpt lat="47.53067" lon="-0.11809">
        <ele>43</ele>
        <time>2013-04-21T10:57:30.000Z</time>
      </trkpt>
      <trkpt lat="47.53066" lon="-0.11803">
        <ele>43</ele>
        <time>2013-04-21T10:57:34.000Z</time>
      </trkpt>
      <trkpt lat="47.53065" lon="-0.11802">
        <ele>43</ele>
        <time>2013-04-21T10:57:35.000Z</time>
      </trkpt>
      <trkpt lat="47.53063" lon="-0.11796">
        <ele>43</ele>
        <time>2013-04-21T10:57:38.000Z</time>
      </trkpt>
      <trkpt lat="47.53063" lon="-0.11795">
        <ele>43</ele>
        <time>2013-04-21T10:57:39.000Z</time>
      </trkpt>
      <trkpt lat="47.53061" lon="-0.11791">
        <ele>43</ele>
        <time>2013-04-21T10:57:41.000Z</time>
      </trkpt>
      <trkpt lat="47.5306" lon="-0.11788">
        <ele>43</ele>
        <time>2013-04-21T10:57:42.000Z</time>
      </trkpt>
      <trkpt lat="47.53057" lon="-0.11783">
        <ele>43</ele>
        <time>2013-04-21T10:57:46.000Z</time>
      </trkpt>
      <trkpt lat="47.53057" lon="-0.11782">
        <ele>43</ele>
        <time>2013-04-21T10:57:47.000Z</time>
      </trkpt>
      <trkpt lat="47.53054" lon="-0.11777">
        <ele>43</ele>
        <time>2013-04-21T10:57:52.000Z</time>
      </trkpt>
      <trkpt lat="47.53054" lon="-0.11776">
        <ele>43</ele>
        <time>2013-04-21T10:57:53.000Z</time>
      </trkpt>
      <trkpt lat="47.53052" lon="-0.1177">
        <ele>43</ele>
        <time>2013-04-21T10:57:56.000Z</time>
      </trkpt>
      <trkpt lat="47.53051" lon="-0.11768">
        <ele>43</ele>
        <time>2013-04-21T10:57:57.000Z</time>
      </trkpt>
      <trkpt lat="47.5305" lon="-0.11765">
        <ele>43</ele>
        <time>2013-04-21T10:57:59.000Z</time>
      </trkpt>
      <trkpt lat="47.53048" lon="-0.11763">
        <ele>43</ele>
        <time>2013-04-21T10:58:00.000Z</time>
      </trkpt>
      <trkpt lat="47.53046" lon="-0.11758">
        <ele>43</ele>
        <time>2013-04-21T10:58:04.000Z</time>
      </trkpt>
      <trkpt lat="47.53046" lon="-0.11757">
        <ele>43</ele>
        <time>2013-04-21T10:58:05.000Z</time>
      </trkpt>
      <trkpt lat="47.53045" lon="-0.11752">
        <ele>43</ele>
        <time>2013-04-21T10:58:07.000Z</time>
      </trkpt>
      <trkpt lat="47.53045" lon="-0.11749">
        <ele>42</ele>
        <time>2013-04-21T10:58:08.000Z</time>
      </trkpt>
      <trkpt lat="47.53043" lon="-0.11744">
        <ele>42</ele>
        <time>2013-04-21T10:58:12.000Z</time>
      </trkpt>
      <trkpt lat="47.53042" lon="-0.11743">
        <ele>42</ele>
        <time>2013-04-21T10:58:13.000Z</time>
      </trkpt>
      <trkpt lat="47.5304" lon="-0.11739">
        <ele>42</ele>
        <time>2013-04-21T10:58:15.000Z</time>
      </trkpt>
      <trkpt lat="47.53039" lon="-0.11737">
        <ele>42</ele>
        <time>2013-04-21T10:58:16.000Z</time>
      </trkpt>
      <trkpt lat="47.53037" lon="-0.11731">
        <ele>42</ele>
        <time>2013-04-21T10:58:21.000Z</time>
      </trkpt>
      <trkpt lat="47.53036" lon="-0.1173">
        <ele>42</ele>
        <time>2013-04-21T10:58:22.000Z</time>
      </trkpt>
      <trkpt lat="47.53034" lon="-0.11726">
        <ele>42</ele>
        <time>2013-04-21T10:58:25.000Z</time>
      </trkpt>
      <trkpt lat="47.53033" lon="-0.11724">
        <ele>42</ele>
        <time>2013-04-21T10:58:26.000Z</time>
      </trkpt>
      <trkpt lat="47.53033" lon="-0.1172">
        <ele>42</ele>
        <time>2013-04-21T10:58:28.000Z</time>
      </trkpt>
      <trkpt lat="47.53032" lon="-0.11717">
        <ele>42</ele>
        <time>2013-04-21T10:58:29.000Z</time>
      </trkpt>
      <trkpt lat="47.5303" lon="-0.11711">
        <ele>42</ele>
        <time>2013-04-21T10:58:33.000Z</time>
      </trkpt>
      <trkpt lat="47.53029" lon="-0.1171">
        <ele>42</ele>
        <time>2013-04-21T10:58:34.000Z</time>
      </trkpt>
      <trkpt lat="47.53027" lon="-0.11707">
        <ele>42</ele>
        <time>2013-04-21T10:58:38.000Z</time>
      </trkpt>
      <trkpt lat="47.53027" lon="-0.11704">
        <ele>42</ele>
        <time>2013-04-21T10:58:39.000Z</time>
      </trkpt>
      <trkpt lat="47.53024" lon="-0.117">
        <ele>42</ele>
        <time>2013-04-21T10:58:43.000Z</time>
      </trkpt>
      <trkpt lat="47.53024" lon="-0.11698">
        <ele>42</ele>
        <time>2013-04-21T10:58:44.000Z</time>
      </trkpt>
      <trkpt lat="47.53021" lon="-0.11693">
        <ele>42</ele>
        <time>2013-04-21T10:58:47.000Z</time>
      </trkpt>
      <trkpt lat="47.53021" lon="-0.11692">
        <ele>42</ele>
        <time>2013-04-21T10:58:48.000Z</time>
      </trkpt>
      <trkpt lat="47.53019" lon="-0.11688">
        <ele>42</ele>
        <time>2013-04-21T10:58:50.000Z</time>
      </trkpt>
      <trkpt lat="47.53019" lon="-0.11686">
        <ele>42</ele>
        <time>2013-04-21T10:58:51.000Z</time>
      </trkpt>
      <trkpt lat="47.53018" lon="-0.1168">
        <ele>43</ele>
        <time>2013-04-21T10:58:54.000Z</time>
      </trkpt>
      <trkpt lat="47.53018" lon="-0.11678">
        <ele>43</ele>
        <time>2013-04-21T10:58:55.000Z</time>
      </trkpt>
      <trkpt lat="47.53018" lon="-0.11672">
        <ele>43</ele>
        <time>2013-04-21T10:58:58.000Z</time>
      </trkpt>
      <trkpt lat="47.53018" lon="-0.1167">
        <ele>43</ele>
        <time>2013-04-21T10:58:59.000Z</time>
      </trkpt>
      <trkpt lat="47.53016" lon="-0.11666">
        <ele>42</ele>
        <time>2013-04-21T10:59:02.000Z</time>
      </trkpt>
      <trkpt lat="47.53015" lon="-0.11664">
        <ele>42</ele>
        <time>2013-04-21T10:59:03.000Z</time>
      </trkpt>
      <trkpt lat="47.53011" lon="-0.1166">
        <ele>42</ele>
        <time>2013-04-21T10:59:08.000Z</time>
      </trkpt>
      <trkpt lat="47.53011" lon="-0.11659">
        <ele>42</ele>
        <time>2013-04-21T10:59:09.000Z</time>
      </trkpt>
      <trkpt lat="47.53007" lon="-0.11655">
        <ele>42</ele>
        <time>2013-04-21T10:59:11.000Z</time>
      </trkpt>
      <trkpt lat="47.53006" lon="-0.11653">
        <ele>42</ele>
        <time>2013-04-21T10:59:12.000Z</time>
      </trkpt>
      <trkpt lat="47.53004" lon="-0.11648">
        <ele>42</ele>
        <time>2013-04-21T10:59:16.000Z</time>
      </trkpt>
      <trkpt lat="47.53004" lon="-0.11647">
        <ele>42</ele>
        <time>2013-04-21T10:59:17.000Z</time>
      </trkpt>
      <trkpt lat="47.53002" lon="-0.11643">
        <ele>42</ele>
        <time>2013-04-21T10:59:26.000Z</time>
      </trkpt>
    </trkseg>
  </trk>
</gpx>